<?xml version="1.0" encoding="UTF-8" standalone="no" ?>
<gpx xmlns="http://www.topografix.com/GPX/1/1" xmlns:xsi="http://www.w3.org/2001/XMLSchema-instance" xsi:schemaLocation="http://www.topografix.com/GPX/1/1 http://www.topografix.com/GPX/1/1/gpx.xsd" version="1.1" creator="VisuGPX - https://www.visugpx.com">
  <metadata>
    <name>Sortie free VTT44.com</name>
    <desc><![CDATA[plus d\'infos sur vtt44.com]]></desc>
  </metadata>
  <trk>
    <name><![CDATA[2013-12-30 13:11:36]]></name>
    <trkseg>
      <trkpt lat="47.68577" lon="-2.21717">
        <ele>59.74</ele>
        <time>2013-12-30T08:33:44Z</time>
      </trkpt>
      <trkpt lat="47.68579" lon="-2.21716">
        <ele>61.18</ele>
        <time>2013-12-30T08:34:14Z</time>
      </trkpt>
      <trkpt lat="47.6858" lon="-2.21717">
        <ele>62.62</ele>
        <time>2013-12-30T08:36:36Z</time>
      </trkpt>
      <trkpt lat="47.68592" lon="-2.21712">
        <ele>62.14</ele>
        <time>2013-12-30T08:36:40Z</time>
      </trkpt>
      <trkpt lat="47.68602" lon="-2.2171">
        <ele>61.66</ele>
        <time>2013-12-30T08:36:43Z</time>
      </trkpt>
      <trkpt lat="47.68611" lon="-2.21708">
        <ele>61.66</ele>
        <time>2013-12-30T08:36:46Z</time>
      </trkpt>
      <trkpt lat="47.68624" lon="-2.21706">
        <ele>61.66</ele>
        <time>2013-12-30T08:36:50Z</time>
      </trkpt>
      <trkpt lat="47.68635" lon="-2.21706">
        <ele>61.18</ele>
        <time>2013-12-30T08:36:53Z</time>
      </trkpt>
      <trkpt lat="47.68647" lon="-2.21706">
        <ele>60.7</ele>
        <time>2013-12-30T08:36:56Z</time>
      </trkpt>
      <trkpt lat="47.6866" lon="-2.21705">
        <ele>60.22</ele>
        <time>2013-12-30T08:36:59Z</time>
      </trkpt>
      <trkpt lat="47.68669" lon="-2.21705">
        <ele>60.22</ele>
        <time>2013-12-30T08:37:01Z</time>
      </trkpt>
      <trkpt lat="47.68678" lon="-2.21705">
        <ele>60.22</ele>
        <time>2013-12-30T08:37:03Z</time>
      </trkpt>
      <trkpt lat="47.68687" lon="-2.21704">
        <ele>59.74</ele>
        <time>2013-12-30T08:37:05Z</time>
      </trkpt>
      <trkpt lat="47.68699" lon="-2.21704">
        <ele>60.22</ele>
        <time>2013-12-30T08:37:08Z</time>
      </trkpt>
      <trkpt lat="47.68711" lon="-2.21704">
        <ele>60.22</ele>
        <time>2013-12-30T08:37:11Z</time>
      </trkpt>
      <trkpt lat="47.68723" lon="-2.21703">
        <ele>60.22</ele>
        <time>2013-12-30T08:37:14Z</time>
      </trkpt>
      <trkpt lat="47.68735" lon="-2.21703">
        <ele>59.74</ele>
        <time>2013-12-30T08:37:17Z</time>
      </trkpt>
      <trkpt lat="47.68747" lon="-2.21703">
        <ele>59.74</ele>
        <time>2013-12-30T08:37:20Z</time>
      </trkpt>
      <trkpt lat="47.68758" lon="-2.21699">
        <ele>59.74</ele>
        <time>2013-12-30T08:37:23Z</time>
      </trkpt>
      <trkpt lat="47.68763" lon="-2.21686">
        <ele>59.26</ele>
        <time>2013-12-30T08:37:26Z</time>
      </trkpt>
      <trkpt lat="47.68761" lon="-2.21669">
        <ele>59.26</ele>
        <time>2013-12-30T08:37:29Z</time>
      </trkpt>
      <trkpt lat="47.68761" lon="-2.21654">
        <ele>59.26</ele>
        <time>2013-12-30T08:37:32Z</time>
      </trkpt>
      <trkpt lat="47.68768" lon="-2.21649">
        <ele>59.26</ele>
        <time>2013-12-30T08:37:35Z</time>
      </trkpt>
      <trkpt lat="47.68779" lon="-2.21657">
        <ele>59.26</ele>
        <time>2013-12-30T08:37:38Z</time>
      </trkpt>
      <trkpt lat="47.68787" lon="-2.21665">
        <ele>59.26</ele>
        <time>2013-12-30T08:37:40Z</time>
      </trkpt>
      <trkpt lat="47.68796" lon="-2.21674">
        <ele>59.26</ele>
        <time>2013-12-30T08:37:42Z</time>
      </trkpt>
      <trkpt lat="47.68804" lon="-2.21683">
        <ele>59.26</ele>
        <time>2013-12-30T08:37:44Z</time>
      </trkpt>
      <trkpt lat="47.68813" lon="-2.21692">
        <ele>58.78</ele>
        <time>2013-12-30T08:37:46Z</time>
      </trkpt>
      <trkpt lat="47.68822" lon="-2.21702">
        <ele>58.78</ele>
        <time>2013-12-30T08:37:48Z</time>
      </trkpt>
      <trkpt lat="47.68832" lon="-2.21711">
        <ele>58.78</ele>
        <time>2013-12-30T08:37:50Z</time>
      </trkpt>
      <trkpt lat="47.68841" lon="-2.21721">
        <ele>58.78</ele>
        <time>2013-12-30T08:37:52Z</time>
      </trkpt>
      <trkpt lat="47.6885" lon="-2.21731">
        <ele>58.3</ele>
        <time>2013-12-30T08:37:54Z</time>
      </trkpt>
      <trkpt lat="47.6886" lon="-2.21741">
        <ele>57.82</ele>
        <time>2013-12-30T08:37:56Z</time>
      </trkpt>
      <trkpt lat="47.68871" lon="-2.21752">
        <ele>57.82</ele>
        <time>2013-12-30T08:37:58Z</time>
      </trkpt>
      <trkpt lat="47.68881" lon="-2.21763">
        <ele>57.34</ele>
        <time>2013-12-30T08:38:00Z</time>
      </trkpt>
      <trkpt lat="47.68892" lon="-2.21775">
        <ele>57.34</ele>
        <time>2013-12-30T08:38:02Z</time>
      </trkpt>
      <trkpt lat="47.68903" lon="-2.21787">
        <ele>56.86</ele>
        <time>2013-12-30T08:38:04Z</time>
      </trkpt>
      <trkpt lat="47.68914" lon="-2.21799">
        <ele>56.37</ele>
        <time>2013-12-30T08:38:06Z</time>
      </trkpt>
      <trkpt lat="47.68924" lon="-2.21812">
        <ele>55.89</ele>
        <time>2013-12-30T08:38:08Z</time>
      </trkpt>
      <trkpt lat="47.68935" lon="-2.21824">
        <ele>55.41</ele>
        <time>2013-12-30T08:38:10Z</time>
      </trkpt>
      <trkpt lat="47.68946" lon="-2.21837">
        <ele>55.41</ele>
        <time>2013-12-30T08:38:12Z</time>
      </trkpt>
      <trkpt lat="47.68956" lon="-2.21849">
        <ele>54.93</ele>
        <time>2013-12-30T08:38:14Z</time>
      </trkpt>
      <trkpt lat="47.68965" lon="-2.2186">
        <ele>54.45</ele>
        <time>2013-12-30T08:38:16Z</time>
      </trkpt>
      <trkpt lat="47.68974" lon="-2.2187">
        <ele>53.97</ele>
        <time>2013-12-30T08:38:18Z</time>
      </trkpt>
      <trkpt lat="47.68983" lon="-2.21881">
        <ele>53.49</ele>
        <time>2013-12-30T08:38:20Z</time>
      </trkpt>
      <trkpt lat="47.68993" lon="-2.21891">
        <ele>53.49</ele>
        <time>2013-12-30T08:38:22Z</time>
      </trkpt>
      <trkpt lat="47.69004" lon="-2.21898">
        <ele>53.49</ele>
        <time>2013-12-30T08:38:24Z</time>
      </trkpt>
      <trkpt lat="47.69015" lon="-2.21903">
        <ele>53.49</ele>
        <time>2013-12-30T08:38:26Z</time>
      </trkpt>
      <trkpt lat="47.69026" lon="-2.2191">
        <ele>53.49</ele>
        <time>2013-12-30T08:38:28Z</time>
      </trkpt>
      <trkpt lat="47.69036" lon="-2.21916">
        <ele>53.49</ele>
        <time>2013-12-30T08:38:30Z</time>
      </trkpt>
      <trkpt lat="47.69046" lon="-2.21921">
        <ele>53.97</ele>
        <time>2013-12-30T08:38:32Z</time>
      </trkpt>
      <trkpt lat="47.69056" lon="-2.21925">
        <ele>54.45</ele>
        <time>2013-12-30T08:38:34Z</time>
      </trkpt>
      <trkpt lat="47.69065" lon="-2.2193">
        <ele>54.93</ele>
        <time>2013-12-30T08:38:36Z</time>
      </trkpt>
      <trkpt lat="47.69074" lon="-2.21934">
        <ele>54.93</ele>
        <time>2013-12-30T08:38:38Z</time>
      </trkpt>
      <trkpt lat="47.69083" lon="-2.21938">
        <ele>55.89</ele>
        <time>2013-12-30T08:38:40Z</time>
      </trkpt>
      <trkpt lat="47.69093" lon="-2.21943">
        <ele>55.89</ele>
        <time>2013-12-30T08:38:42Z</time>
      </trkpt>
      <trkpt lat="47.69103" lon="-2.21947">
        <ele>56.37</ele>
        <time>2013-12-30T08:38:44Z</time>
      </trkpt>
      <trkpt lat="47.69112" lon="-2.21952">
        <ele>56.86</ele>
        <time>2013-12-30T08:38:46Z</time>
      </trkpt>
      <trkpt lat="47.69122" lon="-2.21957">
        <ele>57.34</ele>
        <time>2013-12-30T08:38:48Z</time>
      </trkpt>
      <trkpt lat="47.69132" lon="-2.21962">
        <ele>57.82</ele>
        <time>2013-12-30T08:38:50Z</time>
      </trkpt>
      <trkpt lat="47.6914" lon="-2.21966">
        <ele>58.3</ele>
        <time>2013-12-30T08:38:52Z</time>
      </trkpt>
      <trkpt lat="47.69153" lon="-2.21972">
        <ele>58.78</ele>
        <time>2013-12-30T08:38:55Z</time>
      </trkpt>
      <trkpt lat="47.69162" lon="-2.21977">
        <ele>58.78</ele>
        <time>2013-12-30T08:38:57Z</time>
      </trkpt>
      <trkpt lat="47.6917" lon="-2.21981">
        <ele>59.26</ele>
        <time>2013-12-30T08:38:59Z</time>
      </trkpt>
      <trkpt lat="47.69181" lon="-2.21987">
        <ele>60.22</ele>
        <time>2013-12-30T08:39:02Z</time>
      </trkpt>
      <trkpt lat="47.69194" lon="-2.21993">
        <ele>60.7</ele>
        <time>2013-12-30T08:39:05Z</time>
      </trkpt>
      <trkpt lat="47.69202" lon="-2.21997">
        <ele>61.18</ele>
        <time>2013-12-30T08:39:07Z</time>
      </trkpt>
      <trkpt lat="47.69215" lon="-2.22003">
        <ele>62.14</ele>
        <time>2013-12-30T08:39:10Z</time>
      </trkpt>
      <trkpt lat="47.69227" lon="-2.22009">
        <ele>63.1</ele>
        <time>2013-12-30T08:39:13Z</time>
      </trkpt>
      <trkpt lat="47.69239" lon="-2.22019">
        <ele>63.58</ele>
        <time>2013-12-30T08:39:16Z</time>
      </trkpt>
      <trkpt lat="47.69245" lon="-2.22028">
        <ele>63.58</ele>
        <time>2013-12-30T08:39:18Z</time>
      </trkpt>
      <trkpt lat="47.69255" lon="-2.22044">
        <ele>63.58</ele>
        <time>2013-12-30T08:39:21Z</time>
      </trkpt>
      <trkpt lat="47.69261" lon="-2.22055">
        <ele>63.58</ele>
        <time>2013-12-30T08:39:23Z</time>
      </trkpt>
      <trkpt lat="47.69266" lon="-2.22067">
        <ele>63.58</ele>
        <time>2013-12-30T08:39:25Z</time>
      </trkpt>
      <trkpt lat="47.69272" lon="-2.22079">
        <ele>63.58</ele>
        <time>2013-12-30T08:39:27Z</time>
      </trkpt>
      <trkpt lat="47.69278" lon="-2.22091">
        <ele>64.07</ele>
        <time>2013-12-30T08:39:29Z</time>
      </trkpt>
      <trkpt lat="47.69284" lon="-2.22102">
        <ele>64.07</ele>
        <time>2013-12-30T08:39:31Z</time>
      </trkpt>
      <trkpt lat="47.6929" lon="-2.22113">
        <ele>64.07</ele>
        <time>2013-12-30T08:39:33Z</time>
      </trkpt>
      <trkpt lat="47.69296" lon="-2.22125">
        <ele>64.07</ele>
        <time>2013-12-30T08:39:35Z</time>
      </trkpt>
      <trkpt lat="47.69303" lon="-2.2214">
        <ele>65.03</ele>
        <time>2013-12-30T08:39:38Z</time>
      </trkpt>
      <trkpt lat="47.69312" lon="-2.22157">
        <ele>65.99</ele>
        <time>2013-12-30T08:39:41Z</time>
      </trkpt>
      <trkpt lat="47.69317" lon="-2.22169">
        <ele>66.47</ele>
        <time>2013-12-30T08:39:43Z</time>
      </trkpt>
      <trkpt lat="47.69323" lon="-2.22181">
        <ele>66.95</ele>
        <time>2013-12-30T08:39:45Z</time>
      </trkpt>
      <trkpt lat="47.69328" lon="-2.22192">
        <ele>67.91</ele>
        <time>2013-12-30T08:39:47Z</time>
      </trkpt>
      <trkpt lat="47.69333" lon="-2.22205">
        <ele>68.39</ele>
        <time>2013-12-30T08:39:49Z</time>
      </trkpt>
      <trkpt lat="47.69338" lon="-2.22218">
        <ele>68.87</ele>
        <time>2013-12-30T08:39:51Z</time>
      </trkpt>
      <trkpt lat="47.69343" lon="-2.22232">
        <ele>68.87</ele>
        <time>2013-12-30T08:39:53Z</time>
      </trkpt>
      <trkpt lat="47.69347" lon="-2.22245">
        <ele>69.35</ele>
        <time>2013-12-30T08:39:55Z</time>
      </trkpt>
      <trkpt lat="47.69352" lon="-2.22262">
        <ele>69.83</ele>
        <time>2013-12-30T08:39:58Z</time>
      </trkpt>
      <trkpt lat="47.69356" lon="-2.2228">
        <ele>70.79</ele>
        <time>2013-12-30T08:40:01Z</time>
      </trkpt>
      <trkpt lat="47.6936" lon="-2.22299">
        <ele>70.79</ele>
        <time>2013-12-30T08:40:04Z</time>
      </trkpt>
      <trkpt lat="47.69363" lon="-2.22316">
        <ele>70.79</ele>
        <time>2013-12-30T08:40:07Z</time>
      </trkpt>
      <trkpt lat="47.69367" lon="-2.22335">
        <ele>70.79</ele>
        <time>2013-12-30T08:40:10Z</time>
      </trkpt>
      <trkpt lat="47.69371" lon="-2.22354">
        <ele>71.27</ele>
        <time>2013-12-30T08:40:13Z</time>
      </trkpt>
      <trkpt lat="47.69374" lon="-2.22373">
        <ele>71.76</ele>
        <time>2013-12-30T08:40:16Z</time>
      </trkpt>
      <trkpt lat="47.69378" lon="-2.22393">
        <ele>71.27</ele>
        <time>2013-12-30T08:40:19Z</time>
      </trkpt>
      <trkpt lat="47.6938" lon="-2.22407">
        <ele>71.27</ele>
        <time>2013-12-30T08:40:21Z</time>
      </trkpt>
      <trkpt lat="47.69381" lon="-2.22427">
        <ele>70.79</ele>
        <time>2013-12-30T08:40:24Z</time>
      </trkpt>
      <trkpt lat="47.69382" lon="-2.22441">
        <ele>70.31</ele>
        <time>2013-12-30T08:40:26Z</time>
      </trkpt>
      <trkpt lat="47.69382" lon="-2.22456">
        <ele>69.83</ele>
        <time>2013-12-30T08:40:28Z</time>
      </trkpt>
      <trkpt lat="47.69381" lon="-2.2247">
        <ele>69.83</ele>
        <time>2013-12-30T08:40:30Z</time>
      </trkpt>
      <trkpt lat="47.69381" lon="-2.22485">
        <ele>69.83</ele>
        <time>2013-12-30T08:40:32Z</time>
      </trkpt>
      <trkpt lat="47.69381" lon="-2.22499">
        <ele>69.35</ele>
        <time>2013-12-30T08:40:34Z</time>
      </trkpt>
      <trkpt lat="47.6938" lon="-2.22514">
        <ele>69.35</ele>
        <time>2013-12-30T08:40:36Z</time>
      </trkpt>
      <trkpt lat="47.6938" lon="-2.22529">
        <ele>69.35</ele>
        <time>2013-12-30T08:40:38Z</time>
      </trkpt>
      <trkpt lat="47.69381" lon="-2.22544">
        <ele>69.35</ele>
        <time>2013-12-30T08:40:40Z</time>
      </trkpt>
      <trkpt lat="47.69383" lon="-2.22558">
        <ele>69.35</ele>
        <time>2013-12-30T08:40:42Z</time>
      </trkpt>
      <trkpt lat="47.69386" lon="-2.22578">
        <ele>68.87</ele>
        <time>2013-12-30T08:40:45Z</time>
      </trkpt>
      <trkpt lat="47.69392" lon="-2.22595">
        <ele>68.39</ele>
        <time>2013-12-30T08:40:48Z</time>
      </trkpt>
      <trkpt lat="47.69397" lon="-2.22607">
        <ele>68.39</ele>
        <time>2013-12-30T08:40:50Z</time>
      </trkpt>
      <trkpt lat="47.69403" lon="-2.22619">
        <ele>67.91</ele>
        <time>2013-12-30T08:40:52Z</time>
      </trkpt>
      <trkpt lat="47.69408" lon="-2.22631">
        <ele>68.39</ele>
        <time>2013-12-30T08:40:54Z</time>
      </trkpt>
      <trkpt lat="47.69413" lon="-2.22644">
        <ele>68.39</ele>
        <time>2013-12-30T08:40:56Z</time>
      </trkpt>
      <trkpt lat="47.69418" lon="-2.22656">
        <ele>68.39</ele>
        <time>2013-12-30T08:40:58Z</time>
      </trkpt>
      <trkpt lat="47.69423" lon="-2.22669">
        <ele>67.91</ele>
        <time>2013-12-30T08:41:00Z</time>
      </trkpt>
      <trkpt lat="47.69428" lon="-2.22682">
        <ele>67.91</ele>
        <time>2013-12-30T08:41:02Z</time>
      </trkpt>
      <trkpt lat="47.69434" lon="-2.22695">
        <ele>67.43</ele>
        <time>2013-12-30T08:41:05Z</time>
      </trkpt>
      <trkpt lat="47.69439" lon="-2.22707">
        <ele>66.95</ele>
        <time>2013-12-30T08:41:10Z</time>
      </trkpt>
      <trkpt lat="47.69433" lon="-2.22698">
        <ele>67.43</ele>
        <time>2013-12-30T08:41:15Z</time>
      </trkpt>
      <trkpt lat="47.69428" lon="-2.22685">
        <ele>67.91</ele>
        <time>2013-12-30T08:41:18Z</time>
      </trkpt>
      <trkpt lat="47.69423" lon="-2.22672">
        <ele>67.91</ele>
        <time>2013-12-30T08:41:21Z</time>
      </trkpt>
      <trkpt lat="47.69418" lon="-2.2266">
        <ele>67.91</ele>
        <time>2013-12-30T08:41:24Z</time>
      </trkpt>
      <trkpt lat="47.69413" lon="-2.22665">
        <ele>68.39</ele>
        <time>2013-12-30T08:41:28Z</time>
      </trkpt>
      <trkpt lat="47.69414" lon="-2.22681">
        <ele>68.87</ele>
        <time>2013-12-30T08:41:31Z</time>
      </trkpt>
      <trkpt lat="47.69416" lon="-2.227">
        <ele>69.35</ele>
        <time>2013-12-30T08:41:34Z</time>
      </trkpt>
      <trkpt lat="47.69416" lon="-2.22714">
        <ele>69.35</ele>
        <time>2013-12-30T08:41:36Z</time>
      </trkpt>
      <trkpt lat="47.69417" lon="-2.22728">
        <ele>69.35</ele>
        <time>2013-12-30T08:41:38Z</time>
      </trkpt>
      <trkpt lat="47.69417" lon="-2.22748">
        <ele>69.83</ele>
        <time>2013-12-30T08:41:41Z</time>
      </trkpt>
      <trkpt lat="47.69418" lon="-2.22767">
        <ele>70.31</ele>
        <time>2013-12-30T08:41:44Z</time>
      </trkpt>
      <trkpt lat="47.69419" lon="-2.2278">
        <ele>70.31</ele>
        <time>2013-12-30T08:41:46Z</time>
      </trkpt>
      <trkpt lat="47.69421" lon="-2.22801">
        <ele>70.79</ele>
        <time>2013-12-30T08:41:49Z</time>
      </trkpt>
      <trkpt lat="47.69422" lon="-2.22814">
        <ele>70.79</ele>
        <time>2013-12-30T08:41:51Z</time>
      </trkpt>
      <trkpt lat="47.69423" lon="-2.22829">
        <ele>71.27</ele>
        <time>2013-12-30T08:41:53Z</time>
      </trkpt>
      <trkpt lat="47.69426" lon="-2.22842">
        <ele>71.27</ele>
        <time>2013-12-30T08:41:55Z</time>
      </trkpt>
      <trkpt lat="47.69429" lon="-2.22856">
        <ele>70.79</ele>
        <time>2013-12-30T08:41:57Z</time>
      </trkpt>
      <trkpt lat="47.69433" lon="-2.2287">
        <ele>70.79</ele>
        <time>2013-12-30T08:41:59Z</time>
      </trkpt>
      <trkpt lat="47.69436" lon="-2.22884">
        <ele>70.79</ele>
        <time>2013-12-30T08:42:01Z</time>
      </trkpt>
      <trkpt lat="47.6944" lon="-2.22899">
        <ele>70.31</ele>
        <time>2013-12-30T08:42:03Z</time>
      </trkpt>
      <trkpt lat="47.69442" lon="-2.22914">
        <ele>70.79</ele>
        <time>2013-12-30T08:42:05Z</time>
      </trkpt>
      <trkpt lat="47.69444" lon="-2.22929">
        <ele>71.27</ele>
        <time>2013-12-30T08:42:07Z</time>
      </trkpt>
      <trkpt lat="47.69446" lon="-2.22943">
        <ele>71.27</ele>
        <time>2013-12-30T08:42:09Z</time>
      </trkpt>
      <trkpt lat="47.69447" lon="-2.22957">
        <ele>71.27</ele>
        <time>2013-12-30T08:42:11Z</time>
      </trkpt>
      <trkpt lat="47.69451" lon="-2.22975">
        <ele>71.27</ele>
        <time>2013-12-30T08:42:14Z</time>
      </trkpt>
      <trkpt lat="47.69455" lon="-2.22988">
        <ele>71.27</ele>
        <time>2013-12-30T08:42:16Z</time>
      </trkpt>
      <trkpt lat="47.69457" lon="-2.23003">
        <ele>70.79</ele>
        <time>2013-12-30T08:42:18Z</time>
      </trkpt>
      <trkpt lat="47.69459" lon="-2.23019">
        <ele>70.79</ele>
        <time>2013-12-30T08:42:20Z</time>
      </trkpt>
      <trkpt lat="47.69461" lon="-2.23036">
        <ele>70.79</ele>
        <time>2013-12-30T08:42:22Z</time>
      </trkpt>
      <trkpt lat="47.69463" lon="-2.23053">
        <ele>70.31</ele>
        <time>2013-12-30T08:42:24Z</time>
      </trkpt>
      <trkpt lat="47.69468" lon="-2.2307">
        <ele>69.83</ele>
        <time>2013-12-30T08:42:26Z</time>
      </trkpt>
      <trkpt lat="47.69473" lon="-2.23088">
        <ele>69.35</ele>
        <time>2013-12-30T08:42:28Z</time>
      </trkpt>
      <trkpt lat="47.69475" lon="-2.23107">
        <ele>68.87</ele>
        <time>2013-12-30T08:42:30Z</time>
      </trkpt>
      <trkpt lat="47.69474" lon="-2.23125">
        <ele>68.39</ele>
        <time>2013-12-30T08:42:32Z</time>
      </trkpt>
      <trkpt lat="47.69474" lon="-2.23142">
        <ele>68.39</ele>
        <time>2013-12-30T08:42:34Z</time>
      </trkpt>
      <trkpt lat="47.69474" lon="-2.2316">
        <ele>68.39</ele>
        <time>2013-12-30T08:42:36Z</time>
      </trkpt>
      <trkpt lat="47.69474" lon="-2.23178">
        <ele>68.39</ele>
        <time>2013-12-30T08:42:38Z</time>
      </trkpt>
      <trkpt lat="47.69474" lon="-2.23194">
        <ele>68.39</ele>
        <time>2013-12-30T08:42:40Z</time>
      </trkpt>
      <trkpt lat="47.69473" lon="-2.23211">
        <ele>68.39</ele>
        <time>2013-12-30T08:42:42Z</time>
      </trkpt>
      <trkpt lat="47.69473" lon="-2.23227">
        <ele>67.91</ele>
        <time>2013-12-30T08:42:44Z</time>
      </trkpt>
      <trkpt lat="47.69473" lon="-2.23244">
        <ele>67.91</ele>
        <time>2013-12-30T08:42:46Z</time>
      </trkpt>
      <trkpt lat="47.69474" lon="-2.2326">
        <ele>67.43</ele>
        <time>2013-12-30T08:42:48Z</time>
      </trkpt>
      <trkpt lat="47.69474" lon="-2.23274">
        <ele>66.95</ele>
        <time>2013-12-30T08:42:50Z</time>
      </trkpt>
      <trkpt lat="47.69474" lon="-2.23287">
        <ele>65.99</ele>
        <time>2013-12-30T08:42:52Z</time>
      </trkpt>
      <trkpt lat="47.69474" lon="-2.23306">
        <ele>65.51</ele>
        <time>2013-12-30T08:42:55Z</time>
      </trkpt>
      <trkpt lat="47.69473" lon="-2.2332">
        <ele>65.51</ele>
        <time>2013-12-30T08:42:57Z</time>
      </trkpt>
      <trkpt lat="47.69475" lon="-2.23337">
        <ele>65.51</ele>
        <time>2013-12-30T08:43:00Z</time>
      </trkpt>
      <trkpt lat="47.69469" lon="-2.23344">
        <ele>65.51</ele>
        <time>2013-12-30T08:43:05Z</time>
      </trkpt>
      <trkpt lat="47.6946" lon="-2.23341">
        <ele>66.47</ele>
        <time>2013-12-30T08:43:09Z</time>
      </trkpt>
      <trkpt lat="47.6945" lon="-2.23335">
        <ele>68.87</ele>
        <time>2013-12-30T08:43:13Z</time>
      </trkpt>
      <trkpt lat="47.69439" lon="-2.23328">
        <ele>70.31</ele>
        <time>2013-12-30T08:43:16Z</time>
      </trkpt>
      <trkpt lat="47.69428" lon="-2.2332">
        <ele>70.79</ele>
        <time>2013-12-30T08:43:19Z</time>
      </trkpt>
      <trkpt lat="47.69417" lon="-2.23315">
        <ele>71.76</ele>
        <time>2013-12-30T08:43:22Z</time>
      </trkpt>
      <trkpt lat="47.69407" lon="-2.23307">
        <ele>72.24</ele>
        <time>2013-12-30T08:43:27Z</time>
      </trkpt>
      <trkpt lat="47.69407" lon="-2.23302">
        <ele>72.24</ele>
        <time>2013-12-30T08:43:32Z</time>
      </trkpt>
      <trkpt lat="47.69415" lon="-2.23312">
        <ele>71.76</ele>
        <time>2013-12-30T08:43:37Z</time>
      </trkpt>
      <trkpt lat="47.6942" lon="-2.23323">
        <ele>72.24</ele>
        <time>2013-12-30T08:43:42Z</time>
      </trkpt>
      <trkpt lat="47.6942" lon="-2.23341">
        <ele>72.24</ele>
        <time>2013-12-30T08:43:46Z</time>
      </trkpt>
      <trkpt lat="47.69426" lon="-2.23351">
        <ele>72.72</ele>
        <time>2013-12-30T08:43:49Z</time>
      </trkpt>
      <trkpt lat="47.69424" lon="-2.23364">
        <ele>73.68</ele>
        <time>2013-12-30T08:43:53Z</time>
      </trkpt>
      <trkpt lat="47.6942" lon="-2.23378">
        <ele>74.64</ele>
        <time>2013-12-30T08:43:56Z</time>
      </trkpt>
      <trkpt lat="47.69425" lon="-2.23392">
        <ele>75.6</ele>
        <time>2013-12-30T08:44:00Z</time>
      </trkpt>
      <trkpt lat="47.6942" lon="-2.23404">
        <ele>75.12</ele>
        <time>2013-12-30T08:44:03Z</time>
      </trkpt>
      <trkpt lat="47.69411" lon="-2.23414">
        <ele>74.64</ele>
        <time>2013-12-30T08:44:06Z</time>
      </trkpt>
      <trkpt lat="47.69414" lon="-2.23428">
        <ele>74.64</ele>
        <time>2013-12-30T08:44:09Z</time>
      </trkpt>
      <trkpt lat="47.69423" lon="-2.2343">
        <ele>74.64</ele>
        <time>2013-12-30T08:44:13Z</time>
      </trkpt>
      <trkpt lat="47.6943" lon="-2.23431">
        <ele>75.12</ele>
        <time>2013-12-30T08:44:17Z</time>
      </trkpt>
      <trkpt lat="47.69428" lon="-2.23446">
        <ele>75.12</ele>
        <time>2013-12-30T08:44:20Z</time>
      </trkpt>
      <trkpt lat="47.69429" lon="-2.23459">
        <ele>74.64</ele>
        <time>2013-12-30T08:44:23Z</time>
      </trkpt>
      <trkpt lat="47.69437" lon="-2.23469">
        <ele>74.64</ele>
        <time>2013-12-30T08:44:26Z</time>
      </trkpt>
      <trkpt lat="47.69443" lon="-2.23477">
        <ele>75.6</ele>
        <time>2013-12-30T08:44:30Z</time>
      </trkpt>
      <trkpt lat="47.69452" lon="-2.23477">
        <ele>76.08</ele>
        <time>2013-12-30T08:44:34Z</time>
      </trkpt>
      <trkpt lat="47.69459" lon="-2.23489">
        <ele>76.08</ele>
        <time>2013-12-30T08:44:38Z</time>
      </trkpt>
      <trkpt lat="47.6946" lon="-2.23505">
        <ele>76.56</ele>
        <time>2013-12-30T08:44:42Z</time>
      </trkpt>
      <trkpt lat="47.69465" lon="-2.2352">
        <ele>77.52</ele>
        <time>2013-12-30T08:44:48Z</time>
      </trkpt>
      <trkpt lat="47.69457" lon="-2.23533">
        <ele>75.6</ele>
        <time>2013-12-30T08:44:52Z</time>
      </trkpt>
      <trkpt lat="47.69452" lon="-2.23546">
        <ele>73.68</ele>
        <time>2013-12-30T08:44:57Z</time>
      </trkpt>
      <trkpt lat="47.69445" lon="-2.23554">
        <ele>73.2</ele>
        <time>2013-12-30T08:45:01Z</time>
      </trkpt>
      <trkpt lat="47.69443" lon="-2.23569">
        <ele>73.2</ele>
        <time>2013-12-30T08:45:04Z</time>
      </trkpt>
      <trkpt lat="47.69448" lon="-2.23579">
        <ele>73.2</ele>
        <time>2013-12-30T08:45:07Z</time>
      </trkpt>
      <trkpt lat="47.69454" lon="-2.23591">
        <ele>72.72</ele>
        <time>2013-12-30T08:45:10Z</time>
      </trkpt>
      <trkpt lat="47.6946" lon="-2.23596">
        <ele>71.76</ele>
        <time>2013-12-30T08:45:14Z</time>
      </trkpt>
      <trkpt lat="47.69469" lon="-2.236">
        <ele>70.79</ele>
        <time>2013-12-30T08:45:22Z</time>
      </trkpt>
      <trkpt lat="47.69477" lon="-2.2361">
        <ele>70.31</ele>
        <time>2013-12-30T08:45:32Z</time>
      </trkpt>
      <trkpt lat="47.69477" lon="-2.23626">
        <ele>70.31</ele>
        <time>2013-12-30T08:45:36Z</time>
      </trkpt>
      <trkpt lat="47.6948" lon="-2.2364">
        <ele>71.27</ele>
        <time>2013-12-30T08:45:39Z</time>
      </trkpt>
      <trkpt lat="47.69479" lon="-2.23653">
        <ele>72.24</ele>
        <time>2013-12-30T08:45:44Z</time>
      </trkpt>
      <trkpt lat="47.69481" lon="-2.23671">
        <ele>73.68</ele>
        <time>2013-12-30T08:45:48Z</time>
      </trkpt>
      <trkpt lat="47.69482" lon="-2.23685">
        <ele>74.64</ele>
        <time>2013-12-30T08:45:51Z</time>
      </trkpt>
      <trkpt lat="47.69479" lon="-2.23699">
        <ele>75.6</ele>
        <time>2013-12-30T08:45:55Z</time>
      </trkpt>
      <trkpt lat="47.69473" lon="-2.23713">
        <ele>75.12</ele>
        <time>2013-12-30T08:46:08Z</time>
      </trkpt>
      <trkpt lat="47.69471" lon="-2.23726">
        <ele>74.64</ele>
        <time>2013-12-30T08:46:13Z</time>
      </trkpt>
      <trkpt lat="47.69477" lon="-2.23736">
        <ele>73.68</ele>
        <time>2013-12-30T08:46:17Z</time>
      </trkpt>
      <trkpt lat="47.69482" lon="-2.23748">
        <ele>73.68</ele>
        <time>2013-12-30T08:46:20Z</time>
      </trkpt>
      <trkpt lat="47.69487" lon="-2.23758">
        <ele>73.2</ele>
        <time>2013-12-30T08:46:23Z</time>
      </trkpt>
      <trkpt lat="47.69497" lon="-2.23767">
        <ele>72.24</ele>
        <time>2013-12-30T08:46:28Z</time>
      </trkpt>
      <trkpt lat="47.69505" lon="-2.23779">
        <ele>70.79</ele>
        <time>2013-12-30T08:46:31Z</time>
      </trkpt>
      <trkpt lat="47.69509" lon="-2.23794">
        <ele>69.83</ele>
        <time>2013-12-30T08:46:35Z</time>
      </trkpt>
      <trkpt lat="47.69502" lon="-2.23807">
        <ele>70.31</ele>
        <time>2013-12-30T08:46:39Z</time>
      </trkpt>
      <trkpt lat="47.695" lon="-2.23821">
        <ele>70.31</ele>
        <time>2013-12-30T08:46:42Z</time>
      </trkpt>
      <trkpt lat="47.69494" lon="-2.23834">
        <ele>71.27</ele>
        <time>2013-12-30T08:46:46Z</time>
      </trkpt>
      <trkpt lat="47.69485" lon="-2.23849">
        <ele>72.72</ele>
        <time>2013-12-30T08:46:50Z</time>
      </trkpt>
      <trkpt lat="47.69475" lon="-2.23862">
        <ele>73.2</ele>
        <time>2013-12-30T08:46:53Z</time>
      </trkpt>
      <trkpt lat="47.69469" lon="-2.23875">
        <ele>73.68</ele>
        <time>2013-12-30T08:46:56Z</time>
      </trkpt>
      <trkpt lat="47.69461" lon="-2.23886">
        <ele>73.68</ele>
        <time>2013-12-30T08:47:00Z</time>
      </trkpt>
      <trkpt lat="47.69457" lon="-2.23899">
        <ele>73.68</ele>
        <time>2013-12-30T08:47:05Z</time>
      </trkpt>
      <trkpt lat="47.69464" lon="-2.23913">
        <ele>72.72</ele>
        <time>2013-12-30T08:47:11Z</time>
      </trkpt>
      <trkpt lat="47.69472" lon="-2.23925">
        <ele>72.24</ele>
        <time>2013-12-30T08:47:15Z</time>
      </trkpt>
      <trkpt lat="47.69479" lon="-2.23938">
        <ele>72.24</ele>
        <time>2013-12-30T08:47:18Z</time>
      </trkpt>
      <trkpt lat="47.69485" lon="-2.23951">
        <ele>72.24</ele>
        <time>2013-12-30T08:47:21Z</time>
      </trkpt>
      <trkpt lat="47.6949" lon="-2.23966">
        <ele>71.76</ele>
        <time>2013-12-30T08:47:25Z</time>
      </trkpt>
      <trkpt lat="47.69495" lon="-2.2398">
        <ele>70.31</ele>
        <time>2013-12-30T08:47:35Z</time>
      </trkpt>
      <trkpt lat="47.69502" lon="-2.23993">
        <ele>71.27</ele>
        <time>2013-12-30T08:47:50Z</time>
      </trkpt>
      <trkpt lat="47.69509" lon="-2.24009">
        <ele>70.79</ele>
        <time>2013-12-30T08:47:55Z</time>
      </trkpt>
      <trkpt lat="47.69515" lon="-2.24025">
        <ele>70.79</ele>
        <time>2013-12-30T08:47:58Z</time>
      </trkpt>
      <trkpt lat="47.69521" lon="-2.2404">
        <ele>70.31</ele>
        <time>2013-12-30T08:48:01Z</time>
      </trkpt>
      <trkpt lat="47.69527" lon="-2.24053">
        <ele>70.31</ele>
        <time>2013-12-30T08:48:04Z</time>
      </trkpt>
      <trkpt lat="47.69534" lon="-2.24069">
        <ele>69.35</ele>
        <time>2013-12-30T08:48:09Z</time>
      </trkpt>
      <trkpt lat="47.69539" lon="-2.24088">
        <ele>66.95</ele>
        <time>2013-12-30T08:48:15Z</time>
      </trkpt>
      <trkpt lat="47.69542" lon="-2.24109">
        <ele>65.99</ele>
        <time>2013-12-30T08:48:25Z</time>
      </trkpt>
      <trkpt lat="47.69546" lon="-2.24125">
        <ele>65.51</ele>
        <time>2013-12-30T08:48:30Z</time>
      </trkpt>
      <trkpt lat="47.69549" lon="-2.24144">
        <ele>64.07</ele>
        <time>2013-12-30T08:48:34Z</time>
      </trkpt>
      <trkpt lat="47.69551" lon="-2.24162">
        <ele>64.07</ele>
        <time>2013-12-30T08:48:37Z</time>
      </trkpt>
      <trkpt lat="47.69554" lon="-2.24179">
        <ele>64.55</ele>
        <time>2013-12-30T08:48:40Z</time>
      </trkpt>
      <trkpt lat="47.69557" lon="-2.24196">
        <ele>65.03</ele>
        <time>2013-12-30T08:48:43Z</time>
      </trkpt>
      <trkpt lat="47.6956" lon="-2.24213">
        <ele>65.03</ele>
        <time>2013-12-30T08:48:46Z</time>
      </trkpt>
      <trkpt lat="47.69559" lon="-2.24211">
        <ele>66.95</ele>
        <time>2013-12-30T08:48:59Z</time>
      </trkpt>
      <trkpt lat="47.69552" lon="-2.24213">
        <ele>69.83</ele>
        <time>2013-12-30T08:49:08Z</time>
      </trkpt>
      <trkpt lat="47.6954" lon="-2.24214">
        <ele>72.24</ele>
        <time>2013-12-30T08:49:12Z</time>
      </trkpt>
      <trkpt lat="47.69534" lon="-2.24224">
        <ele>74.16</ele>
        <time>2013-12-30T08:49:16Z</time>
      </trkpt>
      <trkpt lat="47.69531" lon="-2.24239">
        <ele>75.12</ele>
        <time>2013-12-30T08:49:21Z</time>
      </trkpt>
      <trkpt lat="47.69526" lon="-2.2425">
        <ele>75.6</ele>
        <time>2013-12-30T08:49:24Z</time>
      </trkpt>
      <trkpt lat="47.69529" lon="-2.24268">
        <ele>75.12</ele>
        <time>2013-12-30T08:49:28Z</time>
      </trkpt>
      <trkpt lat="47.69528" lon="-2.24282">
        <ele>74.64</ele>
        <time>2013-12-30T08:49:32Z</time>
      </trkpt>
      <trkpt lat="47.69531" lon="-2.24298">
        <ele>73.68</ele>
        <time>2013-12-30T08:49:36Z</time>
      </trkpt>
      <trkpt lat="47.69534" lon="-2.24311">
        <ele>73.2</ele>
        <time>2013-12-30T08:49:39Z</time>
      </trkpt>
      <trkpt lat="47.69536" lon="-2.24328">
        <ele>72.24</ele>
        <time>2013-12-30T08:49:43Z</time>
      </trkpt>
      <trkpt lat="47.69541" lon="-2.24341">
        <ele>70.79</ele>
        <time>2013-12-30T08:49:47Z</time>
      </trkpt>
      <trkpt lat="47.69545" lon="-2.24355">
        <ele>70.31</ele>
        <time>2013-12-30T08:49:52Z</time>
      </trkpt>
      <trkpt lat="47.69541" lon="-2.24368">
        <ele>69.35</ele>
        <time>2013-12-30T08:49:57Z</time>
      </trkpt>
      <trkpt lat="47.69542" lon="-2.24389">
        <ele>69.35</ele>
        <time>2013-12-30T08:50:01Z</time>
      </trkpt>
      <trkpt lat="47.69542" lon="-2.24407">
        <ele>69.35</ele>
        <time>2013-12-30T08:50:05Z</time>
      </trkpt>
      <trkpt lat="47.69541" lon="-2.24425">
        <ele>71.27</ele>
        <time>2013-12-30T08:50:10Z</time>
      </trkpt>
      <trkpt lat="47.69542" lon="-2.24443">
        <ele>71.76</ele>
        <time>2013-12-30T08:50:14Z</time>
      </trkpt>
      <trkpt lat="47.69543" lon="-2.24459">
        <ele>71.27</ele>
        <time>2013-12-30T08:50:18Z</time>
      </trkpt>
      <trkpt lat="47.69543" lon="-2.24473">
        <ele>71.27</ele>
        <time>2013-12-30T08:50:21Z</time>
      </trkpt>
      <trkpt lat="47.69545" lon="-2.24488">
        <ele>70.79</ele>
        <time>2013-12-30T08:50:24Z</time>
      </trkpt>
      <trkpt lat="47.69547" lon="-2.24502">
        <ele>70.31</ele>
        <time>2013-12-30T08:50:27Z</time>
      </trkpt>
      <trkpt lat="47.69549" lon="-2.24519">
        <ele>69.83</ele>
        <time>2013-12-30T08:50:31Z</time>
      </trkpt>
      <trkpt lat="47.69555" lon="-2.24529">
        <ele>69.83</ele>
        <time>2013-12-30T08:50:36Z</time>
      </trkpt>
      <trkpt lat="47.69563" lon="-2.24539">
        <ele>67.43</ele>
        <time>2013-12-30T08:50:40Z</time>
      </trkpt>
      <trkpt lat="47.69568" lon="-2.24551">
        <ele>66.47</ele>
        <time>2013-12-30T08:50:43Z</time>
      </trkpt>
      <trkpt lat="47.69576" lon="-2.24563">
        <ele>65.51</ele>
        <time>2013-12-30T08:50:48Z</time>
      </trkpt>
      <trkpt lat="47.69582" lon="-2.24575">
        <ele>65.03</ele>
        <time>2013-12-30T08:50:53Z</time>
      </trkpt>
      <trkpt lat="47.69577" lon="-2.24587">
        <ele>64.55</ele>
        <time>2013-12-30T08:50:58Z</time>
      </trkpt>
      <trkpt lat="47.69584" lon="-2.246">
        <ele>64.07</ele>
        <time>2013-12-30T08:51:02Z</time>
      </trkpt>
      <trkpt lat="47.69585" lon="-2.24618">
        <ele>62.62</ele>
        <time>2013-12-30T08:51:06Z</time>
      </trkpt>
      <trkpt lat="47.69577" lon="-2.24632">
        <ele>63.58</ele>
        <time>2013-12-30T08:51:10Z</time>
      </trkpt>
      <trkpt lat="47.69578" lon="-2.24647">
        <ele>64.07</ele>
        <time>2013-12-30T08:51:13Z</time>
      </trkpt>
      <trkpt lat="47.6958" lon="-2.24662">
        <ele>64.55</ele>
        <time>2013-12-30T08:51:17Z</time>
      </trkpt>
      <trkpt lat="47.69578" lon="-2.24678">
        <ele>64.55</ele>
        <time>2013-12-30T08:51:26Z</time>
      </trkpt>
      <trkpt lat="47.69578" lon="-2.24694">
        <ele>66.95</ele>
        <time>2013-12-30T08:51:39Z</time>
      </trkpt>
      <trkpt lat="47.69579" lon="-2.24708">
        <ele>67.91</ele>
        <time>2013-12-30T08:51:49Z</time>
      </trkpt>
      <trkpt lat="47.69581" lon="-2.24724">
        <ele>68.39</ele>
        <time>2013-12-30T08:51:53Z</time>
      </trkpt>
      <trkpt lat="47.69582" lon="-2.24739">
        <ele>67.43</ele>
        <time>2013-12-30T08:51:56Z</time>
      </trkpt>
      <trkpt lat="47.69583" lon="-2.24755">
        <ele>67.43</ele>
        <time>2013-12-30T08:51:59Z</time>
      </trkpt>
      <trkpt lat="47.69588" lon="-2.24769">
        <ele>68.87</ele>
        <time>2013-12-30T08:52:03Z</time>
      </trkpt>
      <trkpt lat="47.69598" lon="-2.24781">
        <ele>69.35</ele>
        <time>2013-12-30T08:52:07Z</time>
      </trkpt>
      <trkpt lat="47.69604" lon="-2.24792">
        <ele>69.83</ele>
        <time>2013-12-30T08:52:11Z</time>
      </trkpt>
      <trkpt lat="47.6961" lon="-2.24808">
        <ele>69.35</ele>
        <time>2013-12-30T08:52:15Z</time>
      </trkpt>
      <trkpt lat="47.69616" lon="-2.24824">
        <ele>68.39</ele>
        <time>2013-12-30T08:52:19Z</time>
      </trkpt>
      <trkpt lat="47.69619" lon="-2.24842">
        <ele>67.91</ele>
        <time>2013-12-30T08:52:23Z</time>
      </trkpt>
      <trkpt lat="47.69626" lon="-2.24858">
        <ele>68.39</ele>
        <time>2013-12-30T08:52:33Z</time>
      </trkpt>
      <trkpt lat="47.69627" lon="-2.24876">
        <ele>69.83</ele>
        <time>2013-12-30T08:52:38Z</time>
      </trkpt>
      <trkpt lat="47.69633" lon="-2.24889">
        <ele>69.83</ele>
        <time>2013-12-30T08:52:42Z</time>
      </trkpt>
      <trkpt lat="47.69629" lon="-2.24904">
        <ele>69.35</ele>
        <time>2013-12-30T08:53:00Z</time>
      </trkpt>
      <trkpt lat="47.69624" lon="-2.24918">
        <ele>72.24</ele>
        <time>2013-12-30T08:53:10Z</time>
      </trkpt>
      <trkpt lat="47.69621" lon="-2.24931">
        <ele>73.2</ele>
        <time>2013-12-30T08:53:17Z</time>
      </trkpt>
      <trkpt lat="47.69626" lon="-2.24944">
        <ele>74.16</ele>
        <time>2013-12-30T08:53:23Z</time>
      </trkpt>
      <trkpt lat="47.69632" lon="-2.24955">
        <ele>74.16</ele>
        <time>2013-12-30T08:53:26Z</time>
      </trkpt>
      <trkpt lat="47.69636" lon="-2.24968">
        <ele>74.64</ele>
        <time>2013-12-30T08:53:29Z</time>
      </trkpt>
      <trkpt lat="47.69636" lon="-2.24985">
        <ele>74.64</ele>
        <time>2013-12-30T08:53:32Z</time>
      </trkpt>
      <trkpt lat="47.69632" lon="-2.24999">
        <ele>74.64</ele>
        <time>2013-12-30T08:53:35Z</time>
      </trkpt>
      <trkpt lat="47.6963" lon="-2.25014">
        <ele>73.68</ele>
        <time>2013-12-30T08:53:40Z</time>
      </trkpt>
      <trkpt lat="47.69628" lon="-2.2503">
        <ele>73.2</ele>
        <time>2013-12-30T08:53:45Z</time>
      </trkpt>
      <trkpt lat="47.69628" lon="-2.25048">
        <ele>72.24</ele>
        <time>2013-12-30T08:53:49Z</time>
      </trkpt>
      <trkpt lat="47.6963" lon="-2.25062">
        <ele>72.24</ele>
        <time>2013-12-30T08:53:52Z</time>
      </trkpt>
      <trkpt lat="47.6963" lon="-2.2508">
        <ele>71.27</ele>
        <time>2013-12-30T08:53:56Z</time>
      </trkpt>
      <trkpt lat="47.69636" lon="-2.25092">
        <ele>70.79</ele>
        <time>2013-12-30T08:54:00Z</time>
      </trkpt>
      <trkpt lat="47.69642" lon="-2.25104">
        <ele>69.83</ele>
        <time>2013-12-30T08:54:04Z</time>
      </trkpt>
      <trkpt lat="47.69648" lon="-2.25118">
        <ele>69.35</ele>
        <time>2013-12-30T08:54:07Z</time>
      </trkpt>
      <trkpt lat="47.69648" lon="-2.25135">
        <ele>69.83</ele>
        <time>2013-12-30T08:54:11Z</time>
      </trkpt>
      <trkpt lat="47.69641" lon="-2.25145">
        <ele>69.83</ele>
        <time>2013-12-30T08:54:14Z</time>
      </trkpt>
      <trkpt lat="47.6964" lon="-2.2516">
        <ele>69.35</ele>
        <time>2013-12-30T08:54:19Z</time>
      </trkpt>
      <trkpt lat="47.69646" lon="-2.25171">
        <ele>69.83</ele>
        <time>2013-12-30T08:54:23Z</time>
      </trkpt>
      <trkpt lat="47.69654" lon="-2.25182">
        <ele>67.91</ele>
        <time>2013-12-30T08:54:28Z</time>
      </trkpt>
      <trkpt lat="47.69663" lon="-2.25189">
        <ele>67.43</ele>
        <time>2013-12-30T08:54:32Z</time>
      </trkpt>
      <trkpt lat="47.69671" lon="-2.25186">
        <ele>67.91</ele>
        <time>2013-12-30T08:54:36Z</time>
      </trkpt>
      <trkpt lat="47.69678" lon="-2.25177">
        <ele>67.91</ele>
        <time>2013-12-30T08:54:39Z</time>
      </trkpt>
      <trkpt lat="47.69688" lon="-2.25173">
        <ele>68.39</ele>
        <time>2013-12-30T08:54:43Z</time>
      </trkpt>
      <trkpt lat="47.69698" lon="-2.25167">
        <ele>68.39</ele>
        <time>2013-12-30T08:54:47Z</time>
      </trkpt>
      <trkpt lat="47.69702" lon="-2.25157">
        <ele>68.39</ele>
        <time>2013-12-30T08:55:34Z</time>
      </trkpt>
      <trkpt lat="47.69693" lon="-2.25145">
        <ele>68.87</ele>
        <time>2013-12-30T08:55:39Z</time>
      </trkpt>
      <trkpt lat="47.69688" lon="-2.2513">
        <ele>68.87</ele>
        <time>2013-12-30T08:55:42Z</time>
      </trkpt>
      <trkpt lat="47.69683" lon="-2.25117">
        <ele>68.87</ele>
        <time>2013-12-30T08:55:45Z</time>
      </trkpt>
      <trkpt lat="47.69677" lon="-2.25103">
        <ele>68.87</ele>
        <time>2013-12-30T08:55:48Z</time>
      </trkpt>
      <trkpt lat="47.69672" lon="-2.25088">
        <ele>68.87</ele>
        <time>2013-12-30T08:55:51Z</time>
      </trkpt>
      <trkpt lat="47.69668" lon="-2.25072">
        <ele>68.87</ele>
        <time>2013-12-30T08:55:54Z</time>
      </trkpt>
      <trkpt lat="47.69664" lon="-2.25056">
        <ele>68.87</ele>
        <time>2013-12-30T08:55:57Z</time>
      </trkpt>
      <trkpt lat="47.69663" lon="-2.25038">
        <ele>69.35</ele>
        <time>2013-12-30T08:56:00Z</time>
      </trkpt>
      <trkpt lat="47.69661" lon="-2.25019">
        <ele>69.35</ele>
        <time>2013-12-30T08:56:03Z</time>
      </trkpt>
      <trkpt lat="47.69659" lon="-2.24999">
        <ele>69.35</ele>
        <time>2013-12-30T08:56:06Z</time>
      </trkpt>
      <trkpt lat="47.69659" lon="-2.2498">
        <ele>69.83</ele>
        <time>2013-12-30T08:56:09Z</time>
      </trkpt>
      <trkpt lat="47.69657" lon="-2.24962">
        <ele>69.35</ele>
        <time>2013-12-30T08:56:12Z</time>
      </trkpt>
      <trkpt lat="47.69655" lon="-2.24942">
        <ele>68.87</ele>
        <time>2013-12-30T08:56:15Z</time>
      </trkpt>
      <trkpt lat="47.69654" lon="-2.24923">
        <ele>68.87</ele>
        <time>2013-12-30T08:56:18Z</time>
      </trkpt>
      <trkpt lat="47.69651" lon="-2.24903">
        <ele>67.91</ele>
        <time>2013-12-30T08:56:21Z</time>
      </trkpt>
      <trkpt lat="47.69649" lon="-2.24889">
        <ele>67.91</ele>
        <time>2013-12-30T08:56:23Z</time>
      </trkpt>
      <trkpt lat="47.69648" lon="-2.2487">
        <ele>67.91</ele>
        <time>2013-12-30T08:56:26Z</time>
      </trkpt>
      <trkpt lat="47.69646" lon="-2.24851">
        <ele>68.39</ele>
        <time>2013-12-30T08:56:29Z</time>
      </trkpt>
      <trkpt lat="47.69647" lon="-2.24834">
        <ele>68.39</ele>
        <time>2013-12-30T08:56:32Z</time>
      </trkpt>
      <trkpt lat="47.69643" lon="-2.24818">
        <ele>67.43</ele>
        <time>2013-12-30T08:56:35Z</time>
      </trkpt>
      <trkpt lat="47.69638" lon="-2.24804">
        <ele>66.47</ele>
        <time>2013-12-30T08:56:38Z</time>
      </trkpt>
      <trkpt lat="47.69636" lon="-2.24786">
        <ele>68.39</ele>
        <time>2013-12-30T08:57:07Z</time>
      </trkpt>
      <trkpt lat="47.69631" lon="-2.24769">
        <ele>69.83</ele>
        <time>2013-12-30T08:57:19Z</time>
      </trkpt>
      <trkpt lat="47.69627" lon="-2.24753">
        <ele>71.27</ele>
        <time>2013-12-30T08:57:24Z</time>
      </trkpt>
      <trkpt lat="47.69623" lon="-2.24737">
        <ele>72.24</ele>
        <time>2013-12-30T08:57:29Z</time>
      </trkpt>
      <trkpt lat="47.69624" lon="-2.2472">
        <ele>72.72</ele>
        <time>2013-12-30T08:57:34Z</time>
      </trkpt>
      <trkpt lat="47.69622" lon="-2.24705">
        <ele>73.68</ele>
        <time>2013-12-30T08:57:38Z</time>
      </trkpt>
      <trkpt lat="47.69618" lon="-2.24688">
        <ele>75.6</ele>
        <time>2013-12-30T08:57:43Z</time>
      </trkpt>
      <trkpt lat="47.69613" lon="-2.24674">
        <ele>78</ele>
        <time>2013-12-30T08:57:48Z</time>
      </trkpt>
      <trkpt lat="47.69605" lon="-2.24659">
        <ele>80.41</ele>
        <time>2013-12-30T08:57:53Z</time>
      </trkpt>
      <trkpt lat="47.69602" lon="-2.24643">
        <ele>81.37</ele>
        <time>2013-12-30T08:57:57Z</time>
      </trkpt>
      <trkpt lat="47.696" lon="-2.24625">
        <ele>81.37</ele>
        <time>2013-12-30T08:58:01Z</time>
      </trkpt>
      <trkpt lat="47.69597" lon="-2.24606">
        <ele>80.89</ele>
        <time>2013-12-30T08:58:05Z</time>
      </trkpt>
      <trkpt lat="47.69593" lon="-2.24583">
        <ele>79.45</ele>
        <time>2013-12-30T08:58:09Z</time>
      </trkpt>
      <trkpt lat="47.69587" lon="-2.24564">
        <ele>78</ele>
        <time>2013-12-30T08:58:13Z</time>
      </trkpt>
      <trkpt lat="47.69582" lon="-2.24547">
        <ele>76.56</ele>
        <time>2013-12-30T08:58:18Z</time>
      </trkpt>
      <trkpt lat="47.69575" lon="-2.2453">
        <ele>75.6</ele>
        <time>2013-12-30T08:58:23Z</time>
      </trkpt>
      <trkpt lat="47.69573" lon="-2.24515">
        <ele>74.64</ele>
        <time>2013-12-30T08:58:27Z</time>
      </trkpt>
      <trkpt lat="47.69572" lon="-2.245">
        <ele>74.16</ele>
        <time>2013-12-30T08:58:31Z</time>
      </trkpt>
      <trkpt lat="47.69571" lon="-2.24484">
        <ele>73.2</ele>
        <time>2013-12-30T08:58:35Z</time>
      </trkpt>
      <trkpt lat="47.6957" lon="-2.24467">
        <ele>72.24</ele>
        <time>2013-12-30T08:58:39Z</time>
      </trkpt>
      <trkpt lat="47.6957" lon="-2.24452">
        <ele>71.76</ele>
        <time>2013-12-30T08:58:42Z</time>
      </trkpt>
      <trkpt lat="47.69569" lon="-2.24434">
        <ele>71.27</ele>
        <time>2013-12-30T08:58:46Z</time>
      </trkpt>
      <trkpt lat="47.69569" lon="-2.24417">
        <ele>70.79</ele>
        <time>2013-12-30T08:58:50Z</time>
      </trkpt>
      <trkpt lat="47.69569" lon="-2.244">
        <ele>70.79</ele>
        <time>2013-12-30T08:58:54Z</time>
      </trkpt>
      <trkpt lat="47.69566" lon="-2.24386">
        <ele>71.76</ele>
        <time>2013-12-30T08:58:58Z</time>
      </trkpt>
      <trkpt lat="47.69565" lon="-2.2437">
        <ele>72.72</ele>
        <time>2013-12-30T08:59:02Z</time>
      </trkpt>
      <trkpt lat="47.69564" lon="-2.24353">
        <ele>73.2</ele>
        <time>2013-12-30T08:59:06Z</time>
      </trkpt>
      <trkpt lat="47.69562" lon="-2.24337">
        <ele>73.2</ele>
        <time>2013-12-30T08:59:11Z</time>
      </trkpt>
      <trkpt lat="47.69563" lon="-2.24319">
        <ele>74.16</ele>
        <time>2013-12-30T08:59:17Z</time>
      </trkpt>
      <trkpt lat="47.69572" lon="-2.24318">
        <ele>73.68</ele>
        <time>2013-12-30T08:59:22Z</time>
      </trkpt>
      <trkpt lat="47.69581" lon="-2.24313">
        <ele>72.72</ele>
        <time>2013-12-30T08:59:26Z</time>
      </trkpt>
      <trkpt lat="47.69591" lon="-2.24311">
        <ele>71.27</ele>
        <time>2013-12-30T08:59:29Z</time>
      </trkpt>
      <trkpt lat="47.696" lon="-2.24309">
        <ele>68.39</ele>
        <time>2013-12-30T08:59:34Z</time>
      </trkpt>
      <trkpt lat="47.69608" lon="-2.24295">
        <ele>66.47</ele>
        <time>2013-12-30T08:59:38Z</time>
      </trkpt>
      <trkpt lat="47.6961" lon="-2.24278">
        <ele>66.95</ele>
        <time>2013-12-30T08:59:42Z</time>
      </trkpt>
      <trkpt lat="47.69609" lon="-2.24264">
        <ele>67.91</ele>
        <time>2013-12-30T08:59:46Z</time>
      </trkpt>
      <trkpt lat="47.69609" lon="-2.24248">
        <ele>67.91</ele>
        <time>2013-12-30T08:59:50Z</time>
      </trkpt>
      <trkpt lat="47.6961" lon="-2.24229">
        <ele>66.47</ele>
        <time>2013-12-30T08:59:55Z</time>
      </trkpt>
      <trkpt lat="47.69605" lon="-2.2421">
        <ele>66.47</ele>
        <time>2013-12-30T08:59:59Z</time>
      </trkpt>
      <trkpt lat="47.696" lon="-2.24199">
        <ele>67.43</ele>
        <time>2013-12-30T09:00:02Z</time>
      </trkpt>
      <trkpt lat="47.69595" lon="-2.24181">
        <ele>69.35</ele>
        <time>2013-12-30T09:00:07Z</time>
      </trkpt>
      <trkpt lat="47.69587" lon="-2.24175">
        <ele>71.76</ele>
        <time>2013-12-30T09:00:13Z</time>
      </trkpt>
      <trkpt lat="47.69588" lon="-2.24158">
        <ele>73.68</ele>
        <time>2013-12-30T09:00:25Z</time>
      </trkpt>
      <trkpt lat="47.6959" lon="-2.24141">
        <ele>75.6</ele>
        <time>2013-12-30T09:00:30Z</time>
      </trkpt>
      <trkpt lat="47.69597" lon="-2.2413">
        <ele>77.04</ele>
        <time>2013-12-30T09:00:34Z</time>
      </trkpt>
      <trkpt lat="47.69605" lon="-2.24121">
        <ele>77.52</ele>
        <time>2013-12-30T09:00:37Z</time>
      </trkpt>
      <trkpt lat="47.69611" lon="-2.2411">
        <ele>77.52</ele>
        <time>2013-12-30T09:00:40Z</time>
      </trkpt>
      <trkpt lat="47.69612" lon="-2.24092">
        <ele>77.52</ele>
        <time>2013-12-30T09:00:44Z</time>
      </trkpt>
      <trkpt lat="47.69611" lon="-2.24074">
        <ele>77.04</ele>
        <time>2013-12-30T09:00:48Z</time>
      </trkpt>
      <trkpt lat="47.69613" lon="-2.24052">
        <ele>76.08</ele>
        <time>2013-12-30T09:00:52Z</time>
      </trkpt>
      <trkpt lat="47.69613" lon="-2.24033">
        <ele>75.12</ele>
        <time>2013-12-30T09:00:55Z</time>
      </trkpt>
      <trkpt lat="47.69611" lon="-2.24016">
        <ele>74.16</ele>
        <time>2013-12-30T09:00:58Z</time>
      </trkpt>
      <trkpt lat="47.69611" lon="-2.23995">
        <ele>73.2</ele>
        <time>2013-12-30T09:01:02Z</time>
      </trkpt>
      <trkpt lat="47.69612" lon="-2.23974">
        <ele>72.24</ele>
        <time>2013-12-30T09:01:06Z</time>
      </trkpt>
      <trkpt lat="47.69613" lon="-2.23947">
        <ele>69.83</ele>
        <time>2013-12-30T09:01:10Z</time>
      </trkpt>
      <trkpt lat="47.69614" lon="-2.23931">
        <ele>68.39</ele>
        <time>2013-12-30T09:01:13Z</time>
      </trkpt>
      <trkpt lat="47.69618" lon="-2.23916">
        <ele>66.95</ele>
        <time>2013-12-30T09:01:17Z</time>
      </trkpt>
      <trkpt lat="47.69627" lon="-2.23908">
        <ele>65.99</ele>
        <time>2013-12-30T09:01:21Z</time>
      </trkpt>
      <trkpt lat="47.69636" lon="-2.23909">
        <ele>64.07</ele>
        <time>2013-12-30T09:01:32Z</time>
      </trkpt>
      <trkpt lat="47.69645" lon="-2.23928">
        <ele>64.55</ele>
        <time>2013-12-30T09:02:15Z</time>
      </trkpt>
      <trkpt lat="47.69652" lon="-2.23943">
        <ele>62.62</ele>
        <time>2013-12-30T09:02:19Z</time>
      </trkpt>
      <trkpt lat="47.69659" lon="-2.2396">
        <ele>61.18</ele>
        <time>2013-12-30T09:02:22Z</time>
      </trkpt>
      <trkpt lat="47.69665" lon="-2.23978">
        <ele>59.26</ele>
        <time>2013-12-30T09:02:25Z</time>
      </trkpt>
      <trkpt lat="47.69668" lon="-2.23992">
        <ele>57.34</ele>
        <time>2013-12-30T09:02:27Z</time>
      </trkpt>
      <trkpt lat="47.69671" lon="-2.24006">
        <ele>55.41</ele>
        <time>2013-12-30T09:02:29Z</time>
      </trkpt>
      <trkpt lat="47.69674" lon="-2.24022">
        <ele>53.49</ele>
        <time>2013-12-30T09:02:31Z</time>
      </trkpt>
      <trkpt lat="47.69676" lon="-2.24036">
        <ele>52.05</ele>
        <time>2013-12-30T09:02:33Z</time>
      </trkpt>
      <trkpt lat="47.69675" lon="-2.24057">
        <ele>49.65</ele>
        <time>2013-12-30T09:02:36Z</time>
      </trkpt>
      <trkpt lat="47.69675" lon="-2.24075">
        <ele>47.72</ele>
        <time>2013-12-30T09:02:38Z</time>
      </trkpt>
      <trkpt lat="47.69677" lon="-2.24096">
        <ele>45.8</ele>
        <time>2013-12-30T09:02:40Z</time>
      </trkpt>
      <trkpt lat="47.69679" lon="-2.24116">
        <ele>44.36</ele>
        <time>2013-12-30T09:02:42Z</time>
      </trkpt>
      <trkpt lat="47.69682" lon="-2.24133">
        <ele>42.92</ele>
        <time>2013-12-30T09:02:44Z</time>
      </trkpt>
      <trkpt lat="47.69685" lon="-2.24149">
        <ele>40.99</ele>
        <time>2013-12-30T09:02:46Z</time>
      </trkpt>
      <trkpt lat="47.6969" lon="-2.24165">
        <ele>39.07</ele>
        <time>2013-12-30T09:02:48Z</time>
      </trkpt>
      <trkpt lat="47.69696" lon="-2.24181">
        <ele>37.15</ele>
        <time>2013-12-30T09:02:50Z</time>
      </trkpt>
      <trkpt lat="47.69701" lon="-2.24197">
        <ele>35.23</ele>
        <time>2013-12-30T09:02:52Z</time>
      </trkpt>
      <trkpt lat="47.69704" lon="-2.24214">
        <ele>33.3</ele>
        <time>2013-12-30T09:02:54Z</time>
      </trkpt>
      <trkpt lat="47.69707" lon="-2.2423">
        <ele>31.38</ele>
        <time>2013-12-30T09:02:56Z</time>
      </trkpt>
      <trkpt lat="47.69713" lon="-2.24243">
        <ele>29.46</ele>
        <time>2013-12-30T09:02:58Z</time>
      </trkpt>
      <trkpt lat="47.69721" lon="-2.24254">
        <ele>27.53</ele>
        <time>2013-12-30T09:03:00Z</time>
      </trkpt>
      <trkpt lat="47.69732" lon="-2.24261">
        <ele>24.65</ele>
        <time>2013-12-30T09:03:03Z</time>
      </trkpt>
      <trkpt lat="47.69741" lon="-2.24263">
        <ele>21.77</ele>
        <time>2013-12-30T09:03:07Z</time>
      </trkpt>
      <trkpt lat="47.69743" lon="-2.2428">
        <ele>19.36</ele>
        <time>2013-12-30T09:03:12Z</time>
      </trkpt>
      <trkpt lat="47.69746" lon="-2.24298">
        <ele>19.36</ele>
        <time>2013-12-30T09:03:16Z</time>
      </trkpt>
      <trkpt lat="47.69751" lon="-2.24317">
        <ele>18.4</ele>
        <time>2013-12-30T09:03:19Z</time>
      </trkpt>
      <trkpt lat="47.69755" lon="-2.24332">
        <ele>17.92</ele>
        <time>2013-12-30T09:03:21Z</time>
      </trkpt>
      <trkpt lat="47.69759" lon="-2.24349">
        <ele>16.48</ele>
        <time>2013-12-30T09:03:23Z</time>
      </trkpt>
      <trkpt lat="47.69763" lon="-2.24367">
        <ele>15.52</ele>
        <time>2013-12-30T09:03:25Z</time>
      </trkpt>
      <trkpt lat="47.69768" lon="-2.24384">
        <ele>14.56</ele>
        <time>2013-12-30T09:03:27Z</time>
      </trkpt>
      <trkpt lat="47.69773" lon="-2.24401">
        <ele>14.08</ele>
        <time>2013-12-30T09:03:29Z</time>
      </trkpt>
      <trkpt lat="47.69778" lon="-2.24416">
        <ele>13.12</ele>
        <time>2013-12-30T09:03:31Z</time>
      </trkpt>
      <trkpt lat="47.69783" lon="-2.24433">
        <ele>12.63</ele>
        <time>2013-12-30T09:03:33Z</time>
      </trkpt>
      <trkpt lat="47.69788" lon="-2.24449">
        <ele>12.63</ele>
        <time>2013-12-30T09:03:35Z</time>
      </trkpt>
      <trkpt lat="47.69792" lon="-2.24466">
        <ele>12.15</ele>
        <time>2013-12-30T09:03:37Z</time>
      </trkpt>
      <trkpt lat="47.69795" lon="-2.24483">
        <ele>11.19</ele>
        <time>2013-12-30T09:03:39Z</time>
      </trkpt>
      <trkpt lat="47.69797" lon="-2.245">
        <ele>10.71</ele>
        <time>2013-12-30T09:03:41Z</time>
      </trkpt>
      <trkpt lat="47.69799" lon="-2.24516">
        <ele>10.23</ele>
        <time>2013-12-30T09:03:43Z</time>
      </trkpt>
      <trkpt lat="47.698" lon="-2.24533">
        <ele>10.23</ele>
        <time>2013-12-30T09:03:45Z</time>
      </trkpt>
      <trkpt lat="47.69801" lon="-2.2455">
        <ele>9.75</ele>
        <time>2013-12-30T09:03:47Z</time>
      </trkpt>
      <trkpt lat="47.69803" lon="-2.24566">
        <ele>9.27</ele>
        <time>2013-12-30T09:03:49Z</time>
      </trkpt>
      <trkpt lat="47.69804" lon="-2.24582">
        <ele>8.79</ele>
        <time>2013-12-30T09:03:51Z</time>
      </trkpt>
      <trkpt lat="47.69807" lon="-2.24597">
        <ele>8.79</ele>
        <time>2013-12-30T09:03:53Z</time>
      </trkpt>
      <trkpt lat="47.6981" lon="-2.24611">
        <ele>9.27</ele>
        <time>2013-12-30T09:03:55Z</time>
      </trkpt>
      <trkpt lat="47.69813" lon="-2.24626">
        <ele>10.71</ele>
        <time>2013-12-30T09:03:57Z</time>
      </trkpt>
      <trkpt lat="47.69816" lon="-2.24639">
        <ele>11.67</ele>
        <time>2013-12-30T09:03:59Z</time>
      </trkpt>
      <trkpt lat="47.69819" lon="-2.24653">
        <ele>12.63</ele>
        <time>2013-12-30T09:04:01Z</time>
      </trkpt>
      <trkpt lat="47.69824" lon="-2.24672">
        <ele>14.08</ele>
        <time>2013-12-30T09:04:04Z</time>
      </trkpt>
      <trkpt lat="47.69828" lon="-2.24689">
        <ele>14.56</ele>
        <time>2013-12-30T09:04:07Z</time>
      </trkpt>
      <trkpt lat="47.69832" lon="-2.24707">
        <ele>15.52</ele>
        <time>2013-12-30T09:04:10Z</time>
      </trkpt>
      <trkpt lat="47.69836" lon="-2.24725">
        <ele>16.48</ele>
        <time>2013-12-30T09:04:13Z</time>
      </trkpt>
      <trkpt lat="47.69839" lon="-2.2474">
        <ele>17.44</ele>
        <time>2013-12-30T09:04:16Z</time>
      </trkpt>
      <trkpt lat="47.69842" lon="-2.24754">
        <ele>17.92</ele>
        <time>2013-12-30T09:04:19Z</time>
      </trkpt>
      <trkpt lat="47.69846" lon="-2.24772">
        <ele>19.36</ele>
        <time>2013-12-30T09:04:23Z</time>
      </trkpt>
      <trkpt lat="47.69849" lon="-2.24788">
        <ele>19.84</ele>
        <time>2013-12-30T09:04:27Z</time>
      </trkpt>
      <trkpt lat="47.69852" lon="-2.24803">
        <ele>19.36</ele>
        <time>2013-12-30T09:04:31Z</time>
      </trkpt>
      <trkpt lat="47.69856" lon="-2.24818">
        <ele>19.84</ele>
        <time>2013-12-30T09:04:35Z</time>
      </trkpt>
      <trkpt lat="47.6986" lon="-2.24834">
        <ele>21.29</ele>
        <time>2013-12-30T09:04:40Z</time>
      </trkpt>
      <trkpt lat="47.69866" lon="-2.2485">
        <ele>21.77</ele>
        <time>2013-12-30T09:04:47Z</time>
      </trkpt>
      <trkpt lat="47.69872" lon="-2.24866">
        <ele>21.29</ele>
        <time>2013-12-30T09:04:53Z</time>
      </trkpt>
      <trkpt lat="47.69878" lon="-2.24882">
        <ele>22.25</ele>
        <time>2013-12-30T09:04:59Z</time>
      </trkpt>
      <trkpt lat="47.69881" lon="-2.24897">
        <ele>26.09</ele>
        <time>2013-12-30T09:05:04Z</time>
      </trkpt>
      <trkpt lat="47.69883" lon="-2.24911">
        <ele>27.53</ele>
        <time>2013-12-30T09:05:08Z</time>
      </trkpt>
      <trkpt lat="47.69886" lon="-2.24927">
        <ele>29.94</ele>
        <time>2013-12-30T09:05:13Z</time>
      </trkpt>
      <trkpt lat="47.69887" lon="-2.24941">
        <ele>30.9</ele>
        <time>2013-12-30T09:05:17Z</time>
      </trkpt>
      <trkpt lat="47.69889" lon="-2.24954">
        <ele>31.38</ele>
        <time>2013-12-30T09:05:21Z</time>
      </trkpt>
      <trkpt lat="47.69891" lon="-2.24968">
        <ele>30.9</ele>
        <time>2013-12-30T09:05:25Z</time>
      </trkpt>
      <trkpt lat="47.69893" lon="-2.24983">
        <ele>30.9</ele>
        <time>2013-12-30T09:05:29Z</time>
      </trkpt>
      <trkpt lat="47.69896" lon="-2.24997">
        <ele>31.86</ele>
        <time>2013-12-30T09:05:33Z</time>
      </trkpt>
      <trkpt lat="47.69898" lon="-2.25011">
        <ele>31.86</ele>
        <time>2013-12-30T09:05:37Z</time>
      </trkpt>
      <trkpt lat="47.699" lon="-2.25026">
        <ele>33.3</ele>
        <time>2013-12-30T09:05:41Z</time>
      </trkpt>
      <trkpt lat="47.69901" lon="-2.25041">
        <ele>32.82</ele>
        <time>2013-12-30T09:05:45Z</time>
      </trkpt>
      <trkpt lat="47.69902" lon="-2.25055">
        <ele>33.78</ele>
        <time>2013-12-30T09:05:49Z</time>
      </trkpt>
      <trkpt lat="47.69902" lon="-2.25069">
        <ele>34.74</ele>
        <time>2013-12-30T09:05:53Z</time>
      </trkpt>
      <trkpt lat="47.69901" lon="-2.25084">
        <ele>35.23</ele>
        <time>2013-12-30T09:05:57Z</time>
      </trkpt>
      <trkpt lat="47.69901" lon="-2.251">
        <ele>35.71</ele>
        <time>2013-12-30T09:06:01Z</time>
      </trkpt>
      <trkpt lat="47.69901" lon="-2.25115">
        <ele>36.67</ele>
        <time>2013-12-30T09:06:05Z</time>
      </trkpt>
      <trkpt lat="47.699" lon="-2.25129">
        <ele>37.15</ele>
        <time>2013-12-30T09:06:09Z</time>
      </trkpt>
      <trkpt lat="47.69899" lon="-2.25143">
        <ele>37.63</ele>
        <time>2013-12-30T09:06:13Z</time>
      </trkpt>
      <trkpt lat="47.69899" lon="-2.25158">
        <ele>37.63</ele>
        <time>2013-12-30T09:06:17Z</time>
      </trkpt>
      <trkpt lat="47.69899" lon="-2.25174">
        <ele>38.59</ele>
        <time>2013-12-30T09:06:21Z</time>
      </trkpt>
      <trkpt lat="47.69898" lon="-2.2519">
        <ele>40.03</ele>
        <time>2013-12-30T09:06:25Z</time>
      </trkpt>
      <trkpt lat="47.69897" lon="-2.25206">
        <ele>40.99</ele>
        <time>2013-12-30T09:06:29Z</time>
      </trkpt>
      <trkpt lat="47.69898" lon="-2.25221">
        <ele>41.47</ele>
        <time>2013-12-30T09:06:33Z</time>
      </trkpt>
      <trkpt lat="47.69899" lon="-2.25238">
        <ele>41.95</ele>
        <time>2013-12-30T09:06:37Z</time>
      </trkpt>
      <trkpt lat="47.699" lon="-2.25253">
        <ele>43.4</ele>
        <time>2013-12-30T09:06:41Z</time>
      </trkpt>
      <trkpt lat="47.69904" lon="-2.25267">
        <ele>44.36</ele>
        <time>2013-12-30T09:06:45Z</time>
      </trkpt>
      <trkpt lat="47.69907" lon="-2.25282">
        <ele>45.8</ele>
        <time>2013-12-30T09:06:49Z</time>
      </trkpt>
      <trkpt lat="47.69911" lon="-2.25298">
        <ele>46.76</ele>
        <time>2013-12-30T09:06:53Z</time>
      </trkpt>
      <trkpt lat="47.69915" lon="-2.25313">
        <ele>47.24</ele>
        <time>2013-12-30T09:06:57Z</time>
      </trkpt>
      <trkpt lat="47.69919" lon="-2.25328">
        <ele>48.2</ele>
        <time>2013-12-30T09:07:01Z</time>
      </trkpt>
      <trkpt lat="47.69923" lon="-2.25344">
        <ele>48.68</ele>
        <time>2013-12-30T09:07:05Z</time>
      </trkpt>
      <trkpt lat="47.69926" lon="-2.25357">
        <ele>48.2</ele>
        <time>2013-12-30T09:07:08Z</time>
      </trkpt>
      <trkpt lat="47.69929" lon="-2.25371">
        <ele>48.2</ele>
        <time>2013-12-30T09:07:11Z</time>
      </trkpt>
      <trkpt lat="47.69932" lon="-2.25385">
        <ele>47.72</ele>
        <time>2013-12-30T09:07:14Z</time>
      </trkpt>
      <trkpt lat="47.69937" lon="-2.25401">
        <ele>47.72</ele>
        <time>2013-12-30T09:07:17Z</time>
      </trkpt>
      <trkpt lat="47.69942" lon="-2.25416">
        <ele>47.24</ele>
        <time>2013-12-30T09:07:20Z</time>
      </trkpt>
      <trkpt lat="47.69947" lon="-2.25433">
        <ele>47.24</ele>
        <time>2013-12-30T09:07:23Z</time>
      </trkpt>
      <trkpt lat="47.69952" lon="-2.2545">
        <ele>46.28</ele>
        <time>2013-12-30T09:07:26Z</time>
      </trkpt>
      <trkpt lat="47.69959" lon="-2.25468">
        <ele>44.84</ele>
        <time>2013-12-30T09:07:29Z</time>
      </trkpt>
      <trkpt lat="47.69965" lon="-2.25478">
        <ele>44.36</ele>
        <time>2013-12-30T09:07:31Z</time>
      </trkpt>
      <trkpt lat="47.69972" lon="-2.25487">
        <ele>43.4</ele>
        <time>2013-12-30T09:07:33Z</time>
      </trkpt>
      <trkpt lat="47.6998" lon="-2.25497">
        <ele>41.95</ele>
        <time>2013-12-30T09:07:35Z</time>
      </trkpt>
      <trkpt lat="47.69987" lon="-2.25506">
        <ele>40.51</ele>
        <time>2013-12-30T09:07:37Z</time>
      </trkpt>
      <trkpt lat="47.69996" lon="-2.25518">
        <ele>38.11</ele>
        <time>2013-12-30T09:07:40Z</time>
      </trkpt>
      <trkpt lat="47.7" lon="-2.25539">
        <ele>36.67</ele>
        <time>2013-12-30T09:07:43Z</time>
      </trkpt>
      <trkpt lat="47.70004" lon="-2.25556">
        <ele>35.23</ele>
        <time>2013-12-30T09:07:45Z</time>
      </trkpt>
      <trkpt lat="47.70008" lon="-2.25576">
        <ele>33.78</ele>
        <time>2013-12-30T09:07:47Z</time>
      </trkpt>
      <trkpt lat="47.70013" lon="-2.25598">
        <ele>32.34</ele>
        <time>2013-12-30T09:07:49Z</time>
      </trkpt>
      <trkpt lat="47.70017" lon="-2.25622">
        <ele>30.42</ele>
        <time>2013-12-30T09:07:51Z</time>
      </trkpt>
      <trkpt lat="47.70021" lon="-2.25646">
        <ele>28.98</ele>
        <time>2013-12-30T09:07:53Z</time>
      </trkpt>
      <trkpt lat="47.70024" lon="-2.25668">
        <ele>28.02</ele>
        <time>2013-12-30T09:07:55Z</time>
      </trkpt>
      <trkpt lat="47.70025" lon="-2.25689">
        <ele>27.05</ele>
        <time>2013-12-30T09:07:57Z</time>
      </trkpt>
      <trkpt lat="47.70024" lon="-2.25708">
        <ele>26.09</ele>
        <time>2013-12-30T09:07:59Z</time>
      </trkpt>
      <trkpt lat="47.70023" lon="-2.25726">
        <ele>25.13</ele>
        <time>2013-12-30T09:08:01Z</time>
      </trkpt>
      <trkpt lat="47.70021" lon="-2.25742">
        <ele>24.17</ele>
        <time>2013-12-30T09:08:03Z</time>
      </trkpt>
      <trkpt lat="47.70018" lon="-2.25759">
        <ele>23.69</ele>
        <time>2013-12-30T09:08:05Z</time>
      </trkpt>
      <trkpt lat="47.70015" lon="-2.25777">
        <ele>23.21</ele>
        <time>2013-12-30T09:08:07Z</time>
      </trkpt>
      <trkpt lat="47.70012" lon="-2.25794">
        <ele>23.69</ele>
        <time>2013-12-30T09:08:09Z</time>
      </trkpt>
      <trkpt lat="47.70009" lon="-2.25809">
        <ele>24.17</ele>
        <time>2013-12-30T09:08:11Z</time>
      </trkpt>
      <trkpt lat="47.70007" lon="-2.25825">
        <ele>24.17</ele>
        <time>2013-12-30T09:08:13Z</time>
      </trkpt>
      <trkpt lat="47.70006" lon="-2.25839">
        <ele>24.17</ele>
        <time>2013-12-30T09:08:15Z</time>
      </trkpt>
      <trkpt lat="47.70003" lon="-2.2586">
        <ele>24.65</ele>
        <time>2013-12-30T09:08:18Z</time>
      </trkpt>
      <trkpt lat="47.70001" lon="-2.25874">
        <ele>25.13</ele>
        <time>2013-12-30T09:08:20Z</time>
      </trkpt>
      <trkpt lat="47.7" lon="-2.25887">
        <ele>24.65</ele>
        <time>2013-12-30T09:08:22Z</time>
      </trkpt>
      <trkpt lat="47.69998" lon="-2.25903">
        <ele>25.13</ele>
        <time>2013-12-30T09:08:24Z</time>
      </trkpt>
      <trkpt lat="47.69996" lon="-2.2592">
        <ele>25.13</ele>
        <time>2013-12-30T09:08:26Z</time>
      </trkpt>
      <trkpt lat="47.69992" lon="-2.25937">
        <ele>25.13</ele>
        <time>2013-12-30T09:08:28Z</time>
      </trkpt>
      <trkpt lat="47.69989" lon="-2.25955">
        <ele>25.61</ele>
        <time>2013-12-30T09:08:30Z</time>
      </trkpt>
      <trkpt lat="47.69985" lon="-2.25973">
        <ele>26.09</ele>
        <time>2013-12-30T09:08:32Z</time>
      </trkpt>
      <trkpt lat="47.69983" lon="-2.25991">
        <ele>26.57</ele>
        <time>2013-12-30T09:08:34Z</time>
      </trkpt>
      <trkpt lat="47.6998" lon="-2.26009">
        <ele>26.57</ele>
        <time>2013-12-30T09:08:36Z</time>
      </trkpt>
      <trkpt lat="47.69977" lon="-2.26028">
        <ele>26.57</ele>
        <time>2013-12-30T09:08:38Z</time>
      </trkpt>
      <trkpt lat="47.69973" lon="-2.26048">
        <ele>26.57</ele>
        <time>2013-12-30T09:08:40Z</time>
      </trkpt>
      <trkpt lat="47.6997" lon="-2.2607">
        <ele>26.57</ele>
        <time>2013-12-30T09:08:42Z</time>
      </trkpt>
      <trkpt lat="47.69967" lon="-2.26093">
        <ele>26.09</ele>
        <time>2013-12-30T09:08:44Z</time>
      </trkpt>
      <trkpt lat="47.69964" lon="-2.26116">
        <ele>25.13</ele>
        <time>2013-12-30T09:08:46Z</time>
      </trkpt>
      <trkpt lat="47.69966" lon="-2.26141">
        <ele>23.21</ele>
        <time>2013-12-30T09:08:48Z</time>
      </trkpt>
      <trkpt lat="47.69974" lon="-2.26165">
        <ele>21.29</ele>
        <time>2013-12-30T09:08:50Z</time>
      </trkpt>
      <trkpt lat="47.6998" lon="-2.26175">
        <ele>20.81</ele>
        <time>2013-12-30T09:08:51Z</time>
      </trkpt>
      <trkpt lat="47.69992" lon="-2.26193">
        <ele>19.84</ele>
        <time>2013-12-30T09:08:53Z</time>
      </trkpt>
      <trkpt lat="47.70002" lon="-2.26208">
        <ele>20.81</ele>
        <time>2013-12-30T09:08:55Z</time>
      </trkpt>
      <trkpt lat="47.70011" lon="-2.2622">
        <ele>21.77</ele>
        <time>2013-12-30T09:08:57Z</time>
      </trkpt>
      <trkpt lat="47.7002" lon="-2.26232">
        <ele>23.69</ele>
        <time>2013-12-30T09:09:00Z</time>
      </trkpt>
      <trkpt lat="47.70026" lon="-2.2624">
        <ele>25.61</ele>
        <time>2013-12-30T09:09:03Z</time>
      </trkpt>
      <trkpt lat="47.70037" lon="-2.26248">
        <ele>27.53</ele>
        <time>2013-12-30T09:09:07Z</time>
      </trkpt>
      <trkpt lat="47.70047" lon="-2.26252">
        <ele>28.5</ele>
        <time>2013-12-30T09:09:11Z</time>
      </trkpt>
      <trkpt lat="47.70059" lon="-2.26249">
        <ele>29.46</ele>
        <time>2013-12-30T09:09:15Z</time>
      </trkpt>
      <trkpt lat="47.70068" lon="-2.26244">
        <ele>30.42</ele>
        <time>2013-12-30T09:09:18Z</time>
      </trkpt>
      <trkpt lat="47.70079" lon="-2.26236">
        <ele>31.38</ele>
        <time>2013-12-30T09:09:22Z</time>
      </trkpt>
      <trkpt lat="47.70088" lon="-2.26229">
        <ele>32.34</ele>
        <time>2013-12-30T09:09:26Z</time>
      </trkpt>
      <trkpt lat="47.70091" lon="-2.26229">
        <ele>33.3</ele>
        <time>2013-12-30T09:09:45Z</time>
      </trkpt>
      <trkpt lat="47.70082" lon="-2.26237">
        <ele>32.82</ele>
        <time>2013-12-30T09:09:48Z</time>
      </trkpt>
      <trkpt lat="47.70073" lon="-2.26245">
        <ele>31.86</ele>
        <time>2013-12-30T09:09:50Z</time>
      </trkpt>
      <trkpt lat="47.70063" lon="-2.26252">
        <ele>30.9</ele>
        <time>2013-12-30T09:09:52Z</time>
      </trkpt>
      <trkpt lat="47.70053" lon="-2.26254">
        <ele>29.94</ele>
        <time>2013-12-30T09:09:54Z</time>
      </trkpt>
      <trkpt lat="47.70044" lon="-2.26254">
        <ele>28.98</ele>
        <time>2013-12-30T09:09:56Z</time>
      </trkpt>
      <trkpt lat="47.70031" lon="-2.26247">
        <ele>27.53</ele>
        <time>2013-12-30T09:09:59Z</time>
      </trkpt>
      <trkpt lat="47.70022" lon="-2.26238">
        <ele>26.57</ele>
        <time>2013-12-30T09:10:01Z</time>
      </trkpt>
      <trkpt lat="47.70014" lon="-2.2623">
        <ele>25.13</ele>
        <time>2013-12-30T09:10:03Z</time>
      </trkpt>
      <trkpt lat="47.70006" lon="-2.2622">
        <ele>23.21</ele>
        <time>2013-12-30T09:10:07Z</time>
      </trkpt>
      <trkpt lat="47.69998" lon="-2.26209">
        <ele>21.77</ele>
        <time>2013-12-30T09:10:12Z</time>
      </trkpt>
      <trkpt lat="47.69989" lon="-2.26195">
        <ele>21.29</ele>
        <time>2013-12-30T09:10:15Z</time>
      </trkpt>
      <trkpt lat="47.69982" lon="-2.26184">
        <ele>20.81</ele>
        <time>2013-12-30T09:10:17Z</time>
      </trkpt>
      <trkpt lat="47.69976" lon="-2.26175">
        <ele>20.32</ele>
        <time>2013-12-30T09:10:19Z</time>
      </trkpt>
      <trkpt lat="47.69974" lon="-2.26166">
        <ele>20.32</ele>
        <time>2013-12-30T09:10:24Z</time>
      </trkpt>
      <trkpt lat="47.6998" lon="-2.26176">
        <ele>21.29</ele>
        <time>2013-12-30T09:10:37Z</time>
      </trkpt>
      <trkpt lat="47.69987" lon="-2.26186">
        <ele>21.29</ele>
        <time>2013-12-30T09:10:40Z</time>
      </trkpt>
      <trkpt lat="47.69994" lon="-2.26197">
        <ele>21.77</ele>
        <time>2013-12-30T09:10:43Z</time>
      </trkpt>
      <trkpt lat="47.70003" lon="-2.26209">
        <ele>22.25</ele>
        <time>2013-12-30T09:10:47Z</time>
      </trkpt>
      <trkpt lat="47.70011" lon="-2.2622">
        <ele>23.21</ele>
        <time>2013-12-30T09:10:51Z</time>
      </trkpt>
      <trkpt lat="47.70018" lon="-2.26229">
        <ele>24.17</ele>
        <time>2013-12-30T09:10:55Z</time>
      </trkpt>
      <trkpt lat="47.70016" lon="-2.26233">
        <ele>26.09</ele>
        <time>2013-12-30T09:11:42Z</time>
      </trkpt>
      <trkpt lat="47.70008" lon="-2.2622">
        <ele>25.61</ele>
        <time>2013-12-30T09:11:46Z</time>
      </trkpt>
      <trkpt lat="47.7" lon="-2.2621">
        <ele>24.65</ele>
        <time>2013-12-30T09:11:48Z</time>
      </trkpt>
      <trkpt lat="47.6999" lon="-2.26197">
        <ele>23.21</ele>
        <time>2013-12-30T09:11:50Z</time>
      </trkpt>
      <trkpt lat="47.69981" lon="-2.26182">
        <ele>22.25</ele>
        <time>2013-12-30T09:11:52Z</time>
      </trkpt>
      <trkpt lat="47.69971" lon="-2.26166">
        <ele>21.77</ele>
        <time>2013-12-30T09:11:54Z</time>
      </trkpt>
      <trkpt lat="47.69965" lon="-2.26152">
        <ele>21.29</ele>
        <time>2013-12-30T09:11:56Z</time>
      </trkpt>
      <trkpt lat="47.6996" lon="-2.26136">
        <ele>21.77</ele>
        <time>2013-12-30T09:11:59Z</time>
      </trkpt>
      <trkpt lat="47.69955" lon="-2.26142">
        <ele>26.57</ele>
        <time>2013-12-30T09:12:29Z</time>
      </trkpt>
      <trkpt lat="47.69952" lon="-2.26158">
        <ele>25.61</ele>
        <time>2013-12-30T09:12:33Z</time>
      </trkpt>
      <trkpt lat="47.69947" lon="-2.26172">
        <ele>26.09</ele>
        <time>2013-12-30T09:12:37Z</time>
      </trkpt>
      <trkpt lat="47.69943" lon="-2.26187">
        <ele>27.53</ele>
        <time>2013-12-30T09:12:41Z</time>
      </trkpt>
      <trkpt lat="47.69938" lon="-2.26204">
        <ele>28.5</ele>
        <time>2013-12-30T09:12:48Z</time>
      </trkpt>
      <trkpt lat="47.69927" lon="-2.2623">
        <ele>29.46</ele>
        <time>2013-12-30T09:13:09Z</time>
      </trkpt>
      <trkpt lat="47.69925" lon="-2.26249">
        <ele>31.38</ele>
        <time>2013-12-30T09:13:14Z</time>
      </trkpt>
      <trkpt lat="47.69921" lon="-2.26268">
        <ele>33.3</ele>
        <time>2013-12-30T09:13:19Z</time>
      </trkpt>
      <trkpt lat="47.69911" lon="-2.26284">
        <ele>34.26</ele>
        <time>2013-12-30T09:13:24Z</time>
      </trkpt>
      <trkpt lat="47.69901" lon="-2.26294">
        <ele>33.78</ele>
        <time>2013-12-30T09:13:27Z</time>
      </trkpt>
      <trkpt lat="47.69892" lon="-2.26303">
        <ele>34.74</ele>
        <time>2013-12-30T09:13:30Z</time>
      </trkpt>
      <trkpt lat="47.69879" lon="-2.26311">
        <ele>36.19</ele>
        <time>2013-12-30T09:13:34Z</time>
      </trkpt>
      <trkpt lat="47.69866" lon="-2.26317">
        <ele>37.15</ele>
        <time>2013-12-30T09:13:38Z</time>
      </trkpt>
      <trkpt lat="47.69855" lon="-2.26326">
        <ele>38.11</ele>
        <time>2013-12-30T09:13:43Z</time>
      </trkpt>
      <trkpt lat="47.69846" lon="-2.26336">
        <ele>38.59</ele>
        <time>2013-12-30T09:13:48Z</time>
      </trkpt>
      <trkpt lat="47.69838" lon="-2.26351">
        <ele>38.59</ele>
        <time>2013-12-30T09:13:55Z</time>
      </trkpt>
      <trkpt lat="47.69827" lon="-2.26368">
        <ele>38.11</ele>
        <time>2013-12-30T09:14:04Z</time>
      </trkpt>
      <trkpt lat="47.69818" lon="-2.26382">
        <ele>39.07</ele>
        <time>2013-12-30T09:14:10Z</time>
      </trkpt>
      <trkpt lat="47.69801" lon="-2.26395">
        <ele>40.99</ele>
        <time>2013-12-30T09:14:23Z</time>
      </trkpt>
      <trkpt lat="47.69799" lon="-2.26403">
        <ele>26.57</ele>
        <time>2013-12-30T09:15:16Z</time>
      </trkpt>
      <trkpt lat="47.69798" lon="-2.26416">
        <ele>27.05</ele>
        <time>2013-12-30T09:15:29Z</time>
      </trkpt>
      <trkpt lat="47.69794" lon="-2.26429">
        <ele>31.86</ele>
        <time>2013-12-30T09:17:20Z</time>
      </trkpt>
      <trkpt lat="47.69792" lon="-2.26444">
        <ele>33.3</ele>
        <time>2013-12-30T09:18:53Z</time>
      </trkpt>
      <trkpt lat="47.69781" lon="-2.26448">
        <ele>34.74</ele>
        <time>2013-12-30T09:19:01Z</time>
      </trkpt>
      <trkpt lat="47.69768" lon="-2.26451">
        <ele>34.26</ele>
        <time>2013-12-30T09:19:08Z</time>
      </trkpt>
      <trkpt lat="47.69756" lon="-2.2645">
        <ele>36.67</ele>
        <time>2013-12-30T09:19:15Z</time>
      </trkpt>
      <trkpt lat="47.69747" lon="-2.26451">
        <ele>39.07</ele>
        <time>2013-12-30T09:19:20Z</time>
      </trkpt>
      <trkpt lat="47.69731" lon="-2.26455">
        <ele>40.03</ele>
        <time>2013-12-30T09:19:55Z</time>
      </trkpt>
      <trkpt lat="47.69723" lon="-2.26474">
        <ele>40.51</ele>
        <time>2013-12-30T09:20:17Z</time>
      </trkpt>
      <trkpt lat="47.69712" lon="-2.26491">
        <ele>44.84</ele>
        <time>2013-12-30T09:20:26Z</time>
      </trkpt>
      <trkpt lat="47.69703" lon="-2.26509">
        <ele>48.68</ele>
        <time>2013-12-30T09:20:35Z</time>
      </trkpt>
      <trkpt lat="47.69695" lon="-2.26528">
        <ele>49.65</ele>
        <time>2013-12-30T09:20:42Z</time>
      </trkpt>
      <trkpt lat="47.69687" lon="-2.26548">
        <ele>50.13</ele>
        <time>2013-12-30T09:20:48Z</time>
      </trkpt>
      <trkpt lat="47.69678" lon="-2.26573">
        <ele>49.16</ele>
        <time>2013-12-30T09:20:54Z</time>
      </trkpt>
      <trkpt lat="47.6967" lon="-2.26596">
        <ele>48.2</ele>
        <time>2013-12-30T09:20:59Z</time>
      </trkpt>
      <trkpt lat="47.69662" lon="-2.26619">
        <ele>46.28</ele>
        <time>2013-12-30T09:21:04Z</time>
      </trkpt>
      <trkpt lat="47.69653" lon="-2.26655">
        <ele>44.84</ele>
        <time>2013-12-30T09:21:20Z</time>
      </trkpt>
      <trkpt lat="47.69644" lon="-2.26684">
        <ele>44.36</ele>
        <time>2013-12-30T09:21:35Z</time>
      </trkpt>
      <trkpt lat="47.69645" lon="-2.26702">
        <ele>43.4</ele>
        <time>2013-12-30T09:21:41Z</time>
      </trkpt>
      <trkpt lat="47.69645" lon="-2.26722">
        <ele>41.47</ele>
        <time>2013-12-30T09:21:47Z</time>
      </trkpt>
      <trkpt lat="47.69647" lon="-2.26742">
        <ele>38.11</ele>
        <time>2013-12-30T09:21:54Z</time>
      </trkpt>
      <trkpt lat="47.69646" lon="-2.26762">
        <ele>37.15</ele>
        <time>2013-12-30T09:22:00Z</time>
      </trkpt>
      <trkpt lat="47.69642" lon="-2.26784">
        <ele>36.67</ele>
        <time>2013-12-30T09:22:06Z</time>
      </trkpt>
      <trkpt lat="47.69644" lon="-2.26805">
        <ele>34.74</ele>
        <time>2013-12-30T09:22:12Z</time>
      </trkpt>
      <trkpt lat="47.69645" lon="-2.26822">
        <ele>33.3</ele>
        <time>2013-12-30T09:22:17Z</time>
      </trkpt>
      <trkpt lat="47.69647" lon="-2.26839">
        <ele>30.9</ele>
        <time>2013-12-30T09:22:22Z</time>
      </trkpt>
      <trkpt lat="47.69648" lon="-2.26856">
        <ele>29.46</ele>
        <time>2013-12-30T09:22:27Z</time>
      </trkpt>
      <trkpt lat="47.69649" lon="-2.26873">
        <ele>28.5</ele>
        <time>2013-12-30T09:22:33Z</time>
      </trkpt>
      <trkpt lat="47.6965" lon="-2.26891">
        <ele>31.86</ele>
        <time>2013-12-30T09:23:17Z</time>
      </trkpt>
      <trkpt lat="47.69652" lon="-2.26907">
        <ele>33.3</ele>
        <time>2013-12-30T09:23:23Z</time>
      </trkpt>
      <trkpt lat="47.69654" lon="-2.26922">
        <ele>34.26</ele>
        <time>2013-12-30T09:23:27Z</time>
      </trkpt>
      <trkpt lat="47.69656" lon="-2.2694">
        <ele>34.26</ele>
        <time>2013-12-30T09:23:32Z</time>
      </trkpt>
      <trkpt lat="47.69661" lon="-2.26958">
        <ele>34.74</ele>
        <time>2013-12-30T09:23:38Z</time>
      </trkpt>
      <trkpt lat="47.69666" lon="-2.26976">
        <ele>34.74</ele>
        <time>2013-12-30T09:23:45Z</time>
      </trkpt>
      <trkpt lat="47.69671" lon="-2.26991">
        <ele>35.71</ele>
        <time>2013-12-30T09:23:50Z</time>
      </trkpt>
      <trkpt lat="47.69676" lon="-2.27011">
        <ele>38.59</ele>
        <time>2013-12-30T09:24:05Z</time>
      </trkpt>
      <trkpt lat="47.6968" lon="-2.27025">
        <ele>40.51</ele>
        <time>2013-12-30T09:24:11Z</time>
      </trkpt>
      <trkpt lat="47.69686" lon="-2.2704">
        <ele>39.07</ele>
        <time>2013-12-30T09:24:40Z</time>
      </trkpt>
      <trkpt lat="47.69688" lon="-2.27042">
        <ele>40.03</ele>
        <time>2013-12-30T09:24:52Z</time>
      </trkpt>
      <trkpt lat="47.69696" lon="-2.27047">
        <ele>46.28</ele>
        <time>2013-12-30T09:25:11Z</time>
      </trkpt>
      <trkpt lat="47.69696" lon="-2.27073">
        <ele>46.76</ele>
        <time>2013-12-30T09:25:33Z</time>
      </trkpt>
      <trkpt lat="47.69707" lon="-2.27086">
        <ele>50.13</ele>
        <time>2013-12-30T09:25:52Z</time>
      </trkpt>
      <trkpt lat="47.69713" lon="-2.271">
        <ele>49.16</ele>
        <time>2013-12-30T09:26:03Z</time>
      </trkpt>
      <trkpt lat="47.6972" lon="-2.27108">
        <ele>48.2</ele>
        <time>2013-12-30T09:26:16Z</time>
      </trkpt>
      <trkpt lat="47.69728" lon="-2.27121">
        <ele>48.2</ele>
        <time>2013-12-30T09:26:30Z</time>
      </trkpt>
      <trkpt lat="47.69729" lon="-2.27137">
        <ele>47.24</ele>
        <time>2013-12-30T09:26:41Z</time>
      </trkpt>
      <trkpt lat="47.69729" lon="-2.27153">
        <ele>45.32</ele>
        <time>2013-12-30T09:26:45Z</time>
      </trkpt>
      <trkpt lat="47.6973" lon="-2.27168">
        <ele>44.36</ele>
        <time>2013-12-30T09:26:48Z</time>
      </trkpt>
      <trkpt lat="47.69733" lon="-2.27184">
        <ele>45.8</ele>
        <time>2013-12-30T09:26:53Z</time>
      </trkpt>
      <trkpt lat="47.69736" lon="-2.272">
        <ele>46.28</ele>
        <time>2013-12-30T09:26:57Z</time>
      </trkpt>
      <trkpt lat="47.69735" lon="-2.2722">
        <ele>44.84</ele>
        <time>2013-12-30T09:27:01Z</time>
      </trkpt>
      <trkpt lat="47.69738" lon="-2.27237">
        <ele>44.84</ele>
        <time>2013-12-30T09:27:05Z</time>
      </trkpt>
      <trkpt lat="47.69738" lon="-2.27255">
        <ele>46.28</ele>
        <time>2013-12-30T09:27:10Z</time>
      </trkpt>
      <trkpt lat="47.69738" lon="-2.27273">
        <ele>45.32</ele>
        <time>2013-12-30T09:27:14Z</time>
      </trkpt>
      <trkpt lat="47.69739" lon="-2.27293">
        <ele>44.36</ele>
        <time>2013-12-30T09:27:18Z</time>
      </trkpt>
      <trkpt lat="47.6974" lon="-2.2731">
        <ele>43.88</ele>
        <time>2013-12-30T09:27:21Z</time>
      </trkpt>
      <trkpt lat="47.69743" lon="-2.27329">
        <ele>42.92</ele>
        <time>2013-12-30T09:27:25Z</time>
      </trkpt>
      <trkpt lat="47.69741" lon="-2.27344">
        <ele>42.44</ele>
        <time>2013-12-30T09:27:29Z</time>
      </trkpt>
      <trkpt lat="47.69737" lon="-2.27359">
        <ele>42.44</ele>
        <time>2013-12-30T09:27:34Z</time>
      </trkpt>
      <trkpt lat="47.6974" lon="-2.27376">
        <ele>42.92</ele>
        <time>2013-12-30T09:27:39Z</time>
      </trkpt>
      <trkpt lat="47.6974" lon="-2.27392">
        <ele>43.4</ele>
        <time>2013-12-30T09:27:44Z</time>
      </trkpt>
      <trkpt lat="47.69742" lon="-2.2741">
        <ele>43.88</ele>
        <time>2013-12-30T09:27:49Z</time>
      </trkpt>
      <trkpt lat="47.69744" lon="-2.27425">
        <ele>43.88</ele>
        <time>2013-12-30T09:27:53Z</time>
      </trkpt>
      <trkpt lat="47.69747" lon="-2.2744">
        <ele>44.36</ele>
        <time>2013-12-30T09:27:57Z</time>
      </trkpt>
      <trkpt lat="47.6975" lon="-2.27455">
        <ele>44.84</ele>
        <time>2013-12-30T09:28:01Z</time>
      </trkpt>
      <trkpt lat="47.69752" lon="-2.27472">
        <ele>44.84</ele>
        <time>2013-12-30T09:28:05Z</time>
      </trkpt>
      <trkpt lat="47.69755" lon="-2.27486">
        <ele>45.32</ele>
        <time>2013-12-30T09:28:09Z</time>
      </trkpt>
      <trkpt lat="47.69757" lon="-2.275">
        <ele>47.24</ele>
        <time>2013-12-30T09:28:13Z</time>
      </trkpt>
      <trkpt lat="47.6976" lon="-2.27515">
        <ele>49.16</ele>
        <time>2013-12-30T09:28:17Z</time>
      </trkpt>
      <trkpt lat="47.69764" lon="-2.27533">
        <ele>52.05</ele>
        <time>2013-12-30T09:28:22Z</time>
      </trkpt>
      <trkpt lat="47.69768" lon="-2.27548">
        <ele>54.45</ele>
        <time>2013-12-30T09:28:27Z</time>
      </trkpt>
      <trkpt lat="47.69771" lon="-2.27562">
        <ele>55.89</ele>
        <time>2013-12-30T09:28:31Z</time>
      </trkpt>
      <trkpt lat="47.69773" lon="-2.27581">
        <ele>56.37</ele>
        <time>2013-12-30T09:28:35Z</time>
      </trkpt>
      <trkpt lat="47.69775" lon="-2.27597">
        <ele>56.37</ele>
        <time>2013-12-30T09:28:38Z</time>
      </trkpt>
      <trkpt lat="47.69777" lon="-2.27615">
        <ele>55.41</ele>
        <time>2013-12-30T09:28:41Z</time>
      </trkpt>
      <trkpt lat="47.69779" lon="-2.27632">
        <ele>54.45</ele>
        <time>2013-12-30T09:28:44Z</time>
      </trkpt>
      <trkpt lat="47.69781" lon="-2.27646">
        <ele>53.97</ele>
        <time>2013-12-30T09:28:47Z</time>
      </trkpt>
      <trkpt lat="47.69784" lon="-2.27664">
        <ele>53.49</ele>
        <time>2013-12-30T09:28:51Z</time>
      </trkpt>
      <trkpt lat="47.69785" lon="-2.27682">
        <ele>53.97</ele>
        <time>2013-12-30T09:28:55Z</time>
      </trkpt>
      <trkpt lat="47.69786" lon="-2.27697">
        <ele>53.97</ele>
        <time>2013-12-30T09:28:58Z</time>
      </trkpt>
      <trkpt lat="47.69788" lon="-2.27715">
        <ele>53.49</ele>
        <time>2013-12-30T09:29:02Z</time>
      </trkpt>
      <trkpt lat="47.6979" lon="-2.27735">
        <ele>53.49</ele>
        <time>2013-12-30T09:29:06Z</time>
      </trkpt>
      <trkpt lat="47.69791" lon="-2.27753">
        <ele>53.01</ele>
        <time>2013-12-30T09:29:10Z</time>
      </trkpt>
      <trkpt lat="47.69795" lon="-2.27772">
        <ele>53.49</ele>
        <time>2013-12-30T09:29:15Z</time>
      </trkpt>
      <trkpt lat="47.69803" lon="-2.27782">
        <ele>57.82</ele>
        <time>2013-12-30T09:29:35Z</time>
      </trkpt>
      <trkpt lat="47.69806" lon="-2.27796">
        <ele>59.74</ele>
        <time>2013-12-30T09:29:50Z</time>
      </trkpt>
      <trkpt lat="47.69805" lon="-2.27813">
        <ele>56.37</ele>
        <time>2013-12-30T09:29:56Z</time>
      </trkpt>
      <trkpt lat="47.69802" lon="-2.27829">
        <ele>54.45</ele>
        <time>2013-12-30T09:30:02Z</time>
      </trkpt>
      <trkpt lat="47.69806" lon="-2.27848">
        <ele>53.97</ele>
        <time>2013-12-30T09:30:07Z</time>
      </trkpt>
      <trkpt lat="47.69809" lon="-2.27867">
        <ele>54.93</ele>
        <time>2013-12-30T09:30:12Z</time>
      </trkpt>
      <trkpt lat="47.69809" lon="-2.27887">
        <ele>56.37</ele>
        <time>2013-12-30T09:30:17Z</time>
      </trkpt>
      <trkpt lat="47.69808" lon="-2.27908">
        <ele>57.82</ele>
        <time>2013-12-30T09:30:21Z</time>
      </trkpt>
      <trkpt lat="47.6981" lon="-2.27925">
        <ele>57.82</ele>
        <time>2013-12-30T09:30:24Z</time>
      </trkpt>
      <trkpt lat="47.69809" lon="-2.27943">
        <ele>57.34</ele>
        <time>2013-12-30T09:30:27Z</time>
      </trkpt>
      <trkpt lat="47.6981" lon="-2.2796">
        <ele>56.86</ele>
        <time>2013-12-30T09:30:30Z</time>
      </trkpt>
      <trkpt lat="47.69811" lon="-2.27979">
        <ele>55.41</ele>
        <time>2013-12-30T09:30:34Z</time>
      </trkpt>
      <trkpt lat="47.69812" lon="-2.27995">
        <ele>54.93</ele>
        <time>2013-12-30T09:30:37Z</time>
      </trkpt>
      <trkpt lat="47.69814" lon="-2.2801">
        <ele>54.45</ele>
        <time>2013-12-30T09:30:40Z</time>
      </trkpt>
      <trkpt lat="47.69816" lon="-2.28029">
        <ele>53.49</ele>
        <time>2013-12-30T09:30:43Z</time>
      </trkpt>
      <trkpt lat="47.69814" lon="-2.28047">
        <ele>53.49</ele>
        <time>2013-12-30T09:30:46Z</time>
      </trkpt>
      <trkpt lat="47.69814" lon="-2.28069">
        <ele>53.49</ele>
        <time>2013-12-30T09:30:50Z</time>
      </trkpt>
      <trkpt lat="47.69814" lon="-2.28087">
        <ele>53.97</ele>
        <time>2013-12-30T09:30:53Z</time>
      </trkpt>
      <trkpt lat="47.69815" lon="-2.28104">
        <ele>53.97</ele>
        <time>2013-12-30T09:30:56Z</time>
      </trkpt>
      <trkpt lat="47.69816" lon="-2.28121">
        <ele>53.97</ele>
        <time>2013-12-30T09:30:59Z</time>
      </trkpt>
      <trkpt lat="47.69817" lon="-2.28141">
        <ele>53.49</ele>
        <time>2013-12-30T09:31:03Z</time>
      </trkpt>
      <trkpt lat="47.69818" lon="-2.28157">
        <ele>53.49</ele>
        <time>2013-12-30T09:31:06Z</time>
      </trkpt>
      <trkpt lat="47.69819" lon="-2.28173">
        <ele>52.53</ele>
        <time>2013-12-30T09:31:09Z</time>
      </trkpt>
      <trkpt lat="47.69822" lon="-2.28189">
        <ele>51.57</ele>
        <time>2013-12-30T09:31:12Z</time>
      </trkpt>
      <trkpt lat="47.69823" lon="-2.28209">
        <ele>50.13</ele>
        <time>2013-12-30T09:31:15Z</time>
      </trkpt>
      <trkpt lat="47.69825" lon="-2.28226">
        <ele>48.2</ele>
        <time>2013-12-30T09:31:19Z</time>
      </trkpt>
      <trkpt lat="47.69826" lon="-2.28248">
        <ele>46.76</ele>
        <time>2013-12-30T09:31:24Z</time>
      </trkpt>
      <trkpt lat="47.69829" lon="-2.28263">
        <ele>45.8</ele>
        <time>2013-12-30T09:31:27Z</time>
      </trkpt>
      <trkpt lat="47.69832" lon="-2.2828">
        <ele>45.32</ele>
        <time>2013-12-30T09:31:30Z</time>
      </trkpt>
      <trkpt lat="47.69832" lon="-2.28295">
        <ele>44.36</ele>
        <time>2013-12-30T09:31:33Z</time>
      </trkpt>
      <trkpt lat="47.69833" lon="-2.28315">
        <ele>42.92</ele>
        <time>2013-12-30T09:31:37Z</time>
      </trkpt>
      <trkpt lat="47.69835" lon="-2.28336">
        <ele>42.44</ele>
        <time>2013-12-30T09:31:41Z</time>
      </trkpt>
      <trkpt lat="47.69828" lon="-2.28367">
        <ele>54.93</ele>
        <time>2013-12-30T09:32:51Z</time>
      </trkpt>
      <trkpt lat="47.69826" lon="-2.28353">
        <ele>55.89</ele>
        <time>2013-12-30T09:32:57Z</time>
      </trkpt>
      <trkpt lat="47.69826" lon="-2.28335">
        <ele>55.89</ele>
        <time>2013-12-30T09:33:02Z</time>
      </trkpt>
      <trkpt lat="47.69828" lon="-2.28318">
        <ele>55.89</ele>
        <time>2013-12-30T09:33:06Z</time>
      </trkpt>
      <trkpt lat="47.69829" lon="-2.28303">
        <ele>55.41</ele>
        <time>2013-12-30T09:33:12Z</time>
      </trkpt>
      <trkpt lat="47.69831" lon="-2.28285">
        <ele>53.49</ele>
        <time>2013-12-30T09:33:23Z</time>
      </trkpt>
      <trkpt lat="47.69833" lon="-2.28269">
        <ele>54.45</ele>
        <time>2013-12-30T09:33:28Z</time>
      </trkpt>
      <trkpt lat="47.69837" lon="-2.28255">
        <ele>55.41</ele>
        <time>2013-12-30T09:33:32Z</time>
      </trkpt>
      <trkpt lat="47.69841" lon="-2.28241">
        <ele>56.37</ele>
        <time>2013-12-30T09:33:36Z</time>
      </trkpt>
      <trkpt lat="47.69846" lon="-2.28228">
        <ele>56.86</ele>
        <time>2013-12-30T09:33:40Z</time>
      </trkpt>
      <trkpt lat="47.69851" lon="-2.28215">
        <ele>57.34</ele>
        <time>2013-12-30T09:33:44Z</time>
      </trkpt>
      <trkpt lat="47.69856" lon="-2.28202">
        <ele>58.3</ele>
        <time>2013-12-30T09:33:48Z</time>
      </trkpt>
      <trkpt lat="47.6986" lon="-2.2819">
        <ele>59.26</ele>
        <time>2013-12-30T09:33:52Z</time>
      </trkpt>
      <trkpt lat="47.69864" lon="-2.28177">
        <ele>59.74</ele>
        <time>2013-12-30T09:33:56Z</time>
      </trkpt>
      <trkpt lat="47.69866" lon="-2.28161">
        <ele>60.22</ele>
        <time>2013-12-30T09:34:01Z</time>
      </trkpt>
      <trkpt lat="47.69868" lon="-2.28146">
        <ele>60.7</ele>
        <time>2013-12-30T09:34:06Z</time>
      </trkpt>
      <trkpt lat="47.69871" lon="-2.28129">
        <ele>61.66</ele>
        <time>2013-12-30T09:34:11Z</time>
      </trkpt>
      <trkpt lat="47.69876" lon="-2.28115">
        <ele>62.14</ele>
        <time>2013-12-30T09:34:16Z</time>
      </trkpt>
      <trkpt lat="47.69883" lon="-2.28104">
        <ele>62.14</ele>
        <time>2013-12-30T09:34:21Z</time>
      </trkpt>
      <trkpt lat="47.69891" lon="-2.28092">
        <ele>62.62</ele>
        <time>2013-12-30T09:34:26Z</time>
      </trkpt>
      <trkpt lat="47.69898" lon="-2.28082">
        <ele>64.07</ele>
        <time>2013-12-30T09:34:30Z</time>
      </trkpt>
      <trkpt lat="47.69905" lon="-2.28072">
        <ele>65.51</ele>
        <time>2013-12-30T09:34:34Z</time>
      </trkpt>
      <trkpt lat="47.69911" lon="-2.28061">
        <ele>67.43</ele>
        <time>2013-12-30T09:34:38Z</time>
      </trkpt>
      <trkpt lat="47.69917" lon="-2.2805">
        <ele>68.39</ele>
        <time>2013-12-30T09:34:42Z</time>
      </trkpt>
      <trkpt lat="47.69921" lon="-2.28038">
        <ele>69.35</ele>
        <time>2013-12-30T09:34:46Z</time>
      </trkpt>
      <trkpt lat="47.69925" lon="-2.28024">
        <ele>69.83</ele>
        <time>2013-12-30T09:34:51Z</time>
      </trkpt>
      <trkpt lat="47.69928" lon="-2.28008">
        <ele>70.79</ele>
        <time>2013-12-30T09:34:56Z</time>
      </trkpt>
      <trkpt lat="47.69931" lon="-2.27994">
        <ele>71.27</ele>
        <time>2013-12-30T09:35:00Z</time>
      </trkpt>
      <trkpt lat="47.69934" lon="-2.27979">
        <ele>71.76</ele>
        <time>2013-12-30T09:35:04Z</time>
      </trkpt>
      <trkpt lat="47.69939" lon="-2.27964">
        <ele>71.76</ele>
        <time>2013-12-30T09:35:08Z</time>
      </trkpt>
      <trkpt lat="47.69944" lon="-2.27952">
        <ele>71.76</ele>
        <time>2013-12-30T09:35:12Z</time>
      </trkpt>
      <trkpt lat="47.69953" lon="-2.27953">
        <ele>72.24</ele>
        <time>2013-12-30T09:35:16Z</time>
      </trkpt>
      <trkpt lat="47.6996" lon="-2.27961">
        <ele>72.24</ele>
        <time>2013-12-30T09:35:20Z</time>
      </trkpt>
      <trkpt lat="47.69966" lon="-2.27972">
        <ele>72.72</ele>
        <time>2013-12-30T09:35:24Z</time>
      </trkpt>
      <trkpt lat="47.69973" lon="-2.27982">
        <ele>73.2</ele>
        <time>2013-12-30T09:35:29Z</time>
      </trkpt>
      <trkpt lat="47.69976" lon="-2.27996">
        <ele>73.68</ele>
        <time>2013-12-30T09:35:33Z</time>
      </trkpt>
      <trkpt lat="47.69976" lon="-2.28011">
        <ele>73.2</ele>
        <time>2013-12-30T09:35:36Z</time>
      </trkpt>
      <trkpt lat="47.69976" lon="-2.28027">
        <ele>72.72</ele>
        <time>2013-12-30T09:35:39Z</time>
      </trkpt>
      <trkpt lat="47.69978" lon="-2.28043">
        <ele>72.72</ele>
        <time>2013-12-30T09:35:42Z</time>
      </trkpt>
      <trkpt lat="47.69981" lon="-2.28059">
        <ele>72.72</ele>
        <time>2013-12-30T09:35:45Z</time>
      </trkpt>
      <trkpt lat="47.69984" lon="-2.28074">
        <ele>73.2</ele>
        <time>2013-12-30T09:35:48Z</time>
      </trkpt>
      <trkpt lat="47.69987" lon="-2.28088">
        <ele>73.2</ele>
        <time>2013-12-30T09:35:51Z</time>
      </trkpt>
      <trkpt lat="47.69989" lon="-2.28101">
        <ele>73.68</ele>
        <time>2013-12-30T09:35:55Z</time>
      </trkpt>
      <trkpt lat="47.69997" lon="-2.28109">
        <ele>73.2</ele>
        <time>2013-12-30T09:36:30Z</time>
      </trkpt>
      <trkpt lat="47.70004" lon="-2.28121">
        <ele>73.68</ele>
        <time>2013-12-30T09:36:35Z</time>
      </trkpt>
      <trkpt lat="47.70005" lon="-2.28137">
        <ele>74.16</ele>
        <time>2013-12-30T09:36:39Z</time>
      </trkpt>
      <trkpt lat="47.70005" lon="-2.28155">
        <ele>74.16</ele>
        <time>2013-12-30T09:36:43Z</time>
      </trkpt>
      <trkpt lat="47.70005" lon="-2.28168">
        <ele>74.64</ele>
        <time>2013-12-30T09:36:46Z</time>
      </trkpt>
      <trkpt lat="47.70007" lon="-2.28183">
        <ele>74.64</ele>
        <time>2013-12-30T09:36:49Z</time>
      </trkpt>
      <trkpt lat="47.70007" lon="-2.28198">
        <ele>75.12</ele>
        <time>2013-12-30T09:36:52Z</time>
      </trkpt>
      <trkpt lat="47.70009" lon="-2.28211">
        <ele>74.64</ele>
        <time>2013-12-30T09:36:55Z</time>
      </trkpt>
      <trkpt lat="47.7001" lon="-2.28227">
        <ele>74.64</ele>
        <time>2013-12-30T09:36:58Z</time>
      </trkpt>
      <trkpt lat="47.70013" lon="-2.28243">
        <ele>74.64</ele>
        <time>2013-12-30T09:37:01Z</time>
      </trkpt>
      <trkpt lat="47.70014" lon="-2.2826">
        <ele>74.64</ele>
        <time>2013-12-30T09:37:04Z</time>
      </trkpt>
      <trkpt lat="47.70016" lon="-2.28276">
        <ele>74.64</ele>
        <time>2013-12-30T09:37:07Z</time>
      </trkpt>
      <trkpt lat="47.70017" lon="-2.28293">
        <ele>75.12</ele>
        <time>2013-12-30T09:37:10Z</time>
      </trkpt>
      <trkpt lat="47.70018" lon="-2.28308">
        <ele>75.12</ele>
        <time>2013-12-30T09:37:13Z</time>
      </trkpt>
      <trkpt lat="47.7002" lon="-2.28322">
        <ele>75.12</ele>
        <time>2013-12-30T09:37:16Z</time>
      </trkpt>
      <trkpt lat="47.7002" lon="-2.28337">
        <ele>75.12</ele>
        <time>2013-12-30T09:37:19Z</time>
      </trkpt>
      <trkpt lat="47.70021" lon="-2.28351">
        <ele>75.12</ele>
        <time>2013-12-30T09:37:22Z</time>
      </trkpt>
      <trkpt lat="47.70023" lon="-2.28367">
        <ele>75.12</ele>
        <time>2013-12-30T09:37:25Z</time>
      </trkpt>
      <trkpt lat="47.70024" lon="-2.28384">
        <ele>74.64</ele>
        <time>2013-12-30T09:37:28Z</time>
      </trkpt>
      <trkpt lat="47.70025" lon="-2.284">
        <ele>74.64</ele>
        <time>2013-12-30T09:37:31Z</time>
      </trkpt>
      <trkpt lat="47.70028" lon="-2.28418">
        <ele>73.68</ele>
        <time>2013-12-30T09:37:34Z</time>
      </trkpt>
      <trkpt lat="47.70033" lon="-2.28436">
        <ele>73.68</ele>
        <time>2013-12-30T09:37:37Z</time>
      </trkpt>
      <trkpt lat="47.70038" lon="-2.28455">
        <ele>73.68</ele>
        <time>2013-12-30T09:37:40Z</time>
      </trkpt>
      <trkpt lat="47.70041" lon="-2.28468">
        <ele>73.68</ele>
        <time>2013-12-30T09:37:42Z</time>
      </trkpt>
      <trkpt lat="47.70045" lon="-2.28481">
        <ele>73.68</ele>
        <time>2013-12-30T09:37:44Z</time>
      </trkpt>
      <trkpt lat="47.70052" lon="-2.28492">
        <ele>74.16</ele>
        <time>2013-12-30T09:37:46Z</time>
      </trkpt>
      <trkpt lat="47.70059" lon="-2.28501">
        <ele>74.16</ele>
        <time>2013-12-30T09:37:48Z</time>
      </trkpt>
      <trkpt lat="47.70066" lon="-2.28512">
        <ele>73.68</ele>
        <time>2013-12-30T09:37:50Z</time>
      </trkpt>
      <trkpt lat="47.70071" lon="-2.28523">
        <ele>73.2</ele>
        <time>2013-12-30T09:37:52Z</time>
      </trkpt>
      <trkpt lat="47.70077" lon="-2.28539">
        <ele>72.24</ele>
        <time>2013-12-30T09:37:55Z</time>
      </trkpt>
      <trkpt lat="47.70082" lon="-2.28552">
        <ele>71.27</ele>
        <time>2013-12-30T09:37:58Z</time>
      </trkpt>
      <trkpt lat="47.70083" lon="-2.28566">
        <ele>71.76</ele>
        <time>2013-12-30T09:38:02Z</time>
      </trkpt>
      <trkpt lat="47.70082" lon="-2.28582">
        <ele>71.76</ele>
        <time>2013-12-30T09:38:06Z</time>
      </trkpt>
      <trkpt lat="47.70082" lon="-2.28597">
        <ele>72.24</ele>
        <time>2013-12-30T09:38:09Z</time>
      </trkpt>
      <trkpt lat="47.70082" lon="-2.28613">
        <ele>72.24</ele>
        <time>2013-12-30T09:38:12Z</time>
      </trkpt>
      <trkpt lat="47.70082" lon="-2.2863">
        <ele>72.24</ele>
        <time>2013-12-30T09:38:15Z</time>
      </trkpt>
      <trkpt lat="47.70084" lon="-2.28648">
        <ele>72.24</ele>
        <time>2013-12-30T09:38:18Z</time>
      </trkpt>
      <trkpt lat="47.70086" lon="-2.28666">
        <ele>72.24</ele>
        <time>2013-12-30T09:38:21Z</time>
      </trkpt>
      <trkpt lat="47.70088" lon="-2.28684">
        <ele>72.24</ele>
        <time>2013-12-30T09:38:24Z</time>
      </trkpt>
      <trkpt lat="47.7009" lon="-2.28703">
        <ele>72.72</ele>
        <time>2013-12-30T09:38:27Z</time>
      </trkpt>
      <trkpt lat="47.70092" lon="-2.28721">
        <ele>73.2</ele>
        <time>2013-12-30T09:38:30Z</time>
      </trkpt>
      <trkpt lat="47.70094" lon="-2.28738">
        <ele>72.72</ele>
        <time>2013-12-30T09:38:33Z</time>
      </trkpt>
      <trkpt lat="47.70097" lon="-2.28755">
        <ele>73.2</ele>
        <time>2013-12-30T09:38:36Z</time>
      </trkpt>
      <trkpt lat="47.701" lon="-2.28771">
        <ele>73.2</ele>
        <time>2013-12-30T09:38:39Z</time>
      </trkpt>
      <trkpt lat="47.70102" lon="-2.28786">
        <ele>73.2</ele>
        <time>2013-12-30T09:38:42Z</time>
      </trkpt>
      <trkpt lat="47.70104" lon="-2.28799">
        <ele>73.2</ele>
        <time>2013-12-30T09:38:45Z</time>
      </trkpt>
      <trkpt lat="47.70105" lon="-2.28815">
        <ele>73.2</ele>
        <time>2013-12-30T09:38:49Z</time>
      </trkpt>
      <trkpt lat="47.70106" lon="-2.28832">
        <ele>72.72</ele>
        <time>2013-12-30T09:38:53Z</time>
      </trkpt>
      <trkpt lat="47.70106" lon="-2.28845">
        <ele>72.72</ele>
        <time>2013-12-30T09:38:56Z</time>
      </trkpt>
      <trkpt lat="47.70108" lon="-2.28859">
        <ele>73.2</ele>
        <time>2013-12-30T09:39:00Z</time>
      </trkpt>
      <trkpt lat="47.70108" lon="-2.28876">
        <ele>73.2</ele>
        <time>2013-12-30T09:39:04Z</time>
      </trkpt>
      <trkpt lat="47.70108" lon="-2.28891">
        <ele>73.2</ele>
        <time>2013-12-30T09:39:07Z</time>
      </trkpt>
      <trkpt lat="47.70108" lon="-2.28907">
        <ele>73.2</ele>
        <time>2013-12-30T09:39:10Z</time>
      </trkpt>
      <trkpt lat="47.70109" lon="-2.28923">
        <ele>73.2</ele>
        <time>2013-12-30T09:39:13Z</time>
      </trkpt>
      <trkpt lat="47.70109" lon="-2.28941">
        <ele>73.68</ele>
        <time>2013-12-30T09:39:16Z</time>
      </trkpt>
      <trkpt lat="47.70109" lon="-2.2896">
        <ele>73.68</ele>
        <time>2013-12-30T09:39:19Z</time>
      </trkpt>
      <trkpt lat="47.7011" lon="-2.28974">
        <ele>73.68</ele>
        <time>2013-12-30T09:39:21Z</time>
      </trkpt>
      <trkpt lat="47.7011" lon="-2.28987">
        <ele>73.68</ele>
        <time>2013-12-30T09:39:23Z</time>
      </trkpt>
      <trkpt lat="47.70109" lon="-2.29007">
        <ele>74.16</ele>
        <time>2013-12-30T09:39:26Z</time>
      </trkpt>
      <trkpt lat="47.70109" lon="-2.2902">
        <ele>74.16</ele>
        <time>2013-12-30T09:39:28Z</time>
      </trkpt>
      <trkpt lat="47.7011" lon="-2.2904">
        <ele>74.64</ele>
        <time>2013-12-30T09:39:31Z</time>
      </trkpt>
      <trkpt lat="47.70116" lon="-2.2906">
        <ele>74.64</ele>
        <time>2013-12-30T09:39:34Z</time>
      </trkpt>
      <trkpt lat="47.70124" lon="-2.29076">
        <ele>75.12</ele>
        <time>2013-12-30T09:39:37Z</time>
      </trkpt>
      <trkpt lat="47.70129" lon="-2.29092">
        <ele>75.12</ele>
        <time>2013-12-30T09:39:40Z</time>
      </trkpt>
      <trkpt lat="47.70131" lon="-2.29106">
        <ele>74.64</ele>
        <time>2013-12-30T09:39:42Z</time>
      </trkpt>
      <trkpt lat="47.70131" lon="-2.29121">
        <ele>74.64</ele>
        <time>2013-12-30T09:39:44Z</time>
      </trkpt>
      <trkpt lat="47.70131" lon="-2.29137">
        <ele>74.16</ele>
        <time>2013-12-30T09:39:46Z</time>
      </trkpt>
      <trkpt lat="47.70132" lon="-2.29153">
        <ele>74.16</ele>
        <time>2013-12-30T09:39:48Z</time>
      </trkpt>
      <trkpt lat="47.70132" lon="-2.29169">
        <ele>74.16</ele>
        <time>2013-12-30T09:39:50Z</time>
      </trkpt>
      <trkpt lat="47.70132" lon="-2.29185">
        <ele>74.16</ele>
        <time>2013-12-30T09:39:52Z</time>
      </trkpt>
      <trkpt lat="47.70133" lon="-2.29201">
        <ele>73.68</ele>
        <time>2013-12-30T09:39:54Z</time>
      </trkpt>
      <trkpt lat="47.70133" lon="-2.29218">
        <ele>73.68</ele>
        <time>2013-12-30T09:39:56Z</time>
      </trkpt>
      <trkpt lat="47.70134" lon="-2.29234">
        <ele>73.68</ele>
        <time>2013-12-30T09:39:58Z</time>
      </trkpt>
      <trkpt lat="47.70134" lon="-2.29251">
        <ele>73.68</ele>
        <time>2013-12-30T09:40:00Z</time>
      </trkpt>
      <trkpt lat="47.70134" lon="-2.29267">
        <ele>74.16</ele>
        <time>2013-12-30T09:40:02Z</time>
      </trkpt>
      <trkpt lat="47.70135" lon="-2.29284">
        <ele>73.68</ele>
        <time>2013-12-30T09:40:04Z</time>
      </trkpt>
      <trkpt lat="47.70134" lon="-2.29301">
        <ele>73.68</ele>
        <time>2013-12-30T09:40:06Z</time>
      </trkpt>
      <trkpt lat="47.70134" lon="-2.29317">
        <ele>73.68</ele>
        <time>2013-12-30T09:40:08Z</time>
      </trkpt>
      <trkpt lat="47.70134" lon="-2.29333">
        <ele>73.2</ele>
        <time>2013-12-30T09:40:10Z</time>
      </trkpt>
      <trkpt lat="47.70134" lon="-2.2935">
        <ele>73.2</ele>
        <time>2013-12-30T09:40:12Z</time>
      </trkpt>
      <trkpt lat="47.70135" lon="-2.29366">
        <ele>72.72</ele>
        <time>2013-12-30T09:40:14Z</time>
      </trkpt>
      <trkpt lat="47.70137" lon="-2.29382">
        <ele>72.72</ele>
        <time>2013-12-30T09:40:16Z</time>
      </trkpt>
      <trkpt lat="47.7014" lon="-2.29397">
        <ele>72.72</ele>
        <time>2013-12-30T09:40:18Z</time>
      </trkpt>
      <trkpt lat="47.70142" lon="-2.29412">
        <ele>72.24</ele>
        <time>2013-12-30T09:40:20Z</time>
      </trkpt>
      <trkpt lat="47.70145" lon="-2.29428">
        <ele>71.76</ele>
        <time>2013-12-30T09:40:22Z</time>
      </trkpt>
      <trkpt lat="47.70147" lon="-2.29443">
        <ele>71.27</ele>
        <time>2013-12-30T09:40:24Z</time>
      </trkpt>
      <trkpt lat="47.70148" lon="-2.2946">
        <ele>71.27</ele>
        <time>2013-12-30T09:40:26Z</time>
      </trkpt>
      <trkpt lat="47.70149" lon="-2.29477">
        <ele>71.27</ele>
        <time>2013-12-30T09:40:28Z</time>
      </trkpt>
      <trkpt lat="47.70148" lon="-2.29495">
        <ele>70.79</ele>
        <time>2013-12-30T09:40:30Z</time>
      </trkpt>
      <trkpt lat="47.70147" lon="-2.29512">
        <ele>70.79</ele>
        <time>2013-12-30T09:40:32Z</time>
      </trkpt>
      <trkpt lat="47.70145" lon="-2.29529">
        <ele>70.31</ele>
        <time>2013-12-30T09:40:34Z</time>
      </trkpt>
      <trkpt lat="47.70144" lon="-2.29546">
        <ele>70.31</ele>
        <time>2013-12-30T09:40:36Z</time>
      </trkpt>
      <trkpt lat="47.70145" lon="-2.29563">
        <ele>70.31</ele>
        <time>2013-12-30T09:40:38Z</time>
      </trkpt>
      <trkpt lat="47.70148" lon="-2.29581">
        <ele>70.79</ele>
        <time>2013-12-30T09:40:40Z</time>
      </trkpt>
      <trkpt lat="47.7015" lon="-2.29598">
        <ele>70.79</ele>
        <time>2013-12-30T09:40:42Z</time>
      </trkpt>
      <trkpt lat="47.70151" lon="-2.29614">
        <ele>71.27</ele>
        <time>2013-12-30T09:40:44Z</time>
      </trkpt>
      <trkpt lat="47.70151" lon="-2.29631">
        <ele>71.27</ele>
        <time>2013-12-30T09:40:46Z</time>
      </trkpt>
      <trkpt lat="47.7015" lon="-2.29648">
        <ele>70.79</ele>
        <time>2013-12-30T09:40:48Z</time>
      </trkpt>
      <trkpt lat="47.70149" lon="-2.29663">
        <ele>70.79</ele>
        <time>2013-12-30T09:40:50Z</time>
      </trkpt>
      <trkpt lat="47.70148" lon="-2.29678">
        <ele>70.79</ele>
        <time>2013-12-30T09:40:52Z</time>
      </trkpt>
      <trkpt lat="47.70147" lon="-2.29692">
        <ele>71.27</ele>
        <time>2013-12-30T09:40:54Z</time>
      </trkpt>
      <trkpt lat="47.70146" lon="-2.29707">
        <ele>70.79</ele>
        <time>2013-12-30T09:40:56Z</time>
      </trkpt>
      <trkpt lat="47.70147" lon="-2.29721">
        <ele>70.79</ele>
        <time>2013-12-30T09:40:58Z</time>
      </trkpt>
      <trkpt lat="47.70147" lon="-2.29736">
        <ele>70.79</ele>
        <time>2013-12-30T09:41:00Z</time>
      </trkpt>
      <trkpt lat="47.70147" lon="-2.29751">
        <ele>70.79</ele>
        <time>2013-12-30T09:41:02Z</time>
      </trkpt>
      <trkpt lat="47.70148" lon="-2.29766">
        <ele>71.27</ele>
        <time>2013-12-30T09:41:04Z</time>
      </trkpt>
      <trkpt lat="47.70148" lon="-2.29781">
        <ele>71.76</ele>
        <time>2013-12-30T09:41:06Z</time>
      </trkpt>
      <trkpt lat="47.70147" lon="-2.29796">
        <ele>71.76</ele>
        <time>2013-12-30T09:41:08Z</time>
      </trkpt>
      <trkpt lat="47.70147" lon="-2.2981">
        <ele>71.76</ele>
        <time>2013-12-30T09:41:10Z</time>
      </trkpt>
      <trkpt lat="47.70147" lon="-2.29825">
        <ele>71.76</ele>
        <time>2013-12-30T09:41:12Z</time>
      </trkpt>
      <trkpt lat="47.70147" lon="-2.2984">
        <ele>71.76</ele>
        <time>2013-12-30T09:41:14Z</time>
      </trkpt>
      <trkpt lat="47.70147" lon="-2.29854">
        <ele>71.76</ele>
        <time>2013-12-30T09:41:16Z</time>
      </trkpt>
      <trkpt lat="47.70148" lon="-2.29869">
        <ele>72.24</ele>
        <time>2013-12-30T09:41:18Z</time>
      </trkpt>
      <trkpt lat="47.70149" lon="-2.29883">
        <ele>71.76</ele>
        <time>2013-12-30T09:41:20Z</time>
      </trkpt>
      <trkpt lat="47.7015" lon="-2.29898">
        <ele>71.76</ele>
        <time>2013-12-30T09:41:22Z</time>
      </trkpt>
      <trkpt lat="47.7015" lon="-2.29913">
        <ele>71.76</ele>
        <time>2013-12-30T09:41:24Z</time>
      </trkpt>
      <trkpt lat="47.70151" lon="-2.29928">
        <ele>71.76</ele>
        <time>2013-12-30T09:41:26Z</time>
      </trkpt>
      <trkpt lat="47.70154" lon="-2.29942">
        <ele>71.27</ele>
        <time>2013-12-30T09:41:28Z</time>
      </trkpt>
      <trkpt lat="47.70159" lon="-2.29961">
        <ele>70.79</ele>
        <time>2013-12-30T09:41:31Z</time>
      </trkpt>
      <trkpt lat="47.70166" lon="-2.29976">
        <ele>70.31</ele>
        <time>2013-12-30T09:41:34Z</time>
      </trkpt>
      <trkpt lat="47.70172" lon="-2.29992">
        <ele>70.31</ele>
        <time>2013-12-30T09:41:37Z</time>
      </trkpt>
      <trkpt lat="47.70179" lon="-2.30003">
        <ele>70.79</ele>
        <time>2013-12-30T09:41:40Z</time>
      </trkpt>
      <trkpt lat="47.70188" lon="-2.30012">
        <ele>70.79</ele>
        <time>2013-12-30T09:41:43Z</time>
      </trkpt>
      <trkpt lat="47.70198" lon="-2.30015">
        <ele>71.27</ele>
        <time>2013-12-30T09:41:46Z</time>
      </trkpt>
      <trkpt lat="47.70208" lon="-2.30017">
        <ele>71.27</ele>
        <time>2013-12-30T09:41:49Z</time>
      </trkpt>
      <trkpt lat="47.70221" lon="-2.30019">
        <ele>71.27</ele>
        <time>2013-12-30T09:41:52Z</time>
      </trkpt>
      <trkpt lat="47.70231" lon="-2.30021">
        <ele>70.79</ele>
        <time>2013-12-30T09:41:54Z</time>
      </trkpt>
      <trkpt lat="47.70244" lon="-2.30024">
        <ele>70.31</ele>
        <time>2013-12-30T09:41:57Z</time>
      </trkpt>
      <trkpt lat="47.70255" lon="-2.30028">
        <ele>69.83</ele>
        <time>2013-12-30T09:42:00Z</time>
      </trkpt>
      <trkpt lat="47.70262" lon="-2.30041">
        <ele>69.35</ele>
        <time>2013-12-30T09:42:03Z</time>
      </trkpt>
      <trkpt lat="47.70264" lon="-2.30056">
        <ele>69.83</ele>
        <time>2013-12-30T09:42:06Z</time>
      </trkpt>
      <trkpt lat="47.70264" lon="-2.30072">
        <ele>70.31</ele>
        <time>2013-12-30T09:42:09Z</time>
      </trkpt>
      <trkpt lat="47.70263" lon="-2.30087">
        <ele>70.79</ele>
        <time>2013-12-30T09:42:12Z</time>
      </trkpt>
      <trkpt lat="47.70262" lon="-2.30101">
        <ele>71.76</ele>
        <time>2013-12-30T09:42:15Z</time>
      </trkpt>
      <trkpt lat="47.70261" lon="-2.30118">
        <ele>72.24</ele>
        <time>2013-12-30T09:42:18Z</time>
      </trkpt>
      <trkpt lat="47.70259" lon="-2.30135">
        <ele>73.2</ele>
        <time>2013-12-30T09:42:21Z</time>
      </trkpt>
      <trkpt lat="47.70258" lon="-2.3015">
        <ele>73.2</ele>
        <time>2013-12-30T09:42:24Z</time>
      </trkpt>
      <trkpt lat="47.70257" lon="-2.30167">
        <ele>73.68</ele>
        <time>2013-12-30T09:42:27Z</time>
      </trkpt>
      <trkpt lat="47.70255" lon="-2.30186">
        <ele>74.16</ele>
        <time>2013-12-30T09:42:30Z</time>
      </trkpt>
      <trkpt lat="47.70252" lon="-2.30203">
        <ele>73.68</ele>
        <time>2013-12-30T09:42:33Z</time>
      </trkpt>
      <trkpt lat="47.70249" lon="-2.30221">
        <ele>73.68</ele>
        <time>2013-12-30T09:42:36Z</time>
      </trkpt>
      <trkpt lat="47.70245" lon="-2.30238">
        <ele>73.68</ele>
        <time>2013-12-30T09:42:39Z</time>
      </trkpt>
      <trkpt lat="47.7024" lon="-2.30255">
        <ele>73.68</ele>
        <time>2013-12-30T09:42:42Z</time>
      </trkpt>
      <trkpt lat="47.70235" lon="-2.30268">
        <ele>72.72</ele>
        <time>2013-12-30T09:42:45Z</time>
      </trkpt>
      <trkpt lat="47.70237" lon="-2.30277">
        <ele>71.76</ele>
        <time>2013-12-30T09:42:55Z</time>
      </trkpt>
      <trkpt lat="47.70247" lon="-2.30271">
        <ele>71.76</ele>
        <time>2013-12-30T09:43:04Z</time>
      </trkpt>
      <trkpt lat="47.70255" lon="-2.30264">
        <ele>71.76</ele>
        <time>2013-12-30T09:43:08Z</time>
      </trkpt>
      <trkpt lat="47.70265" lon="-2.30263">
        <ele>71.76</ele>
        <time>2013-12-30T09:43:13Z</time>
      </trkpt>
      <trkpt lat="47.70274" lon="-2.30264">
        <ele>71.27</ele>
        <time>2013-12-30T09:43:19Z</time>
      </trkpt>
      <trkpt lat="47.70283" lon="-2.3027">
        <ele>70.31</ele>
        <time>2013-12-30T09:43:26Z</time>
      </trkpt>
      <trkpt lat="47.70291" lon="-2.3028">
        <ele>69.35</ele>
        <time>2013-12-30T09:43:31Z</time>
      </trkpt>
      <trkpt lat="47.70298" lon="-2.30291">
        <ele>68.87</ele>
        <time>2013-12-30T09:43:35Z</time>
      </trkpt>
      <trkpt lat="47.70298" lon="-2.30308">
        <ele>68.39</ele>
        <time>2013-12-30T09:43:41Z</time>
      </trkpt>
      <trkpt lat="47.7029" lon="-2.30319">
        <ele>70.31</ele>
        <time>2013-12-30T09:43:47Z</time>
      </trkpt>
      <trkpt lat="47.70281" lon="-2.30328">
        <ele>71.76</ele>
        <time>2013-12-30T09:43:53Z</time>
      </trkpt>
      <trkpt lat="47.70271" lon="-2.30329">
        <ele>72.72</ele>
        <time>2013-12-30T09:43:57Z</time>
      </trkpt>
      <trkpt lat="47.70266" lon="-2.3034">
        <ele>73.2</ele>
        <time>2013-12-30T09:44:01Z</time>
      </trkpt>
      <trkpt lat="47.70261" lon="-2.30356">
        <ele>72.72</ele>
        <time>2013-12-30T09:44:05Z</time>
      </trkpt>
      <trkpt lat="47.70257" lon="-2.30372">
        <ele>73.2</ele>
        <time>2013-12-30T09:44:09Z</time>
      </trkpt>
      <trkpt lat="47.70257" lon="-2.30387">
        <ele>73.68</ele>
        <time>2013-12-30T09:44:13Z</time>
      </trkpt>
      <trkpt lat="47.70259" lon="-2.30405">
        <ele>74.64</ele>
        <time>2013-12-30T09:44:18Z</time>
      </trkpt>
      <trkpt lat="47.70259" lon="-2.30425">
        <ele>75.12</ele>
        <time>2013-12-30T09:44:22Z</time>
      </trkpt>
      <trkpt lat="47.70263" lon="-2.30442">
        <ele>75.12</ele>
        <time>2013-12-30T09:44:26Z</time>
      </trkpt>
      <trkpt lat="47.70268" lon="-2.30461">
        <ele>75.12</ele>
        <time>2013-12-30T09:44:30Z</time>
      </trkpt>
      <trkpt lat="47.7027" lon="-2.30476">
        <ele>74.64</ele>
        <time>2013-12-30T09:44:33Z</time>
      </trkpt>
      <trkpt lat="47.70272" lon="-2.30492">
        <ele>74.64</ele>
        <time>2013-12-30T09:44:36Z</time>
      </trkpt>
      <trkpt lat="47.70269" lon="-2.30508">
        <ele>74.64</ele>
        <time>2013-12-30T09:44:40Z</time>
      </trkpt>
      <trkpt lat="47.7026" lon="-2.30512">
        <ele>74.16</ele>
        <time>2013-12-30T09:44:45Z</time>
      </trkpt>
      <trkpt lat="47.70256" lon="-2.305">
        <ele>74.16</ele>
        <time>2013-12-30T09:44:49Z</time>
      </trkpt>
      <trkpt lat="47.7025" lon="-2.30486">
        <ele>73.2</ele>
        <time>2013-12-30T09:44:53Z</time>
      </trkpt>
      <trkpt lat="47.7024" lon="-2.30486">
        <ele>73.68</ele>
        <time>2013-12-30T09:44:58Z</time>
      </trkpt>
      <trkpt lat="47.7023" lon="-2.30487">
        <ele>75.6</ele>
        <time>2013-12-30T09:45:05Z</time>
      </trkpt>
      <trkpt lat="47.70221" lon="-2.30496">
        <ele>77.04</ele>
        <time>2013-12-30T09:45:10Z</time>
      </trkpt>
      <trkpt lat="47.70217" lon="-2.30511">
        <ele>77.04</ele>
        <time>2013-12-30T09:45:15Z</time>
      </trkpt>
      <trkpt lat="47.70218" lon="-2.30527">
        <ele>77.52</ele>
        <time>2013-12-30T09:45:20Z</time>
      </trkpt>
      <trkpt lat="47.70224" lon="-2.30542">
        <ele>77.04</ele>
        <time>2013-12-30T09:45:24Z</time>
      </trkpt>
      <trkpt lat="47.70234" lon="-2.30547">
        <ele>76.56</ele>
        <time>2013-12-30T09:45:28Z</time>
      </trkpt>
      <trkpt lat="47.70234" lon="-2.30562">
        <ele>75.6</ele>
        <time>2013-12-30T09:45:31Z</time>
      </trkpt>
      <trkpt lat="47.7023" lon="-2.30577">
        <ele>75.12</ele>
        <time>2013-12-30T09:45:35Z</time>
      </trkpt>
      <trkpt lat="47.70233" lon="-2.30591">
        <ele>74.16</ele>
        <time>2013-12-30T09:45:38Z</time>
      </trkpt>
      <trkpt lat="47.70238" lon="-2.30606">
        <ele>73.68</ele>
        <time>2013-12-30T09:45:41Z</time>
      </trkpt>
      <trkpt lat="47.70245" lon="-2.30619">
        <ele>73.2</ele>
        <time>2013-12-30T09:45:44Z</time>
      </trkpt>
      <trkpt lat="47.70255" lon="-2.3062">
        <ele>72.72</ele>
        <time>2013-12-30T09:45:48Z</time>
      </trkpt>
      <trkpt lat="47.70266" lon="-2.30613">
        <ele>72.24</ele>
        <time>2013-12-30T09:45:52Z</time>
      </trkpt>
      <trkpt lat="47.70276" lon="-2.30616">
        <ele>71.27</ele>
        <time>2013-12-30T09:45:55Z</time>
      </trkpt>
      <trkpt lat="47.70285" lon="-2.30623">
        <ele>71.27</ele>
        <time>2013-12-30T09:45:58Z</time>
      </trkpt>
      <trkpt lat="47.70292" lon="-2.30636">
        <ele>70.31</ele>
        <time>2013-12-30T09:46:01Z</time>
      </trkpt>
      <trkpt lat="47.70296" lon="-2.3065">
        <ele>69.83</ele>
        <time>2013-12-30T09:46:04Z</time>
      </trkpt>
      <trkpt lat="47.70294" lon="-2.30665">
        <ele>68.87</ele>
        <time>2013-12-30T09:46:07Z</time>
      </trkpt>
      <trkpt lat="47.70294" lon="-2.30682">
        <ele>68.39</ele>
        <time>2013-12-30T09:46:10Z</time>
      </trkpt>
      <trkpt lat="47.70291" lon="-2.30693">
        <ele>68.39</ele>
        <time>2013-12-30T09:46:13Z</time>
      </trkpt>
      <trkpt lat="47.70281" lon="-2.30697">
        <ele>70.79</ele>
        <time>2013-12-30T09:46:17Z</time>
      </trkpt>
      <trkpt lat="47.70279" lon="-2.30713">
        <ele>72.24</ele>
        <time>2013-12-30T09:46:22Z</time>
      </trkpt>
      <trkpt lat="47.70276" lon="-2.30729">
        <ele>72.72</ele>
        <time>2013-12-30T09:46:26Z</time>
      </trkpt>
      <trkpt lat="47.70273" lon="-2.30743">
        <ele>72.24</ele>
        <time>2013-12-30T09:46:29Z</time>
      </trkpt>
      <trkpt lat="47.70271" lon="-2.3076">
        <ele>71.76</ele>
        <time>2013-12-30T09:46:33Z</time>
      </trkpt>
      <trkpt lat="47.70276" lon="-2.30772">
        <ele>71.27</ele>
        <time>2013-12-30T09:46:36Z</time>
      </trkpt>
      <trkpt lat="47.70277" lon="-2.30788">
        <ele>71.27</ele>
        <time>2013-12-30T09:46:39Z</time>
      </trkpt>
      <trkpt lat="47.70278" lon="-2.30806">
        <ele>71.27</ele>
        <time>2013-12-30T09:46:42Z</time>
      </trkpt>
      <trkpt lat="47.70283" lon="-2.3082">
        <ele>70.31</ele>
        <time>2013-12-30T09:46:45Z</time>
      </trkpt>
      <trkpt lat="47.70281" lon="-2.30838">
        <ele>68.87</ele>
        <time>2013-12-30T09:46:49Z</time>
      </trkpt>
      <trkpt lat="47.7028" lon="-2.30856">
        <ele>68.87</ele>
        <time>2013-12-30T09:46:53Z</time>
      </trkpt>
      <trkpt lat="47.7029" lon="-2.30859">
        <ele>67.43</ele>
        <time>2013-12-30T09:46:58Z</time>
      </trkpt>
      <trkpt lat="47.703" lon="-2.30857">
        <ele>65.99</ele>
        <time>2013-12-30T09:47:02Z</time>
      </trkpt>
      <trkpt lat="47.70303" lon="-2.30869">
        <ele>66.95</ele>
        <time>2013-12-30T09:47:09Z</time>
      </trkpt>
      <trkpt lat="47.70307" lon="-2.30885">
        <ele>68.39</ele>
        <time>2013-12-30T09:47:15Z</time>
      </trkpt>
      <trkpt lat="47.70309" lon="-2.30898">
        <ele>70.31</ele>
        <time>2013-12-30T09:47:20Z</time>
      </trkpt>
      <trkpt lat="47.70306" lon="-2.30914">
        <ele>71.76</ele>
        <time>2013-12-30T09:47:25Z</time>
      </trkpt>
      <trkpt lat="47.70305" lon="-2.30931">
        <ele>73.2</ele>
        <time>2013-12-30T09:47:31Z</time>
      </trkpt>
      <trkpt lat="47.70306" lon="-2.30947">
        <ele>74.16</ele>
        <time>2013-12-30T09:47:35Z</time>
      </trkpt>
      <trkpt lat="47.70304" lon="-2.30962">
        <ele>74.16</ele>
        <time>2013-12-30T09:47:39Z</time>
      </trkpt>
      <trkpt lat="47.70299" lon="-2.30976">
        <ele>73.68</ele>
        <time>2013-12-30T09:47:44Z</time>
      </trkpt>
      <trkpt lat="47.70296" lon="-2.30991">
        <ele>74.16</ele>
        <time>2013-12-30T09:47:49Z</time>
      </trkpt>
      <trkpt lat="47.70296" lon="-2.31008">
        <ele>73.68</ele>
        <time>2013-12-30T09:47:53Z</time>
      </trkpt>
      <trkpt lat="47.70296" lon="-2.31026">
        <ele>73.2</ele>
        <time>2013-12-30T09:47:57Z</time>
      </trkpt>
      <trkpt lat="47.70298" lon="-2.31041">
        <ele>73.2</ele>
        <time>2013-12-30T09:48:01Z</time>
      </trkpt>
      <trkpt lat="47.70298" lon="-2.31056">
        <ele>73.2</ele>
        <time>2013-12-30T09:48:04Z</time>
      </trkpt>
      <trkpt lat="47.70299" lon="-2.31071">
        <ele>73.2</ele>
        <time>2013-12-30T09:48:07Z</time>
      </trkpt>
      <trkpt lat="47.70298" lon="-2.31085">
        <ele>72.72</ele>
        <time>2013-12-30T09:48:10Z</time>
      </trkpt>
      <trkpt lat="47.70293" lon="-2.31098">
        <ele>72.72</ele>
        <time>2013-12-30T09:48:13Z</time>
      </trkpt>
      <trkpt lat="47.70283" lon="-2.31103">
        <ele>73.2</ele>
        <time>2013-12-30T09:48:17Z</time>
      </trkpt>
      <trkpt lat="47.70272" lon="-2.31102">
        <ele>73.2</ele>
        <time>2013-12-30T09:48:20Z</time>
      </trkpt>
      <trkpt lat="47.70261" lon="-2.31102">
        <ele>74.16</ele>
        <time>2013-12-30T09:48:23Z</time>
      </trkpt>
      <trkpt lat="47.70249" lon="-2.31104">
        <ele>75.6</ele>
        <time>2013-12-30T09:48:26Z</time>
      </trkpt>
      <trkpt lat="47.70238" lon="-2.31106">
        <ele>76.08</ele>
        <time>2013-12-30T09:48:29Z</time>
      </trkpt>
      <trkpt lat="47.70227" lon="-2.31109">
        <ele>76.08</ele>
        <time>2013-12-30T09:48:32Z</time>
      </trkpt>
      <trkpt lat="47.70216" lon="-2.31111">
        <ele>76.56</ele>
        <time>2013-12-30T09:48:35Z</time>
      </trkpt>
      <trkpt lat="47.70205" lon="-2.31108">
        <ele>76.56</ele>
        <time>2013-12-30T09:48:38Z</time>
      </trkpt>
      <trkpt lat="47.70194" lon="-2.31102">
        <ele>77.04</ele>
        <time>2013-12-30T09:48:41Z</time>
      </trkpt>
      <trkpt lat="47.70185" lon="-2.31091">
        <ele>77.04</ele>
        <time>2013-12-30T09:48:44Z</time>
      </trkpt>
      <trkpt lat="47.70178" lon="-2.31077">
        <ele>77.52</ele>
        <time>2013-12-30T09:48:47Z</time>
      </trkpt>
      <trkpt lat="47.70173" lon="-2.31061">
        <ele>78</ele>
        <time>2013-12-30T09:48:50Z</time>
      </trkpt>
      <trkpt lat="47.7017" lon="-2.31045">
        <ele>78.48</ele>
        <time>2013-12-30T09:48:53Z</time>
      </trkpt>
      <trkpt lat="47.70165" lon="-2.31028">
        <ele>78.48</ele>
        <time>2013-12-30T09:48:56Z</time>
      </trkpt>
      <trkpt lat="47.7016" lon="-2.31012">
        <ele>78.48</ele>
        <time>2013-12-30T09:48:59Z</time>
      </trkpt>
      <trkpt lat="47.70153" lon="-2.30996">
        <ele>78.97</ele>
        <time>2013-12-30T09:49:02Z</time>
      </trkpt>
      <trkpt lat="47.70144" lon="-2.30981">
        <ele>78</ele>
        <time>2013-12-30T09:49:05Z</time>
      </trkpt>
      <trkpt lat="47.70135" lon="-2.30971">
        <ele>77.04</ele>
        <time>2013-12-30T09:49:08Z</time>
      </trkpt>
      <trkpt lat="47.70127" lon="-2.30964">
        <ele>75.6</ele>
        <time>2013-12-30T09:49:12Z</time>
      </trkpt>
      <trkpt lat="47.70118" lon="-2.30958">
        <ele>75.12</ele>
        <time>2013-12-30T09:49:16Z</time>
      </trkpt>
      <trkpt lat="47.70118" lon="-2.30956">
        <ele>75.12</ele>
        <time>2013-12-30T09:49:22Z</time>
      </trkpt>
      <trkpt lat="47.70128" lon="-2.30962">
        <ele>75.6</ele>
        <time>2013-12-30T09:49:27Z</time>
      </trkpt>
      <trkpt lat="47.70137" lon="-2.30971">
        <ele>75.12</ele>
        <time>2013-12-30T09:49:30Z</time>
      </trkpt>
      <trkpt lat="47.70145" lon="-2.3098">
        <ele>76.08</ele>
        <time>2013-12-30T09:49:33Z</time>
      </trkpt>
      <trkpt lat="47.70152" lon="-2.30993">
        <ele>76.56</ele>
        <time>2013-12-30T09:49:36Z</time>
      </trkpt>
      <trkpt lat="47.7016" lon="-2.31007">
        <ele>76.56</ele>
        <time>2013-12-30T09:49:39Z</time>
      </trkpt>
      <trkpt lat="47.70165" lon="-2.31024">
        <ele>76.56</ele>
        <time>2013-12-30T09:49:42Z</time>
      </trkpt>
      <trkpt lat="47.70169" lon="-2.31042">
        <ele>76.08</ele>
        <time>2013-12-30T09:49:45Z</time>
      </trkpt>
      <trkpt lat="47.70173" lon="-2.3106">
        <ele>76.08</ele>
        <time>2013-12-30T09:49:48Z</time>
      </trkpt>
      <trkpt lat="47.70175" lon="-2.31079">
        <ele>76.08</ele>
        <time>2013-12-30T09:49:51Z</time>
      </trkpt>
      <trkpt lat="47.70175" lon="-2.31098">
        <ele>76.08</ele>
        <time>2013-12-30T09:49:54Z</time>
      </trkpt>
      <trkpt lat="47.70175" lon="-2.31117">
        <ele>76.08</ele>
        <time>2013-12-30T09:49:57Z</time>
      </trkpt>
      <trkpt lat="47.70174" lon="-2.31131">
        <ele>75.6</ele>
        <time>2013-12-30T09:49:59Z</time>
      </trkpt>
      <trkpt lat="47.70174" lon="-2.31145">
        <ele>75.6</ele>
        <time>2013-12-30T09:50:01Z</time>
      </trkpt>
      <trkpt lat="47.70173" lon="-2.31159">
        <ele>75.12</ele>
        <time>2013-12-30T09:50:03Z</time>
      </trkpt>
      <trkpt lat="47.70173" lon="-2.31174">
        <ele>75.12</ele>
        <time>2013-12-30T09:50:05Z</time>
      </trkpt>
      <trkpt lat="47.70174" lon="-2.31188">
        <ele>74.64</ele>
        <time>2013-12-30T09:50:07Z</time>
      </trkpt>
      <trkpt lat="47.70175" lon="-2.31203">
        <ele>74.64</ele>
        <time>2013-12-30T09:50:09Z</time>
      </trkpt>
      <trkpt lat="47.70176" lon="-2.31218">
        <ele>74.64</ele>
        <time>2013-12-30T09:50:11Z</time>
      </trkpt>
      <trkpt lat="47.70177" lon="-2.31232">
        <ele>74.64</ele>
        <time>2013-12-30T09:50:13Z</time>
      </trkpt>
      <trkpt lat="47.70179" lon="-2.31251">
        <ele>74.64</ele>
        <time>2013-12-30T09:50:16Z</time>
      </trkpt>
      <trkpt lat="47.7018" lon="-2.31271">
        <ele>74.64</ele>
        <time>2013-12-30T09:50:19Z</time>
      </trkpt>
      <trkpt lat="47.70182" lon="-2.31291">
        <ele>74.64</ele>
        <time>2013-12-30T09:50:22Z</time>
      </trkpt>
      <trkpt lat="47.70183" lon="-2.31307">
        <ele>75.12</ele>
        <time>2013-12-30T09:50:25Z</time>
      </trkpt>
      <trkpt lat="47.70184" lon="-2.31325">
        <ele>74.64</ele>
        <time>2013-12-30T09:50:29Z</time>
      </trkpt>
      <trkpt lat="47.70186" lon="-2.31341">
        <ele>74.64</ele>
        <time>2013-12-30T09:50:33Z</time>
      </trkpt>
      <trkpt lat="47.70187" lon="-2.31357">
        <ele>74.16</ele>
        <time>2013-12-30T09:50:36Z</time>
      </trkpt>
      <trkpt lat="47.70189" lon="-2.31375">
        <ele>74.16</ele>
        <time>2013-12-30T09:50:39Z</time>
      </trkpt>
      <trkpt lat="47.70191" lon="-2.31395">
        <ele>74.16</ele>
        <time>2013-12-30T09:50:42Z</time>
      </trkpt>
      <trkpt lat="47.70193" lon="-2.31409">
        <ele>74.16</ele>
        <time>2013-12-30T09:50:44Z</time>
      </trkpt>
      <trkpt lat="47.70194" lon="-2.31424">
        <ele>74.16</ele>
        <time>2013-12-30T09:50:46Z</time>
      </trkpt>
      <trkpt lat="47.70196" lon="-2.31437">
        <ele>73.68</ele>
        <time>2013-12-30T09:50:48Z</time>
      </trkpt>
      <trkpt lat="47.70198" lon="-2.31451">
        <ele>73.2</ele>
        <time>2013-12-30T09:50:50Z</time>
      </trkpt>
      <trkpt lat="47.70199" lon="-2.31466">
        <ele>73.68</ele>
        <time>2013-12-30T09:50:52Z</time>
      </trkpt>
      <trkpt lat="47.70201" lon="-2.31486">
        <ele>73.68</ele>
        <time>2013-12-30T09:50:55Z</time>
      </trkpt>
      <trkpt lat="47.70202" lon="-2.31503">
        <ele>73.68</ele>
        <time>2013-12-30T09:50:58Z</time>
      </trkpt>
      <trkpt lat="47.70203" lon="-2.31517">
        <ele>73.2</ele>
        <time>2013-12-30T09:51:01Z</time>
      </trkpt>
      <trkpt lat="47.70204" lon="-2.31531">
        <ele>73.2</ele>
        <time>2013-12-30T09:51:04Z</time>
      </trkpt>
      <trkpt lat="47.70205" lon="-2.31545">
        <ele>74.16</ele>
        <time>2013-12-30T09:51:07Z</time>
      </trkpt>
      <trkpt lat="47.70203" lon="-2.3156">
        <ele>74.16</ele>
        <time>2013-12-30T09:51:10Z</time>
      </trkpt>
      <trkpt lat="47.70195" lon="-2.31577">
        <ele>73.68</ele>
        <time>2013-12-30T09:51:13Z</time>
      </trkpt>
      <trkpt lat="47.70184" lon="-2.31589">
        <ele>74.16</ele>
        <time>2013-12-30T09:51:16Z</time>
      </trkpt>
      <trkpt lat="47.70172" lon="-2.31599">
        <ele>74.16</ele>
        <time>2013-12-30T09:51:19Z</time>
      </trkpt>
      <trkpt lat="47.70163" lon="-2.31606">
        <ele>74.16</ele>
        <time>2013-12-30T09:51:21Z</time>
      </trkpt>
      <trkpt lat="47.70154" lon="-2.31614">
        <ele>74.16</ele>
        <time>2013-12-30T09:51:23Z</time>
      </trkpt>
      <trkpt lat="47.70145" lon="-2.31623">
        <ele>74.16</ele>
        <time>2013-12-30T09:51:25Z</time>
      </trkpt>
      <trkpt lat="47.70137" lon="-2.31631">
        <ele>74.16</ele>
        <time>2013-12-30T09:51:27Z</time>
      </trkpt>
      <trkpt lat="47.70128" lon="-2.31644">
        <ele>73.68</ele>
        <time>2013-12-30T09:51:30Z</time>
      </trkpt>
      <trkpt lat="47.70122" lon="-2.31656">
        <ele>73.68</ele>
        <time>2013-12-30T09:51:32Z</time>
      </trkpt>
      <trkpt lat="47.7012" lon="-2.31669">
        <ele>74.16</ele>
        <time>2013-12-30T09:51:34Z</time>
      </trkpt>
      <trkpt lat="47.70119" lon="-2.31683">
        <ele>73.68</ele>
        <time>2013-12-30T09:51:36Z</time>
      </trkpt>
      <trkpt lat="47.70118" lon="-2.31698">
        <ele>74.16</ele>
        <time>2013-12-30T09:51:38Z</time>
      </trkpt>
      <trkpt lat="47.70118" lon="-2.31713">
        <ele>74.16</ele>
        <time>2013-12-30T09:51:40Z</time>
      </trkpt>
      <trkpt lat="47.70118" lon="-2.31729">
        <ele>74.64</ele>
        <time>2013-12-30T09:51:42Z</time>
      </trkpt>
      <trkpt lat="47.70117" lon="-2.31744">
        <ele>74.64</ele>
        <time>2013-12-30T09:51:44Z</time>
      </trkpt>
      <trkpt lat="47.70116" lon="-2.31758">
        <ele>75.12</ele>
        <time>2013-12-30T09:51:46Z</time>
      </trkpt>
      <trkpt lat="47.70116" lon="-2.31773">
        <ele>75.12</ele>
        <time>2013-12-30T09:51:48Z</time>
      </trkpt>
      <trkpt lat="47.70115" lon="-2.31787">
        <ele>75.6</ele>
        <time>2013-12-30T09:51:50Z</time>
      </trkpt>
      <trkpt lat="47.70114" lon="-2.31802">
        <ele>76.08</ele>
        <time>2013-12-30T09:51:52Z</time>
      </trkpt>
      <trkpt lat="47.70112" lon="-2.31817">
        <ele>76.56</ele>
        <time>2013-12-30T09:51:54Z</time>
      </trkpt>
      <trkpt lat="47.7011" lon="-2.31831">
        <ele>76.56</ele>
        <time>2013-12-30T09:51:56Z</time>
      </trkpt>
      <trkpt lat="47.70108" lon="-2.31846">
        <ele>76.56</ele>
        <time>2013-12-30T09:51:58Z</time>
      </trkpt>
      <trkpt lat="47.70106" lon="-2.31861">
        <ele>76.56</ele>
        <time>2013-12-30T09:52:00Z</time>
      </trkpt>
      <trkpt lat="47.70104" lon="-2.31876">
        <ele>76.08</ele>
        <time>2013-12-30T09:52:02Z</time>
      </trkpt>
      <trkpt lat="47.70103" lon="-2.31892">
        <ele>75.6</ele>
        <time>2013-12-30T09:52:04Z</time>
      </trkpt>
      <trkpt lat="47.70101" lon="-2.31908">
        <ele>75.12</ele>
        <time>2013-12-30T09:52:06Z</time>
      </trkpt>
      <trkpt lat="47.70099" lon="-2.31924">
        <ele>74.16</ele>
        <time>2013-12-30T09:52:08Z</time>
      </trkpt>
      <trkpt lat="47.70097" lon="-2.3194">
        <ele>73.68</ele>
        <time>2013-12-30T09:52:10Z</time>
      </trkpt>
      <trkpt lat="47.70094" lon="-2.31956">
        <ele>72.72</ele>
        <time>2013-12-30T09:52:12Z</time>
      </trkpt>
      <trkpt lat="47.70092" lon="-2.31971">
        <ele>72.72</ele>
        <time>2013-12-30T09:52:14Z</time>
      </trkpt>
      <trkpt lat="47.70089" lon="-2.31986">
        <ele>73.2</ele>
        <time>2013-12-30T09:52:16Z</time>
      </trkpt>
      <trkpt lat="47.70086" lon="-2.32002">
        <ele>73.2</ele>
        <time>2013-12-30T09:52:18Z</time>
      </trkpt>
      <trkpt lat="47.70083" lon="-2.32017">
        <ele>72.72</ele>
        <time>2013-12-30T09:52:20Z</time>
      </trkpt>
      <trkpt lat="47.7008" lon="-2.32031">
        <ele>72.24</ele>
        <time>2013-12-30T09:52:22Z</time>
      </trkpt>
      <trkpt lat="47.70078" lon="-2.32046">
        <ele>72.24</ele>
        <time>2013-12-30T09:52:24Z</time>
      </trkpt>
      <trkpt lat="47.70077" lon="-2.32061">
        <ele>72.72</ele>
        <time>2013-12-30T09:52:26Z</time>
      </trkpt>
      <trkpt lat="47.70076" lon="-2.32076">
        <ele>72.72</ele>
        <time>2013-12-30T09:52:28Z</time>
      </trkpt>
      <trkpt lat="47.70074" lon="-2.32099">
        <ele>73.2</ele>
        <time>2013-12-30T09:52:31Z</time>
      </trkpt>
      <trkpt lat="47.70072" lon="-2.32118">
        <ele>72.72</ele>
        <time>2013-12-30T09:52:34Z</time>
      </trkpt>
      <trkpt lat="47.7007" lon="-2.32139">
        <ele>73.2</ele>
        <time>2013-12-30T09:52:37Z</time>
      </trkpt>
      <trkpt lat="47.70068" lon="-2.32159">
        <ele>73.68</ele>
        <time>2013-12-30T09:52:40Z</time>
      </trkpt>
      <trkpt lat="47.70065" lon="-2.32179">
        <ele>73.68</ele>
        <time>2013-12-30T09:52:43Z</time>
      </trkpt>
      <trkpt lat="47.70061" lon="-2.32199">
        <ele>73.68</ele>
        <time>2013-12-30T09:52:46Z</time>
      </trkpt>
      <trkpt lat="47.70059" lon="-2.32213">
        <ele>73.2</ele>
        <time>2013-12-30T09:52:48Z</time>
      </trkpt>
      <trkpt lat="47.70056" lon="-2.32227">
        <ele>72.24</ele>
        <time>2013-12-30T09:52:50Z</time>
      </trkpt>
      <trkpt lat="47.70054" lon="-2.32241">
        <ele>71.76</ele>
        <time>2013-12-30T09:52:52Z</time>
      </trkpt>
      <trkpt lat="47.70052" lon="-2.32261">
        <ele>70.79</ele>
        <time>2013-12-30T09:52:55Z</time>
      </trkpt>
      <trkpt lat="47.70052" lon="-2.32279">
        <ele>70.31</ele>
        <time>2013-12-30T09:52:58Z</time>
      </trkpt>
      <trkpt lat="47.70049" lon="-2.32296">
        <ele>69.83</ele>
        <time>2013-12-30T09:53:01Z</time>
      </trkpt>
      <trkpt lat="47.70045" lon="-2.32314">
        <ele>68.87</ele>
        <time>2013-12-30T09:53:04Z</time>
      </trkpt>
      <trkpt lat="47.70042" lon="-2.32326">
        <ele>69.35</ele>
        <time>2013-12-30T09:53:16Z</time>
      </trkpt>
      <trkpt lat="47.70042" lon="-2.32341">
        <ele>69.35</ele>
        <time>2013-12-30T09:53:22Z</time>
      </trkpt>
      <trkpt lat="47.70042" lon="-2.32356">
        <ele>69.83</ele>
        <time>2013-12-30T09:53:26Z</time>
      </trkpt>
      <trkpt lat="47.70042" lon="-2.32373">
        <ele>70.31</ele>
        <time>2013-12-30T09:53:30Z</time>
      </trkpt>
      <trkpt lat="47.70041" lon="-2.32387">
        <ele>70.31</ele>
        <time>2013-12-30T09:53:33Z</time>
      </trkpt>
      <trkpt lat="47.70041" lon="-2.32401">
        <ele>69.83</ele>
        <time>2013-12-30T09:53:36Z</time>
      </trkpt>
      <trkpt lat="47.70042" lon="-2.32416">
        <ele>70.31</ele>
        <time>2013-12-30T09:53:39Z</time>
      </trkpt>
      <trkpt lat="47.70044" lon="-2.32432">
        <ele>70.31</ele>
        <time>2013-12-30T09:53:43Z</time>
      </trkpt>
      <trkpt lat="47.70049" lon="-2.32449">
        <ele>70.79</ele>
        <time>2013-12-30T09:53:47Z</time>
      </trkpt>
      <trkpt lat="47.70051" lon="-2.32463">
        <ele>71.27</ele>
        <time>2013-12-30T09:53:50Z</time>
      </trkpt>
      <trkpt lat="47.7005" lon="-2.32477">
        <ele>71.76</ele>
        <time>2013-12-30T09:53:53Z</time>
      </trkpt>
      <trkpt lat="47.70049" lon="-2.32494">
        <ele>71.76</ele>
        <time>2013-12-30T09:53:56Z</time>
      </trkpt>
      <trkpt lat="47.70049" lon="-2.3251">
        <ele>71.76</ele>
        <time>2013-12-30T09:53:59Z</time>
      </trkpt>
      <trkpt lat="47.70049" lon="-2.32525">
        <ele>72.24</ele>
        <time>2013-12-30T09:54:02Z</time>
      </trkpt>
      <trkpt lat="47.7005" lon="-2.3254">
        <ele>72.24</ele>
        <time>2013-12-30T09:54:05Z</time>
      </trkpt>
      <trkpt lat="47.70049" lon="-2.32557">
        <ele>72.24</ele>
        <time>2013-12-30T09:54:08Z</time>
      </trkpt>
      <trkpt lat="47.70048" lon="-2.32574">
        <ele>72.24</ele>
        <time>2013-12-30T09:54:11Z</time>
      </trkpt>
      <trkpt lat="47.70046" lon="-2.32591">
        <ele>71.76</ele>
        <time>2013-12-30T09:54:14Z</time>
      </trkpt>
      <trkpt lat="47.70043" lon="-2.32609">
        <ele>71.27</ele>
        <time>2013-12-30T09:54:17Z</time>
      </trkpt>
      <trkpt lat="47.70039" lon="-2.32623">
        <ele>70.79</ele>
        <time>2013-12-30T09:54:20Z</time>
      </trkpt>
      <trkpt lat="47.70035" lon="-2.3264">
        <ele>69.83</ele>
        <time>2013-12-30T09:54:23Z</time>
      </trkpt>
      <trkpt lat="47.70033" lon="-2.32654">
        <ele>68.87</ele>
        <time>2013-12-30T09:54:26Z</time>
      </trkpt>
      <trkpt lat="47.70024" lon="-2.32662">
        <ele>67.43</ele>
        <time>2013-12-30T09:54:30Z</time>
      </trkpt>
      <trkpt lat="47.70017" lon="-2.3267">
        <ele>65.51</ele>
        <time>2013-12-30T09:54:35Z</time>
      </trkpt>
      <trkpt lat="47.70013" lon="-2.32677">
        <ele>62.62</ele>
        <time>2013-12-30T09:55:11Z</time>
      </trkpt>
      <trkpt lat="47.70009" lon="-2.3269">
        <ele>58.78</ele>
        <time>2013-12-30T09:55:21Z</time>
      </trkpt>
      <trkpt lat="47.70009" lon="-2.32706">
        <ele>55.89</ele>
        <time>2013-12-30T09:55:25Z</time>
      </trkpt>
      <trkpt lat="47.70008" lon="-2.32722">
        <ele>54.45</ele>
        <time>2013-12-30T09:55:33Z</time>
      </trkpt>
      <trkpt lat="47.7001" lon="-2.32737">
        <ele>52.53</ele>
        <time>2013-12-30T09:55:48Z</time>
      </trkpt>
      <trkpt lat="47.70012" lon="-2.32752">
        <ele>51.09</ele>
        <time>2013-12-30T09:55:53Z</time>
      </trkpt>
      <trkpt lat="47.70011" lon="-2.32767">
        <ele>48.68</ele>
        <time>2013-12-30T09:55:59Z</time>
      </trkpt>
      <trkpt lat="47.70014" lon="-2.32786">
        <ele>47.72</ele>
        <time>2013-12-30T09:56:03Z</time>
      </trkpt>
      <trkpt lat="47.70017" lon="-2.32803">
        <ele>46.76</ele>
        <time>2013-12-30T09:56:07Z</time>
      </trkpt>
      <trkpt lat="47.7002" lon="-2.32819">
        <ele>46.28</ele>
        <time>2013-12-30T09:56:11Z</time>
      </trkpt>
      <trkpt lat="47.70023" lon="-2.32838">
        <ele>45.8</ele>
        <time>2013-12-30T09:56:16Z</time>
      </trkpt>
      <trkpt lat="47.70026" lon="-2.32852">
        <ele>46.28</ele>
        <time>2013-12-30T09:56:19Z</time>
      </trkpt>
      <trkpt lat="47.7003" lon="-2.32869">
        <ele>46.28</ele>
        <time>2013-12-30T09:56:22Z</time>
      </trkpt>
      <trkpt lat="47.70033" lon="-2.32886">
        <ele>46.76</ele>
        <time>2013-12-30T09:56:25Z</time>
      </trkpt>
      <trkpt lat="47.70036" lon="-2.32904">
        <ele>45.8</ele>
        <time>2013-12-30T09:56:28Z</time>
      </trkpt>
      <trkpt lat="47.70039" lon="-2.3292">
        <ele>44.36</ele>
        <time>2013-12-30T09:56:31Z</time>
      </trkpt>
      <trkpt lat="47.70044" lon="-2.32938">
        <ele>41.47</ele>
        <time>2013-12-30T09:56:35Z</time>
      </trkpt>
      <trkpt lat="47.70048" lon="-2.32955">
        <ele>37.63</ele>
        <time>2013-12-30T09:56:39Z</time>
      </trkpt>
      <trkpt lat="47.7005" lon="-2.32977">
        <ele>34.74</ele>
        <time>2013-12-30T09:56:43Z</time>
      </trkpt>
      <trkpt lat="47.70055" lon="-2.32995">
        <ele>32.82</ele>
        <time>2013-12-30T09:56:47Z</time>
      </trkpt>
      <trkpt lat="47.70061" lon="-2.33016">
        <ele>33.3</ele>
        <time>2013-12-30T09:56:51Z</time>
      </trkpt>
      <trkpt lat="47.70065" lon="-2.33037">
        <ele>33.78</ele>
        <time>2013-12-30T09:56:55Z</time>
      </trkpt>
      <trkpt lat="47.70069" lon="-2.33052">
        <ele>35.23</ele>
        <time>2013-12-30T09:56:58Z</time>
      </trkpt>
      <trkpt lat="47.70073" lon="-2.33066">
        <ele>35.71</ele>
        <time>2013-12-30T09:57:01Z</time>
      </trkpt>
      <trkpt lat="47.70079" lon="-2.33082">
        <ele>36.67</ele>
        <time>2013-12-30T09:57:05Z</time>
      </trkpt>
      <trkpt lat="47.70084" lon="-2.33097">
        <ele>36.67</ele>
        <time>2013-12-30T09:57:09Z</time>
      </trkpt>
      <trkpt lat="47.7009" lon="-2.33112">
        <ele>36.19</ele>
        <time>2013-12-30T09:57:13Z</time>
      </trkpt>
      <trkpt lat="47.70095" lon="-2.33128">
        <ele>36.19</ele>
        <time>2013-12-30T09:57:17Z</time>
      </trkpt>
      <trkpt lat="47.701" lon="-2.33143">
        <ele>36.67</ele>
        <time>2013-12-30T09:57:20Z</time>
      </trkpt>
      <trkpt lat="47.70105" lon="-2.33158">
        <ele>37.63</ele>
        <time>2013-12-30T09:57:23Z</time>
      </trkpt>
      <trkpt lat="47.7011" lon="-2.33174">
        <ele>38.11</ele>
        <time>2013-12-30T09:57:26Z</time>
      </trkpt>
      <trkpt lat="47.70116" lon="-2.33192">
        <ele>38.11</ele>
        <time>2013-12-30T09:57:29Z</time>
      </trkpt>
      <trkpt lat="47.70121" lon="-2.33207">
        <ele>37.63</ele>
        <time>2013-12-30T09:57:32Z</time>
      </trkpt>
      <trkpt lat="47.70127" lon="-2.33225">
        <ele>37.15</ele>
        <time>2013-12-30T09:57:35Z</time>
      </trkpt>
      <trkpt lat="47.70133" lon="-2.33241">
        <ele>37.63</ele>
        <time>2013-12-30T09:57:38Z</time>
      </trkpt>
      <trkpt lat="47.70138" lon="-2.33257">
        <ele>37.63</ele>
        <time>2013-12-30T09:57:41Z</time>
      </trkpt>
      <trkpt lat="47.70145" lon="-2.33274">
        <ele>36.67</ele>
        <time>2013-12-30T09:57:44Z</time>
      </trkpt>
      <trkpt lat="47.70154" lon="-2.33287">
        <ele>34.74</ele>
        <time>2013-12-30T09:57:47Z</time>
      </trkpt>
      <trkpt lat="47.70159" lon="-2.33306">
        <ele>32.82</ele>
        <time>2013-12-30T09:57:50Z</time>
      </trkpt>
      <trkpt lat="47.70165" lon="-2.33324">
        <ele>31.38</ele>
        <time>2013-12-30T09:57:53Z</time>
      </trkpt>
      <trkpt lat="47.7017" lon="-2.33343">
        <ele>31.86</ele>
        <time>2013-12-30T09:57:56Z</time>
      </trkpt>
      <trkpt lat="47.70174" lon="-2.33363">
        <ele>32.82</ele>
        <time>2013-12-30T09:57:59Z</time>
      </trkpt>
      <trkpt lat="47.70179" lon="-2.33382">
        <ele>33.78</ele>
        <time>2013-12-30T09:58:02Z</time>
      </trkpt>
      <trkpt lat="47.70183" lon="-2.33399">
        <ele>34.26</ele>
        <time>2013-12-30T09:58:05Z</time>
      </trkpt>
      <trkpt lat="47.70188" lon="-2.33415">
        <ele>34.74</ele>
        <time>2013-12-30T09:58:08Z</time>
      </trkpt>
      <trkpt lat="47.70192" lon="-2.33429">
        <ele>34.26</ele>
        <time>2013-12-30T09:58:11Z</time>
      </trkpt>
      <trkpt lat="47.70198" lon="-2.33447">
        <ele>33.78</ele>
        <time>2013-12-30T09:58:15Z</time>
      </trkpt>
      <trkpt lat="47.70204" lon="-2.33462">
        <ele>32.82</ele>
        <time>2013-12-30T09:58:19Z</time>
      </trkpt>
      <trkpt lat="47.70206" lon="-2.33477">
        <ele>32.34</ele>
        <time>2013-12-30T09:58:22Z</time>
      </trkpt>
      <trkpt lat="47.70207" lon="-2.33493">
        <ele>31.86</ele>
        <time>2013-12-30T09:58:25Z</time>
      </trkpt>
      <trkpt lat="47.7021" lon="-2.33511">
        <ele>31.38</ele>
        <time>2013-12-30T09:58:28Z</time>
      </trkpt>
      <trkpt lat="47.7021" lon="-2.33528">
        <ele>29.46</ele>
        <time>2013-12-30T09:58:31Z</time>
      </trkpt>
      <trkpt lat="47.70209" lon="-2.33545">
        <ele>27.53</ele>
        <time>2013-12-30T09:58:34Z</time>
      </trkpt>
      <trkpt lat="47.70208" lon="-2.33565">
        <ele>25.13</ele>
        <time>2013-12-30T09:58:37Z</time>
      </trkpt>
      <trkpt lat="47.70206" lon="-2.33582">
        <ele>23.69</ele>
        <time>2013-12-30T09:58:39Z</time>
      </trkpt>
      <trkpt lat="47.70204" lon="-2.33602">
        <ele>22.25</ele>
        <time>2013-12-30T09:58:42Z</time>
      </trkpt>
      <trkpt lat="47.70203" lon="-2.33624">
        <ele>20.81</ele>
        <time>2013-12-30T09:58:45Z</time>
      </trkpt>
      <trkpt lat="47.70202" lon="-2.33642">
        <ele>19.84</ele>
        <time>2013-12-30T09:58:48Z</time>
      </trkpt>
      <trkpt lat="47.70197" lon="-2.3366">
        <ele>20.32</ele>
        <time>2013-12-30T09:58:51Z</time>
      </trkpt>
      <trkpt lat="47.70193" lon="-2.33677">
        <ele>20.81</ele>
        <time>2013-12-30T09:58:54Z</time>
      </trkpt>
      <trkpt lat="47.70188" lon="-2.33693">
        <ele>21.29</ele>
        <time>2013-12-30T09:58:57Z</time>
      </trkpt>
      <trkpt lat="47.70186" lon="-2.33709">
        <ele>21.29</ele>
        <time>2013-12-30T09:59:00Z</time>
      </trkpt>
      <trkpt lat="47.70183" lon="-2.33724">
        <ele>21.29</ele>
        <time>2013-12-30T09:59:03Z</time>
      </trkpt>
      <trkpt lat="47.70182" lon="-2.33742">
        <ele>21.29</ele>
        <time>2013-12-30T09:59:07Z</time>
      </trkpt>
      <trkpt lat="47.70175" lon="-2.33754">
        <ele>21.29</ele>
        <time>2013-12-30T09:59:12Z</time>
      </trkpt>
      <trkpt lat="47.70165" lon="-2.33756">
        <ele>21.77</ele>
        <time>2013-12-30T09:59:16Z</time>
      </trkpt>
      <trkpt lat="47.70154" lon="-2.33759">
        <ele>23.69</ele>
        <time>2013-12-30T09:59:20Z</time>
      </trkpt>
      <trkpt lat="47.70145" lon="-2.33761">
        <ele>25.61</ele>
        <time>2013-12-30T09:59:24Z</time>
      </trkpt>
      <trkpt lat="47.70135" lon="-2.33762">
        <ele>27.53</ele>
        <time>2013-12-30T09:59:28Z</time>
      </trkpt>
      <trkpt lat="47.70125" lon="-2.33759">
        <ele>28.5</ele>
        <time>2013-12-30T09:59:32Z</time>
      </trkpt>
      <trkpt lat="47.70116" lon="-2.33756">
        <ele>29.94</ele>
        <time>2013-12-30T09:59:38Z</time>
      </trkpt>
      <trkpt lat="47.70107" lon="-2.33758">
        <ele>31.38</ele>
        <time>2013-12-30T09:59:43Z</time>
      </trkpt>
      <trkpt lat="47.70098" lon="-2.33761">
        <ele>33.78</ele>
        <time>2013-12-30T09:59:49Z</time>
      </trkpt>
      <trkpt lat="47.70088" lon="-2.33765">
        <ele>35.71</ele>
        <time>2013-12-30T09:59:56Z</time>
      </trkpt>
      <trkpt lat="47.70079" lon="-2.3377">
        <ele>36.67</ele>
        <time>2013-12-30T10:00:03Z</time>
      </trkpt>
      <trkpt lat="47.7007" lon="-2.3377">
        <ele>38.11</ele>
        <time>2013-12-30T10:00:10Z</time>
      </trkpt>
      <trkpt lat="47.70062" lon="-2.33762">
        <ele>38.59</ele>
        <time>2013-12-30T10:00:16Z</time>
      </trkpt>
      <trkpt lat="47.70059" lon="-2.33746">
        <ele>37.63</ele>
        <time>2013-12-30T10:00:21Z</time>
      </trkpt>
      <trkpt lat="47.70061" lon="-2.33733">
        <ele>36.67</ele>
        <time>2013-12-30T10:00:25Z</time>
      </trkpt>
      <trkpt lat="47.7006" lon="-2.33719">
        <ele>36.67</ele>
        <time>2013-12-30T10:00:28Z</time>
      </trkpt>
      <trkpt lat="47.70054" lon="-2.33702">
        <ele>36.67</ele>
        <time>2013-12-30T10:00:31Z</time>
      </trkpt>
      <trkpt lat="47.70047" lon="-2.33692">
        <ele>37.15</ele>
        <time>2013-12-30T10:00:35Z</time>
      </trkpt>
      <trkpt lat="47.70038" lon="-2.3368">
        <ele>38.11</ele>
        <time>2013-12-30T10:00:40Z</time>
      </trkpt>
      <trkpt lat="47.70031" lon="-2.33671">
        <ele>38.59</ele>
        <time>2013-12-30T10:00:44Z</time>
      </trkpt>
      <trkpt lat="47.70026" lon="-2.3366">
        <ele>39.55</ele>
        <time>2013-12-30T10:00:48Z</time>
      </trkpt>
      <trkpt lat="47.70019" lon="-2.33648">
        <ele>40.51</ele>
        <time>2013-12-30T10:00:52Z</time>
      </trkpt>
      <trkpt lat="47.70014" lon="-2.33635">
        <ele>41.95</ele>
        <time>2013-12-30T10:00:56Z</time>
      </trkpt>
      <trkpt lat="47.70007" lon="-2.33624">
        <ele>42.92</ele>
        <time>2013-12-30T10:01:01Z</time>
      </trkpt>
      <trkpt lat="47.69997" lon="-2.33618">
        <ele>43.88</ele>
        <time>2013-12-30T10:01:07Z</time>
      </trkpt>
      <trkpt lat="47.69989" lon="-2.3361">
        <ele>45.32</ele>
        <time>2013-12-30T10:01:12Z</time>
      </trkpt>
      <trkpt lat="47.69981" lon="-2.33603">
        <ele>46.28</ele>
        <time>2013-12-30T10:01:17Z</time>
      </trkpt>
      <trkpt lat="47.69972" lon="-2.33594">
        <ele>47.24</ele>
        <time>2013-12-30T10:01:23Z</time>
      </trkpt>
      <trkpt lat="47.69964" lon="-2.3359">
        <ele>49.16</ele>
        <time>2013-12-30T10:01:28Z</time>
      </trkpt>
      <trkpt lat="47.69955" lon="-2.33594">
        <ele>51.09</ele>
        <time>2013-12-30T10:01:34Z</time>
      </trkpt>
      <trkpt lat="47.69955" lon="-2.33609">
        <ele>51.57</ele>
        <time>2013-12-30T10:01:39Z</time>
      </trkpt>
      <trkpt lat="47.69955" lon="-2.33624">
        <ele>51.57</ele>
        <time>2013-12-30T10:01:44Z</time>
      </trkpt>
      <trkpt lat="47.69953" lon="-2.33639">
        <ele>52.05</ele>
        <time>2013-12-30T10:01:49Z</time>
      </trkpt>
      <trkpt lat="47.6995" lon="-2.33653">
        <ele>52.05</ele>
        <time>2013-12-30T10:01:54Z</time>
      </trkpt>
      <trkpt lat="47.69949" lon="-2.33669">
        <ele>52.05</ele>
        <time>2013-12-30T10:01:59Z</time>
      </trkpt>
      <trkpt lat="47.6995" lon="-2.33683">
        <ele>51.09</ele>
        <time>2013-12-30T10:02:02Z</time>
      </trkpt>
      <trkpt lat="47.6995" lon="-2.33698">
        <ele>51.09</ele>
        <time>2013-12-30T10:02:05Z</time>
      </trkpt>
      <trkpt lat="47.69949" lon="-2.33712">
        <ele>51.57</ele>
        <time>2013-12-30T10:02:08Z</time>
      </trkpt>
      <trkpt lat="47.69945" lon="-2.33727">
        <ele>52.53</ele>
        <time>2013-12-30T10:02:12Z</time>
      </trkpt>
      <trkpt lat="47.69939" lon="-2.33742">
        <ele>53.01</ele>
        <time>2013-12-30T10:02:16Z</time>
      </trkpt>
      <trkpt lat="47.69933" lon="-2.33754">
        <ele>52.53</ele>
        <time>2013-12-30T10:02:19Z</time>
      </trkpt>
      <trkpt lat="47.69926" lon="-2.33767">
        <ele>52.53</ele>
        <time>2013-12-30T10:02:22Z</time>
      </trkpt>
      <trkpt lat="47.6992" lon="-2.33778">
        <ele>52.05</ele>
        <time>2013-12-30T10:02:25Z</time>
      </trkpt>
      <trkpt lat="47.69918" lon="-2.33793">
        <ele>52.05</ele>
        <time>2013-12-30T10:02:28Z</time>
      </trkpt>
      <trkpt lat="47.69915" lon="-2.3381">
        <ele>53.01</ele>
        <time>2013-12-30T10:02:31Z</time>
      </trkpt>
      <trkpt lat="47.69914" lon="-2.33826">
        <ele>53.49</ele>
        <time>2013-12-30T10:02:34Z</time>
      </trkpt>
      <trkpt lat="47.69912" lon="-2.33843">
        <ele>53.49</ele>
        <time>2013-12-30T10:02:37Z</time>
      </trkpt>
      <trkpt lat="47.69909" lon="-2.3386">
        <ele>53.97</ele>
        <time>2013-12-30T10:02:40Z</time>
      </trkpt>
      <trkpt lat="47.69906" lon="-2.33876">
        <ele>54.93</ele>
        <time>2013-12-30T10:02:43Z</time>
      </trkpt>
      <trkpt lat="47.69903" lon="-2.3389">
        <ele>55.41</ele>
        <time>2013-12-30T10:02:46Z</time>
      </trkpt>
      <trkpt lat="47.69899" lon="-2.33905">
        <ele>56.37</ele>
        <time>2013-12-30T10:02:49Z</time>
      </trkpt>
      <trkpt lat="47.69894" lon="-2.33921">
        <ele>57.34</ele>
        <time>2013-12-30T10:02:53Z</time>
      </trkpt>
      <trkpt lat="47.69891" lon="-2.33937">
        <ele>58.3</ele>
        <time>2013-12-30T10:02:57Z</time>
      </trkpt>
      <trkpt lat="47.69888" lon="-2.33954">
        <ele>59.26</ele>
        <time>2013-12-30T10:03:01Z</time>
      </trkpt>
      <trkpt lat="47.69884" lon="-2.33967">
        <ele>59.26</ele>
        <time>2013-12-30T10:03:04Z</time>
      </trkpt>
      <trkpt lat="47.69881" lon="-2.33982">
        <ele>59.74</ele>
        <time>2013-12-30T10:03:07Z</time>
      </trkpt>
      <trkpt lat="47.69878" lon="-2.33996">
        <ele>60.22</ele>
        <time>2013-12-30T10:03:10Z</time>
      </trkpt>
      <trkpt lat="47.69875" lon="-2.34013">
        <ele>59.74</ele>
        <time>2013-12-30T10:03:14Z</time>
      </trkpt>
      <trkpt lat="47.69872" lon="-2.34026">
        <ele>59.74</ele>
        <time>2013-12-30T10:03:17Z</time>
      </trkpt>
      <trkpt lat="47.69869" lon="-2.3404">
        <ele>59.26</ele>
        <time>2013-12-30T10:03:20Z</time>
      </trkpt>
      <trkpt lat="47.69867" lon="-2.34053">
        <ele>58.78</ele>
        <time>2013-12-30T10:03:23Z</time>
      </trkpt>
      <trkpt lat="47.69865" lon="-2.34069">
        <ele>58.3</ele>
        <time>2013-12-30T10:03:26Z</time>
      </trkpt>
      <trkpt lat="47.69864" lon="-2.34084">
        <ele>58.78</ele>
        <time>2013-12-30T10:03:29Z</time>
      </trkpt>
      <trkpt lat="47.69864" lon="-2.34097">
        <ele>58.78</ele>
        <time>2013-12-30T10:03:32Z</time>
      </trkpt>
      <trkpt lat="47.69866" lon="-2.34112">
        <ele>58.78</ele>
        <time>2013-12-30T10:03:35Z</time>
      </trkpt>
      <trkpt lat="47.69868" lon="-2.34127">
        <ele>58.3</ele>
        <time>2013-12-30T10:03:38Z</time>
      </trkpt>
      <trkpt lat="47.69871" lon="-2.34142">
        <ele>58.3</ele>
        <time>2013-12-30T10:03:41Z</time>
      </trkpt>
      <trkpt lat="47.69874" lon="-2.34156">
        <ele>59.26</ele>
        <time>2013-12-30T10:03:44Z</time>
      </trkpt>
      <trkpt lat="47.69876" lon="-2.3417">
        <ele>59.74</ele>
        <time>2013-12-30T10:03:47Z</time>
      </trkpt>
      <trkpt lat="47.69879" lon="-2.34183">
        <ele>60.22</ele>
        <time>2013-12-30T10:03:50Z</time>
      </trkpt>
      <trkpt lat="47.69882" lon="-2.34197">
        <ele>60.22</ele>
        <time>2013-12-30T10:03:53Z</time>
      </trkpt>
      <trkpt lat="47.69886" lon="-2.3421">
        <ele>60.22</ele>
        <time>2013-12-30T10:03:56Z</time>
      </trkpt>
      <trkpt lat="47.6989" lon="-2.34226">
        <ele>59.26</ele>
        <time>2013-12-30T10:04:00Z</time>
      </trkpt>
      <trkpt lat="47.69897" lon="-2.34239">
        <ele>58.3</ele>
        <time>2013-12-30T10:04:04Z</time>
      </trkpt>
      <trkpt lat="47.69903" lon="-2.34255">
        <ele>57.82</ele>
        <time>2013-12-30T10:04:08Z</time>
      </trkpt>
      <trkpt lat="47.69908" lon="-2.34266">
        <ele>58.3</ele>
        <time>2013-12-30T10:04:11Z</time>
      </trkpt>
      <trkpt lat="47.69914" lon="-2.34282">
        <ele>58.78</ele>
        <time>2013-12-30T10:04:15Z</time>
      </trkpt>
      <trkpt lat="47.6992" lon="-2.34298">
        <ele>58.3</ele>
        <time>2013-12-30T10:04:19Z</time>
      </trkpt>
      <trkpt lat="47.69926" lon="-2.34314">
        <ele>58.3</ele>
        <time>2013-12-30T10:04:23Z</time>
      </trkpt>
      <trkpt lat="47.69931" lon="-2.34329">
        <ele>59.26</ele>
        <time>2013-12-30T10:04:27Z</time>
      </trkpt>
      <trkpt lat="47.69936" lon="-2.34343">
        <ele>60.22</ele>
        <time>2013-12-30T10:04:31Z</time>
      </trkpt>
      <trkpt lat="47.6994" lon="-2.34357">
        <ele>61.18</ele>
        <time>2013-12-30T10:04:35Z</time>
      </trkpt>
      <trkpt lat="47.69944" lon="-2.34371">
        <ele>62.14</ele>
        <time>2013-12-30T10:04:40Z</time>
      </trkpt>
      <trkpt lat="47.69947" lon="-2.34384">
        <ele>62.62</ele>
        <time>2013-12-30T10:04:48Z</time>
      </trkpt>
      <trkpt lat="47.69952" lon="-2.34398">
        <ele>62.62</ele>
        <time>2013-12-30T10:04:53Z</time>
      </trkpt>
      <trkpt lat="47.69956" lon="-2.34412">
        <ele>63.1</ele>
        <time>2013-12-30T10:04:56Z</time>
      </trkpt>
      <trkpt lat="47.6996" lon="-2.34427">
        <ele>63.1</ele>
        <time>2013-12-30T10:04:59Z</time>
      </trkpt>
      <trkpt lat="47.69964" lon="-2.34442">
        <ele>63.1</ele>
        <time>2013-12-30T10:05:02Z</time>
      </trkpt>
      <trkpt lat="47.69968" lon="-2.34457">
        <ele>63.1</ele>
        <time>2013-12-30T10:05:05Z</time>
      </trkpt>
      <trkpt lat="47.69971" lon="-2.34471">
        <ele>62.62</ele>
        <time>2013-12-30T10:05:08Z</time>
      </trkpt>
      <trkpt lat="47.69975" lon="-2.34473">
        <ele>62.62</ele>
        <time>2013-12-30T10:05:19Z</time>
      </trkpt>
      <trkpt lat="47.69976" lon="-2.34462">
        <ele>65.03</ele>
        <time>2013-12-30T10:05:31Z</time>
      </trkpt>
      <trkpt lat="47.69981" lon="-2.34451">
        <ele>68.87</ele>
        <time>2013-12-30T10:05:46Z</time>
      </trkpt>
      <trkpt lat="47.69988" lon="-2.3444">
        <ele>72.72</ele>
        <time>2013-12-30T10:05:58Z</time>
      </trkpt>
      <trkpt lat="47.69995" lon="-2.34436">
        <ele>75.6</ele>
        <time>2013-12-30T10:06:15Z</time>
      </trkpt>
      <trkpt lat="47.70007" lon="-2.34444">
        <ele>76.56</ele>
        <time>2013-12-30T10:06:20Z</time>
      </trkpt>
      <trkpt lat="47.70016" lon="-2.34456">
        <ele>76.08</ele>
        <time>2013-12-30T10:06:23Z</time>
      </trkpt>
      <trkpt lat="47.70022" lon="-2.34466">
        <ele>76.56</ele>
        <time>2013-12-30T10:06:28Z</time>
      </trkpt>
      <trkpt lat="47.70019" lon="-2.34483">
        <ele>80.89</ele>
        <time>2013-12-30T10:06:34Z</time>
      </trkpt>
      <trkpt lat="47.70019" lon="-2.345">
        <ele>82.33</ele>
        <time>2013-12-30T10:06:47Z</time>
      </trkpt>
      <trkpt lat="47.70026" lon="-2.34509">
        <ele>82.33</ele>
        <time>2013-12-30T10:06:55Z</time>
      </trkpt>
      <trkpt lat="47.70025" lon="-2.34524">
        <ele>82.33</ele>
        <time>2013-12-30T10:07:00Z</time>
      </trkpt>
      <trkpt lat="47.70024" lon="-2.34538">
        <ele>81.37</ele>
        <time>2013-12-30T10:07:05Z</time>
      </trkpt>
      <trkpt lat="47.70029" lon="-2.34554">
        <ele>78.97</ele>
        <time>2013-12-30T10:07:16Z</time>
      </trkpt>
      <trkpt lat="47.70035" lon="-2.34566">
        <ele>77.52</ele>
        <time>2013-12-30T10:07:42Z</time>
      </trkpt>
      <trkpt lat="47.70031" lon="-2.34571">
        <ele>78</ele>
        <time>2013-12-30T10:07:56Z</time>
      </trkpt>
      <trkpt lat="47.70035" lon="-2.34582">
        <ele>75.12</ele>
        <time>2013-12-30T10:08:11Z</time>
      </trkpt>
      <trkpt lat="47.70039" lon="-2.34596">
        <ele>71.76</ele>
        <time>2013-12-30T10:08:33Z</time>
      </trkpt>
      <trkpt lat="47.70043" lon="-2.34611">
        <ele>71.76</ele>
        <time>2013-12-30T10:08:38Z</time>
      </trkpt>
      <trkpt lat="47.7005" lon="-2.34624">
        <ele>70.79</ele>
        <time>2013-12-30T10:08:43Z</time>
      </trkpt>
      <trkpt lat="47.70059" lon="-2.34635">
        <ele>69.83</ele>
        <time>2013-12-30T10:08:47Z</time>
      </trkpt>
      <trkpt lat="47.70068" lon="-2.34649">
        <ele>68.87</ele>
        <time>2013-12-30T10:08:51Z</time>
      </trkpt>
      <trkpt lat="47.70071" lon="-2.34663">
        <ele>69.35</ele>
        <time>2013-12-30T10:08:55Z</time>
      </trkpt>
      <trkpt lat="47.7007" lon="-2.34677">
        <ele>70.79</ele>
        <time>2013-12-30T10:09:08Z</time>
      </trkpt>
      <trkpt lat="47.70071" lon="-2.34691">
        <ele>66.47</ele>
        <time>2013-12-30T10:09:20Z</time>
      </trkpt>
      <trkpt lat="47.7008" lon="-2.34701">
        <ele>64.55</ele>
        <time>2013-12-30T10:09:24Z</time>
      </trkpt>
      <trkpt lat="47.70091" lon="-2.34708">
        <ele>64.07</ele>
        <time>2013-12-30T10:09:27Z</time>
      </trkpt>
      <trkpt lat="47.70099" lon="-2.34714">
        <ele>63.1</ele>
        <time>2013-12-30T10:09:29Z</time>
      </trkpt>
      <trkpt lat="47.70108" lon="-2.3472">
        <ele>62.62</ele>
        <time>2013-12-30T10:09:31Z</time>
      </trkpt>
      <trkpt lat="47.70117" lon="-2.34727">
        <ele>61.66</ele>
        <time>2013-12-30T10:09:33Z</time>
      </trkpt>
      <trkpt lat="47.70126" lon="-2.34734">
        <ele>60.7</ele>
        <time>2013-12-30T10:09:35Z</time>
      </trkpt>
      <trkpt lat="47.70134" lon="-2.34743">
        <ele>60.22</ele>
        <time>2013-12-30T10:09:37Z</time>
      </trkpt>
      <trkpt lat="47.70143" lon="-2.34753">
        <ele>59.74</ele>
        <time>2013-12-30T10:09:39Z</time>
      </trkpt>
      <trkpt lat="47.70153" lon="-2.34765">
        <ele>59.26</ele>
        <time>2013-12-30T10:09:41Z</time>
      </trkpt>
      <trkpt lat="47.70161" lon="-2.34779">
        <ele>58.3</ele>
        <time>2013-12-30T10:09:43Z</time>
      </trkpt>
      <trkpt lat="47.70169" lon="-2.34796">
        <ele>57.34</ele>
        <time>2013-12-30T10:09:45Z</time>
      </trkpt>
      <trkpt lat="47.70179" lon="-2.34812">
        <ele>56.86</ele>
        <time>2013-12-30T10:09:47Z</time>
      </trkpt>
      <trkpt lat="47.70189" lon="-2.34828">
        <ele>55.89</ele>
        <time>2013-12-30T10:09:49Z</time>
      </trkpt>
      <trkpt lat="47.702" lon="-2.34844">
        <ele>54.93</ele>
        <time>2013-12-30T10:09:51Z</time>
      </trkpt>
      <trkpt lat="47.70209" lon="-2.34859">
        <ele>53.49</ele>
        <time>2013-12-30T10:09:53Z</time>
      </trkpt>
      <trkpt lat="47.70218" lon="-2.34873">
        <ele>53.01</ele>
        <time>2013-12-30T10:09:55Z</time>
      </trkpt>
      <trkpt lat="47.70226" lon="-2.3489">
        <ele>51.57</ele>
        <time>2013-12-30T10:09:57Z</time>
      </trkpt>
      <trkpt lat="47.70233" lon="-2.34908">
        <ele>50.61</ele>
        <time>2013-12-30T10:09:59Z</time>
      </trkpt>
      <trkpt lat="47.70238" lon="-2.34928">
        <ele>49.65</ele>
        <time>2013-12-30T10:10:01Z</time>
      </trkpt>
      <trkpt lat="47.70243" lon="-2.34947">
        <ele>48.68</ele>
        <time>2013-12-30T10:10:03Z</time>
      </trkpt>
      <trkpt lat="47.70248" lon="-2.34968">
        <ele>47.72</ele>
        <time>2013-12-30T10:10:05Z</time>
      </trkpt>
      <trkpt lat="47.70252" lon="-2.34988">
        <ele>47.24</ele>
        <time>2013-12-30T10:10:07Z</time>
      </trkpt>
      <trkpt lat="47.70257" lon="-2.35007">
        <ele>46.28</ele>
        <time>2013-12-30T10:10:09Z</time>
      </trkpt>
      <trkpt lat="47.70261" lon="-2.35025">
        <ele>45.32</ele>
        <time>2013-12-30T10:10:11Z</time>
      </trkpt>
      <trkpt lat="47.70265" lon="-2.35044">
        <ele>43.88</ele>
        <time>2013-12-30T10:10:13Z</time>
      </trkpt>
      <trkpt lat="47.70269" lon="-2.35064">
        <ele>42.92</ele>
        <time>2013-12-30T10:10:15Z</time>
      </trkpt>
      <trkpt lat="47.70273" lon="-2.35083">
        <ele>42.92</ele>
        <time>2013-12-30T10:10:17Z</time>
      </trkpt>
      <trkpt lat="47.70277" lon="-2.35103">
        <ele>42.92</ele>
        <time>2013-12-30T10:10:19Z</time>
      </trkpt>
      <trkpt lat="47.70282" lon="-2.35121">
        <ele>42.44</ele>
        <time>2013-12-30T10:10:21Z</time>
      </trkpt>
      <trkpt lat="47.70288" lon="-2.35139">
        <ele>41.95</ele>
        <time>2013-12-30T10:10:23Z</time>
      </trkpt>
      <trkpt lat="47.70293" lon="-2.35157">
        <ele>41.47</ele>
        <time>2013-12-30T10:10:25Z</time>
      </trkpt>
      <trkpt lat="47.70299" lon="-2.35173">
        <ele>40.99</ele>
        <time>2013-12-30T10:10:27Z</time>
      </trkpt>
      <trkpt lat="47.70305" lon="-2.35187">
        <ele>40.51</ele>
        <time>2013-12-30T10:10:29Z</time>
      </trkpt>
      <trkpt lat="47.7031" lon="-2.352">
        <ele>40.51</ele>
        <time>2013-12-30T10:10:31Z</time>
      </trkpt>
      <trkpt lat="47.70316" lon="-2.35212">
        <ele>40.03</ele>
        <time>2013-12-30T10:10:33Z</time>
      </trkpt>
      <trkpt lat="47.70324" lon="-2.35228">
        <ele>39.55</ele>
        <time>2013-12-30T10:10:36Z</time>
      </trkpt>
      <trkpt lat="47.70332" lon="-2.35244">
        <ele>40.51</ele>
        <time>2013-12-30T10:10:40Z</time>
      </trkpt>
      <trkpt lat="47.70341" lon="-2.35253">
        <ele>42.92</ele>
        <time>2013-12-30T10:10:44Z</time>
      </trkpt>
      <trkpt lat="47.70352" lon="-2.35258">
        <ele>43.4</ele>
        <time>2013-12-30T10:10:48Z</time>
      </trkpt>
      <trkpt lat="47.70364" lon="-2.35258">
        <ele>42.92</ele>
        <time>2013-12-30T10:10:52Z</time>
      </trkpt>
      <trkpt lat="47.70374" lon="-2.35261">
        <ele>42.92</ele>
        <time>2013-12-30T10:10:55Z</time>
      </trkpt>
      <trkpt lat="47.70386" lon="-2.35263">
        <ele>43.88</ele>
        <time>2013-12-30T10:10:59Z</time>
      </trkpt>
      <trkpt lat="47.70399" lon="-2.35272">
        <ele>44.36</ele>
        <time>2013-12-30T10:11:17Z</time>
      </trkpt>
      <trkpt lat="47.70402" lon="-2.35288">
        <ele>44.84</ele>
        <time>2013-12-30T10:11:22Z</time>
      </trkpt>
      <trkpt lat="47.70404" lon="-2.35306">
        <ele>44.84</ele>
        <time>2013-12-30T10:11:26Z</time>
      </trkpt>
      <trkpt lat="47.70405" lon="-2.35324">
        <ele>45.8</ele>
        <time>2013-12-30T10:11:30Z</time>
      </trkpt>
      <trkpt lat="47.70407" lon="-2.35339">
        <ele>46.76</ele>
        <time>2013-12-30T10:11:34Z</time>
      </trkpt>
      <trkpt lat="47.70402" lon="-2.3536">
        <ele>45.8</ele>
        <time>2013-12-30T10:21:06Z</time>
      </trkpt>
      <trkpt lat="47.70404" lon="-2.35376">
        <ele>45.32</ele>
        <time>2013-12-30T10:21:10Z</time>
      </trkpt>
      <trkpt lat="47.70405" lon="-2.35394">
        <ele>45.8</ele>
        <time>2013-12-30T10:21:14Z</time>
      </trkpt>
      <trkpt lat="47.70405" lon="-2.35414">
        <ele>46.28</ele>
        <time>2013-12-30T10:21:18Z</time>
      </trkpt>
      <trkpt lat="47.70404" lon="-2.35434">
        <ele>46.28</ele>
        <time>2013-12-30T10:21:22Z</time>
      </trkpt>
      <trkpt lat="47.70404" lon="-2.3545">
        <ele>46.28</ele>
        <time>2013-12-30T10:21:25Z</time>
      </trkpt>
      <trkpt lat="47.70405" lon="-2.35465">
        <ele>46.28</ele>
        <time>2013-12-30T10:21:28Z</time>
      </trkpt>
      <trkpt lat="47.70404" lon="-2.35482">
        <ele>46.76</ele>
        <time>2013-12-30T10:21:32Z</time>
      </trkpt>
      <trkpt lat="47.70404" lon="-2.35497">
        <ele>47.72</ele>
        <time>2013-12-30T10:21:35Z</time>
      </trkpt>
      <trkpt lat="47.70406" lon="-2.35515">
        <ele>48.68</ele>
        <time>2013-12-30T10:21:39Z</time>
      </trkpt>
      <trkpt lat="47.70407" lon="-2.35531">
        <ele>49.65</ele>
        <time>2013-12-30T10:21:43Z</time>
      </trkpt>
      <trkpt lat="47.70409" lon="-2.35547">
        <ele>51.57</ele>
        <time>2013-12-30T10:21:47Z</time>
      </trkpt>
      <trkpt lat="47.70411" lon="-2.35565">
        <ele>52.53</ele>
        <time>2013-12-30T10:21:51Z</time>
      </trkpt>
      <trkpt lat="47.70414" lon="-2.35582">
        <ele>53.01</ele>
        <time>2013-12-30T10:21:55Z</time>
      </trkpt>
      <trkpt lat="47.70417" lon="-2.35599">
        <ele>53.49</ele>
        <time>2013-12-30T10:22:00Z</time>
      </trkpt>
      <trkpt lat="47.70419" lon="-2.35615">
        <ele>53.97</ele>
        <time>2013-12-30T10:22:05Z</time>
      </trkpt>
      <trkpt lat="47.70424" lon="-2.35632">
        <ele>55.41</ele>
        <time>2013-12-30T10:22:12Z</time>
      </trkpt>
      <trkpt lat="47.70428" lon="-2.35649">
        <ele>56.86</ele>
        <time>2013-12-30T10:22:18Z</time>
      </trkpt>
      <trkpt lat="47.70433" lon="-2.35665">
        <ele>57.82</ele>
        <time>2013-12-30T10:22:24Z</time>
      </trkpt>
      <trkpt lat="47.70439" lon="-2.35686">
        <ele>56.86</ele>
        <time>2013-12-30T10:22:30Z</time>
      </trkpt>
      <trkpt lat="47.70442" lon="-2.35704">
        <ele>55.41</ele>
        <time>2013-12-30T10:22:35Z</time>
      </trkpt>
      <trkpt lat="47.70445" lon="-2.35723">
        <ele>53.49</ele>
        <time>2013-12-30T10:22:40Z</time>
      </trkpt>
      <trkpt lat="47.70452" lon="-2.35737">
        <ele>52.53</ele>
        <time>2013-12-30T10:22:49Z</time>
      </trkpt>
      <trkpt lat="47.70457" lon="-2.35726">
        <ele>54.93</ele>
        <time>2013-12-30T10:22:57Z</time>
      </trkpt>
      <trkpt lat="47.7046" lon="-2.35714">
        <ele>57.82</ele>
        <time>2013-12-30T10:23:05Z</time>
      </trkpt>
      <trkpt lat="47.70461" lon="-2.35699">
        <ele>57.82</ele>
        <time>2013-12-30T10:23:11Z</time>
      </trkpt>
      <trkpt lat="47.70464" lon="-2.35686">
        <ele>58.78</ele>
        <time>2013-12-30T10:23:18Z</time>
      </trkpt>
      <trkpt lat="47.70467" lon="-2.35669">
        <ele>58.78</ele>
        <time>2013-12-30T10:23:26Z</time>
      </trkpt>
      <trkpt lat="47.70471" lon="-2.35651">
        <ele>59.74</ele>
        <time>2013-12-30T10:23:33Z</time>
      </trkpt>
      <trkpt lat="47.7047" lon="-2.35635">
        <ele>60.22</ele>
        <time>2013-12-30T10:23:38Z</time>
      </trkpt>
      <trkpt lat="47.70471" lon="-2.35617">
        <ele>60.7</ele>
        <time>2013-12-30T10:23:43Z</time>
      </trkpt>
      <trkpt lat="47.7047" lon="-2.356">
        <ele>60.7</ele>
        <time>2013-12-30T10:23:47Z</time>
      </trkpt>
      <trkpt lat="47.7047" lon="-2.3558">
        <ele>60.7</ele>
        <time>2013-12-30T10:23:51Z</time>
      </trkpt>
      <trkpt lat="47.70471" lon="-2.35562">
        <ele>60.7</ele>
        <time>2013-12-30T10:23:55Z</time>
      </trkpt>
      <trkpt lat="47.70472" lon="-2.35543">
        <ele>60.7</ele>
        <time>2013-12-30T10:23:59Z</time>
      </trkpt>
      <trkpt lat="47.70473" lon="-2.35525">
        <ele>62.14</ele>
        <time>2013-12-30T10:24:03Z</time>
      </trkpt>
      <trkpt lat="47.70472" lon="-2.35507">
        <ele>62.62</ele>
        <time>2013-12-30T10:24:07Z</time>
      </trkpt>
      <trkpt lat="47.70473" lon="-2.35488">
        <ele>63.1</ele>
        <time>2013-12-30T10:24:11Z</time>
      </trkpt>
      <trkpt lat="47.70473" lon="-2.35471">
        <ele>63.1</ele>
        <time>2013-12-30T10:24:15Z</time>
      </trkpt>
      <trkpt lat="47.70473" lon="-2.35452">
        <ele>63.1</ele>
        <time>2013-12-30T10:24:19Z</time>
      </trkpt>
      <trkpt lat="47.70473" lon="-2.35434">
        <ele>62.62</ele>
        <time>2013-12-30T10:24:26Z</time>
      </trkpt>
      <trkpt lat="47.70473" lon="-2.35418">
        <ele>62.14</ele>
        <time>2013-12-30T10:24:30Z</time>
      </trkpt>
      <trkpt lat="47.70474" lon="-2.35401">
        <ele>62.14</ele>
        <time>2013-12-30T10:24:34Z</time>
      </trkpt>
      <trkpt lat="47.70474" lon="-2.35383">
        <ele>62.62</ele>
        <time>2013-12-30T10:24:39Z</time>
      </trkpt>
      <trkpt lat="47.70477" lon="-2.35375">
        <ele>60.7</ele>
        <time>2013-12-30T10:24:54Z</time>
      </trkpt>
      <trkpt lat="47.70478" lon="-2.35392">
        <ele>59.26</ele>
        <time>2013-12-30T10:24:59Z</time>
      </trkpt>
      <trkpt lat="47.70478" lon="-2.35406">
        <ele>58.78</ele>
        <time>2013-12-30T10:25:02Z</time>
      </trkpt>
      <trkpt lat="47.70477" lon="-2.35419">
        <ele>58.3</ele>
        <time>2013-12-30T10:25:06Z</time>
      </trkpt>
      <trkpt lat="47.70484" lon="-2.35422">
        <ele>61.18</ele>
        <time>2013-12-30T10:25:22Z</time>
      </trkpt>
      <trkpt lat="47.70497" lon="-2.35418">
        <ele>65.51</ele>
        <time>2013-12-30T10:25:44Z</time>
      </trkpt>
      <trkpt lat="47.70507" lon="-2.35419">
        <ele>67.91</ele>
        <time>2013-12-30T10:26:04Z</time>
      </trkpt>
      <trkpt lat="47.70515" lon="-2.35412">
        <ele>66.95</ele>
        <time>2013-12-30T10:26:29Z</time>
      </trkpt>
      <trkpt lat="47.7052" lon="-2.35404">
        <ele>68.87</ele>
        <time>2013-12-30T10:26:44Z</time>
      </trkpt>
      <trkpt lat="47.70528" lon="-2.35396">
        <ele>70.31</ele>
        <time>2013-12-30T10:27:18Z</time>
      </trkpt>
      <trkpt lat="47.70527" lon="-2.3538">
        <ele>69.83</ele>
        <time>2013-12-30T10:27:22Z</time>
      </trkpt>
      <trkpt lat="47.70526" lon="-2.35364">
        <ele>70.31</ele>
        <time>2013-12-30T10:27:26Z</time>
      </trkpt>
      <trkpt lat="47.70526" lon="-2.35347">
        <ele>69.83</ele>
        <time>2013-12-30T10:27:30Z</time>
      </trkpt>
      <trkpt lat="47.70526" lon="-2.35332">
        <ele>70.31</ele>
        <time>2013-12-30T10:27:33Z</time>
      </trkpt>
      <trkpt lat="47.70526" lon="-2.35317">
        <ele>70.31</ele>
        <time>2013-12-30T10:27:36Z</time>
      </trkpt>
      <trkpt lat="47.70527" lon="-2.35303">
        <ele>69.83</ele>
        <time>2013-12-30T10:27:39Z</time>
      </trkpt>
      <trkpt lat="47.70531" lon="-2.3529">
        <ele>70.31</ele>
        <time>2013-12-30T10:27:42Z</time>
      </trkpt>
      <trkpt lat="47.70539" lon="-2.35284">
        <ele>71.27</ele>
        <time>2013-12-30T10:27:51Z</time>
      </trkpt>
      <trkpt lat="47.70546" lon="-2.35277">
        <ele>72.24</ele>
        <time>2013-12-30T10:28:02Z</time>
      </trkpt>
      <trkpt lat="47.70545" lon="-2.35265">
        <ele>72.24</ele>
        <time>2013-12-30T10:28:08Z</time>
      </trkpt>
      <trkpt lat="47.70544" lon="-2.35249">
        <ele>71.76</ele>
        <time>2013-12-30T10:28:13Z</time>
      </trkpt>
      <trkpt lat="47.70536" lon="-2.35239">
        <ele>70.31</ele>
        <time>2013-12-30T10:28:19Z</time>
      </trkpt>
      <trkpt lat="47.70533" lon="-2.35224">
        <ele>69.35</ele>
        <time>2013-12-30T10:28:24Z</time>
      </trkpt>
      <trkpt lat="47.70535" lon="-2.35209">
        <ele>68.39</ele>
        <time>2013-12-30T10:28:28Z</time>
      </trkpt>
      <trkpt lat="47.70534" lon="-2.35195">
        <ele>68.39</ele>
        <time>2013-12-30T10:28:32Z</time>
      </trkpt>
      <trkpt lat="47.70536" lon="-2.3518">
        <ele>68.87</ele>
        <time>2013-12-30T10:28:39Z</time>
      </trkpt>
      <trkpt lat="47.70536" lon="-2.35165">
        <ele>69.35</ele>
        <time>2013-12-30T10:28:47Z</time>
      </trkpt>
      <trkpt lat="47.70533" lon="-2.3515">
        <ele>69.83</ele>
        <time>2013-12-30T10:28:55Z</time>
      </trkpt>
      <trkpt lat="47.70533" lon="-2.35136">
        <ele>71.27</ele>
        <time>2013-12-30T10:29:02Z</time>
      </trkpt>
      <trkpt lat="47.70532" lon="-2.35122">
        <ele>72.24</ele>
        <time>2013-12-30T10:29:13Z</time>
      </trkpt>
      <trkpt lat="47.70534" lon="-2.35108">
        <ele>72.72</ele>
        <time>2013-12-30T10:29:24Z</time>
      </trkpt>
      <trkpt lat="47.70542" lon="-2.35102">
        <ele>73.68</ele>
        <time>2013-12-30T10:29:34Z</time>
      </trkpt>
      <trkpt lat="47.70549" lon="-2.35093">
        <ele>74.64</ele>
        <time>2013-12-30T10:29:40Z</time>
      </trkpt>
      <trkpt lat="47.70556" lon="-2.35084">
        <ele>75.12</ele>
        <time>2013-12-30T10:29:46Z</time>
      </trkpt>
      <trkpt lat="47.70559" lon="-2.35069">
        <ele>75.6</ele>
        <time>2013-12-30T10:29:51Z</time>
      </trkpt>
      <trkpt lat="47.70565" lon="-2.35058">
        <ele>76.08</ele>
        <time>2013-12-30T10:29:57Z</time>
      </trkpt>
      <trkpt lat="47.70565" lon="-2.35041">
        <ele>76.08</ele>
        <time>2013-12-30T10:30:03Z</time>
      </trkpt>
      <trkpt lat="47.70566" lon="-2.35025">
        <ele>76.08</ele>
        <time>2013-12-30T10:30:07Z</time>
      </trkpt>
      <trkpt lat="47.70572" lon="-2.35015">
        <ele>75.6</ele>
        <time>2013-12-30T10:30:11Z</time>
      </trkpt>
      <trkpt lat="47.70573" lon="-2.34999">
        <ele>75.6</ele>
        <time>2013-12-30T10:30:16Z</time>
      </trkpt>
      <trkpt lat="47.7057" lon="-2.34986">
        <ele>75.12</ele>
        <time>2013-12-30T10:30:20Z</time>
      </trkpt>
      <trkpt lat="47.70559" lon="-2.34987">
        <ele>75.6</ele>
        <time>2013-12-30T10:30:26Z</time>
      </trkpt>
      <trkpt lat="47.70549" lon="-2.34993">
        <ele>76.08</ele>
        <time>2013-12-30T10:30:31Z</time>
      </trkpt>
      <trkpt lat="47.7054" lon="-2.34997">
        <ele>75.6</ele>
        <time>2013-12-30T10:30:36Z</time>
      </trkpt>
      <trkpt lat="47.70531" lon="-2.35006">
        <ele>75.6</ele>
        <time>2013-12-30T10:30:40Z</time>
      </trkpt>
      <trkpt lat="47.70522" lon="-2.35011">
        <ele>76.08</ele>
        <time>2013-12-30T10:30:45Z</time>
      </trkpt>
      <trkpt lat="47.70512" lon="-2.35017">
        <ele>74.64</ele>
        <time>2013-12-30T10:30:51Z</time>
      </trkpt>
      <trkpt lat="47.70509" lon="-2.35004">
        <ele>73.2</ele>
        <time>2013-12-30T10:30:56Z</time>
      </trkpt>
      <trkpt lat="47.70505" lon="-2.34991">
        <ele>72.24</ele>
        <time>2013-12-30T10:31:00Z</time>
      </trkpt>
      <trkpt lat="47.70501" lon="-2.34978">
        <ele>71.76</ele>
        <time>2013-12-30T10:31:06Z</time>
      </trkpt>
      <trkpt lat="47.70498" lon="-2.34965">
        <ele>72.24</ele>
        <time>2013-12-30T10:31:11Z</time>
      </trkpt>
      <trkpt lat="47.705" lon="-2.3495">
        <ele>74.16</ele>
        <time>2013-12-30T10:31:24Z</time>
      </trkpt>
      <trkpt lat="47.70502" lon="-2.34935">
        <ele>74.64</ele>
        <time>2013-12-30T10:31:29Z</time>
      </trkpt>
      <trkpt lat="47.70499" lon="-2.34919">
        <ele>75.12</ele>
        <time>2013-12-30T10:31:34Z</time>
      </trkpt>
      <trkpt lat="47.70496" lon="-2.34906">
        <ele>75.12</ele>
        <time>2013-12-30T10:31:38Z</time>
      </trkpt>
      <trkpt lat="47.70494" lon="-2.34893">
        <ele>75.12</ele>
        <time>2013-12-30T10:31:43Z</time>
      </trkpt>
      <trkpt lat="47.70488" lon="-2.34883">
        <ele>74.64</ele>
        <time>2013-12-30T10:31:49Z</time>
      </trkpt>
      <trkpt lat="47.70483" lon="-2.34871">
        <ele>74.16</ele>
        <time>2013-12-30T10:31:54Z</time>
      </trkpt>
      <trkpt lat="47.70476" lon="-2.3486">
        <ele>72.72</ele>
        <time>2013-12-30T10:31:59Z</time>
      </trkpt>
      <trkpt lat="47.70473" lon="-2.34847">
        <ele>72.72</ele>
        <time>2013-12-30T10:32:05Z</time>
      </trkpt>
      <trkpt lat="47.70481" lon="-2.34841">
        <ele>73.2</ele>
        <time>2013-12-30T10:32:18Z</time>
      </trkpt>
      <trkpt lat="47.70491" lon="-2.34833">
        <ele>72.72</ele>
        <time>2013-12-30T10:32:23Z</time>
      </trkpt>
      <trkpt lat="47.70499" lon="-2.34823">
        <ele>72.72</ele>
        <time>2013-12-30T10:32:27Z</time>
      </trkpt>
      <trkpt lat="47.70508" lon="-2.3482">
        <ele>72.72</ele>
        <time>2013-12-30T10:32:30Z</time>
      </trkpt>
      <trkpt lat="47.70517" lon="-2.34822">
        <ele>73.2</ele>
        <time>2013-12-30T10:32:33Z</time>
      </trkpt>
      <trkpt lat="47.70521" lon="-2.3481">
        <ele>74.16</ele>
        <time>2013-12-30T10:32:37Z</time>
      </trkpt>
      <trkpt lat="47.70522" lon="-2.34795">
        <ele>74.64</ele>
        <time>2013-12-30T10:32:42Z</time>
      </trkpt>
      <trkpt lat="47.70514" lon="-2.34788">
        <ele>74.64</ele>
        <time>2013-12-30T10:32:46Z</time>
      </trkpt>
      <trkpt lat="47.70504" lon="-2.3479">
        <ele>74.64</ele>
        <time>2013-12-30T10:32:50Z</time>
      </trkpt>
      <trkpt lat="47.70497" lon="-2.3478">
        <ele>74.64</ele>
        <time>2013-12-30T10:32:54Z</time>
      </trkpt>
      <trkpt lat="47.70489" lon="-2.3478">
        <ele>74.64</ele>
        <time>2013-12-30T10:33:00Z</time>
      </trkpt>
      <trkpt lat="47.7048" lon="-2.34772">
        <ele>73.68</ele>
        <time>2013-12-30T10:33:04Z</time>
      </trkpt>
      <trkpt lat="47.70471" lon="-2.3476">
        <ele>72.24</ele>
        <time>2013-12-30T10:33:08Z</time>
      </trkpt>
      <trkpt lat="47.70465" lon="-2.34746">
        <ele>71.76</ele>
        <time>2013-12-30T10:33:11Z</time>
      </trkpt>
      <trkpt lat="47.70463" lon="-2.34732">
        <ele>71.76</ele>
        <time>2013-12-30T10:33:15Z</time>
      </trkpt>
      <trkpt lat="47.70452" lon="-2.34727">
        <ele>71.27</ele>
        <time>2013-12-30T10:33:20Z</time>
      </trkpt>
      <trkpt lat="47.70447" lon="-2.34712">
        <ele>72.24</ele>
        <time>2013-12-30T10:33:26Z</time>
      </trkpt>
      <trkpt lat="47.70447" lon="-2.34697">
        <ele>72.72</ele>
        <time>2013-12-30T10:33:30Z</time>
      </trkpt>
      <trkpt lat="47.70445" lon="-2.34684">
        <ele>73.2</ele>
        <time>2013-12-30T10:33:34Z</time>
      </trkpt>
      <trkpt lat="47.70436" lon="-2.34674">
        <ele>72.24</ele>
        <time>2013-12-30T10:33:39Z</time>
      </trkpt>
      <trkpt lat="47.7043" lon="-2.34661">
        <ele>72.24</ele>
        <time>2013-12-30T10:33:43Z</time>
      </trkpt>
      <trkpt lat="47.70424" lon="-2.34645">
        <ele>72.24</ele>
        <time>2013-12-30T10:33:47Z</time>
      </trkpt>
      <trkpt lat="47.70418" lon="-2.34631">
        <ele>72.72</ele>
        <time>2013-12-30T10:33:51Z</time>
      </trkpt>
      <trkpt lat="47.70415" lon="-2.34618">
        <ele>72.72</ele>
        <time>2013-12-30T10:33:54Z</time>
      </trkpt>
      <trkpt lat="47.70412" lon="-2.34604">
        <ele>73.68</ele>
        <time>2013-12-30T10:33:58Z</time>
      </trkpt>
      <trkpt lat="47.70407" lon="-2.34591">
        <ele>73.68</ele>
        <time>2013-12-30T10:34:03Z</time>
      </trkpt>
      <trkpt lat="47.70403" lon="-2.34576">
        <ele>74.16</ele>
        <time>2013-12-30T10:34:07Z</time>
      </trkpt>
      <trkpt lat="47.704" lon="-2.3456">
        <ele>74.16</ele>
        <time>2013-12-30T10:34:11Z</time>
      </trkpt>
      <trkpt lat="47.70398" lon="-2.34546">
        <ele>74.64</ele>
        <time>2013-12-30T10:34:15Z</time>
      </trkpt>
      <trkpt lat="47.70395" lon="-2.34531">
        <ele>74.16</ele>
        <time>2013-12-30T10:34:19Z</time>
      </trkpt>
      <trkpt lat="47.70393" lon="-2.34517">
        <ele>74.16</ele>
        <time>2013-12-30T10:34:23Z</time>
      </trkpt>
      <trkpt lat="47.70385" lon="-2.34511">
        <ele>73.2</ele>
        <time>2013-12-30T10:34:26Z</time>
      </trkpt>
      <trkpt lat="47.70375" lon="-2.34507">
        <ele>73.2</ele>
        <time>2013-12-30T10:34:31Z</time>
      </trkpt>
      <trkpt lat="47.70368" lon="-2.34498">
        <ele>72.72</ele>
        <time>2013-12-30T10:34:35Z</time>
      </trkpt>
      <trkpt lat="47.70366" lon="-2.34484">
        <ele>72.72</ele>
        <time>2013-12-30T10:34:39Z</time>
      </trkpt>
      <trkpt lat="47.70368" lon="-2.3447">
        <ele>73.2</ele>
        <time>2013-12-30T10:34:43Z</time>
      </trkpt>
      <trkpt lat="47.70372" lon="-2.34458">
        <ele>73.68</ele>
        <time>2013-12-30T10:34:47Z</time>
      </trkpt>
      <trkpt lat="47.70378" lon="-2.34443">
        <ele>73.68</ele>
        <time>2013-12-30T10:34:51Z</time>
      </trkpt>
      <trkpt lat="47.70377" lon="-2.34427">
        <ele>73.68</ele>
        <time>2013-12-30T10:34:55Z</time>
      </trkpt>
      <trkpt lat="47.70375" lon="-2.34411">
        <ele>73.68</ele>
        <time>2013-12-30T10:34:59Z</time>
      </trkpt>
      <trkpt lat="47.70373" lon="-2.34396">
        <ele>73.2</ele>
        <time>2013-12-30T10:35:04Z</time>
      </trkpt>
      <trkpt lat="47.70371" lon="-2.34382">
        <ele>73.2</ele>
        <time>2013-12-30T10:35:13Z</time>
      </trkpt>
      <trkpt lat="47.70371" lon="-2.34369">
        <ele>74.16</ele>
        <time>2013-12-30T10:35:19Z</time>
      </trkpt>
      <trkpt lat="47.70371" lon="-2.34352">
        <ele>74.64</ele>
        <time>2013-12-30T10:35:23Z</time>
      </trkpt>
      <trkpt lat="47.70369" lon="-2.34336">
        <ele>74.64</ele>
        <time>2013-12-30T10:35:26Z</time>
      </trkpt>
      <trkpt lat="47.70367" lon="-2.34321">
        <ele>75.12</ele>
        <time>2013-12-30T10:35:29Z</time>
      </trkpt>
      <trkpt lat="47.7036" lon="-2.3431">
        <ele>74.64</ele>
        <time>2013-12-30T10:35:33Z</time>
      </trkpt>
      <trkpt lat="47.70357" lon="-2.34295">
        <ele>74.64</ele>
        <time>2013-12-30T10:35:37Z</time>
      </trkpt>
      <trkpt lat="47.70355" lon="-2.34278">
        <ele>74.16</ele>
        <time>2013-12-30T10:35:41Z</time>
      </trkpt>
      <trkpt lat="47.70349" lon="-2.34269">
        <ele>74.16</ele>
        <time>2013-12-30T10:35:44Z</time>
      </trkpt>
      <trkpt lat="47.70343" lon="-2.34255">
        <ele>73.2</ele>
        <time>2013-12-30T10:35:48Z</time>
      </trkpt>
      <trkpt lat="47.70343" lon="-2.3424">
        <ele>73.2</ele>
        <time>2013-12-30T10:35:51Z</time>
      </trkpt>
      <trkpt lat="47.70343" lon="-2.34223">
        <ele>73.2</ele>
        <time>2013-12-30T10:35:55Z</time>
      </trkpt>
      <trkpt lat="47.7034" lon="-2.34208">
        <ele>72.24</ele>
        <time>2013-12-30T10:35:58Z</time>
      </trkpt>
      <trkpt lat="47.70339" lon="-2.34193">
        <ele>71.76</ele>
        <time>2013-12-30T10:36:01Z</time>
      </trkpt>
      <trkpt lat="47.7034" lon="-2.3418">
        <ele>71.76</ele>
        <time>2013-12-30T10:36:05Z</time>
      </trkpt>
      <trkpt lat="47.70339" lon="-2.34167">
        <ele>72.24</ele>
        <time>2013-12-30T10:36:09Z</time>
      </trkpt>
      <trkpt lat="47.70338" lon="-2.3415">
        <ele>72.24</ele>
        <time>2013-12-30T10:36:13Z</time>
      </trkpt>
      <trkpt lat="47.70334" lon="-2.34133">
        <ele>71.76</ele>
        <time>2013-12-30T10:36:17Z</time>
      </trkpt>
      <trkpt lat="47.7033" lon="-2.34119">
        <ele>70.79</ele>
        <time>2013-12-30T10:36:20Z</time>
      </trkpt>
      <trkpt lat="47.70323" lon="-2.3411">
        <ele>70.31</ele>
        <time>2013-12-30T10:36:23Z</time>
      </trkpt>
      <trkpt lat="47.70316" lon="-2.34101">
        <ele>70.31</ele>
        <time>2013-12-30T10:36:27Z</time>
      </trkpt>
      <trkpt lat="47.70308" lon="-2.34094">
        <ele>71.27</ele>
        <time>2013-12-30T10:36:32Z</time>
      </trkpt>
      <trkpt lat="47.70301" lon="-2.34085">
        <ele>71.76</ele>
        <time>2013-12-30T10:36:37Z</time>
      </trkpt>
      <trkpt lat="47.70292" lon="-2.34076">
        <ele>72.24</ele>
        <time>2013-12-30T10:36:42Z</time>
      </trkpt>
      <trkpt lat="47.70287" lon="-2.34063">
        <ele>73.2</ele>
        <time>2013-12-30T10:36:50Z</time>
      </trkpt>
      <trkpt lat="47.7029" lon="-2.34047">
        <ele>73.68</ele>
        <time>2013-12-30T10:36:55Z</time>
      </trkpt>
      <trkpt lat="47.70293" lon="-2.34033">
        <ele>74.64</ele>
        <time>2013-12-30T10:36:59Z</time>
      </trkpt>
      <trkpt lat="47.70295" lon="-2.34019">
        <ele>75.6</ele>
        <time>2013-12-30T10:37:04Z</time>
      </trkpt>
      <trkpt lat="47.70295" lon="-2.33999">
        <ele>75.12</ele>
        <time>2013-12-30T10:40:26Z</time>
      </trkpt>
      <trkpt lat="47.70294" lon="-2.33981">
        <ele>75.12</ele>
        <time>2013-12-30T10:40:29Z</time>
      </trkpt>
      <trkpt lat="47.70299" lon="-2.33963">
        <ele>74.64</ele>
        <time>2013-12-30T10:40:32Z</time>
      </trkpt>
      <trkpt lat="47.70302" lon="-2.33945">
        <ele>74.16</ele>
        <time>2013-12-30T10:40:35Z</time>
      </trkpt>
      <trkpt lat="47.70303" lon="-2.33932">
        <ele>74.16</ele>
        <time>2013-12-30T10:40:38Z</time>
      </trkpt>
      <trkpt lat="47.70306" lon="-2.33919">
        <ele>73.68</ele>
        <time>2013-12-30T10:40:41Z</time>
      </trkpt>
      <trkpt lat="47.70304" lon="-2.33906">
        <ele>73.2</ele>
        <time>2013-12-30T10:40:45Z</time>
      </trkpt>
      <trkpt lat="47.7031" lon="-2.33895">
        <ele>73.2</ele>
        <time>2013-12-30T10:40:50Z</time>
      </trkpt>
      <trkpt lat="47.70319" lon="-2.3389">
        <ele>73.2</ele>
        <time>2013-12-30T10:40:53Z</time>
      </trkpt>
      <trkpt lat="47.70329" lon="-2.33889">
        <ele>73.2</ele>
        <time>2013-12-30T10:40:56Z</time>
      </trkpt>
      <trkpt lat="47.70337" lon="-2.33895">
        <ele>73.68</ele>
        <time>2013-12-30T10:40:59Z</time>
      </trkpt>
      <trkpt lat="47.70347" lon="-2.33896">
        <ele>74.16</ele>
        <time>2013-12-30T10:41:02Z</time>
      </trkpt>
      <trkpt lat="47.70356" lon="-2.33896">
        <ele>73.68</ele>
        <time>2013-12-30T10:41:06Z</time>
      </trkpt>
      <trkpt lat="47.70367" lon="-2.33894">
        <ele>71.27</ele>
        <time>2013-12-30T10:41:11Z</time>
      </trkpt>
      <trkpt lat="47.7038" lon="-2.33886">
        <ele>69.83</ele>
        <time>2013-12-30T10:41:14Z</time>
      </trkpt>
      <trkpt lat="47.70389" lon="-2.33873">
        <ele>67.91</ele>
        <time>2013-12-30T10:41:17Z</time>
      </trkpt>
      <trkpt lat="47.70392" lon="-2.3386">
        <ele>66.47</ele>
        <time>2013-12-30T10:41:20Z</time>
      </trkpt>
      <trkpt lat="47.70397" lon="-2.33848">
        <ele>65.03</ele>
        <time>2013-12-30T10:41:23Z</time>
      </trkpt>
      <trkpt lat="47.70408" lon="-2.33838">
        <ele>63.58</ele>
        <time>2013-12-30T10:41:27Z</time>
      </trkpt>
      <trkpt lat="47.70413" lon="-2.33823">
        <ele>62.14</ele>
        <time>2013-12-30T10:41:31Z</time>
      </trkpt>
      <trkpt lat="47.70422" lon="-2.33811">
        <ele>60.22</ele>
        <time>2013-12-30T10:41:35Z</time>
      </trkpt>
      <trkpt lat="47.70432" lon="-2.338">
        <ele>58.3</ele>
        <time>2013-12-30T10:41:39Z</time>
      </trkpt>
      <trkpt lat="47.70446" lon="-2.33792">
        <ele>55.41</ele>
        <time>2013-12-30T10:41:43Z</time>
      </trkpt>
      <trkpt lat="47.70457" lon="-2.33792">
        <ele>54.45</ele>
        <time>2013-12-30T10:41:46Z</time>
      </trkpt>
      <trkpt lat="47.70463" lon="-2.33781">
        <ele>53.01</ele>
        <time>2013-12-30T10:41:50Z</time>
      </trkpt>
      <trkpt lat="47.70469" lon="-2.33766">
        <ele>53.01</ele>
        <time>2013-12-30T10:41:54Z</time>
      </trkpt>
      <trkpt lat="47.70472" lon="-2.33751">
        <ele>53.01</ele>
        <time>2013-12-30T10:41:57Z</time>
      </trkpt>
      <trkpt lat="47.7048" lon="-2.33736">
        <ele>52.05</ele>
        <time>2013-12-30T10:42:01Z</time>
      </trkpt>
      <trkpt lat="47.70489" lon="-2.33722">
        <ele>50.13</ele>
        <time>2013-12-30T10:42:04Z</time>
      </trkpt>
      <trkpt lat="47.70502" lon="-2.33708">
        <ele>47.72</ele>
        <time>2013-12-30T10:42:07Z</time>
      </trkpt>
      <trkpt lat="47.70512" lon="-2.33692">
        <ele>44.84</ele>
        <time>2013-12-30T10:42:10Z</time>
      </trkpt>
      <trkpt lat="47.70516" lon="-2.33678">
        <ele>43.4</ele>
        <time>2013-12-30T10:42:13Z</time>
      </trkpt>
      <trkpt lat="47.70525" lon="-2.33647">
        <ele>32.82</ele>
        <time>2013-12-30T10:42:30Z</time>
      </trkpt>
      <trkpt lat="47.7052" lon="-2.33639">
        <ele>26.57</ele>
        <time>2013-12-30T10:43:37Z</time>
      </trkpt>
      <trkpt lat="47.70509" lon="-2.3363">
        <ele>24.65</ele>
        <time>2013-12-30T10:43:41Z</time>
      </trkpt>
      <trkpt lat="47.70498" lon="-2.33623">
        <ele>22.25</ele>
        <time>2013-12-30T10:43:45Z</time>
      </trkpt>
      <trkpt lat="47.70489" lon="-2.33624">
        <ele>22.25</ele>
        <time>2013-12-30T10:43:48Z</time>
      </trkpt>
      <trkpt lat="47.70477" lon="-2.33629">
        <ele>22.25</ele>
        <time>2013-12-30T10:43:51Z</time>
      </trkpt>
      <trkpt lat="47.70463" lon="-2.33638">
        <ele>20.81</ele>
        <time>2013-12-30T10:43:54Z</time>
      </trkpt>
      <trkpt lat="47.70454" lon="-2.33645">
        <ele>20.32</ele>
        <time>2013-12-30T10:43:56Z</time>
      </trkpt>
      <trkpt lat="47.70445" lon="-2.33651">
        <ele>19.84</ele>
        <time>2013-12-30T10:43:58Z</time>
      </trkpt>
      <trkpt lat="47.70436" lon="-2.33658">
        <ele>19.36</ele>
        <time>2013-12-30T10:44:00Z</time>
      </trkpt>
      <trkpt lat="47.70426" lon="-2.33664">
        <ele>18.4</ele>
        <time>2013-12-30T10:44:02Z</time>
      </trkpt>
      <trkpt lat="47.70416" lon="-2.33672">
        <ele>17.92</ele>
        <time>2013-12-30T10:44:04Z</time>
      </trkpt>
      <trkpt lat="47.70406" lon="-2.33679">
        <ele>16.96</ele>
        <time>2013-12-30T10:44:06Z</time>
      </trkpt>
      <trkpt lat="47.70397" lon="-2.33686">
        <ele>16.48</ele>
        <time>2013-12-30T10:44:08Z</time>
      </trkpt>
      <trkpt lat="47.70387" lon="-2.33694">
        <ele>16</ele>
        <time>2013-12-30T10:44:10Z</time>
      </trkpt>
      <trkpt lat="47.70377" lon="-2.33701">
        <ele>15.04</ele>
        <time>2013-12-30T10:44:12Z</time>
      </trkpt>
      <trkpt lat="47.70368" lon="-2.33709">
        <ele>14.56</ele>
        <time>2013-12-30T10:44:14Z</time>
      </trkpt>
      <trkpt lat="47.70358" lon="-2.33715">
        <ele>14.56</ele>
        <time>2013-12-30T10:44:16Z</time>
      </trkpt>
      <trkpt lat="47.70349" lon="-2.33722">
        <ele>14.08</ele>
        <time>2013-12-30T10:44:18Z</time>
      </trkpt>
      <trkpt lat="47.7034" lon="-2.33728">
        <ele>13.6</ele>
        <time>2013-12-30T10:44:20Z</time>
      </trkpt>
      <trkpt lat="47.70331" lon="-2.33734">
        <ele>13.6</ele>
        <time>2013-12-30T10:44:22Z</time>
      </trkpt>
      <trkpt lat="47.70322" lon="-2.3374">
        <ele>13.12</ele>
        <time>2013-12-30T10:44:24Z</time>
      </trkpt>
      <trkpt lat="47.70313" lon="-2.33746">
        <ele>13.12</ele>
        <time>2013-12-30T10:44:26Z</time>
      </trkpt>
      <trkpt lat="47.70304" lon="-2.3375">
        <ele>12.63</ele>
        <time>2013-12-30T10:44:28Z</time>
      </trkpt>
      <trkpt lat="47.70295" lon="-2.33754">
        <ele>13.6</ele>
        <time>2013-12-30T10:44:30Z</time>
      </trkpt>
      <trkpt lat="47.70285" lon="-2.33756">
        <ele>14.56</ele>
        <time>2013-12-30T10:44:32Z</time>
      </trkpt>
      <trkpt lat="47.70271" lon="-2.33758">
        <ele>15.52</ele>
        <time>2013-12-30T10:44:35Z</time>
      </trkpt>
      <trkpt lat="47.70262" lon="-2.33759">
        <ele>16.48</ele>
        <time>2013-12-30T10:44:37Z</time>
      </trkpt>
      <trkpt lat="47.70249" lon="-2.33759">
        <ele>17.44</ele>
        <time>2013-12-30T10:44:40Z</time>
      </trkpt>
      <trkpt lat="47.70237" lon="-2.33758">
        <ele>18.4</ele>
        <time>2013-12-30T10:44:43Z</time>
      </trkpt>
      <trkpt lat="47.70225" lon="-2.33757">
        <ele>18.4</ele>
        <time>2013-12-30T10:44:46Z</time>
      </trkpt>
      <trkpt lat="47.70213" lon="-2.33756">
        <ele>19.84</ele>
        <time>2013-12-30T10:44:49Z</time>
      </trkpt>
      <trkpt lat="47.702" lon="-2.33756">
        <ele>20.32</ele>
        <time>2013-12-30T10:44:52Z</time>
      </trkpt>
      <trkpt lat="47.70188" lon="-2.33752">
        <ele>21.29</ele>
        <time>2013-12-30T10:44:55Z</time>
      </trkpt>
      <trkpt lat="47.7018" lon="-2.33741">
        <ele>21.77</ele>
        <time>2013-12-30T10:44:58Z</time>
      </trkpt>
      <trkpt lat="47.7018" lon="-2.33724">
        <ele>21.77</ele>
        <time>2013-12-30T10:45:01Z</time>
      </trkpt>
      <trkpt lat="47.70182" lon="-2.33709">
        <ele>22.25</ele>
        <time>2013-12-30T10:45:04Z</time>
      </trkpt>
      <trkpt lat="47.70185" lon="-2.33695">
        <ele>22.25</ele>
        <time>2013-12-30T10:45:07Z</time>
      </trkpt>
      <trkpt lat="47.70188" lon="-2.3368">
        <ele>22.25</ele>
        <time>2013-12-30T10:45:10Z</time>
      </trkpt>
      <trkpt lat="47.70192" lon="-2.33664">
        <ele>22.25</ele>
        <time>2013-12-30T10:45:13Z</time>
      </trkpt>
      <trkpt lat="47.70196" lon="-2.33649">
        <ele>22.25</ele>
        <time>2013-12-30T10:45:16Z</time>
      </trkpt>
      <trkpt lat="47.70198" lon="-2.33633">
        <ele>22.25</ele>
        <time>2013-12-30T10:45:19Z</time>
      </trkpt>
      <trkpt lat="47.70199" lon="-2.33617">
        <ele>21.77</ele>
        <time>2013-12-30T10:45:22Z</time>
      </trkpt>
      <trkpt lat="47.702" lon="-2.336">
        <ele>22.73</ele>
        <time>2013-12-30T10:45:26Z</time>
      </trkpt>
      <trkpt lat="47.70203" lon="-2.33587">
        <ele>23.69</ele>
        <time>2013-12-30T10:45:31Z</time>
      </trkpt>
      <trkpt lat="47.70207" lon="-2.33569">
        <ele>26.57</ele>
        <time>2013-12-30T10:45:38Z</time>
      </trkpt>
      <trkpt lat="47.70209" lon="-2.3355">
        <ele>30.42</ele>
        <time>2013-12-30T10:45:52Z</time>
      </trkpt>
      <trkpt lat="47.70209" lon="-2.33532">
        <ele>33.3</ele>
        <time>2013-12-30T10:46:05Z</time>
      </trkpt>
      <trkpt lat="47.70203" lon="-2.33514">
        <ele>42.92</ele>
        <time>2013-12-30T10:46:25Z</time>
      </trkpt>
      <trkpt lat="47.70201" lon="-2.33499">
        <ele>41.47</ele>
        <time>2013-12-30T10:46:30Z</time>
      </trkpt>
      <trkpt lat="47.702" lon="-2.33482">
        <ele>40.99</ele>
        <time>2013-12-30T10:46:36Z</time>
      </trkpt>
      <trkpt lat="47.70197" lon="-2.33466">
        <ele>42.44</ele>
        <time>2013-12-30T10:46:41Z</time>
      </trkpt>
      <trkpt lat="47.70192" lon="-2.33451">
        <ele>41.95</ele>
        <time>2013-12-30T10:46:45Z</time>
      </trkpt>
      <trkpt lat="47.70187" lon="-2.33433">
        <ele>41.95</ele>
        <time>2013-12-30T10:46:50Z</time>
      </trkpt>
      <trkpt lat="47.70183" lon="-2.33416">
        <ele>41.47</ele>
        <time>2013-12-30T10:46:54Z</time>
      </trkpt>
      <trkpt lat="47.70177" lon="-2.33396">
        <ele>40.99</ele>
        <time>2013-12-30T10:46:58Z</time>
      </trkpt>
      <trkpt lat="47.70172" lon="-2.33379">
        <ele>41.95</ele>
        <time>2013-12-30T10:47:01Z</time>
      </trkpt>
      <trkpt lat="47.70167" lon="-2.33362">
        <ele>43.4</ele>
        <time>2013-12-30T10:47:04Z</time>
      </trkpt>
      <trkpt lat="47.70162" lon="-2.33346">
        <ele>45.32</ele>
        <time>2013-12-30T10:47:07Z</time>
      </trkpt>
      <trkpt lat="47.70156" lon="-2.33329">
        <ele>46.28</ele>
        <time>2013-12-30T10:47:10Z</time>
      </trkpt>
      <trkpt lat="47.70152" lon="-2.33313">
        <ele>47.72</ele>
        <time>2013-12-30T10:47:13Z</time>
      </trkpt>
      <trkpt lat="47.70149" lon="-2.33297">
        <ele>48.68</ele>
        <time>2013-12-30T10:47:16Z</time>
      </trkpt>
      <trkpt lat="47.70142" lon="-2.33284">
        <ele>48.2</ele>
        <time>2013-12-30T10:47:19Z</time>
      </trkpt>
      <trkpt lat="47.70137" lon="-2.3327">
        <ele>47.72</ele>
        <time>2013-12-30T10:47:22Z</time>
      </trkpt>
      <trkpt lat="47.70132" lon="-2.33256">
        <ele>47.24</ele>
        <time>2013-12-30T10:47:25Z</time>
      </trkpt>
      <trkpt lat="47.70126" lon="-2.3324">
        <ele>47.24</ele>
        <time>2013-12-30T10:47:29Z</time>
      </trkpt>
      <trkpt lat="47.70121" lon="-2.33226">
        <ele>46.76</ele>
        <time>2013-12-30T10:47:33Z</time>
      </trkpt>
      <trkpt lat="47.70116" lon="-2.33209">
        <ele>45.32</ele>
        <time>2013-12-30T10:47:38Z</time>
      </trkpt>
      <trkpt lat="47.70112" lon="-2.33192">
        <ele>43.88</ele>
        <time>2013-12-30T10:47:43Z</time>
      </trkpt>
      <trkpt lat="47.70106" lon="-2.33174">
        <ele>44.36</ele>
        <time>2013-12-30T10:47:48Z</time>
      </trkpt>
      <trkpt lat="47.70101" lon="-2.33158">
        <ele>43.4</ele>
        <time>2013-12-30T10:47:52Z</time>
      </trkpt>
      <trkpt lat="47.70096" lon="-2.33141">
        <ele>42.44</ele>
        <time>2013-12-30T10:47:56Z</time>
      </trkpt>
      <trkpt lat="47.7009" lon="-2.33125">
        <ele>41.47</ele>
        <time>2013-12-30T10:48:00Z</time>
      </trkpt>
      <trkpt lat="47.70084" lon="-2.33106">
        <ele>38.59</ele>
        <time>2013-12-30T10:48:04Z</time>
      </trkpt>
      <trkpt lat="47.70078" lon="-2.33089">
        <ele>37.63</ele>
        <time>2013-12-30T10:48:07Z</time>
      </trkpt>
      <trkpt lat="47.70071" lon="-2.3307">
        <ele>36.19</ele>
        <time>2013-12-30T10:48:10Z</time>
      </trkpt>
      <trkpt lat="47.70067" lon="-2.33051">
        <ele>33.78</ele>
        <time>2013-12-30T10:48:13Z</time>
      </trkpt>
      <trkpt lat="47.70062" lon="-2.33035">
        <ele>31.38</ele>
        <time>2013-12-30T10:48:16Z</time>
      </trkpt>
      <trkpt lat="47.7006" lon="-2.33016">
        <ele>29.94</ele>
        <time>2013-12-30T10:48:20Z</time>
      </trkpt>
      <trkpt lat="47.70057" lon="-2.33002">
        <ele>30.42</ele>
        <time>2013-12-30T10:48:23Z</time>
      </trkpt>
      <trkpt lat="47.70055" lon="-2.32972">
        <ele>34.74</ele>
        <time>2013-12-30T10:48:41Z</time>
      </trkpt>
      <trkpt lat="47.70052" lon="-2.32947">
        <ele>44.36</ele>
        <time>2013-12-30T10:49:04Z</time>
      </trkpt>
      <trkpt lat="47.70042" lon="-2.32929">
        <ele>54.93</ele>
        <time>2013-12-30T10:49:22Z</time>
      </trkpt>
      <trkpt lat="47.70036" lon="-2.32908">
        <ele>60.22</ele>
        <time>2013-12-30T10:49:38Z</time>
      </trkpt>
      <trkpt lat="47.70031" lon="-2.32884">
        <ele>60.22</ele>
        <time>2013-12-30T10:49:53Z</time>
      </trkpt>
      <trkpt lat="47.70028" lon="-2.32861">
        <ele>61.18</ele>
        <time>2013-12-30T10:50:12Z</time>
      </trkpt>
      <trkpt lat="47.70022" lon="-2.32842">
        <ele>64.07</ele>
        <time>2013-12-30T10:50:26Z</time>
      </trkpt>
      <trkpt lat="47.70018" lon="-2.32818">
        <ele>66.47</ele>
        <time>2013-12-30T10:50:43Z</time>
      </trkpt>
      <trkpt lat="47.70016" lon="-2.32797">
        <ele>72.72</ele>
        <time>2013-12-30T10:50:56Z</time>
      </trkpt>
      <trkpt lat="47.70014" lon="-2.32779">
        <ele>73.2</ele>
        <time>2013-12-30T10:51:03Z</time>
      </trkpt>
      <trkpt lat="47.70013" lon="-2.32759">
        <ele>71.76</ele>
        <time>2013-12-30T10:51:13Z</time>
      </trkpt>
      <trkpt lat="47.70007" lon="-2.32735">
        <ele>65.99</ele>
        <time>2013-12-30T10:51:29Z</time>
      </trkpt>
      <trkpt lat="47.70007" lon="-2.32716">
        <ele>62.14</ele>
        <time>2013-12-30T10:51:48Z</time>
      </trkpt>
      <trkpt lat="47.70006" lon="-2.32701">
        <ele>58.3</ele>
        <time>2013-12-30T10:52:25Z</time>
      </trkpt>
      <trkpt lat="47.70002" lon="-2.32685">
        <ele>59.26</ele>
        <time>2013-12-30T10:52:35Z</time>
      </trkpt>
      <trkpt lat="47.69996" lon="-2.32669">
        <ele>59.26</ele>
        <time>2013-12-30T10:52:40Z</time>
      </trkpt>
      <trkpt lat="47.69991" lon="-2.32653">
        <ele>59.26</ele>
        <time>2013-12-30T10:52:44Z</time>
      </trkpt>
      <trkpt lat="47.69986" lon="-2.32638">
        <ele>59.26</ele>
        <time>2013-12-30T10:52:47Z</time>
      </trkpt>
      <trkpt lat="47.69982" lon="-2.32622">
        <ele>59.26</ele>
        <time>2013-12-30T10:52:50Z</time>
      </trkpt>
      <trkpt lat="47.69978" lon="-2.32609">
        <ele>59.26</ele>
        <time>2013-12-30T10:52:53Z</time>
      </trkpt>
      <trkpt lat="47.69975" lon="-2.32593">
        <ele>58.78</ele>
        <time>2013-12-30T10:52:56Z</time>
      </trkpt>
      <trkpt lat="47.69971" lon="-2.32577">
        <ele>58.3</ele>
        <time>2013-12-30T10:52:59Z</time>
      </trkpt>
      <trkpt lat="47.69968" lon="-2.32562">
        <ele>58.78</ele>
        <time>2013-12-30T10:53:02Z</time>
      </trkpt>
      <trkpt lat="47.69965" lon="-2.32547">
        <ele>58.78</ele>
        <time>2013-12-30T10:53:05Z</time>
      </trkpt>
      <trkpt lat="47.69964" lon="-2.32532">
        <ele>58.78</ele>
        <time>2013-12-30T10:53:08Z</time>
      </trkpt>
      <trkpt lat="47.69961" lon="-2.32517">
        <ele>58.78</ele>
        <time>2013-12-30T10:53:11Z</time>
      </trkpt>
      <trkpt lat="47.69962" lon="-2.32501">
        <ele>58.78</ele>
        <time>2013-12-30T10:53:14Z</time>
      </trkpt>
      <trkpt lat="47.69964" lon="-2.32484">
        <ele>59.26</ele>
        <time>2013-12-30T10:53:17Z</time>
      </trkpt>
      <trkpt lat="47.69966" lon="-2.32464">
        <ele>59.74</ele>
        <time>2013-12-30T10:53:21Z</time>
      </trkpt>
      <trkpt lat="47.69973" lon="-2.32449">
        <ele>59.74</ele>
        <time>2013-12-30T10:53:25Z</time>
      </trkpt>
      <trkpt lat="47.69982" lon="-2.32435">
        <ele>62.62</ele>
        <time>2013-12-30T10:53:37Z</time>
      </trkpt>
      <trkpt lat="47.69991" lon="-2.32427">
        <ele>64.07</ele>
        <time>2013-12-30T10:53:49Z</time>
      </trkpt>
      <trkpt lat="47.69997" lon="-2.32416">
        <ele>63.58</ele>
        <time>2013-12-30T10:54:06Z</time>
      </trkpt>
      <trkpt lat="47.70002" lon="-2.32402">
        <ele>65.03</ele>
        <time>2013-12-30T10:54:11Z</time>
      </trkpt>
      <trkpt lat="47.70006" lon="-2.32389">
        <ele>65.03</ele>
        <time>2013-12-30T10:54:16Z</time>
      </trkpt>
      <trkpt lat="47.7001" lon="-2.32378">
        <ele>65.51</ele>
        <time>2013-12-30T10:54:28Z</time>
      </trkpt>
      <trkpt lat="47.70014" lon="-2.32366">
        <ele>65.51</ele>
        <time>2013-12-30T10:54:39Z</time>
      </trkpt>
      <trkpt lat="47.7002" lon="-2.32356">
        <ele>65.99</ele>
        <time>2013-12-30T10:54:46Z</time>
      </trkpt>
      <trkpt lat="47.70027" lon="-2.32345">
        <ele>66.47</ele>
        <time>2013-12-30T10:54:53Z</time>
      </trkpt>
      <trkpt lat="47.70034" lon="-2.32333">
        <ele>66.95</ele>
        <time>2013-12-30T10:55:00Z</time>
      </trkpt>
      <trkpt lat="47.70041" lon="-2.32322">
        <ele>67.91</ele>
        <time>2013-12-30T10:55:07Z</time>
      </trkpt>
      <trkpt lat="47.70044" lon="-2.32308">
        <ele>68.39</ele>
        <time>2013-12-30T10:55:13Z</time>
      </trkpt>
      <trkpt lat="47.70048" lon="-2.32293">
        <ele>68.87</ele>
        <time>2013-12-30T10:55:18Z</time>
      </trkpt>
      <trkpt lat="47.7005" lon="-2.32277">
        <ele>69.83</ele>
        <time>2013-12-30T10:55:23Z</time>
      </trkpt>
      <trkpt lat="47.7005" lon="-2.32262">
        <ele>69.83</ele>
        <time>2013-12-30T10:55:27Z</time>
      </trkpt>
      <trkpt lat="47.7005" lon="-2.32247">
        <ele>70.79</ele>
        <time>2013-12-30T10:55:31Z</time>
      </trkpt>
      <trkpt lat="47.70053" lon="-2.32231">
        <ele>71.27</ele>
        <time>2013-12-30T10:55:36Z</time>
      </trkpt>
      <trkpt lat="47.70056" lon="-2.32217">
        <ele>72.24</ele>
        <time>2013-12-30T10:55:41Z</time>
      </trkpt>
      <trkpt lat="47.70059" lon="-2.32202">
        <ele>72.24</ele>
        <time>2013-12-30T10:55:45Z</time>
      </trkpt>
      <trkpt lat="47.70061" lon="-2.32187">
        <ele>72.24</ele>
        <time>2013-12-30T10:55:49Z</time>
      </trkpt>
      <trkpt lat="47.70064" lon="-2.32174">
        <ele>71.76</ele>
        <time>2013-12-30T10:55:53Z</time>
      </trkpt>
      <trkpt lat="47.70066" lon="-2.32157">
        <ele>71.76</ele>
        <time>2013-12-30T10:55:57Z</time>
      </trkpt>
      <trkpt lat="47.70067" lon="-2.32139">
        <ele>72.24</ele>
        <time>2013-12-30T10:56:01Z</time>
      </trkpt>
      <trkpt lat="47.70069" lon="-2.32121">
        <ele>72.72</ele>
        <time>2013-12-30T10:56:05Z</time>
      </trkpt>
      <trkpt lat="47.70072" lon="-2.32103">
        <ele>72.72</ele>
        <time>2013-12-30T10:56:09Z</time>
      </trkpt>
      <trkpt lat="47.70073" lon="-2.32089">
        <ele>72.72</ele>
        <time>2013-12-30T10:56:12Z</time>
      </trkpt>
      <trkpt lat="47.70073" lon="-2.32073">
        <ele>72.72</ele>
        <time>2013-12-30T10:56:15Z</time>
      </trkpt>
      <trkpt lat="47.70074" lon="-2.32056">
        <ele>72.72</ele>
        <time>2013-12-30T10:56:18Z</time>
      </trkpt>
      <trkpt lat="47.70077" lon="-2.32039">
        <ele>73.2</ele>
        <time>2013-12-30T10:56:21Z</time>
      </trkpt>
      <trkpt lat="47.7008" lon="-2.32021">
        <ele>74.16</ele>
        <time>2013-12-30T10:56:24Z</time>
      </trkpt>
      <trkpt lat="47.70084" lon="-2.32002">
        <ele>75.12</ele>
        <time>2013-12-30T10:56:27Z</time>
      </trkpt>
      <trkpt lat="47.70088" lon="-2.31982">
        <ele>75.6</ele>
        <time>2013-12-30T10:56:30Z</time>
      </trkpt>
      <trkpt lat="47.70092" lon="-2.31963">
        <ele>76.08</ele>
        <time>2013-12-30T10:56:33Z</time>
      </trkpt>
      <trkpt lat="47.70094" lon="-2.31949">
        <ele>76.56</ele>
        <time>2013-12-30T10:56:35Z</time>
      </trkpt>
      <trkpt lat="47.70096" lon="-2.31935">
        <ele>76.56</ele>
        <time>2013-12-30T10:56:37Z</time>
      </trkpt>
      <trkpt lat="47.70099" lon="-2.31921">
        <ele>77.04</ele>
        <time>2013-12-30T10:56:39Z</time>
      </trkpt>
      <trkpt lat="47.701" lon="-2.31906">
        <ele>77.52</ele>
        <time>2013-12-30T10:56:41Z</time>
      </trkpt>
      <trkpt lat="47.70103" lon="-2.31885">
        <ele>78</ele>
        <time>2013-12-30T10:56:44Z</time>
      </trkpt>
      <trkpt lat="47.70104" lon="-2.31871">
        <ele>78.48</ele>
        <time>2013-12-30T10:56:46Z</time>
      </trkpt>
      <trkpt lat="47.70106" lon="-2.31857">
        <ele>78.48</ele>
        <time>2013-12-30T10:56:48Z</time>
      </trkpt>
      <trkpt lat="47.70108" lon="-2.31844">
        <ele>78.97</ele>
        <time>2013-12-30T10:56:50Z</time>
      </trkpt>
      <trkpt lat="47.7011" lon="-2.3183">
        <ele>78.97</ele>
        <time>2013-12-30T10:56:52Z</time>
      </trkpt>
      <trkpt lat="47.70112" lon="-2.31817">
        <ele>79.45</ele>
        <time>2013-12-30T10:56:54Z</time>
      </trkpt>
      <trkpt lat="47.70114" lon="-2.31797">
        <ele>79.45</ele>
        <time>2013-12-30T10:56:57Z</time>
      </trkpt>
      <trkpt lat="47.70115" lon="-2.31776">
        <ele>79.93</ele>
        <time>2013-12-30T10:57:00Z</time>
      </trkpt>
      <trkpt lat="47.70115" lon="-2.31761">
        <ele>79.93</ele>
        <time>2013-12-30T10:57:02Z</time>
      </trkpt>
      <trkpt lat="47.70116" lon="-2.31746">
        <ele>79.93</ele>
        <time>2013-12-30T10:57:04Z</time>
      </trkpt>
      <trkpt lat="47.70115" lon="-2.3173">
        <ele>79.45</ele>
        <time>2013-12-30T10:57:06Z</time>
      </trkpt>
      <trkpt lat="47.70115" lon="-2.31715">
        <ele>79.45</ele>
        <time>2013-12-30T10:57:08Z</time>
      </trkpt>
      <trkpt lat="47.70116" lon="-2.31699">
        <ele>79.45</ele>
        <time>2013-12-30T10:57:10Z</time>
      </trkpt>
      <trkpt lat="47.70117" lon="-2.31685">
        <ele>79.45</ele>
        <time>2013-12-30T10:57:12Z</time>
      </trkpt>
      <trkpt lat="47.70118" lon="-2.31671">
        <ele>79.93</ele>
        <time>2013-12-30T10:57:14Z</time>
      </trkpt>
      <trkpt lat="47.70122" lon="-2.31657">
        <ele>79.93</ele>
        <time>2013-12-30T10:57:16Z</time>
      </trkpt>
      <trkpt lat="47.70128" lon="-2.31644">
        <ele>79.93</ele>
        <time>2013-12-30T10:57:18Z</time>
      </trkpt>
      <trkpt lat="47.70135" lon="-2.31633">
        <ele>79.93</ele>
        <time>2013-12-30T10:57:20Z</time>
      </trkpt>
      <trkpt lat="47.70144" lon="-2.31624">
        <ele>79.45</ele>
        <time>2013-12-30T10:57:22Z</time>
      </trkpt>
      <trkpt lat="47.70153" lon="-2.31616">
        <ele>78.48</ele>
        <time>2013-12-30T10:57:24Z</time>
      </trkpt>
      <trkpt lat="47.70161" lon="-2.31609">
        <ele>78.48</ele>
        <time>2013-12-30T10:57:26Z</time>
      </trkpt>
      <trkpt lat="47.7017" lon="-2.31602">
        <ele>78.48</ele>
        <time>2013-12-30T10:57:28Z</time>
      </trkpt>
      <trkpt lat="47.70178" lon="-2.31595">
        <ele>78.48</ele>
        <time>2013-12-30T10:57:30Z</time>
      </trkpt>
      <trkpt lat="47.70185" lon="-2.31587">
        <ele>78.48</ele>
        <time>2013-12-30T10:57:32Z</time>
      </trkpt>
      <trkpt lat="47.70193" lon="-2.31579">
        <ele>78.48</ele>
        <time>2013-12-30T10:57:34Z</time>
      </trkpt>
      <trkpt lat="47.70199" lon="-2.31568">
        <ele>78.48</ele>
        <time>2013-12-30T10:57:36Z</time>
      </trkpt>
      <trkpt lat="47.70202" lon="-2.31555">
        <ele>78</ele>
        <time>2013-12-30T10:57:38Z</time>
      </trkpt>
      <trkpt lat="47.70202" lon="-2.31541">
        <ele>78</ele>
        <time>2013-12-30T10:57:40Z</time>
      </trkpt>
      <trkpt lat="47.70202" lon="-2.31527">
        <ele>78</ele>
        <time>2013-12-30T10:57:42Z</time>
      </trkpt>
      <trkpt lat="47.70201" lon="-2.31512">
        <ele>77.52</ele>
        <time>2013-12-30T10:57:44Z</time>
      </trkpt>
      <trkpt lat="47.70199" lon="-2.31497">
        <ele>77.04</ele>
        <time>2013-12-30T10:57:46Z</time>
      </trkpt>
      <trkpt lat="47.70198" lon="-2.31481">
        <ele>77.04</ele>
        <time>2013-12-30T10:57:48Z</time>
      </trkpt>
      <trkpt lat="47.70197" lon="-2.31466">
        <ele>76.56</ele>
        <time>2013-12-30T10:57:50Z</time>
      </trkpt>
      <trkpt lat="47.70195" lon="-2.31451">
        <ele>76.56</ele>
        <time>2013-12-30T10:57:52Z</time>
      </trkpt>
      <trkpt lat="47.70194" lon="-2.31436">
        <ele>76.56</ele>
        <time>2013-12-30T10:57:54Z</time>
      </trkpt>
      <trkpt lat="47.70192" lon="-2.31422">
        <ele>76.56</ele>
        <time>2013-12-30T10:57:56Z</time>
      </trkpt>
      <trkpt lat="47.7019" lon="-2.31407">
        <ele>76.56</ele>
        <time>2013-12-30T10:57:58Z</time>
      </trkpt>
      <trkpt lat="47.70188" lon="-2.31392">
        <ele>76.56</ele>
        <time>2013-12-30T10:58:00Z</time>
      </trkpt>
      <trkpt lat="47.70186" lon="-2.31377">
        <ele>76.56</ele>
        <time>2013-12-30T10:58:02Z</time>
      </trkpt>
      <trkpt lat="47.70185" lon="-2.31361">
        <ele>76.56</ele>
        <time>2013-12-30T10:58:04Z</time>
      </trkpt>
      <trkpt lat="47.70184" lon="-2.31347">
        <ele>76.56</ele>
        <time>2013-12-30T10:58:06Z</time>
      </trkpt>
      <trkpt lat="47.70182" lon="-2.31333">
        <ele>77.04</ele>
        <time>2013-12-30T10:58:08Z</time>
      </trkpt>
      <trkpt lat="47.70182" lon="-2.31318">
        <ele>77.52</ele>
        <time>2013-12-30T10:58:10Z</time>
      </trkpt>
      <trkpt lat="47.70181" lon="-2.31303">
        <ele>78</ele>
        <time>2013-12-30T10:58:12Z</time>
      </trkpt>
      <trkpt lat="47.70181" lon="-2.31289">
        <ele>78.48</ele>
        <time>2013-12-30T10:58:14Z</time>
      </trkpt>
      <trkpt lat="47.7018" lon="-2.31275">
        <ele>78.48</ele>
        <time>2013-12-30T10:58:16Z</time>
      </trkpt>
      <trkpt lat="47.70179" lon="-2.31261">
        <ele>78.97</ele>
        <time>2013-12-30T10:58:18Z</time>
      </trkpt>
      <trkpt lat="47.70178" lon="-2.31247">
        <ele>79.45</ele>
        <time>2013-12-30T10:58:20Z</time>
      </trkpt>
      <trkpt lat="47.70177" lon="-2.31233">
        <ele>78.97</ele>
        <time>2013-12-30T10:58:22Z</time>
      </trkpt>
      <trkpt lat="47.70175" lon="-2.31219">
        <ele>78.48</ele>
        <time>2013-12-30T10:58:24Z</time>
      </trkpt>
      <trkpt lat="47.70174" lon="-2.31204">
        <ele>78</ele>
        <time>2013-12-30T10:58:26Z</time>
      </trkpt>
      <trkpt lat="47.70172" lon="-2.31189">
        <ele>77.52</ele>
        <time>2013-12-30T10:58:28Z</time>
      </trkpt>
      <trkpt lat="47.70172" lon="-2.31175">
        <ele>77.52</ele>
        <time>2013-12-30T10:58:30Z</time>
      </trkpt>
      <trkpt lat="47.70171" lon="-2.31161">
        <ele>77.04</ele>
        <time>2013-12-30T10:58:32Z</time>
      </trkpt>
      <trkpt lat="47.70171" lon="-2.31146">
        <ele>76.56</ele>
        <time>2013-12-30T10:58:34Z</time>
      </trkpt>
      <trkpt lat="47.70172" lon="-2.31131">
        <ele>76.56</ele>
        <time>2013-12-30T10:58:36Z</time>
      </trkpt>
      <trkpt lat="47.70172" lon="-2.31117">
        <ele>76.56</ele>
        <time>2013-12-30T10:58:38Z</time>
      </trkpt>
      <trkpt lat="47.70173" lon="-2.31102">
        <ele>76.56</ele>
        <time>2013-12-30T10:58:40Z</time>
      </trkpt>
      <trkpt lat="47.70173" lon="-2.31089">
        <ele>76.56</ele>
        <time>2013-12-30T10:58:42Z</time>
      </trkpt>
      <trkpt lat="47.70173" lon="-2.31075">
        <ele>77.04</ele>
        <time>2013-12-30T10:58:44Z</time>
      </trkpt>
      <trkpt lat="47.7017" lon="-2.31054">
        <ele>77.04</ele>
        <time>2013-12-30T10:58:47Z</time>
      </trkpt>
      <trkpt lat="47.70167" lon="-2.31041">
        <ele>76.56</ele>
        <time>2013-12-30T10:58:49Z</time>
      </trkpt>
      <trkpt lat="47.70165" lon="-2.31027">
        <ele>76.08</ele>
        <time>2013-12-30T10:58:51Z</time>
      </trkpt>
      <trkpt lat="47.70159" lon="-2.31011">
        <ele>75.12</ele>
        <time>2013-12-30T10:58:54Z</time>
      </trkpt>
      <trkpt lat="47.70152" lon="-2.30993">
        <ele>74.16</ele>
        <time>2013-12-30T10:58:57Z</time>
      </trkpt>
      <trkpt lat="47.70146" lon="-2.30982">
        <ele>73.68</ele>
        <time>2013-12-30T10:58:59Z</time>
      </trkpt>
      <trkpt lat="47.70138" lon="-2.30972">
        <ele>73.2</ele>
        <time>2013-12-30T10:59:01Z</time>
      </trkpt>
      <trkpt lat="47.70129" lon="-2.30964">
        <ele>73.2</ele>
        <time>2013-12-30T10:59:03Z</time>
      </trkpt>
      <trkpt lat="47.7012" lon="-2.30958">
        <ele>72.72</ele>
        <time>2013-12-30T10:59:05Z</time>
      </trkpt>
      <trkpt lat="47.70111" lon="-2.30952">
        <ele>72.72</ele>
        <time>2013-12-30T10:59:07Z</time>
      </trkpt>
      <trkpt lat="47.70101" lon="-2.30947">
        <ele>72.72</ele>
        <time>2013-12-30T10:59:09Z</time>
      </trkpt>
      <trkpt lat="47.7009" lon="-2.30942">
        <ele>72.72</ele>
        <time>2013-12-30T10:59:11Z</time>
      </trkpt>
      <trkpt lat="47.7008" lon="-2.30936">
        <ele>72.72</ele>
        <time>2013-12-30T10:59:13Z</time>
      </trkpt>
      <trkpt lat="47.7007" lon="-2.3093">
        <ele>72.72</ele>
        <time>2013-12-30T10:59:15Z</time>
      </trkpt>
      <trkpt lat="47.70062" lon="-2.3092">
        <ele>72.72</ele>
        <time>2013-12-30T10:59:17Z</time>
      </trkpt>
      <trkpt lat="47.70056" lon="-2.30908">
        <ele>73.2</ele>
        <time>2013-12-30T10:59:19Z</time>
      </trkpt>
      <trkpt lat="47.70051" lon="-2.30895">
        <ele>72.72</ele>
        <time>2013-12-30T10:59:21Z</time>
      </trkpt>
      <trkpt lat="47.70049" lon="-2.30881">
        <ele>72.24</ele>
        <time>2013-12-30T10:59:23Z</time>
      </trkpt>
      <trkpt lat="47.70049" lon="-2.30867">
        <ele>72.24</ele>
        <time>2013-12-30T10:59:25Z</time>
      </trkpt>
      <trkpt lat="47.70049" lon="-2.30852">
        <ele>72.24</ele>
        <time>2013-12-30T10:59:27Z</time>
      </trkpt>
      <trkpt lat="47.7005" lon="-2.30839">
        <ele>72.24</ele>
        <time>2013-12-30T10:59:29Z</time>
      </trkpt>
      <trkpt lat="47.70051" lon="-2.30818">
        <ele>72.24</ele>
        <time>2013-12-30T10:59:32Z</time>
      </trkpt>
      <trkpt lat="47.70052" lon="-2.30799">
        <ele>72.72</ele>
        <time>2013-12-30T10:59:35Z</time>
      </trkpt>
      <trkpt lat="47.70053" lon="-2.30781">
        <ele>72.72</ele>
        <time>2013-12-30T10:59:38Z</time>
      </trkpt>
      <trkpt lat="47.70055" lon="-2.30764">
        <ele>72.24</ele>
        <time>2013-12-30T10:59:41Z</time>
      </trkpt>
      <trkpt lat="47.70058" lon="-2.3075">
        <ele>72.24</ele>
        <time>2013-12-30T10:59:44Z</time>
      </trkpt>
      <trkpt lat="47.70059" lon="-2.30734">
        <ele>72.24</ele>
        <time>2013-12-30T10:59:47Z</time>
      </trkpt>
      <trkpt lat="47.70062" lon="-2.30714">
        <ele>71.76</ele>
        <time>2013-12-30T10:59:50Z</time>
      </trkpt>
      <trkpt lat="47.70064" lon="-2.30694">
        <ele>71.76</ele>
        <time>2013-12-30T10:59:53Z</time>
      </trkpt>
      <trkpt lat="47.70067" lon="-2.30676">
        <ele>71.76</ele>
        <time>2013-12-30T10:59:56Z</time>
      </trkpt>
      <trkpt lat="47.7007" lon="-2.30657">
        <ele>72.24</ele>
        <time>2013-12-30T10:59:59Z</time>
      </trkpt>
      <trkpt lat="47.70074" lon="-2.3064">
        <ele>72.72</ele>
        <time>2013-12-30T11:00:02Z</time>
      </trkpt>
      <trkpt lat="47.70076" lon="-2.30622">
        <ele>72.24</ele>
        <time>2013-12-30T11:00:05Z</time>
      </trkpt>
      <trkpt lat="47.70076" lon="-2.30605">
        <ele>72.72</ele>
        <time>2013-12-30T11:00:08Z</time>
      </trkpt>
      <trkpt lat="47.70075" lon="-2.30582">
        <ele>78</ele>
        <time>2013-12-30T11:01:46Z</time>
      </trkpt>
      <trkpt lat="47.70074" lon="-2.30566">
        <ele>77.52</ele>
        <time>2013-12-30T11:01:50Z</time>
      </trkpt>
      <trkpt lat="47.70073" lon="-2.30551">
        <ele>77.04</ele>
        <time>2013-12-30T11:01:54Z</time>
      </trkpt>
      <trkpt lat="47.70074" lon="-2.30531">
        <ele>76.08</ele>
        <time>2013-12-30T11:01:58Z</time>
      </trkpt>
      <trkpt lat="47.70077" lon="-2.30511">
        <ele>75.12</ele>
        <time>2013-12-30T11:02:02Z</time>
      </trkpt>
      <trkpt lat="47.70082" lon="-2.30496">
        <ele>74.64</ele>
        <time>2013-12-30T11:02:05Z</time>
      </trkpt>
      <trkpt lat="47.70083" lon="-2.30479">
        <ele>75.12</ele>
        <time>2013-12-30T11:02:08Z</time>
      </trkpt>
      <trkpt lat="47.70087" lon="-2.30461">
        <ele>75.6</ele>
        <time>2013-12-30T11:02:11Z</time>
      </trkpt>
      <trkpt lat="47.70088" lon="-2.30446">
        <ele>75.6</ele>
        <time>2013-12-30T11:02:14Z</time>
      </trkpt>
      <trkpt lat="47.70088" lon="-2.30429">
        <ele>78.48</ele>
        <time>2013-12-30T11:02:19Z</time>
      </trkpt>
      <trkpt lat="47.70092" lon="-2.30413">
        <ele>81.85</ele>
        <time>2013-12-30T11:02:24Z</time>
      </trkpt>
      <trkpt lat="47.70098" lon="-2.30398">
        <ele>83.77</ele>
        <time>2013-12-30T11:02:30Z</time>
      </trkpt>
      <trkpt lat="47.70099" lon="-2.30381">
        <ele>83.29</ele>
        <time>2013-12-30T11:02:33Z</time>
      </trkpt>
      <trkpt lat="47.70102" lon="-2.30364">
        <ele>81.85</ele>
        <time>2013-12-30T11:02:36Z</time>
      </trkpt>
      <trkpt lat="47.70104" lon="-2.30346">
        <ele>81.37</ele>
        <time>2013-12-30T11:02:39Z</time>
      </trkpt>
      <trkpt lat="47.7011" lon="-2.30334">
        <ele>73.2</ele>
        <time>2013-12-30T11:03:18Z</time>
      </trkpt>
      <trkpt lat="47.7011" lon="-2.30347">
        <ele>73.68</ele>
        <time>2013-12-30T11:03:24Z</time>
      </trkpt>
      <trkpt lat="47.70119" lon="-2.30349">
        <ele>73.2</ele>
        <time>2013-12-30T11:03:29Z</time>
      </trkpt>
      <trkpt lat="47.70127" lon="-2.3036">
        <ele>72.72</ele>
        <time>2013-12-30T11:03:35Z</time>
      </trkpt>
      <trkpt lat="47.70136" lon="-2.30359">
        <ele>72.24</ele>
        <time>2013-12-30T11:03:39Z</time>
      </trkpt>
      <trkpt lat="47.70147" lon="-2.30361">
        <ele>71.76</ele>
        <time>2013-12-30T11:03:43Z</time>
      </trkpt>
      <trkpt lat="47.70154" lon="-2.30374">
        <ele>72.72</ele>
        <time>2013-12-30T11:03:47Z</time>
      </trkpt>
      <trkpt lat="47.7016" lon="-2.30385">
        <ele>73.2</ele>
        <time>2013-12-30T11:03:51Z</time>
      </trkpt>
      <trkpt lat="47.70172" lon="-2.30393">
        <ele>73.68</ele>
        <time>2013-12-30T11:03:56Z</time>
      </trkpt>
      <trkpt lat="47.70183" lon="-2.30392">
        <ele>73.2</ele>
        <time>2013-12-30T11:04:02Z</time>
      </trkpt>
      <trkpt lat="47.70189" lon="-2.30377">
        <ele>74.16</ele>
        <time>2013-12-30T11:04:06Z</time>
      </trkpt>
      <trkpt lat="47.70196" lon="-2.30362">
        <ele>74.16</ele>
        <time>2013-12-30T11:04:09Z</time>
      </trkpt>
      <trkpt lat="47.70202" lon="-2.30344">
        <ele>74.16</ele>
        <time>2013-12-30T11:04:12Z</time>
      </trkpt>
      <trkpt lat="47.70207" lon="-2.30332">
        <ele>73.68</ele>
        <time>2013-12-30T11:04:14Z</time>
      </trkpt>
      <trkpt lat="47.70212" lon="-2.30319">
        <ele>73.2</ele>
        <time>2013-12-30T11:04:16Z</time>
      </trkpt>
      <trkpt lat="47.70217" lon="-2.30305">
        <ele>73.2</ele>
        <time>2013-12-30T11:04:18Z</time>
      </trkpt>
      <trkpt lat="47.70222" lon="-2.30291">
        <ele>72.72</ele>
        <time>2013-12-30T11:04:20Z</time>
      </trkpt>
      <trkpt lat="47.70227" lon="-2.30277">
        <ele>72.72</ele>
        <time>2013-12-30T11:04:22Z</time>
      </trkpt>
      <trkpt lat="47.70232" lon="-2.30264">
        <ele>72.72</ele>
        <time>2013-12-30T11:04:25Z</time>
      </trkpt>
      <trkpt lat="47.70234" lon="-2.30272">
        <ele>71.27</ele>
        <time>2013-12-30T11:04:31Z</time>
      </trkpt>
      <trkpt lat="47.70243" lon="-2.30273">
        <ele>71.76</ele>
        <time>2013-12-30T11:04:45Z</time>
      </trkpt>
      <trkpt lat="47.70253" lon="-2.30265">
        <ele>71.27</ele>
        <time>2013-12-30T11:04:50Z</time>
      </trkpt>
      <trkpt lat="47.70264" lon="-2.30263">
        <ele>71.27</ele>
        <time>2013-12-30T11:04:54Z</time>
      </trkpt>
      <trkpt lat="47.70272" lon="-2.30257">
        <ele>69.83</ele>
        <time>2013-12-30T11:04:57Z</time>
      </trkpt>
      <trkpt lat="47.70278" lon="-2.30245">
        <ele>68.87</ele>
        <time>2013-12-30T11:05:00Z</time>
      </trkpt>
      <trkpt lat="47.7028" lon="-2.30233">
        <ele>68.39</ele>
        <time>2013-12-30T11:05:03Z</time>
      </trkpt>
      <trkpt lat="47.70285" lon="-2.30219">
        <ele>67.91</ele>
        <time>2013-12-30T11:05:07Z</time>
      </trkpt>
      <trkpt lat="47.70291" lon="-2.30206">
        <ele>66.95</ele>
        <time>2013-12-30T11:05:11Z</time>
      </trkpt>
      <trkpt lat="47.70301" lon="-2.30204">
        <ele>65.03</ele>
        <time>2013-12-30T11:05:16Z</time>
      </trkpt>
      <trkpt lat="47.7031" lon="-2.30196">
        <ele>63.58</ele>
        <time>2013-12-30T11:05:20Z</time>
      </trkpt>
      <trkpt lat="47.70322" lon="-2.30193">
        <ele>60.7</ele>
        <time>2013-12-30T11:05:25Z</time>
      </trkpt>
      <trkpt lat="47.70332" lon="-2.30185">
        <ele>58.3</ele>
        <time>2013-12-30T11:05:29Z</time>
      </trkpt>
      <trkpt lat="47.70339" lon="-2.30175">
        <ele>56.37</ele>
        <time>2013-12-30T11:05:32Z</time>
      </trkpt>
      <trkpt lat="47.70348" lon="-2.3016">
        <ele>54.93</ele>
        <time>2013-12-30T11:05:36Z</time>
      </trkpt>
      <trkpt lat="47.7036" lon="-2.30157">
        <ele>53.49</ele>
        <time>2013-12-30T11:05:39Z</time>
      </trkpt>
      <trkpt lat="47.70372" lon="-2.30152">
        <ele>53.49</ele>
        <time>2013-12-30T11:05:43Z</time>
      </trkpt>
      <trkpt lat="47.70378" lon="-2.30137">
        <ele>54.45</ele>
        <time>2013-12-30T11:05:47Z</time>
      </trkpt>
      <trkpt lat="47.70388" lon="-2.30123">
        <ele>54.93</ele>
        <time>2013-12-30T11:05:52Z</time>
      </trkpt>
      <trkpt lat="47.70401" lon="-2.30119">
        <ele>52.53</ele>
        <time>2013-12-30T11:05:59Z</time>
      </trkpt>
      <trkpt lat="47.70409" lon="-2.30109">
        <ele>50.61</ele>
        <time>2013-12-30T11:06:02Z</time>
      </trkpt>
      <trkpt lat="47.70407" lon="-2.30091">
        <ele>47.24</ele>
        <time>2013-12-30T11:06:27Z</time>
      </trkpt>
      <trkpt lat="47.704" lon="-2.30082">
        <ele>45.32</ele>
        <time>2013-12-30T11:06:32Z</time>
      </trkpt>
      <trkpt lat="47.70391" lon="-2.30075">
        <ele>44.84</ele>
        <time>2013-12-30T11:06:37Z</time>
      </trkpt>
      <trkpt lat="47.70386" lon="-2.30063">
        <ele>44.84</ele>
        <time>2013-12-30T11:06:42Z</time>
      </trkpt>
      <trkpt lat="47.7038" lon="-2.30052">
        <ele>44.84</ele>
        <time>2013-12-30T11:06:47Z</time>
      </trkpt>
      <trkpt lat="47.70374" lon="-2.30043">
        <ele>44.84</ele>
        <time>2013-12-30T11:06:56Z</time>
      </trkpt>
      <trkpt lat="47.70369" lon="-2.30032">
        <ele>43.88</ele>
        <time>2013-12-30T11:07:21Z</time>
      </trkpt>
      <trkpt lat="47.70361" lon="-2.30025">
        <ele>44.36</ele>
        <time>2013-12-30T11:07:27Z</time>
      </trkpt>
      <trkpt lat="47.70351" lon="-2.30027">
        <ele>44.84</ele>
        <time>2013-12-30T11:07:38Z</time>
      </trkpt>
      <trkpt lat="47.70343" lon="-2.30029">
        <ele>45.32</ele>
        <time>2013-12-30T11:07:49Z</time>
      </trkpt>
      <trkpt lat="47.70336" lon="-2.30033">
        <ele>47.24</ele>
        <time>2013-12-30T11:08:09Z</time>
      </trkpt>
      <trkpt lat="47.70329" lon="-2.3003">
        <ele>50.13</ele>
        <time>2013-12-30T11:09:00Z</time>
      </trkpt>
      <trkpt lat="47.70319" lon="-2.3004">
        <ele>61.66</ele>
        <time>2013-12-30T11:09:33Z</time>
      </trkpt>
      <trkpt lat="47.70303" lon="-2.30044">
        <ele>70.79</ele>
        <time>2013-12-30T11:10:03Z</time>
      </trkpt>
      <trkpt lat="47.70289" lon="-2.30036">
        <ele>76.08</ele>
        <time>2013-12-30T11:10:28Z</time>
      </trkpt>
      <trkpt lat="47.70275" lon="-2.30036">
        <ele>80.89</ele>
        <time>2013-12-30T11:10:45Z</time>
      </trkpt>
      <trkpt lat="47.7026" lon="-2.30037">
        <ele>78</ele>
        <time>2013-12-30T11:11:06Z</time>
      </trkpt>
      <trkpt lat="47.70249" lon="-2.30031">
        <ele>77.52</ele>
        <time>2013-12-30T11:11:11Z</time>
      </trkpt>
      <trkpt lat="47.7024" lon="-2.30025">
        <ele>77.52</ele>
        <time>2013-12-30T11:11:16Z</time>
      </trkpt>
      <trkpt lat="47.70225" lon="-2.30023">
        <ele>71.27</ele>
        <time>2013-12-30T11:13:05Z</time>
      </trkpt>
      <trkpt lat="47.70215" lon="-2.30019">
        <ele>71.76</ele>
        <time>2013-12-30T11:13:12Z</time>
      </trkpt>
      <trkpt lat="47.70205" lon="-2.30017">
        <ele>72.72</ele>
        <time>2013-12-30T11:13:17Z</time>
      </trkpt>
      <trkpt lat="47.70195" lon="-2.30017">
        <ele>72.72</ele>
        <time>2013-12-30T11:13:21Z</time>
      </trkpt>
      <trkpt lat="47.70184" lon="-2.30014">
        <ele>73.2</ele>
        <time>2013-12-30T11:13:25Z</time>
      </trkpt>
      <trkpt lat="47.70175" lon="-2.30005">
        <ele>73.68</ele>
        <time>2013-12-30T11:13:29Z</time>
      </trkpt>
      <trkpt lat="47.70169" lon="-2.29994">
        <ele>73.68</ele>
        <time>2013-12-30T11:13:33Z</time>
      </trkpt>
      <trkpt lat="47.70165" lon="-2.29981">
        <ele>74.16</ele>
        <time>2013-12-30T11:13:37Z</time>
      </trkpt>
      <trkpt lat="47.70159" lon="-2.29968">
        <ele>74.16</ele>
        <time>2013-12-30T11:13:40Z</time>
      </trkpt>
      <trkpt lat="47.70153" lon="-2.29954">
        <ele>74.16</ele>
        <time>2013-12-30T11:13:43Z</time>
      </trkpt>
      <trkpt lat="47.70149" lon="-2.29937">
        <ele>73.68</ele>
        <time>2013-12-30T11:13:46Z</time>
      </trkpt>
      <trkpt lat="47.70147" lon="-2.29918">
        <ele>73.68</ele>
        <time>2013-12-30T11:13:49Z</time>
      </trkpt>
      <trkpt lat="47.70147" lon="-2.29899">
        <ele>73.2</ele>
        <time>2013-12-30T11:13:52Z</time>
      </trkpt>
      <trkpt lat="47.70147" lon="-2.2988">
        <ele>73.68</ele>
        <time>2013-12-30T11:13:55Z</time>
      </trkpt>
      <trkpt lat="47.70147" lon="-2.2986">
        <ele>73.68</ele>
        <time>2013-12-30T11:13:58Z</time>
      </trkpt>
      <trkpt lat="47.70147" lon="-2.29845">
        <ele>73.68</ele>
        <time>2013-12-30T11:14:00Z</time>
      </trkpt>
      <trkpt lat="47.70147" lon="-2.2983">
        <ele>73.68</ele>
        <time>2013-12-30T11:14:02Z</time>
      </trkpt>
      <trkpt lat="47.70147" lon="-2.29814">
        <ele>73.2</ele>
        <time>2013-12-30T11:14:04Z</time>
      </trkpt>
      <trkpt lat="47.70148" lon="-2.29798">
        <ele>72.72</ele>
        <time>2013-12-30T11:14:06Z</time>
      </trkpt>
      <trkpt lat="47.70148" lon="-2.29781">
        <ele>72.72</ele>
        <time>2013-12-30T11:14:08Z</time>
      </trkpt>
      <trkpt lat="47.70148" lon="-2.29763">
        <ele>72.24</ele>
        <time>2013-12-30T11:14:10Z</time>
      </trkpt>
      <trkpt lat="47.70148" lon="-2.29746">
        <ele>71.76</ele>
        <time>2013-12-30T11:14:12Z</time>
      </trkpt>
      <trkpt lat="47.70148" lon="-2.29729">
        <ele>70.79</ele>
        <time>2013-12-30T11:14:14Z</time>
      </trkpt>
      <trkpt lat="47.70148" lon="-2.29715">
        <ele>70.79</ele>
        <time>2013-12-30T11:14:16Z</time>
      </trkpt>
      <trkpt lat="47.70149" lon="-2.29698">
        <ele>70.79</ele>
        <time>2013-12-30T11:14:19Z</time>
      </trkpt>
      <trkpt lat="47.70142" lon="-2.29688">
        <ele>70.31</ele>
        <time>2013-12-30T11:14:23Z</time>
      </trkpt>
      <trkpt lat="47.70133" lon="-2.2968">
        <ele>70.79</ele>
        <time>2013-12-30T11:14:27Z</time>
      </trkpt>
      <trkpt lat="47.70127" lon="-2.29669">
        <ele>71.27</ele>
        <time>2013-12-30T11:14:30Z</time>
      </trkpt>
      <trkpt lat="47.70119" lon="-2.29659">
        <ele>71.76</ele>
        <time>2013-12-30T11:14:33Z</time>
      </trkpt>
      <trkpt lat="47.7011" lon="-2.2965">
        <ele>71.27</ele>
        <time>2013-12-30T11:14:36Z</time>
      </trkpt>
      <trkpt lat="47.70102" lon="-2.29637">
        <ele>71.27</ele>
        <time>2013-12-30T11:14:39Z</time>
      </trkpt>
      <trkpt lat="47.70094" lon="-2.29625">
        <ele>70.79</ele>
        <time>2013-12-30T11:14:42Z</time>
      </trkpt>
      <trkpt lat="47.7009" lon="-2.2961">
        <ele>70.31</ele>
        <time>2013-12-30T11:14:45Z</time>
      </trkpt>
      <trkpt lat="47.70087" lon="-2.29595">
        <ele>69.35</ele>
        <time>2013-12-30T11:14:48Z</time>
      </trkpt>
      <trkpt lat="47.70084" lon="-2.29579">
        <ele>68.87</ele>
        <time>2013-12-30T11:14:51Z</time>
      </trkpt>
      <trkpt lat="47.70077" lon="-2.29563">
        <ele>67.91</ele>
        <time>2013-12-30T11:14:54Z</time>
      </trkpt>
      <trkpt lat="47.70072" lon="-2.29546">
        <ele>67.43</ele>
        <time>2013-12-30T11:14:57Z</time>
      </trkpt>
      <trkpt lat="47.70073" lon="-2.29528">
        <ele>66.47</ele>
        <time>2013-12-30T11:15:00Z</time>
      </trkpt>
      <trkpt lat="47.70073" lon="-2.29511">
        <ele>65.99</ele>
        <time>2013-12-30T11:15:03Z</time>
      </trkpt>
      <trkpt lat="47.70073" lon="-2.29493">
        <ele>65.99</ele>
        <time>2013-12-30T11:15:06Z</time>
      </trkpt>
      <trkpt lat="47.70077" lon="-2.29476">
        <ele>66.95</ele>
        <time>2013-12-30T11:15:09Z</time>
      </trkpt>
      <trkpt lat="47.70072" lon="-2.29462">
        <ele>68.39</ele>
        <time>2013-12-30T11:15:14Z</time>
      </trkpt>
      <trkpt lat="47.70067" lon="-2.29447">
        <ele>69.35</ele>
        <time>2013-12-30T11:15:17Z</time>
      </trkpt>
      <trkpt lat="47.70061" lon="-2.29431">
        <ele>69.35</ele>
        <time>2013-12-30T11:15:20Z</time>
      </trkpt>
      <trkpt lat="47.70055" lon="-2.29415">
        <ele>69.83</ele>
        <time>2013-12-30T11:15:23Z</time>
      </trkpt>
      <trkpt lat="47.70052" lon="-2.29399">
        <ele>70.31</ele>
        <time>2013-12-30T11:15:26Z</time>
      </trkpt>
      <trkpt lat="47.70052" lon="-2.29384">
        <ele>69.83</ele>
        <time>2013-12-30T11:15:29Z</time>
      </trkpt>
      <trkpt lat="47.70052" lon="-2.29367">
        <ele>69.35</ele>
        <time>2013-12-30T11:15:33Z</time>
      </trkpt>
      <trkpt lat="47.70056" lon="-2.29351">
        <ele>69.83</ele>
        <time>2013-12-30T11:15:37Z</time>
      </trkpt>
      <trkpt lat="47.70061" lon="-2.29336">
        <ele>70.79</ele>
        <time>2013-12-30T11:15:41Z</time>
      </trkpt>
      <trkpt lat="47.70063" lon="-2.29318">
        <ele>71.76</ele>
        <time>2013-12-30T11:15:45Z</time>
      </trkpt>
      <trkpt lat="47.70062" lon="-2.29304">
        <ele>72.72</ele>
        <time>2013-12-30T11:15:48Z</time>
      </trkpt>
      <trkpt lat="47.70062" lon="-2.29291">
        <ele>73.68</ele>
        <time>2013-12-30T11:15:52Z</time>
      </trkpt>
      <trkpt lat="47.70057" lon="-2.29278">
        <ele>73.2</ele>
        <time>2013-12-30T11:15:56Z</time>
      </trkpt>
      <trkpt lat="47.70056" lon="-2.29262">
        <ele>73.2</ele>
        <time>2013-12-30T11:15:59Z</time>
      </trkpt>
      <trkpt lat="47.70055" lon="-2.29244">
        <ele>72.72</ele>
        <time>2013-12-30T11:16:02Z</time>
      </trkpt>
      <trkpt lat="47.70057" lon="-2.29225">
        <ele>72.24</ele>
        <time>2013-12-30T11:16:05Z</time>
      </trkpt>
      <trkpt lat="47.70059" lon="-2.29209">
        <ele>71.76</ele>
        <time>2013-12-30T11:16:08Z</time>
      </trkpt>
      <trkpt lat="47.70061" lon="-2.29194">
        <ele>71.76</ele>
        <time>2013-12-30T11:16:11Z</time>
      </trkpt>
      <trkpt lat="47.70062" lon="-2.29179">
        <ele>71.76</ele>
        <time>2013-12-30T11:16:14Z</time>
      </trkpt>
      <trkpt lat="47.70061" lon="-2.29162">
        <ele>71.76</ele>
        <time>2013-12-30T11:16:17Z</time>
      </trkpt>
      <trkpt lat="47.7006" lon="-2.29147">
        <ele>71.27</ele>
        <time>2013-12-30T11:16:20Z</time>
      </trkpt>
      <trkpt lat="47.70058" lon="-2.29133">
        <ele>70.79</ele>
        <time>2013-12-30T11:16:23Z</time>
      </trkpt>
      <trkpt lat="47.70058" lon="-2.29116">
        <ele>70.79</ele>
        <time>2013-12-30T11:16:26Z</time>
      </trkpt>
      <trkpt lat="47.70054" lon="-2.291">
        <ele>70.31</ele>
        <time>2013-12-30T11:16:29Z</time>
      </trkpt>
      <trkpt lat="47.70051" lon="-2.29083">
        <ele>69.83</ele>
        <time>2013-12-30T11:16:32Z</time>
      </trkpt>
      <trkpt lat="47.70052" lon="-2.29068">
        <ele>69.35</ele>
        <time>2013-12-30T11:16:35Z</time>
      </trkpt>
      <trkpt lat="47.70061" lon="-2.29065">
        <ele>69.83</ele>
        <time>2013-12-30T11:16:39Z</time>
      </trkpt>
      <trkpt lat="47.7007" lon="-2.29059">
        <ele>70.31</ele>
        <time>2013-12-30T11:16:44Z</time>
      </trkpt>
      <trkpt lat="47.70078" lon="-2.2905">
        <ele>71.76</ele>
        <time>2013-12-30T11:16:48Z</time>
      </trkpt>
      <trkpt lat="47.70088" lon="-2.29044">
        <ele>72.72</ele>
        <time>2013-12-30T11:16:53Z</time>
      </trkpt>
      <trkpt lat="47.70098" lon="-2.29037">
        <ele>73.2</ele>
        <time>2013-12-30T11:16:58Z</time>
      </trkpt>
      <trkpt lat="47.70101" lon="-2.29021">
        <ele>72.72</ele>
        <time>2013-12-30T11:17:02Z</time>
      </trkpt>
      <trkpt lat="47.70101" lon="-2.29007">
        <ele>72.72</ele>
        <time>2013-12-30T11:17:05Z</time>
      </trkpt>
      <trkpt lat="47.70106" lon="-2.28993">
        <ele>72.24</ele>
        <time>2013-12-30T11:17:09Z</time>
      </trkpt>
      <trkpt lat="47.7011" lon="-2.2898">
        <ele>72.24</ele>
        <time>2013-12-30T11:17:12Z</time>
      </trkpt>
      <trkpt lat="47.7011" lon="-2.28964">
        <ele>71.76</ele>
        <time>2013-12-30T11:17:15Z</time>
      </trkpt>
      <trkpt lat="47.70109" lon="-2.28946">
        <ele>71.76</ele>
        <time>2013-12-30T11:17:18Z</time>
      </trkpt>
      <trkpt lat="47.70109" lon="-2.28928">
        <ele>71.76</ele>
        <time>2013-12-30T11:17:21Z</time>
      </trkpt>
      <trkpt lat="47.70109" lon="-2.2891">
        <ele>71.76</ele>
        <time>2013-12-30T11:17:24Z</time>
      </trkpt>
      <trkpt lat="47.70108" lon="-2.28892">
        <ele>71.76</ele>
        <time>2013-12-30T11:17:27Z</time>
      </trkpt>
      <trkpt lat="47.70108" lon="-2.28872">
        <ele>71.76</ele>
        <time>2013-12-30T11:17:30Z</time>
      </trkpt>
      <trkpt lat="47.70108" lon="-2.28854">
        <ele>71.27</ele>
        <time>2013-12-30T11:17:33Z</time>
      </trkpt>
      <trkpt lat="47.70108" lon="-2.2884">
        <ele>71.27</ele>
        <time>2013-12-30T11:17:36Z</time>
      </trkpt>
      <trkpt lat="47.70107" lon="-2.28826">
        <ele>71.27</ele>
        <time>2013-12-30T11:17:39Z</time>
      </trkpt>
      <trkpt lat="47.70108" lon="-2.28812">
        <ele>71.27</ele>
        <time>2013-12-30T11:17:42Z</time>
      </trkpt>
      <trkpt lat="47.70107" lon="-2.28799">
        <ele>71.27</ele>
        <time>2013-12-30T11:17:45Z</time>
      </trkpt>
      <trkpt lat="47.70104" lon="-2.28783">
        <ele>70.79</ele>
        <time>2013-12-30T11:17:49Z</time>
      </trkpt>
      <trkpt lat="47.70101" lon="-2.28769">
        <ele>70.79</ele>
        <time>2013-12-30T11:17:52Z</time>
      </trkpt>
      <trkpt lat="47.70098" lon="-2.28755">
        <ele>71.27</ele>
        <time>2013-12-30T11:17:56Z</time>
      </trkpt>
      <trkpt lat="47.70095" lon="-2.28741">
        <ele>70.79</ele>
        <time>2013-12-30T11:17:59Z</time>
      </trkpt>
      <trkpt lat="47.70093" lon="-2.28728">
        <ele>70.79</ele>
        <time>2013-12-30T11:18:02Z</time>
      </trkpt>
      <trkpt lat="47.70091" lon="-2.28712">
        <ele>70.79</ele>
        <time>2013-12-30T11:18:05Z</time>
      </trkpt>
      <trkpt lat="47.70089" lon="-2.28696">
        <ele>70.79</ele>
        <time>2013-12-30T11:18:08Z</time>
      </trkpt>
      <trkpt lat="47.70088" lon="-2.2868">
        <ele>70.79</ele>
        <time>2013-12-30T11:18:11Z</time>
      </trkpt>
      <trkpt lat="47.70087" lon="-2.28664">
        <ele>70.31</ele>
        <time>2013-12-30T11:18:14Z</time>
      </trkpt>
      <trkpt lat="47.70085" lon="-2.28648">
        <ele>70.79</ele>
        <time>2013-12-30T11:18:17Z</time>
      </trkpt>
      <trkpt lat="47.70082" lon="-2.28631">
        <ele>71.27</ele>
        <time>2013-12-30T11:18:20Z</time>
      </trkpt>
      <trkpt lat="47.70082" lon="-2.28615">
        <ele>71.27</ele>
        <time>2013-12-30T11:18:23Z</time>
      </trkpt>
      <trkpt lat="47.70082" lon="-2.28598">
        <ele>71.76</ele>
        <time>2013-12-30T11:18:26Z</time>
      </trkpt>
      <trkpt lat="47.70083" lon="-2.28582">
        <ele>72.24</ele>
        <time>2013-12-30T11:18:29Z</time>
      </trkpt>
      <trkpt lat="47.70083" lon="-2.28566">
        <ele>72.72</ele>
        <time>2013-12-30T11:18:32Z</time>
      </trkpt>
      <trkpt lat="47.70084" lon="-2.28551">
        <ele>72.72</ele>
        <time>2013-12-30T11:18:36Z</time>
      </trkpt>
      <trkpt lat="47.70077" lon="-2.28538">
        <ele>72.72</ele>
        <time>2013-12-30T11:19:01Z</time>
      </trkpt>
      <trkpt lat="47.70072" lon="-2.28522">
        <ele>72.24</ele>
        <time>2013-12-30T11:19:05Z</time>
      </trkpt>
      <trkpt lat="47.70066" lon="-2.28507">
        <ele>72.24</ele>
        <time>2013-12-30T11:19:08Z</time>
      </trkpt>
      <trkpt lat="47.70057" lon="-2.28494">
        <ele>72.72</ele>
        <time>2013-12-30T11:19:11Z</time>
      </trkpt>
      <trkpt lat="47.70048" lon="-2.28484">
        <ele>73.2</ele>
        <time>2013-12-30T11:19:14Z</time>
      </trkpt>
      <trkpt lat="47.70043" lon="-2.2847">
        <ele>74.16</ele>
        <time>2013-12-30T11:19:17Z</time>
      </trkpt>
      <trkpt lat="47.70038" lon="-2.28454">
        <ele>74.16</ele>
        <time>2013-12-30T11:19:20Z</time>
      </trkpt>
      <trkpt lat="47.70034" lon="-2.28437">
        <ele>74.64</ele>
        <time>2013-12-30T11:19:23Z</time>
      </trkpt>
      <trkpt lat="47.70029" lon="-2.28419">
        <ele>74.64</ele>
        <time>2013-12-30T11:19:26Z</time>
      </trkpt>
      <trkpt lat="47.70026" lon="-2.28403">
        <ele>74.16</ele>
        <time>2013-12-30T11:19:29Z</time>
      </trkpt>
      <trkpt lat="47.70025" lon="-2.28388">
        <ele>74.16</ele>
        <time>2013-12-30T11:19:32Z</time>
      </trkpt>
      <trkpt lat="47.70024" lon="-2.28371">
        <ele>74.16</ele>
        <time>2013-12-30T11:19:35Z</time>
      </trkpt>
      <trkpt lat="47.70023" lon="-2.28354">
        <ele>74.64</ele>
        <time>2013-12-30T11:19:38Z</time>
      </trkpt>
      <trkpt lat="47.70021" lon="-2.28337">
        <ele>74.64</ele>
        <time>2013-12-30T11:19:41Z</time>
      </trkpt>
      <trkpt lat="47.7002" lon="-2.28322">
        <ele>74.64</ele>
        <time>2013-12-30T11:19:44Z</time>
      </trkpt>
      <trkpt lat="47.70019" lon="-2.28307">
        <ele>74.16</ele>
        <time>2013-12-30T11:19:47Z</time>
      </trkpt>
      <trkpt lat="47.70018" lon="-2.28291">
        <ele>74.16</ele>
        <time>2013-12-30T11:19:51Z</time>
      </trkpt>
      <trkpt lat="47.70016" lon="-2.28277">
        <ele>74.16</ele>
        <time>2013-12-30T11:19:54Z</time>
      </trkpt>
      <trkpt lat="47.70015" lon="-2.28262">
        <ele>73.68</ele>
        <time>2013-12-30T11:19:57Z</time>
      </trkpt>
      <trkpt lat="47.70013" lon="-2.28247">
        <ele>73.68</ele>
        <time>2013-12-30T11:20:00Z</time>
      </trkpt>
      <trkpt lat="47.70012" lon="-2.28231">
        <ele>73.68</ele>
        <time>2013-12-30T11:20:03Z</time>
      </trkpt>
      <trkpt lat="47.7001" lon="-2.28215">
        <ele>73.68</ele>
        <time>2013-12-30T11:20:06Z</time>
      </trkpt>
      <trkpt lat="47.70008" lon="-2.282">
        <ele>73.2</ele>
        <time>2013-12-30T11:20:09Z</time>
      </trkpt>
      <trkpt lat="47.70007" lon="-2.28184">
        <ele>72.72</ele>
        <time>2013-12-30T11:20:12Z</time>
      </trkpt>
      <trkpt lat="47.70006" lon="-2.28168">
        <ele>72.24</ele>
        <time>2013-12-30T11:20:15Z</time>
      </trkpt>
      <trkpt lat="47.70006" lon="-2.28153">
        <ele>72.24</ele>
        <time>2013-12-30T11:20:18Z</time>
      </trkpt>
      <trkpt lat="47.70005" lon="-2.28138">
        <ele>71.27</ele>
        <time>2013-12-30T11:20:21Z</time>
      </trkpt>
      <trkpt lat="47.70004" lon="-2.28123">
        <ele>70.79</ele>
        <time>2013-12-30T11:20:24Z</time>
      </trkpt>
      <trkpt lat="47.7" lon="-2.28111">
        <ele>70.79</ele>
        <time>2013-12-30T11:20:27Z</time>
      </trkpt>
      <trkpt lat="47.69993" lon="-2.28102">
        <ele>70.79</ele>
        <time>2013-12-30T11:20:30Z</time>
      </trkpt>
      <trkpt lat="47.69985" lon="-2.28094">
        <ele>70.79</ele>
        <time>2013-12-30T11:20:33Z</time>
      </trkpt>
      <trkpt lat="47.69978" lon="-2.28096">
        <ele>70.79</ele>
        <time>2013-12-30T11:20:37Z</time>
      </trkpt>
      <trkpt lat="47.69968" lon="-2.28102">
        <ele>71.27</ele>
        <time>2013-12-30T11:20:42Z</time>
      </trkpt>
      <trkpt lat="47.69962" lon="-2.2811">
        <ele>70.79</ele>
        <time>2013-12-30T11:20:46Z</time>
      </trkpt>
      <trkpt lat="47.6996" lon="-2.28124">
        <ele>71.76</ele>
        <time>2013-12-30T11:20:50Z</time>
      </trkpt>
      <trkpt lat="47.6996" lon="-2.2814">
        <ele>72.72</ele>
        <time>2013-12-30T11:20:55Z</time>
      </trkpt>
      <trkpt lat="47.69954" lon="-2.28145">
        <ele>72.24</ele>
        <time>2013-12-30T11:21:11Z</time>
      </trkpt>
      <trkpt lat="47.69945" lon="-2.28149">
        <ele>71.27</ele>
        <time>2013-12-30T11:21:14Z</time>
      </trkpt>
      <trkpt lat="47.69937" lon="-2.28156">
        <ele>70.79</ele>
        <time>2013-12-30T11:21:17Z</time>
      </trkpt>
      <trkpt lat="47.69928" lon="-2.28165">
        <ele>70.31</ele>
        <time>2013-12-30T11:21:21Z</time>
      </trkpt>
      <trkpt lat="47.6992" lon="-2.28161">
        <ele>68.39</ele>
        <time>2013-12-30T11:21:25Z</time>
      </trkpt>
      <trkpt lat="47.69913" lon="-2.28164">
        <ele>66.47</ele>
        <time>2013-12-30T11:21:30Z</time>
      </trkpt>
      <trkpt lat="47.69913" lon="-2.28178">
        <ele>67.43</ele>
        <time>2013-12-30T11:21:42Z</time>
      </trkpt>
      <trkpt lat="47.69913" lon="-2.28192">
        <ele>67.43</ele>
        <time>2013-12-30T11:21:47Z</time>
      </trkpt>
      <trkpt lat="47.69903" lon="-2.28201">
        <ele>65.51</ele>
        <time>2013-12-30T11:21:51Z</time>
      </trkpt>
      <trkpt lat="47.699" lon="-2.28216">
        <ele>64.07</ele>
        <time>2013-12-30T11:21:54Z</time>
      </trkpt>
      <trkpt lat="47.69899" lon="-2.28233">
        <ele>63.58</ele>
        <time>2013-12-30T11:21:58Z</time>
      </trkpt>
      <trkpt lat="47.69901" lon="-2.28247">
        <ele>65.51</ele>
        <time>2013-12-30T11:22:02Z</time>
      </trkpt>
      <trkpt lat="47.69901" lon="-2.28261">
        <ele>66.95</ele>
        <time>2013-12-30T11:22:08Z</time>
      </trkpt>
      <trkpt lat="47.69892" lon="-2.28266">
        <ele>64.07</ele>
        <time>2013-12-30T11:22:12Z</time>
      </trkpt>
      <trkpt lat="47.69882" lon="-2.28273">
        <ele>60.22</ele>
        <time>2013-12-30T11:22:16Z</time>
      </trkpt>
      <trkpt lat="47.69875" lon="-2.2828">
        <ele>57.34</ele>
        <time>2013-12-30T11:22:19Z</time>
      </trkpt>
      <trkpt lat="47.69868" lon="-2.2829">
        <ele>55.89</ele>
        <time>2013-12-30T11:22:22Z</time>
      </trkpt>
      <trkpt lat="47.6986" lon="-2.283">
        <ele>53.97</ele>
        <time>2013-12-30T11:22:26Z</time>
      </trkpt>
      <trkpt lat="47.69854" lon="-2.28313">
        <ele>52.05</ele>
        <time>2013-12-30T11:22:29Z</time>
      </trkpt>
      <trkpt lat="47.69854" lon="-2.28329">
        <ele>51.09</ele>
        <time>2013-12-30T11:22:33Z</time>
      </trkpt>
      <trkpt lat="47.69851" lon="-2.28344">
        <ele>49.65</ele>
        <time>2013-12-30T11:22:37Z</time>
      </trkpt>
      <trkpt lat="47.69849" lon="-2.28358">
        <ele>49.65</ele>
        <time>2013-12-30T11:22:44Z</time>
      </trkpt>
      <trkpt lat="47.69847" lon="-2.2837">
        <ele>48.68</ele>
        <time>2013-12-30T11:23:00Z</time>
      </trkpt>
      <trkpt lat="47.6984" lon="-2.28372">
        <ele>47.24</ele>
        <time>2013-12-30T11:23:12Z</time>
      </trkpt>
      <trkpt lat="47.69832" lon="-2.28369">
        <ele>44.36</ele>
        <time>2013-12-30T11:23:21Z</time>
      </trkpt>
      <trkpt lat="47.69823" lon="-2.28358">
        <ele>49.16</ele>
        <time>2013-12-30T11:24:32Z</time>
      </trkpt>
      <trkpt lat="47.69823" lon="-2.28343">
        <ele>50.61</ele>
        <time>2013-12-30T11:24:37Z</time>
      </trkpt>
      <trkpt lat="47.69823" lon="-2.28328">
        <ele>52.53</ele>
        <time>2013-12-30T11:24:42Z</time>
      </trkpt>
      <trkpt lat="47.69824" lon="-2.28312">
        <ele>55.41</ele>
        <time>2013-12-30T11:24:48Z</time>
      </trkpt>
      <trkpt lat="47.69823" lon="-2.28294">
        <ele>57.82</ele>
        <time>2013-12-30T11:24:53Z</time>
      </trkpt>
      <trkpt lat="47.69822" lon="-2.28278">
        <ele>60.22</ele>
        <time>2013-12-30T11:24:57Z</time>
      </trkpt>
      <trkpt lat="47.69824" lon="-2.28261">
        <ele>61.18</ele>
        <time>2013-12-30T11:25:01Z</time>
      </trkpt>
      <trkpt lat="47.69824" lon="-2.28243">
        <ele>61.66</ele>
        <time>2013-12-30T11:25:05Z</time>
      </trkpt>
      <trkpt lat="47.69824" lon="-2.28224">
        <ele>62.14</ele>
        <time>2013-12-30T11:25:09Z</time>
      </trkpt>
      <trkpt lat="47.69825" lon="-2.28208">
        <ele>62.62</ele>
        <time>2013-12-30T11:25:12Z</time>
      </trkpt>
      <trkpt lat="47.69825" lon="-2.28193">
        <ele>62.62</ele>
        <time>2013-12-30T11:25:15Z</time>
      </trkpt>
      <trkpt lat="47.69824" lon="-2.28176">
        <ele>63.1</ele>
        <time>2013-12-30T11:25:18Z</time>
      </trkpt>
      <trkpt lat="47.69824" lon="-2.2816">
        <ele>64.07</ele>
        <time>2013-12-30T11:25:21Z</time>
      </trkpt>
      <trkpt lat="47.69823" lon="-2.28144">
        <ele>65.03</ele>
        <time>2013-12-30T11:25:24Z</time>
      </trkpt>
      <trkpt lat="47.69823" lon="-2.28127">
        <ele>65.51</ele>
        <time>2013-12-30T11:25:27Z</time>
      </trkpt>
      <trkpt lat="47.69823" lon="-2.28112">
        <ele>65.51</ele>
        <time>2013-12-30T11:25:30Z</time>
      </trkpt>
      <trkpt lat="47.69821" lon="-2.28097">
        <ele>65.51</ele>
        <time>2013-12-30T11:25:33Z</time>
      </trkpt>
      <trkpt lat="47.69818" lon="-2.28077">
        <ele>64.55</ele>
        <time>2013-12-30T11:25:37Z</time>
      </trkpt>
      <trkpt lat="47.69816" lon="-2.28059">
        <ele>64.07</ele>
        <time>2013-12-30T11:25:41Z</time>
      </trkpt>
      <trkpt lat="47.69813" lon="-2.28039">
        <ele>65.03</ele>
        <time>2013-12-30T11:25:45Z</time>
      </trkpt>
      <trkpt lat="47.69814" lon="-2.28023">
        <ele>65.03</ele>
        <time>2013-12-30T11:25:48Z</time>
      </trkpt>
      <trkpt lat="47.69814" lon="-2.28008">
        <ele>65.03</ele>
        <time>2013-12-30T11:25:51Z</time>
      </trkpt>
      <trkpt lat="47.69815" lon="-2.27988">
        <ele>65.03</ele>
        <time>2013-12-30T11:25:55Z</time>
      </trkpt>
      <trkpt lat="47.69813" lon="-2.27968">
        <ele>64.55</ele>
        <time>2013-12-30T11:25:59Z</time>
      </trkpt>
      <trkpt lat="47.69813" lon="-2.27952">
        <ele>64.07</ele>
        <time>2013-12-30T11:26:02Z</time>
      </trkpt>
      <trkpt lat="47.69812" lon="-2.27934">
        <ele>65.51</ele>
        <time>2013-12-30T11:26:06Z</time>
      </trkpt>
      <trkpt lat="47.69813" lon="-2.27915">
        <ele>66.95</ele>
        <time>2013-12-30T11:26:10Z</time>
      </trkpt>
      <trkpt lat="47.69813" lon="-2.27896">
        <ele>68.87</ele>
        <time>2013-12-30T11:26:14Z</time>
      </trkpt>
      <trkpt lat="47.69812" lon="-2.27877">
        <ele>69.83</ele>
        <time>2013-12-30T11:26:18Z</time>
      </trkpt>
      <trkpt lat="47.69811" lon="-2.27862">
        <ele>69.83</ele>
        <time>2013-12-30T11:26:21Z</time>
      </trkpt>
      <trkpt lat="47.69809" lon="-2.27847">
        <ele>69.35</ele>
        <time>2013-12-30T11:26:24Z</time>
      </trkpt>
      <trkpt lat="47.69806" lon="-2.2783">
        <ele>68.39</ele>
        <time>2013-12-30T11:26:28Z</time>
      </trkpt>
      <trkpt lat="47.69806" lon="-2.27816">
        <ele>65.51</ele>
        <time>2013-12-30T11:26:44Z</time>
      </trkpt>
      <trkpt lat="47.69806" lon="-2.27801">
        <ele>64.55</ele>
        <time>2013-12-30T11:26:52Z</time>
      </trkpt>
      <trkpt lat="47.69802" lon="-2.27783">
        <ele>61.18</ele>
        <time>2013-12-30T11:27:00Z</time>
      </trkpt>
      <trkpt lat="47.69798" lon="-2.27768">
        <ele>57.82</ele>
        <time>2013-12-30T11:27:07Z</time>
      </trkpt>
      <trkpt lat="47.69791" lon="-2.27757">
        <ele>56.37</ele>
        <time>2013-12-30T11:27:12Z</time>
      </trkpt>
      <trkpt lat="47.6979" lon="-2.27742">
        <ele>56.37</ele>
        <time>2013-12-30T11:27:16Z</time>
      </trkpt>
      <trkpt lat="47.69791" lon="-2.27724">
        <ele>57.82</ele>
        <time>2013-12-30T11:27:21Z</time>
      </trkpt>
      <trkpt lat="47.69791" lon="-2.27707">
        <ele>58.78</ele>
        <time>2013-12-30T11:27:25Z</time>
      </trkpt>
      <trkpt lat="47.69785" lon="-2.27693">
        <ele>60.22</ele>
        <time>2013-12-30T11:27:28Z</time>
      </trkpt>
      <trkpt lat="47.69785" lon="-2.27677">
        <ele>61.66</ele>
        <time>2013-12-30T11:27:31Z</time>
      </trkpt>
      <trkpt lat="47.69786" lon="-2.27662">
        <ele>64.07</ele>
        <time>2013-12-30T11:27:34Z</time>
      </trkpt>
      <trkpt lat="47.69784" lon="-2.27644">
        <ele>65.51</ele>
        <time>2013-12-30T11:27:38Z</time>
      </trkpt>
      <trkpt lat="47.69783" lon="-2.27627">
        <ele>65.99</ele>
        <time>2013-12-30T11:27:42Z</time>
      </trkpt>
      <trkpt lat="47.69782" lon="-2.2761">
        <ele>65.99</ele>
        <time>2013-12-30T11:27:45Z</time>
      </trkpt>
      <trkpt lat="47.6978" lon="-2.27595">
        <ele>66.95</ele>
        <time>2013-12-30T11:27:48Z</time>
      </trkpt>
      <trkpt lat="47.69776" lon="-2.27578">
        <ele>67.43</ele>
        <time>2013-12-30T11:27:52Z</time>
      </trkpt>
      <trkpt lat="47.69776" lon="-2.2756">
        <ele>68.39</ele>
        <time>2013-12-30T11:27:56Z</time>
      </trkpt>
      <trkpt lat="47.69774" lon="-2.27542">
        <ele>68.39</ele>
        <time>2013-12-30T11:28:00Z</time>
      </trkpt>
      <trkpt lat="47.6977" lon="-2.27523">
        <ele>68.87</ele>
        <time>2013-12-30T11:28:03Z</time>
      </trkpt>
      <trkpt lat="47.69766" lon="-2.27502">
        <ele>69.83</ele>
        <time>2013-12-30T11:28:06Z</time>
      </trkpt>
      <trkpt lat="47.69764" lon="-2.27489">
        <ele>70.31</ele>
        <time>2013-12-30T11:28:08Z</time>
      </trkpt>
      <trkpt lat="47.69762" lon="-2.27471">
        <ele>71.27</ele>
        <time>2013-12-30T11:28:11Z</time>
      </trkpt>
      <trkpt lat="47.6976" lon="-2.27456">
        <ele>71.27</ele>
        <time>2013-12-30T11:28:14Z</time>
      </trkpt>
      <trkpt lat="47.69757" lon="-2.27441">
        <ele>71.76</ele>
        <time>2013-12-30T11:28:17Z</time>
      </trkpt>
      <trkpt lat="47.69754" lon="-2.27425">
        <ele>72.24</ele>
        <time>2013-12-30T11:28:20Z</time>
      </trkpt>
      <trkpt lat="47.69752" lon="-2.27406">
        <ele>73.2</ele>
        <time>2013-12-30T11:28:23Z</time>
      </trkpt>
      <trkpt lat="47.69751" lon="-2.27389">
        <ele>74.16</ele>
        <time>2013-12-30T11:28:26Z</time>
      </trkpt>
      <trkpt lat="47.69749" lon="-2.27373">
        <ele>74.64</ele>
        <time>2013-12-30T11:28:29Z</time>
      </trkpt>
      <trkpt lat="47.69747" lon="-2.27356">
        <ele>74.16</ele>
        <time>2013-12-30T11:28:32Z</time>
      </trkpt>
      <trkpt lat="47.69744" lon="-2.2734">
        <ele>73.2</ele>
        <time>2013-12-30T11:28:35Z</time>
      </trkpt>
      <trkpt lat="47.6974" lon="-2.27323">
        <ele>71.27</ele>
        <time>2013-12-30T11:28:39Z</time>
      </trkpt>
      <trkpt lat="47.69738" lon="-2.27309">
        <ele>69.83</ele>
        <time>2013-12-30T11:28:42Z</time>
      </trkpt>
      <trkpt lat="47.69736" lon="-2.27294">
        <ele>68.39</ele>
        <time>2013-12-30T11:28:45Z</time>
      </trkpt>
      <trkpt lat="47.69734" lon="-2.27279">
        <ele>67.91</ele>
        <time>2013-12-30T11:28:48Z</time>
      </trkpt>
      <trkpt lat="47.69732" lon="-2.27263">
        <ele>65.99</ele>
        <time>2013-12-30T11:28:51Z</time>
      </trkpt>
      <trkpt lat="47.6973" lon="-2.27247">
        <ele>64.55</ele>
        <time>2013-12-30T11:28:54Z</time>
      </trkpt>
      <trkpt lat="47.69728" lon="-2.27231">
        <ele>63.58</ele>
        <time>2013-12-30T11:28:57Z</time>
      </trkpt>
      <trkpt lat="47.69725" lon="-2.27215">
        <ele>63.1</ele>
        <time>2013-12-30T11:29:00Z</time>
      </trkpt>
      <trkpt lat="47.69722" lon="-2.27201">
        <ele>62.62</ele>
        <time>2013-12-30T11:29:03Z</time>
      </trkpt>
      <trkpt lat="47.6972" lon="-2.27184">
        <ele>61.66</ele>
        <time>2013-12-30T11:29:07Z</time>
      </trkpt>
      <trkpt lat="47.69718" lon="-2.27166">
        <ele>60.22</ele>
        <time>2013-12-30T11:29:11Z</time>
      </trkpt>
      <trkpt lat="47.69715" lon="-2.2715">
        <ele>59.26</ele>
        <time>2013-12-30T11:29:15Z</time>
      </trkpt>
      <trkpt lat="47.69711" lon="-2.27132">
        <ele>57.82</ele>
        <time>2013-12-30T11:29:19Z</time>
      </trkpt>
      <trkpt lat="47.69707" lon="-2.27117">
        <ele>57.34</ele>
        <time>2013-12-30T11:29:22Z</time>
      </trkpt>
      <trkpt lat="47.69703" lon="-2.27099">
        <ele>56.86</ele>
        <time>2013-12-30T11:29:26Z</time>
      </trkpt>
      <trkpt lat="47.69698" lon="-2.27082">
        <ele>55.41</ele>
        <time>2013-12-30T11:29:30Z</time>
      </trkpt>
      <trkpt lat="47.69694" lon="-2.27064">
        <ele>54.45</ele>
        <time>2013-12-30T11:29:34Z</time>
      </trkpt>
      <trkpt lat="47.69688" lon="-2.27045">
        <ele>53.97</ele>
        <time>2013-12-30T11:29:38Z</time>
      </trkpt>
      <trkpt lat="47.6968" lon="-2.27029">
        <ele>52.53</ele>
        <time>2013-12-30T11:29:42Z</time>
      </trkpt>
      <trkpt lat="47.69674" lon="-2.27016">
        <ele>51.09</ele>
        <time>2013-12-30T11:29:46Z</time>
      </trkpt>
      <trkpt lat="47.69669" lon="-2.27">
        <ele>50.61</ele>
        <time>2013-12-30T11:29:52Z</time>
      </trkpt>
      <trkpt lat="47.69664" lon="-2.26983">
        <ele>50.13</ele>
        <time>2013-12-30T11:29:57Z</time>
      </trkpt>
      <trkpt lat="47.69662" lon="-2.26968">
        <ele>50.61</ele>
        <time>2013-12-30T11:30:01Z</time>
      </trkpt>
      <trkpt lat="47.69656" lon="-2.2695">
        <ele>51.09</ele>
        <time>2013-12-30T11:30:05Z</time>
      </trkpt>
      <trkpt lat="47.69652" lon="-2.26933">
        <ele>50.13</ele>
        <time>2013-12-30T11:30:08Z</time>
      </trkpt>
      <trkpt lat="47.69649" lon="-2.26916">
        <ele>49.65</ele>
        <time>2013-12-30T11:30:11Z</time>
      </trkpt>
      <trkpt lat="47.69647" lon="-2.26896">
        <ele>48.2</ele>
        <time>2013-12-30T11:30:15Z</time>
      </trkpt>
      <trkpt lat="47.69645" lon="-2.26878">
        <ele>46.28</ele>
        <time>2013-12-30T11:30:19Z</time>
      </trkpt>
      <trkpt lat="47.69643" lon="-2.26862">
        <ele>44.36</ele>
        <time>2013-12-30T11:30:23Z</time>
      </trkpt>
      <trkpt lat="47.69644" lon="-2.26844">
        <ele>42.92</ele>
        <time>2013-12-30T11:30:27Z</time>
      </trkpt>
      <trkpt lat="47.69644" lon="-2.26828">
        <ele>41.95</ele>
        <time>2013-12-30T11:30:31Z</time>
      </trkpt>
      <trkpt lat="47.69641" lon="-2.26812">
        <ele>41.95</ele>
        <time>2013-12-30T11:30:35Z</time>
      </trkpt>
      <trkpt lat="47.69642" lon="-2.26793">
        <ele>40.99</ele>
        <time>2013-12-30T11:30:39Z</time>
      </trkpt>
      <trkpt lat="47.69642" lon="-2.26778">
        <ele>40.99</ele>
        <time>2013-12-30T11:30:42Z</time>
      </trkpt>
      <trkpt lat="47.69646" lon="-2.26759">
        <ele>40.99</ele>
        <time>2013-12-30T11:30:46Z</time>
      </trkpt>
      <trkpt lat="47.69648" lon="-2.26743">
        <ele>41.95</ele>
        <time>2013-12-30T11:30:49Z</time>
      </trkpt>
      <trkpt lat="47.69647" lon="-2.26723">
        <ele>41.47</ele>
        <time>2013-12-30T11:30:53Z</time>
      </trkpt>
      <trkpt lat="47.69647" lon="-2.26708">
        <ele>41.95</ele>
        <time>2013-12-30T11:30:56Z</time>
      </trkpt>
      <trkpt lat="47.69645" lon="-2.26691">
        <ele>41.95</ele>
        <time>2013-12-30T11:31:00Z</time>
      </trkpt>
      <trkpt lat="47.69646" lon="-2.26674">
        <ele>42.92</ele>
        <time>2013-12-30T11:31:04Z</time>
      </trkpt>
      <trkpt lat="47.6965" lon="-2.26657">
        <ele>42.44</ele>
        <time>2013-12-30T11:31:08Z</time>
      </trkpt>
      <trkpt lat="47.69654" lon="-2.2664">
        <ele>42.44</ele>
        <time>2013-12-30T11:31:12Z</time>
      </trkpt>
      <trkpt lat="47.69658" lon="-2.26624">
        <ele>41.95</ele>
        <time>2013-12-30T11:31:16Z</time>
      </trkpt>
      <trkpt lat="47.69663" lon="-2.26609">
        <ele>41.47</ele>
        <time>2013-12-30T11:31:19Z</time>
      </trkpt>
      <trkpt lat="47.69668" lon="-2.26592">
        <ele>40.51</ele>
        <time>2013-12-30T11:31:23Z</time>
      </trkpt>
      <trkpt lat="47.69672" lon="-2.26576">
        <ele>40.99</ele>
        <time>2013-12-30T11:31:27Z</time>
      </trkpt>
      <trkpt lat="47.69678" lon="-2.26558">
        <ele>41.95</ele>
        <time>2013-12-30T11:31:31Z</time>
      </trkpt>
      <trkpt lat="47.69686" lon="-2.26539">
        <ele>41.47</ele>
        <time>2013-12-30T11:31:35Z</time>
      </trkpt>
      <trkpt lat="47.69693" lon="-2.26525">
        <ele>40.51</ele>
        <time>2013-12-30T11:31:38Z</time>
      </trkpt>
      <trkpt lat="47.69702" lon="-2.26512">
        <ele>39.07</ele>
        <time>2013-12-30T11:31:42Z</time>
      </trkpt>
      <trkpt lat="47.69711" lon="-2.26497">
        <ele>37.15</ele>
        <time>2013-12-30T11:31:47Z</time>
      </trkpt>
      <trkpt lat="47.69718" lon="-2.26485">
        <ele>34.74</ele>
        <time>2013-12-30T11:31:51Z</time>
      </trkpt>
      <trkpt lat="47.69725" lon="-2.2647">
        <ele>31.38</ele>
        <time>2013-12-30T11:32:02Z</time>
      </trkpt>
      <trkpt lat="47.6972" lon="-2.26454">
        <ele>27.53</ele>
        <time>2013-12-30T11:32:23Z</time>
      </trkpt>
      <trkpt lat="47.69717" lon="-2.2644">
        <ele>28.02</ele>
        <time>2013-12-30T11:32:27Z</time>
      </trkpt>
      <trkpt lat="47.69716" lon="-2.26425">
        <ele>26.09</ele>
        <time>2013-12-30T11:32:37Z</time>
      </trkpt>
      <trkpt lat="47.69715" lon="-2.26409">
        <ele>24.17</ele>
        <time>2013-12-30T11:32:44Z</time>
      </trkpt>
      <trkpt lat="47.69717" lon="-2.26392">
        <ele>23.21</ele>
        <time>2013-12-30T11:32:52Z</time>
      </trkpt>
      <trkpt lat="47.69715" lon="-2.26373">
        <ele>24.17</ele>
        <time>2013-12-30T11:33:13Z</time>
      </trkpt>
      <trkpt lat="47.69726" lon="-2.26375">
        <ele>29.46</ele>
        <time>2013-12-30T11:33:42Z</time>
      </trkpt>
      <trkpt lat="47.69731" lon="-2.26387">
        <ele>28.5</ele>
        <time>2013-12-30T11:33:49Z</time>
      </trkpt>
      <trkpt lat="47.6974" lon="-2.26397">
        <ele>27.53</ele>
        <time>2013-12-30T11:33:55Z</time>
      </trkpt>
      <trkpt lat="47.69753" lon="-2.26402">
        <ele>27.53</ele>
        <time>2013-12-30T11:34:03Z</time>
      </trkpt>
      <trkpt lat="47.69764" lon="-2.26404">
        <ele>26.57</ele>
        <time>2013-12-30T11:34:08Z</time>
      </trkpt>
      <trkpt lat="47.69775" lon="-2.26403">
        <ele>24.65</ele>
        <time>2013-12-30T11:34:12Z</time>
      </trkpt>
      <trkpt lat="47.69787" lon="-2.264">
        <ele>23.21</ele>
        <time>2013-12-30T11:34:17Z</time>
      </trkpt>
      <trkpt lat="47.69797" lon="-2.26394">
        <ele>23.21</ele>
        <time>2013-12-30T11:34:21Z</time>
      </trkpt>
      <trkpt lat="47.69806" lon="-2.26382">
        <ele>23.21</ele>
        <time>2013-12-30T11:34:25Z</time>
      </trkpt>
      <trkpt lat="47.69815" lon="-2.2637">
        <ele>23.21</ele>
        <time>2013-12-30T11:34:30Z</time>
      </trkpt>
      <trkpt lat="47.69823" lon="-2.26359">
        <ele>22.25</ele>
        <time>2013-12-30T11:34:35Z</time>
      </trkpt>
      <trkpt lat="47.69829" lon="-2.26345">
        <ele>21.77</ele>
        <time>2013-12-30T11:34:42Z</time>
      </trkpt>
      <trkpt lat="47.69838" lon="-2.26334">
        <ele>21.77</ele>
        <time>2013-12-30T11:34:48Z</time>
      </trkpt>
      <trkpt lat="47.69849" lon="-2.26327">
        <ele>21.77</ele>
        <time>2013-12-30T11:34:53Z</time>
      </trkpt>
      <trkpt lat="47.69862" lon="-2.26325">
        <ele>22.73</ele>
        <time>2013-12-30T11:34:59Z</time>
      </trkpt>
      <trkpt lat="47.69875" lon="-2.26323">
        <ele>23.69</ele>
        <time>2013-12-30T11:35:04Z</time>
      </trkpt>
      <trkpt lat="47.69888" lon="-2.26313">
        <ele>23.21</ele>
        <time>2013-12-30T11:35:09Z</time>
      </trkpt>
      <trkpt lat="47.699" lon="-2.26305">
        <ele>23.69</ele>
        <time>2013-12-30T11:35:13Z</time>
      </trkpt>
      <trkpt lat="47.69909" lon="-2.26295">
        <ele>25.13</ele>
        <time>2013-12-30T11:35:17Z</time>
      </trkpt>
      <trkpt lat="47.69918" lon="-2.2628">
        <ele>23.69</ele>
        <time>2013-12-30T11:35:22Z</time>
      </trkpt>
      <trkpt lat="47.69922" lon="-2.26262">
        <ele>25.13</ele>
        <time>2013-12-30T11:35:26Z</time>
      </trkpt>
      <trkpt lat="47.69926" lon="-2.26245">
        <ele>26.09</ele>
        <time>2013-12-30T11:35:30Z</time>
      </trkpt>
      <trkpt lat="47.69927" lon="-2.26229">
        <ele>26.57</ele>
        <time>2013-12-30T11:35:34Z</time>
      </trkpt>
      <trkpt lat="47.69932" lon="-2.26209">
        <ele>27.05</ele>
        <time>2013-12-30T11:35:39Z</time>
      </trkpt>
      <trkpt lat="47.69938" lon="-2.26194">
        <ele>28.02</ele>
        <time>2013-12-30T11:35:43Z</time>
      </trkpt>
      <trkpt lat="47.69943" lon="-2.2618">
        <ele>28.02</ele>
        <time>2013-12-30T11:35:47Z</time>
      </trkpt>
      <trkpt lat="47.69949" lon="-2.26167">
        <ele>28.5</ele>
        <time>2013-12-30T11:35:51Z</time>
      </trkpt>
      <trkpt lat="47.69953" lon="-2.2615">
        <ele>30.9</ele>
        <time>2013-12-30T11:35:57Z</time>
      </trkpt>
      <trkpt lat="47.69949" lon="-2.26145">
        <ele>32.82</ele>
        <time>2013-12-30T11:36:05Z</time>
      </trkpt>
      <trkpt lat="47.69941" lon="-2.26154">
        <ele>35.71</ele>
        <time>2013-12-30T11:36:12Z</time>
      </trkpt>
      <trkpt lat="47.6993" lon="-2.26165">
        <ele>41.47</ele>
        <time>2013-12-30T11:36:28Z</time>
      </trkpt>
      <trkpt lat="47.69917" lon="-2.2618">
        <ele>49.65</ele>
        <time>2013-12-30T11:36:50Z</time>
      </trkpt>
      <trkpt lat="47.6991" lon="-2.26198">
        <ele>49.65</ele>
        <time>2013-12-30T11:37:29Z</time>
      </trkpt>
      <trkpt lat="47.69899" lon="-2.26215">
        <ele>61.18</ele>
        <time>2013-12-30T11:38:21Z</time>
      </trkpt>
      <trkpt lat="47.69888" lon="-2.26231">
        <ele>62.14</ele>
        <time>2013-12-30T11:39:19Z</time>
      </trkpt>
      <trkpt lat="47.6984" lon="-2.26214">
        <ele>70.31</ele>
        <time>2013-12-30T11:41:25Z</time>
      </trkpt>
      <trkpt lat="47.6983" lon="-2.26202">
        <ele>74.16</ele>
        <time>2013-12-30T11:41:49Z</time>
      </trkpt>
      <trkpt lat="47.6982" lon="-2.2619">
        <ele>72.72</ele>
        <time>2013-12-30T11:42:20Z</time>
      </trkpt>
      <trkpt lat="47.69812" lon="-2.2619">
        <ele>69.35</ele>
        <time>2013-12-30T11:42:30Z</time>
      </trkpt>
      <trkpt lat="47.69811" lon="-2.26202">
        <ele>66.95</ele>
        <time>2013-12-30T11:42:35Z</time>
      </trkpt>
      <trkpt lat="47.69802" lon="-2.26213">
        <ele>66.47</ele>
        <time>2013-12-30T11:42:40Z</time>
      </trkpt>
      <trkpt lat="47.69796" lon="-2.26225">
        <ele>65.99</ele>
        <time>2013-12-30T11:42:45Z</time>
      </trkpt>
      <trkpt lat="47.69793" lon="-2.26239">
        <ele>62.62</ele>
        <time>2013-12-30T11:42:50Z</time>
      </trkpt>
      <trkpt lat="47.69783" lon="-2.26247">
        <ele>59.26</ele>
        <time>2013-12-30T11:42:55Z</time>
      </trkpt>
      <trkpt lat="47.69775" lon="-2.26257">
        <ele>57.34</ele>
        <time>2013-12-30T11:42:58Z</time>
      </trkpt>
      <trkpt lat="47.69771" lon="-2.26271">
        <ele>56.37</ele>
        <time>2013-12-30T11:43:03Z</time>
      </trkpt>
      <trkpt lat="47.69781" lon="-2.26274">
        <ele>56.37</ele>
        <time>2013-12-30T11:43:16Z</time>
      </trkpt>
      <trkpt lat="47.69777" lon="-2.26284">
        <ele>58.3</ele>
        <time>2013-12-30T11:43:31Z</time>
      </trkpt>
      <trkpt lat="47.69775" lon="-2.26298">
        <ele>57.34</ele>
        <time>2013-12-30T11:43:35Z</time>
      </trkpt>
      <trkpt lat="47.6978" lon="-2.26304">
        <ele>57.82</ele>
        <time>2013-12-30T11:43:45Z</time>
      </trkpt>
      <trkpt lat="47.69775" lon="-2.26303">
        <ele>56.37</ele>
        <time>2013-12-30T11:44:35Z</time>
      </trkpt>
      <trkpt lat="47.69773" lon="-2.2629">
        <ele>57.82</ele>
        <time>2013-12-30T11:44:50Z</time>
      </trkpt>
      <trkpt lat="47.69773" lon="-2.26274">
        <ele>58.3</ele>
        <time>2013-12-30T11:44:57Z</time>
      </trkpt>
      <trkpt lat="47.69775" lon="-2.2626">
        <ele>57.82</ele>
        <time>2013-12-30T11:45:01Z</time>
      </trkpt>
      <trkpt lat="47.69783" lon="-2.26248">
        <ele>58.78</ele>
        <time>2013-12-30T11:45:06Z</time>
      </trkpt>
      <trkpt lat="47.69791" lon="-2.26242">
        <ele>62.14</ele>
        <time>2013-12-30T11:45:11Z</time>
      </trkpt>
      <trkpt lat="47.69794" lon="-2.26228">
        <ele>65.51</ele>
        <time>2013-12-30T11:45:22Z</time>
      </trkpt>
      <trkpt lat="47.69799" lon="-2.26216">
        <ele>65.51</ele>
        <time>2013-12-30T11:45:30Z</time>
      </trkpt>
      <trkpt lat="47.69808" lon="-2.26205">
        <ele>64.55</ele>
        <time>2013-12-30T11:45:33Z</time>
      </trkpt>
      <trkpt lat="47.69812" lon="-2.26193">
        <ele>65.03</ele>
        <time>2013-12-30T11:45:36Z</time>
      </trkpt>
      <trkpt lat="47.69812" lon="-2.26175">
        <ele>65.51</ele>
        <time>2013-12-30T11:45:40Z</time>
      </trkpt>
      <trkpt lat="47.69809" lon="-2.26161">
        <ele>65.51</ele>
        <time>2013-12-30T11:45:43Z</time>
      </trkpt>
      <trkpt lat="47.69809" lon="-2.26145">
        <ele>65.03</ele>
        <time>2013-12-30T11:45:46Z</time>
      </trkpt>
      <trkpt lat="47.69809" lon="-2.26148">
        <ele>64.55</ele>
        <time>2013-12-30T11:46:01Z</time>
      </trkpt>
      <trkpt lat="47.69804" lon="-2.2616">
        <ele>64.55</ele>
        <time>2013-12-30T11:46:07Z</time>
      </trkpt>
      <trkpt lat="47.69794" lon="-2.26154">
        <ele>64.07</ele>
        <time>2013-12-30T11:46:11Z</time>
      </trkpt>
      <trkpt lat="47.69784" lon="-2.26154">
        <ele>63.1</ele>
        <time>2013-12-30T11:46:14Z</time>
      </trkpt>
      <trkpt lat="47.69774" lon="-2.26156">
        <ele>61.66</ele>
        <time>2013-12-30T11:46:17Z</time>
      </trkpt>
      <trkpt lat="47.6977" lon="-2.26145">
        <ele>60.7</ele>
        <time>2013-12-30T11:46:21Z</time>
      </trkpt>
      <trkpt lat="47.69772" lon="-2.26131">
        <ele>60.22</ele>
        <time>2013-12-30T11:46:24Z</time>
      </trkpt>
      <trkpt lat="47.69774" lon="-2.26118">
        <ele>60.7</ele>
        <time>2013-12-30T11:46:27Z</time>
      </trkpt>
      <trkpt lat="47.69776" lon="-2.26103">
        <ele>60.22</ele>
        <time>2013-12-30T11:46:30Z</time>
      </trkpt>
      <trkpt lat="47.69775" lon="-2.26089">
        <ele>60.22</ele>
        <time>2013-12-30T11:46:33Z</time>
      </trkpt>
      <trkpt lat="47.69777" lon="-2.26075">
        <ele>61.18</ele>
        <time>2013-12-30T11:46:37Z</time>
      </trkpt>
      <trkpt lat="47.69772" lon="-2.2606">
        <ele>61.66</ele>
        <time>2013-12-30T11:46:41Z</time>
      </trkpt>
      <trkpt lat="47.69765" lon="-2.26047">
        <ele>61.66</ele>
        <time>2013-12-30T11:46:44Z</time>
      </trkpt>
      <trkpt lat="47.69758" lon="-2.26039">
        <ele>61.18</ele>
        <time>2013-12-30T11:46:47Z</time>
      </trkpt>
      <trkpt lat="47.6975" lon="-2.26028">
        <ele>60.7</ele>
        <time>2013-12-30T11:46:50Z</time>
      </trkpt>
      <trkpt lat="47.69742" lon="-2.26018">
        <ele>61.18</ele>
        <time>2013-12-30T11:46:53Z</time>
      </trkpt>
      <trkpt lat="47.6974" lon="-2.26002">
        <ele>60.22</ele>
        <time>2013-12-30T11:46:56Z</time>
      </trkpt>
      <trkpt lat="47.69738" lon="-2.25984">
        <ele>59.74</ele>
        <time>2013-12-30T11:46:59Z</time>
      </trkpt>
      <trkpt lat="47.69733" lon="-2.2597">
        <ele>59.26</ele>
        <time>2013-12-30T11:47:02Z</time>
      </trkpt>
      <trkpt lat="47.69733" lon="-2.25958">
        <ele>59.74</ele>
        <time>2013-12-30T11:47:08Z</time>
      </trkpt>
      <trkpt lat="47.69728" lon="-2.25946">
        <ele>59.26</ele>
        <time>2013-12-30T11:47:12Z</time>
      </trkpt>
      <trkpt lat="47.69723" lon="-2.25934">
        <ele>57.82</ele>
        <time>2013-12-30T11:47:16Z</time>
      </trkpt>
      <trkpt lat="47.69716" lon="-2.25919">
        <ele>56.86</ele>
        <time>2013-12-30T11:47:20Z</time>
      </trkpt>
      <trkpt lat="47.69715" lon="-2.25903">
        <ele>56.37</ele>
        <time>2013-12-30T11:47:24Z</time>
      </trkpt>
      <trkpt lat="47.69713" lon="-2.25888">
        <ele>57.82</ele>
        <time>2013-12-30T11:47:28Z</time>
      </trkpt>
      <trkpt lat="47.69706" lon="-2.25876">
        <ele>57.82</ele>
        <time>2013-12-30T11:47:32Z</time>
      </trkpt>
      <trkpt lat="47.697" lon="-2.2586">
        <ele>57.34</ele>
        <time>2013-12-30T11:47:36Z</time>
      </trkpt>
      <trkpt lat="47.69695" lon="-2.25846">
        <ele>57.34</ele>
        <time>2013-12-30T11:47:41Z</time>
      </trkpt>
      <trkpt lat="47.69695" lon="-2.25832">
        <ele>56.86</ele>
        <time>2013-12-30T11:47:45Z</time>
      </trkpt>
      <trkpt lat="47.69699" lon="-2.25817">
        <ele>57.82</ele>
        <time>2013-12-30T11:47:49Z</time>
      </trkpt>
      <trkpt lat="47.69698" lon="-2.25802">
        <ele>57.82</ele>
        <time>2013-12-30T11:47:54Z</time>
      </trkpt>
      <trkpt lat="47.69695" lon="-2.25787">
        <ele>58.3</ele>
        <time>2013-12-30T11:47:59Z</time>
      </trkpt>
      <trkpt lat="47.69697" lon="-2.25774">
        <ele>59.26</ele>
        <time>2013-12-30T11:48:07Z</time>
      </trkpt>
      <trkpt lat="47.69702" lon="-2.25764">
        <ele>60.22</ele>
        <time>2013-12-30T11:48:13Z</time>
      </trkpt>
      <trkpt lat="47.69696" lon="-2.2575">
        <ele>60.7</ele>
        <time>2013-12-30T11:48:18Z</time>
      </trkpt>
      <trkpt lat="47.6969" lon="-2.25738">
        <ele>60.22</ele>
        <time>2013-12-30T11:48:22Z</time>
      </trkpt>
      <trkpt lat="47.69686" lon="-2.25723">
        <ele>59.74</ele>
        <time>2013-12-30T11:48:25Z</time>
      </trkpt>
      <trkpt lat="47.69684" lon="-2.25709">
        <ele>59.26</ele>
        <time>2013-12-30T11:48:28Z</time>
      </trkpt>
      <trkpt lat="47.6968" lon="-2.25697">
        <ele>58.78</ele>
        <time>2013-12-30T11:48:32Z</time>
      </trkpt>
      <trkpt lat="47.69673" lon="-2.25685">
        <ele>57.34</ele>
        <time>2013-12-30T11:48:36Z</time>
      </trkpt>
      <trkpt lat="47.69669" lon="-2.2567">
        <ele>56.86</ele>
        <time>2013-12-30T11:48:39Z</time>
      </trkpt>
      <trkpt lat="47.69667" lon="-2.25653">
        <ele>56.86</ele>
        <time>2013-12-30T11:48:42Z</time>
      </trkpt>
      <trkpt lat="47.69667" lon="-2.25636">
        <ele>56.37</ele>
        <time>2013-12-30T11:48:45Z</time>
      </trkpt>
      <trkpt lat="47.69668" lon="-2.25623">
        <ele>56.37</ele>
        <time>2013-12-30T11:48:48Z</time>
      </trkpt>
      <trkpt lat="47.6966" lon="-2.25611">
        <ele>55.41</ele>
        <time>2013-12-30T11:48:51Z</time>
      </trkpt>
      <trkpt lat="47.69654" lon="-2.25599">
        <ele>54.45</ele>
        <time>2013-12-30T11:48:53Z</time>
      </trkpt>
      <trkpt lat="47.69653" lon="-2.25584">
        <ele>54.45</ele>
        <time>2013-12-30T11:48:56Z</time>
      </trkpt>
      <trkpt lat="47.69655" lon="-2.25571">
        <ele>56.86</ele>
        <time>2013-12-30T11:49:01Z</time>
      </trkpt>
      <trkpt lat="47.69655" lon="-2.2556">
        <ele>59.74</ele>
        <time>2013-12-30T11:49:25Z</time>
      </trkpt>
      <trkpt lat="47.69651" lon="-2.25547">
        <ele>59.74</ele>
        <time>2013-12-30T11:49:31Z</time>
      </trkpt>
      <trkpt lat="47.69645" lon="-2.25536">
        <ele>59.26</ele>
        <time>2013-12-30T11:49:35Z</time>
      </trkpt>
      <trkpt lat="47.6964" lon="-2.25524">
        <ele>58.78</ele>
        <time>2013-12-30T11:49:38Z</time>
      </trkpt>
      <trkpt lat="47.69637" lon="-2.25508">
        <ele>58.78</ele>
        <time>2013-12-30T11:49:42Z</time>
      </trkpt>
      <trkpt lat="47.69636" lon="-2.25491">
        <ele>58.78</ele>
        <time>2013-12-30T11:49:46Z</time>
      </trkpt>
      <trkpt lat="47.69633" lon="-2.25477">
        <ele>57.82</ele>
        <time>2013-12-30T11:49:49Z</time>
      </trkpt>
      <trkpt lat="47.69634" lon="-2.25461">
        <ele>57.34</ele>
        <time>2013-12-30T11:49:53Z</time>
      </trkpt>
      <trkpt lat="47.69628" lon="-2.25448">
        <ele>57.34</ele>
        <time>2013-12-30T11:49:57Z</time>
      </trkpt>
      <trkpt lat="47.69625" lon="-2.25435">
        <ele>56.86</ele>
        <time>2013-12-30T11:50:00Z</time>
      </trkpt>
      <trkpt lat="47.69624" lon="-2.25418">
        <ele>56.37</ele>
        <time>2013-12-30T11:50:04Z</time>
      </trkpt>
      <trkpt lat="47.69616" lon="-2.25408">
        <ele>56.37</ele>
        <time>2013-12-30T11:50:07Z</time>
      </trkpt>
      <trkpt lat="47.69613" lon="-2.25393">
        <ele>56.37</ele>
        <time>2013-12-30T11:50:10Z</time>
      </trkpt>
      <trkpt lat="47.69612" lon="-2.25377">
        <ele>56.37</ele>
        <time>2013-12-30T11:50:13Z</time>
      </trkpt>
      <trkpt lat="47.69611" lon="-2.25361">
        <ele>56.37</ele>
        <time>2013-12-30T11:50:17Z</time>
      </trkpt>
      <trkpt lat="47.69604" lon="-2.2535">
        <ele>55.41</ele>
        <time>2013-12-30T11:50:21Z</time>
      </trkpt>
      <trkpt lat="47.69599" lon="-2.25337">
        <ele>55.41</ele>
        <time>2013-12-30T11:50:25Z</time>
      </trkpt>
      <trkpt lat="47.69601" lon="-2.25319">
        <ele>55.89</ele>
        <time>2013-12-30T11:50:29Z</time>
      </trkpt>
      <trkpt lat="47.69599" lon="-2.25302">
        <ele>56.86</ele>
        <time>2013-12-30T11:50:33Z</time>
      </trkpt>
      <trkpt lat="47.69598" lon="-2.25287">
        <ele>57.34</ele>
        <time>2013-12-30T11:50:37Z</time>
      </trkpt>
      <trkpt lat="47.69594" lon="-2.25271">
        <ele>57.82</ele>
        <time>2013-12-30T11:50:41Z</time>
      </trkpt>
      <trkpt lat="47.69598" lon="-2.25256">
        <ele>59.74</ele>
        <time>2013-12-30T11:50:45Z</time>
      </trkpt>
      <trkpt lat="47.696" lon="-2.25244">
        <ele>62.62</ele>
        <time>2013-12-30T11:50:55Z</time>
      </trkpt>
      <trkpt lat="47.696" lon="-2.25232">
        <ele>63.1</ele>
        <time>2013-12-30T11:51:08Z</time>
      </trkpt>
      <trkpt lat="47.69603" lon="-2.25217">
        <ele>63.58</ele>
        <time>2013-12-30T11:51:13Z</time>
      </trkpt>
      <trkpt lat="47.69608" lon="-2.25202">
        <ele>64.07</ele>
        <time>2013-12-30T11:51:18Z</time>
      </trkpt>
      <trkpt lat="47.69605" lon="-2.2519">
        <ele>65.03</ele>
        <time>2013-12-30T11:51:23Z</time>
      </trkpt>
      <trkpt lat="47.696" lon="-2.25178">
        <ele>66.47</ele>
        <time>2013-12-30T11:51:28Z</time>
      </trkpt>
      <trkpt lat="47.69597" lon="-2.25164">
        <ele>65.99</ele>
        <time>2013-12-30T11:51:33Z</time>
      </trkpt>
      <trkpt lat="47.6959" lon="-2.25153">
        <ele>65.99</ele>
        <time>2013-12-30T11:51:37Z</time>
      </trkpt>
      <trkpt lat="47.69581" lon="-2.25147">
        <ele>65.03</ele>
        <time>2013-12-30T11:51:41Z</time>
      </trkpt>
      <trkpt lat="47.69572" lon="-2.2514">
        <ele>65.03</ele>
        <time>2013-12-30T11:51:45Z</time>
      </trkpt>
      <trkpt lat="47.69561" lon="-2.25137">
        <ele>64.55</ele>
        <time>2013-12-30T11:51:49Z</time>
      </trkpt>
      <trkpt lat="47.69553" lon="-2.25128">
        <ele>65.03</ele>
        <time>2013-12-30T11:51:52Z</time>
      </trkpt>
      <trkpt lat="47.69545" lon="-2.25118">
        <ele>65.03</ele>
        <time>2013-12-30T11:51:55Z</time>
      </trkpt>
      <trkpt lat="47.69538" lon="-2.25109">
        <ele>65.03</ele>
        <time>2013-12-30T11:51:58Z</time>
      </trkpt>
      <trkpt lat="47.69535" lon="-2.25095">
        <ele>64.07</ele>
        <time>2013-12-30T11:52:01Z</time>
      </trkpt>
      <trkpt lat="47.69538" lon="-2.2508">
        <ele>63.1</ele>
        <time>2013-12-30T11:52:05Z</time>
      </trkpt>
      <trkpt lat="47.69544" lon="-2.2507">
        <ele>63.58</ele>
        <time>2013-12-30T11:52:11Z</time>
      </trkpt>
      <trkpt lat="47.69552" lon="-2.25067">
        <ele>63.1</ele>
        <time>2013-12-30T11:52:15Z</time>
      </trkpt>
      <trkpt lat="47.6956" lon="-2.25066">
        <ele>64.07</ele>
        <time>2013-12-30T11:52:19Z</time>
      </trkpt>
      <trkpt lat="47.69559" lon="-2.25051">
        <ele>63.58</ele>
        <time>2013-12-30T11:52:22Z</time>
      </trkpt>
      <trkpt lat="47.69553" lon="-2.25039">
        <ele>62.62</ele>
        <time>2013-12-30T11:52:25Z</time>
      </trkpt>
      <trkpt lat="47.69549" lon="-2.25027">
        <ele>62.14</ele>
        <time>2013-12-30T11:52:28Z</time>
      </trkpt>
      <trkpt lat="47.69553" lon="-2.25013">
        <ele>62.14</ele>
        <time>2013-12-30T11:52:32Z</time>
      </trkpt>
      <trkpt lat="47.6956" lon="-2.25001">
        <ele>63.1</ele>
        <time>2013-12-30T11:52:36Z</time>
      </trkpt>
      <trkpt lat="47.69564" lon="-2.24984">
        <ele>64.07</ele>
        <time>2013-12-30T11:52:40Z</time>
      </trkpt>
      <trkpt lat="47.69561" lon="-2.24969">
        <ele>63.58</ele>
        <time>2013-12-30T11:52:44Z</time>
      </trkpt>
      <trkpt lat="47.69559" lon="-2.24951">
        <ele>64.07</ele>
        <time>2013-12-30T11:52:48Z</time>
      </trkpt>
      <trkpt lat="47.69557" lon="-2.24935">
        <ele>64.07</ele>
        <time>2013-12-30T11:52:52Z</time>
      </trkpt>
      <trkpt lat="47.69553" lon="-2.24921">
        <ele>65.51</ele>
        <time>2013-12-30T11:52:56Z</time>
      </trkpt>
      <trkpt lat="47.69545" lon="-2.24911">
        <ele>67.43</ele>
        <time>2013-12-30T11:52:59Z</time>
      </trkpt>
      <trkpt lat="47.69543" lon="-2.24897">
        <ele>68.87</ele>
        <time>2013-12-30T11:53:03Z</time>
      </trkpt>
      <trkpt lat="47.69543" lon="-2.24882">
        <ele>69.83</ele>
        <time>2013-12-30T11:53:07Z</time>
      </trkpt>
      <trkpt lat="47.6954" lon="-2.24869">
        <ele>69.35</ele>
        <time>2013-12-30T11:53:11Z</time>
      </trkpt>
      <trkpt lat="47.6954" lon="-2.24851">
        <ele>66.95</ele>
        <time>2013-12-30T11:53:16Z</time>
      </trkpt>
      <trkpt lat="47.69542" lon="-2.24836">
        <ele>65.03</ele>
        <time>2013-12-30T11:53:20Z</time>
      </trkpt>
      <trkpt lat="47.69539" lon="-2.24825">
        <ele>63.58</ele>
        <time>2013-12-30T11:53:52Z</time>
      </trkpt>
      <trkpt lat="47.69537" lon="-2.24812">
        <ele>63.58</ele>
        <time>2013-12-30T11:54:10Z</time>
      </trkpt>
      <trkpt lat="47.69528" lon="-2.24801">
        <ele>63.1</ele>
        <time>2013-12-30T11:54:14Z</time>
      </trkpt>
      <trkpt lat="47.69522" lon="-2.24787">
        <ele>62.62</ele>
        <time>2013-12-30T11:54:18Z</time>
      </trkpt>
      <trkpt lat="47.6952" lon="-2.24772">
        <ele>63.1</ele>
        <time>2013-12-30T11:54:23Z</time>
      </trkpt>
      <trkpt lat="47.6952" lon="-2.24753">
        <ele>65.51</ele>
        <time>2013-12-30T11:54:28Z</time>
      </trkpt>
      <trkpt lat="47.69524" lon="-2.24737">
        <ele>66.47</ele>
        <time>2013-12-30T11:54:33Z</time>
      </trkpt>
      <trkpt lat="47.69532" lon="-2.24735">
        <ele>65.51</ele>
        <time>2013-12-30T11:54:38Z</time>
      </trkpt>
      <trkpt lat="47.69542" lon="-2.24733">
        <ele>67.43</ele>
        <time>2013-12-30T11:54:45Z</time>
      </trkpt>
      <trkpt lat="47.69538" lon="-2.2472">
        <ele>69.35</ele>
        <time>2013-12-30T11:54:50Z</time>
      </trkpt>
      <trkpt lat="47.69535" lon="-2.24706">
        <ele>71.27</ele>
        <time>2013-12-30T11:54:55Z</time>
      </trkpt>
      <trkpt lat="47.69538" lon="-2.24689">
        <ele>70.31</ele>
        <time>2013-12-30T11:55:07Z</time>
      </trkpt>
      <trkpt lat="47.6954" lon="-2.24674">
        <ele>70.79</ele>
        <time>2013-12-30T11:55:13Z</time>
      </trkpt>
      <trkpt lat="47.69545" lon="-2.24661">
        <ele>70.79</ele>
        <time>2013-12-30T11:55:19Z</time>
      </trkpt>
      <trkpt lat="47.69546" lon="-2.24647">
        <ele>70.79</ele>
        <time>2013-12-30T11:55:25Z</time>
      </trkpt>
      <trkpt lat="47.69547" lon="-2.24632">
        <ele>70.79</ele>
        <time>2013-12-30T11:55:30Z</time>
      </trkpt>
      <trkpt lat="47.69543" lon="-2.24618">
        <ele>70.79</ele>
        <time>2013-12-30T11:55:37Z</time>
      </trkpt>
      <trkpt lat="47.69546" lon="-2.24605">
        <ele>70.31</ele>
        <time>2013-12-30T11:55:43Z</time>
      </trkpt>
      <trkpt lat="47.69545" lon="-2.24591">
        <ele>69.35</ele>
        <time>2013-12-30T11:55:47Z</time>
      </trkpt>
      <trkpt lat="47.69545" lon="-2.24577">
        <ele>68.39</ele>
        <time>2013-12-30T11:55:50Z</time>
      </trkpt>
      <trkpt lat="47.69546" lon="-2.2456">
        <ele>67.91</ele>
        <time>2013-12-30T11:55:54Z</time>
      </trkpt>
      <trkpt lat="47.69543" lon="-2.24547">
        <ele>66.95</ele>
        <time>2013-12-30T11:55:57Z</time>
      </trkpt>
      <trkpt lat="47.69535" lon="-2.2454">
        <ele>66.47</ele>
        <time>2013-12-30T11:56:01Z</time>
      </trkpt>
      <trkpt lat="47.69532" lon="-2.24524">
        <ele>66.47</ele>
        <time>2013-12-30T11:56:05Z</time>
      </trkpt>
      <trkpt lat="47.69527" lon="-2.24509">
        <ele>66.47</ele>
        <time>2013-12-30T11:56:09Z</time>
      </trkpt>
      <trkpt lat="47.69519" lon="-2.24502">
        <ele>66.95</ele>
        <time>2013-12-30T11:56:13Z</time>
      </trkpt>
      <trkpt lat="47.69519" lon="-2.24488">
        <ele>66.47</ele>
        <time>2013-12-30T11:56:17Z</time>
      </trkpt>
      <trkpt lat="47.69524" lon="-2.24476">
        <ele>65.51</ele>
        <time>2013-12-30T11:56:21Z</time>
      </trkpt>
      <trkpt lat="47.69527" lon="-2.24462">
        <ele>65.03</ele>
        <time>2013-12-30T11:56:25Z</time>
      </trkpt>
      <trkpt lat="47.69529" lon="-2.24449">
        <ele>65.99</ele>
        <time>2013-12-30T11:56:29Z</time>
      </trkpt>
      <trkpt lat="47.69526" lon="-2.24434">
        <ele>65.03</ele>
        <time>2013-12-30T11:56:33Z</time>
      </trkpt>
      <trkpt lat="47.69526" lon="-2.24417">
        <ele>64.55</ele>
        <time>2013-12-30T11:56:37Z</time>
      </trkpt>
      <trkpt lat="47.69524" lon="-2.24403">
        <ele>64.55</ele>
        <time>2013-12-30T11:56:40Z</time>
      </trkpt>
      <trkpt lat="47.69525" lon="-2.24387">
        <ele>64.55</ele>
        <time>2013-12-30T11:56:45Z</time>
      </trkpt>
      <trkpt lat="47.69527" lon="-2.24371">
        <ele>65.03</ele>
        <time>2013-12-30T11:56:52Z</time>
      </trkpt>
      <trkpt lat="47.69524" lon="-2.24353">
        <ele>66.95</ele>
        <time>2013-12-30T11:56:59Z</time>
      </trkpt>
      <trkpt lat="47.69515" lon="-2.24338">
        <ele>68.87</ele>
        <time>2013-12-30T11:57:05Z</time>
      </trkpt>
      <trkpt lat="47.69507" lon="-2.24324">
        <ele>69.35</ele>
        <time>2013-12-30T11:57:10Z</time>
      </trkpt>
      <trkpt lat="47.69505" lon="-2.24308">
        <ele>68.87</ele>
        <time>2013-12-30T11:57:15Z</time>
      </trkpt>
      <trkpt lat="47.69505" lon="-2.24292">
        <ele>68.39</ele>
        <time>2013-12-30T11:57:20Z</time>
      </trkpt>
      <trkpt lat="47.69505" lon="-2.24276">
        <ele>68.39</ele>
        <time>2013-12-30T11:57:25Z</time>
      </trkpt>
      <trkpt lat="47.69507" lon="-2.24259">
        <ele>68.39</ele>
        <time>2013-12-30T11:57:29Z</time>
      </trkpt>
      <trkpt lat="47.69512" lon="-2.24242">
        <ele>68.87</ele>
        <time>2013-12-30T11:57:33Z</time>
      </trkpt>
      <trkpt lat="47.69512" lon="-2.24223">
        <ele>71.27</ele>
        <time>2013-12-30T11:57:49Z</time>
      </trkpt>
      <trkpt lat="47.69519" lon="-2.24213">
        <ele>70.79</ele>
        <time>2013-12-30T11:58:02Z</time>
      </trkpt>
      <trkpt lat="47.69525" lon="-2.242">
        <ele>67.91</ele>
        <time>2013-12-30T11:58:06Z</time>
      </trkpt>
      <trkpt lat="47.69526" lon="-2.24185">
        <ele>67.43</ele>
        <time>2013-12-30T11:58:10Z</time>
      </trkpt>
      <trkpt lat="47.69524" lon="-2.24172">
        <ele>66.95</ele>
        <time>2013-12-30T11:58:14Z</time>
      </trkpt>
      <trkpt lat="47.69513" lon="-2.24169">
        <ele>72.24</ele>
        <time>2013-12-30T11:58:39Z</time>
      </trkpt>
      <trkpt lat="47.69508" lon="-2.24156">
        <ele>76.56</ele>
        <time>2013-12-30T11:58:56Z</time>
      </trkpt>
      <trkpt lat="47.69507" lon="-2.24141">
        <ele>77.04</ele>
        <time>2013-12-30T11:59:21Z</time>
      </trkpt>
      <trkpt lat="47.69505" lon="-2.24127">
        <ele>79.45</ele>
        <time>2013-12-30T11:59:37Z</time>
      </trkpt>
      <trkpt lat="47.69497" lon="-2.24114">
        <ele>80.89</ele>
        <time>2013-12-30T11:59:43Z</time>
      </trkpt>
      <trkpt lat="47.69495" lon="-2.24095">
        <ele>81.37</ele>
        <time>2013-12-30T11:59:49Z</time>
      </trkpt>
      <trkpt lat="47.69489" lon="-2.24075">
        <ele>81.85</ele>
        <time>2013-12-30T11:59:53Z</time>
      </trkpt>
      <trkpt lat="47.6949" lon="-2.2405">
        <ele>68.87</ele>
        <time>2013-12-30T12:00:59Z</time>
      </trkpt>
      <trkpt lat="47.69501" lon="-2.24047">
        <ele>67.43</ele>
        <time>2013-12-30T12:01:04Z</time>
      </trkpt>
      <trkpt lat="47.69512" lon="-2.24045">
        <ele>66.95</ele>
        <time>2013-12-30T12:01:07Z</time>
      </trkpt>
      <trkpt lat="47.69519" lon="-2.24036">
        <ele>66.47</ele>
        <time>2013-12-30T12:01:11Z</time>
      </trkpt>
      <trkpt lat="47.69516" lon="-2.24023">
        <ele>66.47</ele>
        <time>2013-12-30T12:01:15Z</time>
      </trkpt>
      <trkpt lat="47.6951" lon="-2.24008">
        <ele>66.95</ele>
        <time>2013-12-30T12:01:19Z</time>
      </trkpt>
      <trkpt lat="47.69504" lon="-2.23997">
        <ele>68.39</ele>
        <time>2013-12-30T12:01:23Z</time>
      </trkpt>
      <trkpt lat="47.69496" lon="-2.23985">
        <ele>69.35</ele>
        <time>2013-12-30T12:01:56Z</time>
      </trkpt>
      <trkpt lat="47.69492" lon="-2.23971">
        <ele>71.27</ele>
        <time>2013-12-30T12:02:06Z</time>
      </trkpt>
      <trkpt lat="47.69486" lon="-2.23958">
        <ele>72.24</ele>
        <time>2013-12-30T12:02:10Z</time>
      </trkpt>
      <trkpt lat="47.69479" lon="-2.23942">
        <ele>74.16</ele>
        <time>2013-12-30T12:02:14Z</time>
      </trkpt>
      <trkpt lat="47.6947" lon="-2.23928">
        <ele>75.12</ele>
        <time>2013-12-30T12:02:18Z</time>
      </trkpt>
      <trkpt lat="47.69463" lon="-2.23914">
        <ele>74.64</ele>
        <time>2013-12-30T12:02:22Z</time>
      </trkpt>
      <trkpt lat="47.69457" lon="-2.23904">
        <ele>76.08</ele>
        <time>2013-12-30T12:02:27Z</time>
      </trkpt>
      <trkpt lat="47.69461" lon="-2.2389">
        <ele>72.72</ele>
        <time>2013-12-30T12:02:32Z</time>
      </trkpt>
      <trkpt lat="47.69453" lon="-2.23876">
        <ele>72.72</ele>
        <time>2013-12-30T12:02:49Z</time>
      </trkpt>
      <trkpt lat="47.69448" lon="-2.23864">
        <ele>72.24</ele>
        <time>2013-12-30T12:02:52Z</time>
      </trkpt>
      <trkpt lat="47.69444" lon="-2.2385">
        <ele>71.76</ele>
        <time>2013-12-30T12:02:55Z</time>
      </trkpt>
      <trkpt lat="47.6944" lon="-2.23834">
        <ele>71.76</ele>
        <time>2013-12-30T12:02:58Z</time>
      </trkpt>
      <trkpt lat="47.69436" lon="-2.23818">
        <ele>70.79</ele>
        <time>2013-12-30T12:03:01Z</time>
      </trkpt>
      <trkpt lat="47.69432" lon="-2.23802">
        <ele>70.31</ele>
        <time>2013-12-30T12:03:04Z</time>
      </trkpt>
      <trkpt lat="47.69427" lon="-2.23786">
        <ele>70.31</ele>
        <time>2013-12-30T12:03:07Z</time>
      </trkpt>
      <trkpt lat="47.69421" lon="-2.23773">
        <ele>70.31</ele>
        <time>2013-12-30T12:03:10Z</time>
      </trkpt>
      <trkpt lat="47.69417" lon="-2.23758">
        <ele>69.83</ele>
        <time>2013-12-30T12:03:13Z</time>
      </trkpt>
      <trkpt lat="47.69412" lon="-2.23743">
        <ele>69.83</ele>
        <time>2013-12-30T12:03:16Z</time>
      </trkpt>
      <trkpt lat="47.69409" lon="-2.23728">
        <ele>70.31</ele>
        <time>2013-12-30T12:03:19Z</time>
      </trkpt>
      <trkpt lat="47.69406" lon="-2.23713">
        <ele>70.31</ele>
        <time>2013-12-30T12:03:22Z</time>
      </trkpt>
      <trkpt lat="47.69404" lon="-2.23697">
        <ele>69.83</ele>
        <time>2013-12-30T12:03:25Z</time>
      </trkpt>
      <trkpt lat="47.69402" lon="-2.23681">
        <ele>69.83</ele>
        <time>2013-12-30T12:03:28Z</time>
      </trkpt>
      <trkpt lat="47.69401" lon="-2.23665">
        <ele>69.83</ele>
        <time>2013-12-30T12:03:31Z</time>
      </trkpt>
      <trkpt lat="47.69399" lon="-2.23649">
        <ele>69.83</ele>
        <time>2013-12-30T12:03:34Z</time>
      </trkpt>
      <trkpt lat="47.69399" lon="-2.23632">
        <ele>69.35</ele>
        <time>2013-12-30T12:03:37Z</time>
      </trkpt>
      <trkpt lat="47.69399" lon="-2.23615">
        <ele>69.35</ele>
        <time>2013-12-30T12:03:40Z</time>
      </trkpt>
      <trkpt lat="47.69399" lon="-2.23595">
        <ele>69.83</ele>
        <time>2013-12-30T12:03:44Z</time>
      </trkpt>
      <trkpt lat="47.69399" lon="-2.23577">
        <ele>70.31</ele>
        <time>2013-12-30T12:03:47Z</time>
      </trkpt>
      <trkpt lat="47.69399" lon="-2.23557">
        <ele>69.35</ele>
        <time>2013-12-30T12:03:50Z</time>
      </trkpt>
      <trkpt lat="47.694" lon="-2.23539">
        <ele>68.39</ele>
        <time>2013-12-30T12:03:53Z</time>
      </trkpt>
      <trkpt lat="47.694" lon="-2.2352">
        <ele>67.43</ele>
        <time>2013-12-30T12:03:56Z</time>
      </trkpt>
      <trkpt lat="47.69399" lon="-2.23501">
        <ele>65.99</ele>
        <time>2013-12-30T12:03:59Z</time>
      </trkpt>
      <trkpt lat="47.69398" lon="-2.23481">
        <ele>66.47</ele>
        <time>2013-12-30T12:04:02Z</time>
      </trkpt>
      <trkpt lat="47.69398" lon="-2.23461">
        <ele>66.47</ele>
        <time>2013-12-30T12:04:05Z</time>
      </trkpt>
      <trkpt lat="47.694" lon="-2.2344">
        <ele>66.47</ele>
        <time>2013-12-30T12:04:08Z</time>
      </trkpt>
      <trkpt lat="47.69403" lon="-2.23421">
        <ele>66.47</ele>
        <time>2013-12-30T12:04:11Z</time>
      </trkpt>
      <trkpt lat="47.69403" lon="-2.23408">
        <ele>66.47</ele>
        <time>2013-12-30T12:04:13Z</time>
      </trkpt>
      <trkpt lat="47.69403" lon="-2.23388">
        <ele>65.99</ele>
        <time>2013-12-30T12:04:16Z</time>
      </trkpt>
      <trkpt lat="47.69401" lon="-2.23368">
        <ele>65.99</ele>
        <time>2013-12-30T12:04:19Z</time>
      </trkpt>
      <trkpt lat="47.69399" lon="-2.23354">
        <ele>65.51</ele>
        <time>2013-12-30T12:04:21Z</time>
      </trkpt>
      <trkpt lat="47.69398" lon="-2.23341">
        <ele>65.51</ele>
        <time>2013-12-30T12:04:23Z</time>
      </trkpt>
      <trkpt lat="47.69396" lon="-2.23324">
        <ele>65.51</ele>
        <time>2013-12-30T12:04:26Z</time>
      </trkpt>
      <trkpt lat="47.69396" lon="-2.23308">
        <ele>65.03</ele>
        <time>2013-12-30T12:04:29Z</time>
      </trkpt>
      <trkpt lat="47.69399" lon="-2.23295">
        <ele>64.55</ele>
        <time>2013-12-30T12:04:32Z</time>
      </trkpt>
      <trkpt lat="47.69406" lon="-2.23284">
        <ele>64.07</ele>
        <time>2013-12-30T12:04:35Z</time>
      </trkpt>
      <trkpt lat="47.69412" lon="-2.23272">
        <ele>64.07</ele>
        <time>2013-12-30T12:04:38Z</time>
      </trkpt>
      <trkpt lat="47.69419" lon="-2.23259">
        <ele>63.58</ele>
        <time>2013-12-30T12:04:41Z</time>
      </trkpt>
      <trkpt lat="47.69425" lon="-2.23243">
        <ele>63.58</ele>
        <time>2013-12-30T12:04:44Z</time>
      </trkpt>
      <trkpt lat="47.69427" lon="-2.23225">
        <ele>63.1</ele>
        <time>2013-12-30T12:04:47Z</time>
      </trkpt>
      <trkpt lat="47.69428" lon="-2.23207">
        <ele>62.62</ele>
        <time>2013-12-30T12:04:50Z</time>
      </trkpt>
      <trkpt lat="47.69429" lon="-2.23191">
        <ele>62.62</ele>
        <time>2013-12-30T12:04:53Z</time>
      </trkpt>
      <trkpt lat="47.69431" lon="-2.23175">
        <ele>62.62</ele>
        <time>2013-12-30T12:04:56Z</time>
      </trkpt>
      <trkpt lat="47.69431" lon="-2.23157">
        <ele>63.1</ele>
        <time>2013-12-30T12:04:59Z</time>
      </trkpt>
      <trkpt lat="47.69431" lon="-2.23132">
        <ele>63.58</ele>
        <time>2013-12-30T12:05:02Z</time>
      </trkpt>
      <trkpt lat="47.69431" lon="-2.2311">
        <ele>64.07</ele>
        <time>2013-12-30T12:05:05Z</time>
      </trkpt>
      <trkpt lat="47.69433" lon="-2.23095">
        <ele>64.07</ele>
        <time>2013-12-30T12:05:07Z</time>
      </trkpt>
      <trkpt lat="47.69435" lon="-2.23073">
        <ele>64.07</ele>
        <time>2013-12-30T12:05:10Z</time>
      </trkpt>
      <trkpt lat="47.69436" lon="-2.2305">
        <ele>65.03</ele>
        <time>2013-12-30T12:05:13Z</time>
      </trkpt>
      <trkpt lat="47.69437" lon="-2.23029">
        <ele>65.51</ele>
        <time>2013-12-30T12:05:16Z</time>
      </trkpt>
      <trkpt lat="47.69439" lon="-2.23016">
        <ele>65.51</ele>
        <time>2013-12-30T12:05:18Z</time>
      </trkpt>
      <trkpt lat="47.69443" lon="-2.23002">
        <ele>64.07</ele>
        <time>2013-12-30T12:05:20Z</time>
      </trkpt>
      <trkpt lat="47.69447" lon="-2.22981">
        <ele>63.58</ele>
        <time>2013-12-30T12:05:23Z</time>
      </trkpt>
      <trkpt lat="47.69448" lon="-2.22966">
        <ele>63.58</ele>
        <time>2013-12-30T12:05:25Z</time>
      </trkpt>
      <trkpt lat="47.69447" lon="-2.22951">
        <ele>63.1</ele>
        <time>2013-12-30T12:05:27Z</time>
      </trkpt>
      <trkpt lat="47.69446" lon="-2.22936">
        <ele>63.1</ele>
        <time>2013-12-30T12:05:29Z</time>
      </trkpt>
      <trkpt lat="47.69444" lon="-2.22922">
        <ele>63.1</ele>
        <time>2013-12-30T12:05:31Z</time>
      </trkpt>
      <trkpt lat="47.69443" lon="-2.22907">
        <ele>63.1</ele>
        <time>2013-12-30T12:05:33Z</time>
      </trkpt>
      <trkpt lat="47.69438" lon="-2.22888">
        <ele>63.58</ele>
        <time>2013-12-30T12:05:36Z</time>
      </trkpt>
      <trkpt lat="47.69434" lon="-2.22875">
        <ele>63.58</ele>
        <time>2013-12-30T12:05:38Z</time>
      </trkpt>
      <trkpt lat="47.6943" lon="-2.22863">
        <ele>63.58</ele>
        <time>2013-12-30T12:05:40Z</time>
      </trkpt>
      <trkpt lat="47.69427" lon="-2.22847">
        <ele>63.58</ele>
        <time>2013-12-30T12:05:43Z</time>
      </trkpt>
      <trkpt lat="47.69424" lon="-2.22829">
        <ele>64.07</ele>
        <time>2013-12-30T12:05:46Z</time>
      </trkpt>
      <trkpt lat="47.69422" lon="-2.22815">
        <ele>64.07</ele>
        <time>2013-12-30T12:05:48Z</time>
      </trkpt>
      <trkpt lat="47.6942" lon="-2.228">
        <ele>63.58</ele>
        <time>2013-12-30T12:05:50Z</time>
      </trkpt>
      <trkpt lat="47.69419" lon="-2.22784">
        <ele>63.58</ele>
        <time>2013-12-30T12:05:52Z</time>
      </trkpt>
      <trkpt lat="47.69418" lon="-2.22769">
        <ele>63.58</ele>
        <time>2013-12-30T12:05:54Z</time>
      </trkpt>
      <trkpt lat="47.69418" lon="-2.22753">
        <ele>63.58</ele>
        <time>2013-12-30T12:05:56Z</time>
      </trkpt>
      <trkpt lat="47.69417" lon="-2.22738">
        <ele>63.1</ele>
        <time>2013-12-30T12:05:58Z</time>
      </trkpt>
      <trkpt lat="47.69417" lon="-2.22722">
        <ele>63.1</ele>
        <time>2013-12-30T12:06:00Z</time>
      </trkpt>
      <trkpt lat="47.69416" lon="-2.22707">
        <ele>62.62</ele>
        <time>2013-12-30T12:06:02Z</time>
      </trkpt>
      <trkpt lat="47.69416" lon="-2.22692">
        <ele>62.62</ele>
        <time>2013-12-30T12:06:04Z</time>
      </trkpt>
      <trkpt lat="47.69415" lon="-2.22676">
        <ele>62.62</ele>
        <time>2013-12-30T12:06:06Z</time>
      </trkpt>
      <trkpt lat="47.69415" lon="-2.2266">
        <ele>62.14</ele>
        <time>2013-12-30T12:06:08Z</time>
      </trkpt>
      <trkpt lat="47.69413" lon="-2.22645">
        <ele>62.14</ele>
        <time>2013-12-30T12:06:10Z</time>
      </trkpt>
      <trkpt lat="47.69409" lon="-2.2263">
        <ele>61.66</ele>
        <time>2013-12-30T12:06:12Z</time>
      </trkpt>
      <trkpt lat="47.69403" lon="-2.22617">
        <ele>61.66</ele>
        <time>2013-12-30T12:06:14Z</time>
      </trkpt>
      <trkpt lat="47.69397" lon="-2.22605">
        <ele>61.66</ele>
        <time>2013-12-30T12:06:16Z</time>
      </trkpt>
      <trkpt lat="47.69391" lon="-2.22592">
        <ele>62.14</ele>
        <time>2013-12-30T12:06:18Z</time>
      </trkpt>
      <trkpt lat="47.69386" lon="-2.22578">
        <ele>62.14</ele>
        <time>2013-12-30T12:06:20Z</time>
      </trkpt>
      <trkpt lat="47.69382" lon="-2.22563">
        <ele>62.14</ele>
        <time>2013-12-30T12:06:22Z</time>
      </trkpt>
      <trkpt lat="47.6938" lon="-2.22547">
        <ele>62.62</ele>
        <time>2013-12-30T12:06:24Z</time>
      </trkpt>
      <trkpt lat="47.6938" lon="-2.22531">
        <ele>62.62</ele>
        <time>2013-12-30T12:06:26Z</time>
      </trkpt>
      <trkpt lat="47.6938" lon="-2.22515">
        <ele>62.62</ele>
        <time>2013-12-30T12:06:28Z</time>
      </trkpt>
      <trkpt lat="47.69381" lon="-2.22499">
        <ele>63.1</ele>
        <time>2013-12-30T12:06:30Z</time>
      </trkpt>
      <trkpt lat="47.69382" lon="-2.22482">
        <ele>62.62</ele>
        <time>2013-12-30T12:06:32Z</time>
      </trkpt>
      <trkpt lat="47.69382" lon="-2.22465">
        <ele>62.62</ele>
        <time>2013-12-30T12:06:34Z</time>
      </trkpt>
      <trkpt lat="47.69383" lon="-2.2245">
        <ele>62.14</ele>
        <time>2013-12-30T12:06:36Z</time>
      </trkpt>
      <trkpt lat="47.69383" lon="-2.22433">
        <ele>61.66</ele>
        <time>2013-12-30T12:06:38Z</time>
      </trkpt>
      <trkpt lat="47.69382" lon="-2.22418">
        <ele>62.14</ele>
        <time>2013-12-30T12:06:40Z</time>
      </trkpt>
      <trkpt lat="47.6938" lon="-2.22402">
        <ele>62.14</ele>
        <time>2013-12-30T12:06:42Z</time>
      </trkpt>
      <trkpt lat="47.69379" lon="-2.22386">
        <ele>62.62</ele>
        <time>2013-12-30T12:06:44Z</time>
      </trkpt>
      <trkpt lat="47.69375" lon="-2.22372">
        <ele>62.62</ele>
        <time>2013-12-30T12:06:46Z</time>
      </trkpt>
      <trkpt lat="47.69371" lon="-2.22351">
        <ele>63.58</ele>
        <time>2013-12-30T12:06:49Z</time>
      </trkpt>
      <trkpt lat="47.69368" lon="-2.22336">
        <ele>64.07</ele>
        <time>2013-12-30T12:06:51Z</time>
      </trkpt>
      <trkpt lat="47.69365" lon="-2.2232">
        <ele>64.07</ele>
        <time>2013-12-30T12:06:53Z</time>
      </trkpt>
      <trkpt lat="47.69362" lon="-2.22304">
        <ele>64.07</ele>
        <time>2013-12-30T12:06:55Z</time>
      </trkpt>
      <trkpt lat="47.69359" lon="-2.22288">
        <ele>64.07</ele>
        <time>2013-12-30T12:06:57Z</time>
      </trkpt>
      <trkpt lat="47.69355" lon="-2.22272">
        <ele>63.58</ele>
        <time>2013-12-30T12:06:59Z</time>
      </trkpt>
      <trkpt lat="47.69351" lon="-2.22256">
        <ele>63.1</ele>
        <time>2013-12-30T12:07:01Z</time>
      </trkpt>
      <trkpt lat="47.69346" lon="-2.22239">
        <ele>63.1</ele>
        <time>2013-12-30T12:07:03Z</time>
      </trkpt>
      <trkpt lat="47.6934" lon="-2.22222">
        <ele>62.62</ele>
        <time>2013-12-30T12:07:05Z</time>
      </trkpt>
      <trkpt lat="47.69334" lon="-2.22206">
        <ele>62.14</ele>
        <time>2013-12-30T12:07:07Z</time>
      </trkpt>
      <trkpt lat="47.69328" lon="-2.2219">
        <ele>61.66</ele>
        <time>2013-12-30T12:07:09Z</time>
      </trkpt>
      <trkpt lat="47.69321" lon="-2.22175">
        <ele>61.18</ele>
        <time>2013-12-30T12:07:11Z</time>
      </trkpt>
      <trkpt lat="47.69314" lon="-2.22159">
        <ele>61.18</ele>
        <time>2013-12-30T12:07:13Z</time>
      </trkpt>
      <trkpt lat="47.69306" lon="-2.22145">
        <ele>60.7</ele>
        <time>2013-12-30T12:07:15Z</time>
      </trkpt>
      <trkpt lat="47.69299" lon="-2.2213">
        <ele>60.7</ele>
        <time>2013-12-30T12:07:17Z</time>
      </trkpt>
      <trkpt lat="47.69292" lon="-2.22115">
        <ele>60.7</ele>
        <time>2013-12-30T12:07:19Z</time>
      </trkpt>
      <trkpt lat="47.69284" lon="-2.22101">
        <ele>60.22</ele>
        <time>2013-12-30T12:07:21Z</time>
      </trkpt>
      <trkpt lat="47.69277" lon="-2.22088">
        <ele>60.22</ele>
        <time>2013-12-30T12:07:23Z</time>
      </trkpt>
      <trkpt lat="47.6927" lon="-2.22073">
        <ele>60.22</ele>
        <time>2013-12-30T12:07:25Z</time>
      </trkpt>
      <trkpt lat="47.69263" lon="-2.2206">
        <ele>59.74</ele>
        <time>2013-12-30T12:07:27Z</time>
      </trkpt>
      <trkpt lat="47.69256" lon="-2.22048">
        <ele>59.26</ele>
        <time>2013-12-30T12:07:29Z</time>
      </trkpt>
      <trkpt lat="47.6925" lon="-2.22037">
        <ele>58.3</ele>
        <time>2013-12-30T12:07:31Z</time>
      </trkpt>
      <trkpt lat="47.6924" lon="-2.22024">
        <ele>58.3</ele>
        <time>2013-12-30T12:07:34Z</time>
      </trkpt>
      <trkpt lat="47.69229" lon="-2.22013">
        <ele>58.3</ele>
        <time>2013-12-30T12:07:37Z</time>
      </trkpt>
      <trkpt lat="47.69219" lon="-2.22008">
        <ele>58.78</ele>
        <time>2013-12-30T12:07:39Z</time>
      </trkpt>
      <trkpt lat="47.69208" lon="-2.22003">
        <ele>58.78</ele>
        <time>2013-12-30T12:07:41Z</time>
      </trkpt>
      <trkpt lat="47.69197" lon="-2.21997">
        <ele>58.3</ele>
        <time>2013-12-30T12:07:43Z</time>
      </trkpt>
      <trkpt lat="47.69185" lon="-2.21991">
        <ele>57.82</ele>
        <time>2013-12-30T12:07:45Z</time>
      </trkpt>
      <trkpt lat="47.69172" lon="-2.21985">
        <ele>56.86</ele>
        <time>2013-12-30T12:07:47Z</time>
      </trkpt>
      <trkpt lat="47.6916" lon="-2.21979">
        <ele>56.37</ele>
        <time>2013-12-30T12:07:49Z</time>
      </trkpt>
      <trkpt lat="47.69148" lon="-2.21973">
        <ele>55.41</ele>
        <time>2013-12-30T12:07:51Z</time>
      </trkpt>
      <trkpt lat="47.69136" lon="-2.21968">
        <ele>54.93</ele>
        <time>2013-12-30T12:07:53Z</time>
      </trkpt>
      <trkpt lat="47.69125" lon="-2.21963">
        <ele>53.97</ele>
        <time>2013-12-30T12:07:55Z</time>
      </trkpt>
      <trkpt lat="47.69114" lon="-2.21957">
        <ele>53.49</ele>
        <time>2013-12-30T12:07:57Z</time>
      </trkpt>
      <trkpt lat="47.69103" lon="-2.21951">
        <ele>53.01</ele>
        <time>2013-12-30T12:07:59Z</time>
      </trkpt>
      <trkpt lat="47.69091" lon="-2.21946">
        <ele>52.53</ele>
        <time>2013-12-30T12:08:01Z</time>
      </trkpt>
      <trkpt lat="47.69079" lon="-2.2194">
        <ele>51.57</ele>
        <time>2013-12-30T12:08:03Z</time>
      </trkpt>
      <trkpt lat="47.69066" lon="-2.21934">
        <ele>51.09</ele>
        <time>2013-12-30T12:08:05Z</time>
      </trkpt>
      <trkpt lat="47.69054" lon="-2.21927">
        <ele>50.61</ele>
        <time>2013-12-30T12:08:07Z</time>
      </trkpt>
      <trkpt lat="47.69041" lon="-2.21921">
        <ele>50.13</ele>
        <time>2013-12-30T12:08:09Z</time>
      </trkpt>
      <trkpt lat="47.69029" lon="-2.21915">
        <ele>49.65</ele>
        <time>2013-12-30T12:08:11Z</time>
      </trkpt>
      <trkpt lat="47.69018" lon="-2.21909">
        <ele>49.65</ele>
        <time>2013-12-30T12:08:13Z</time>
      </trkpt>
      <trkpt lat="47.69009" lon="-2.21904">
        <ele>49.16</ele>
        <time>2013-12-30T12:08:15Z</time>
      </trkpt>
      <trkpt lat="47.68999" lon="-2.21899">
        <ele>49.16</ele>
        <time>2013-12-30T12:08:17Z</time>
      </trkpt>
      <trkpt lat="47.6899" lon="-2.21892">
        <ele>49.16</ele>
        <time>2013-12-30T12:08:19Z</time>
      </trkpt>
      <trkpt lat="47.68981" lon="-2.21884">
        <ele>49.16</ele>
        <time>2013-12-30T12:08:21Z</time>
      </trkpt>
      <trkpt lat="47.68972" lon="-2.21875">
        <ele>49.65</ele>
        <time>2013-12-30T12:08:23Z</time>
      </trkpt>
      <trkpt lat="47.68963" lon="-2.21865">
        <ele>49.65</ele>
        <time>2013-12-30T12:08:25Z</time>
      </trkpt>
      <trkpt lat="47.68954" lon="-2.21856">
        <ele>49.65</ele>
        <time>2013-12-30T12:08:27Z</time>
      </trkpt>
      <trkpt lat="47.68946" lon="-2.21846">
        <ele>49.65</ele>
        <time>2013-12-30T12:08:29Z</time>
      </trkpt>
      <trkpt lat="47.68938" lon="-2.21836">
        <ele>49.65</ele>
        <time>2013-12-30T12:08:31Z</time>
      </trkpt>
      <trkpt lat="47.6893" lon="-2.21827">
        <ele>50.13</ele>
        <time>2013-12-30T12:08:33Z</time>
      </trkpt>
      <trkpt lat="47.68922" lon="-2.21817">
        <ele>50.61</ele>
        <time>2013-12-30T12:08:35Z</time>
      </trkpt>
      <trkpt lat="47.68915" lon="-2.21808">
        <ele>50.61</ele>
        <time>2013-12-30T12:08:37Z</time>
      </trkpt>
      <trkpt lat="47.68907" lon="-2.21799">
        <ele>51.09</ele>
        <time>2013-12-30T12:08:39Z</time>
      </trkpt>
      <trkpt lat="47.68899" lon="-2.2179">
        <ele>51.09</ele>
        <time>2013-12-30T12:08:41Z</time>
      </trkpt>
      <trkpt lat="47.68891" lon="-2.21781">
        <ele>51.57</ele>
        <time>2013-12-30T12:08:43Z</time>
      </trkpt>
      <trkpt lat="47.68883" lon="-2.21772">
        <ele>51.09</ele>
        <time>2013-12-30T12:08:45Z</time>
      </trkpt>
      <trkpt lat="47.68875" lon="-2.21764">
        <ele>51.09</ele>
        <time>2013-12-30T12:08:47Z</time>
      </trkpt>
      <trkpt lat="47.68867" lon="-2.21755">
        <ele>51.57</ele>
        <time>2013-12-30T12:08:49Z</time>
      </trkpt>
      <trkpt lat="47.68859" lon="-2.21748">
        <ele>51.57</ele>
        <time>2013-12-30T12:08:51Z</time>
      </trkpt>
      <trkpt lat="47.68851" lon="-2.21739">
        <ele>52.05</ele>
        <time>2013-12-30T12:08:53Z</time>
      </trkpt>
      <trkpt lat="47.68843" lon="-2.21731">
        <ele>52.05</ele>
        <time>2013-12-30T12:08:55Z</time>
      </trkpt>
      <trkpt lat="47.68835" lon="-2.21724">
        <ele>52.05</ele>
        <time>2013-12-30T12:08:57Z</time>
      </trkpt>
      <trkpt lat="47.68827" lon="-2.21716">
        <ele>51.57</ele>
        <time>2013-12-30T12:08:59Z</time>
      </trkpt>
      <trkpt lat="47.68819" lon="-2.21707">
        <ele>52.05</ele>
        <time>2013-12-30T12:09:01Z</time>
      </trkpt>
      <trkpt lat="47.68811" lon="-2.21699">
        <ele>51.57</ele>
        <time>2013-12-30T12:09:03Z</time>
      </trkpt>
      <trkpt lat="47.68803" lon="-2.21691">
        <ele>50.61</ele>
        <time>2013-12-30T12:09:05Z</time>
      </trkpt>
      <trkpt lat="47.68795" lon="-2.21683">
        <ele>50.13</ele>
        <time>2013-12-30T12:09:07Z</time>
      </trkpt>
      <trkpt lat="47.68787" lon="-2.21675">
        <ele>50.13</ele>
        <time>2013-12-30T12:09:09Z</time>
      </trkpt>
      <trkpt lat="47.68779" lon="-2.21666">
        <ele>50.13</ele>
        <time>2013-12-30T12:09:11Z</time>
      </trkpt>
      <trkpt lat="47.68769" lon="-2.21656">
        <ele>50.13</ele>
        <time>2013-12-30T12:09:14Z</time>
      </trkpt>
      <trkpt lat="47.68761" lon="-2.21648">
        <ele>50.61</ele>
        <time>2013-12-30T12:09:17Z</time>
      </trkpt>
      <trkpt lat="47.68759" lon="-2.2166">
        <ele>50.61</ele>
        <time>2013-12-30T12:09:21Z</time>
      </trkpt>
      <trkpt lat="47.68761" lon="-2.21676">
        <ele>50.13</ele>
        <time>2013-12-30T12:09:25Z</time>
      </trkpt>
      <trkpt lat="47.68763" lon="-2.2169">
        <ele>50.61</ele>
        <time>2013-12-30T12:09:28Z</time>
      </trkpt>
      <trkpt lat="47.68759" lon="-2.21702">
        <ele>50.61</ele>
        <time>2013-12-30T12:09:31Z</time>
      </trkpt>
      <trkpt lat="47.68747" lon="-2.21706">
        <ele>50.61</ele>
        <time>2013-12-30T12:09:35Z</time>
      </trkpt>
      <trkpt lat="47.68735" lon="-2.21706">
        <ele>51.57</ele>
        <time>2013-12-30T12:09:38Z</time>
      </trkpt>
      <trkpt lat="47.68722" lon="-2.21706">
        <ele>52.05</ele>
        <time>2013-12-30T12:09:41Z</time>
      </trkpt>
      <trkpt lat="47.68708" lon="-2.21706">
        <ele>52.53</ele>
        <time>2013-12-30T12:09:44Z</time>
      </trkpt>
      <trkpt lat="47.687" lon="-2.21707">
        <ele>53.01</ele>
        <time>2013-12-30T12:09:46Z</time>
      </trkpt>
      <trkpt lat="47.68686" lon="-2.21707">
        <ele>53.01</ele>
        <time>2013-12-30T12:09:49Z</time>
      </trkpt>
      <trkpt lat="47.68673" lon="-2.21707">
        <ele>52.53</ele>
        <time>2013-12-30T12:09:52Z</time>
      </trkpt>
      <trkpt lat="47.68664" lon="-2.21707">
        <ele>52.53</ele>
        <time>2013-12-30T12:09:54Z</time>
      </trkpt>
      <trkpt lat="47.68654" lon="-2.21708">
        <ele>52.53</ele>
        <time>2013-12-30T12:09:56Z</time>
      </trkpt>
      <trkpt lat="47.68645" lon="-2.21708">
        <ele>52.53</ele>
        <time>2013-12-30T12:09:58Z</time>
      </trkpt>
      <trkpt lat="47.68636" lon="-2.21708">
        <ele>52.53</ele>
        <time>2013-12-30T12:10:00Z</time>
      </trkpt>
      <trkpt lat="47.68627" lon="-2.21708">
        <ele>52.05</ele>
        <time>2013-12-30T12:10:02Z</time>
      </trkpt>
      <trkpt lat="47.68614" lon="-2.21709">
        <ele>52.05</ele>
        <time>2013-12-30T12:10:05Z</time>
      </trkpt>
      <trkpt lat="47.68602" lon="-2.2171">
        <ele>52.05</ele>
        <time>2013-12-30T12:10:08Z</time>
      </trkpt>
      <trkpt lat="47.68591" lon="-2.21713">
        <ele>51.57</ele>
        <time>2013-12-30T12:10:11Z</time>
      </trkpt>
      <trkpt lat="47.68582" lon="-2.21716">
        <ele>51.09</ele>
        <time>2013-12-30T12:10:14Z</time>
      </trkpt>
    </trkseg>
  </trk>
</gpx>